<?xml version='1.0' encoding='UTF-8'?><gpx version="1.1" creator="JPX - https://github.com/jenetics/jpx" xmlns="http://www.topografix.com/GPX/1/1"><trk><trkseg><trkpt lat="44.1829567" lon="11.7000783"><ele>153.0</ele><time>2026-04-12T07:44:04.267Z</time></trkpt><trkpt lat="44.18297" lon="11.6999783"><ele>153.0</ele><time>2026-04-12T07:44:16.267Z</time></trkpt><trkpt lat="44.1830267" lon="11.6998833"><ele>153.0</ele><time>2026-04-12T07:44:22.269Z</time></trkpt><trkpt lat="44.1830033" lon="11.6997667"><ele>153.0</ele><time>2026-04-12T07:44:26.266Z</time></trkpt><trkpt lat="44.18294" lon="11.6996633"><ele>153.0</ele><time>2026-04-12T07:44:28.267Z</time></trkpt><trkpt lat="44.182835" lon="11.6995617"><ele>153.0</ele><time>2026-04-12T07:44:30.267Z</time></trkpt><trkpt lat="44.1827483" lon="11.6994967"><ele>153.0</ele><time>2026-04-12T07:44:31.267Z</time></trkpt><trkpt lat="44.18264" lon="11.69942"><ele>153.0</ele><time>2026-04-12T07:44:32.266Z</time></trkpt><trkpt lat="44.1825283" lon="11.6993233"><ele>153.0</ele><time>2026-04-12T07:44:33.267Z</time></trkpt><trkpt lat="44.182425" lon="11.699235"><ele>155.25</ele><time>2026-04-12T07:44:34.267Z</time></trkpt><trkpt lat="44.18232" lon="11.699155"><ele>157.5</ele><time>2026-04-12T07:44:35.267Z</time></trkpt><trkpt lat="44.18222" lon="11.6990683"><ele>159.75</ele><time>2026-04-12T07:44:36.267Z</time></trkpt><trkpt lat="44.1821117" lon="11.6989833"><ele>162.0</ele><time>2026-04-12T07:44:37.268Z</time></trkpt><trkpt lat="44.181995" lon="11.6988867"><ele>162.0</ele><time>2026-04-12T07:44:38.267Z</time></trkpt><trkpt lat="44.1818517" lon="11.6987617"><ele>162.0</ele><time>2026-04-12T07:44:39.266Z</time></trkpt><trkpt lat="44.1817183" lon="11.6986267"><ele>162.0</ele><time>2026-04-12T07:44:40.266Z</time></trkpt><trkpt lat="44.1815767" lon="11.6984817"><ele>162.0</ele><time>2026-04-12T07:44:41.267Z</time></trkpt><trkpt lat="44.1814367" lon="11.6983217"><ele>162.0</ele><time>2026-04-12T07:44:42.267Z</time></trkpt><trkpt lat="44.1813117" lon="11.6981583"><ele>162.0</ele><time>2026-04-12T07:44:43.268Z</time></trkpt><trkpt lat="44.181185" lon="11.697995"><ele>162.0</ele><time>2026-04-12T07:44:44.267Z</time></trkpt><trkpt lat="44.1810667" lon="11.69782"><ele>162.0</ele><time>2026-04-12T07:44:45.268Z</time></trkpt><trkpt lat="44.1809533" lon="11.6976383"><ele>162.0</ele><time>2026-04-12T07:44:46.266Z</time></trkpt><trkpt lat="44.18085" lon="11.69745"><ele>162.5</ele><time>2026-04-12T07:44:47.268Z</time></trkpt><trkpt lat="44.1807583" lon="11.6972717"><ele>163.0</ele><time>2026-04-12T07:44:48.266Z</time></trkpt><trkpt lat="44.1806783" lon="11.697115"><ele>163.5</ele><time>2026-04-12T07:44:49.267Z</time></trkpt><trkpt lat="44.1806083" lon="11.696985"><ele>164.0</ele><time>2026-04-12T07:44:50.266Z</time></trkpt><trkpt lat="44.180555" lon="11.6968833"><ele>162.79999999999998</ele><time>2026-04-12T07:44:51.268Z</time></trkpt><trkpt lat="44.1805083" lon="11.6967933"><ele>161.6</ele><time>2026-04-12T07:44:52.266Z</time></trkpt><trkpt lat="44.1804767" lon="11.6967133"><ele>160.4</ele><time>2026-04-12T07:44:53.267Z</time></trkpt><trkpt lat="44.1804767" lon="11.6965833"><ele>159.2</ele><time>2026-04-12T07:44:55.267Z</time></trkpt><trkpt lat="44.180555" lon="11.69641"><ele>158.0</ele><time>2026-04-12T07:44:57.266Z</time></trkpt><trkpt lat="44.1806167" lon="11.696295"><ele>158.0</ele><time>2026-04-12T07:44:58.266Z</time></trkpt><trkpt lat="44.180665" lon="11.696165"><ele>158.0</ele><time>2026-04-12T07:44:59.267Z</time></trkpt><trkpt lat="44.180705" lon="11.696035"><ele>158.0</ele><time>2026-04-12T07:45:00.267Z</time></trkpt><trkpt lat="44.1807317" lon="11.6959133"><ele>158.0</ele><time>2026-04-12T07:45:01.268Z</time></trkpt><trkpt lat="44.1807533" lon="11.695795"><ele>158.0</ele><time>2026-04-12T07:45:02.266Z</time></trkpt><trkpt lat="44.1807683" lon="11.6956833"><ele>159.33333333333331</ele><time>2026-04-12T07:45:03.267Z</time></trkpt><trkpt lat="44.1807667" lon="11.695595"><ele>160.66666666666666</ele><time>2026-04-12T07:45:04.268Z</time></trkpt><trkpt lat="44.1807417" lon="11.69551"><ele>162.0</ele><time>2026-04-12T07:45:05.267Z</time></trkpt><trkpt lat="44.18069" lon="11.6954217"><ele>163.33333333333334</ele><time>2026-04-12T07:45:06.267Z</time></trkpt><trkpt lat="44.180625" lon="11.695325"><ele>164.66666666666669</ele><time>2026-04-12T07:45:07.266Z</time></trkpt><trkpt lat="44.18055" lon="11.6951867"><ele>166.0</ele><time>2026-04-12T07:45:08.268Z</time></trkpt><trkpt lat="44.1804833" lon="11.695035"><ele>167.60000000000002</ele><time>2026-04-12T07:45:09.267Z</time></trkpt><trkpt lat="44.1804267" lon="11.6948783"><ele>169.2</ele><time>2026-04-12T07:45:10.267Z</time></trkpt><trkpt lat="44.1803733" lon="11.6947433"><ele>170.8</ele><time>2026-04-12T07:45:11.266Z</time></trkpt><trkpt lat="44.1803367" lon="11.6946167"><ele>172.39999999999998</ele><time>2026-04-12T07:45:12.266Z</time></trkpt><trkpt lat="44.1803067" lon="11.69449"><ele>174.0</ele><time>2026-04-12T07:45:13.266Z</time></trkpt><trkpt lat="44.180285" lon="11.69437"><ele>174.79999999999998</ele><time>2026-04-12T07:45:14.268Z</time></trkpt><trkpt lat="44.1802783" lon="11.6942583"><ele>175.6</ele><time>2026-04-12T07:45:15.267Z</time></trkpt><trkpt lat="44.1802867" lon="11.694145"><ele>176.4</ele><time>2026-04-12T07:45:16.266Z</time></trkpt><trkpt lat="44.1803033" lon="11.6940233"><ele>177.2</ele><time>2026-04-12T07:45:17.265Z</time></trkpt><trkpt lat="44.18034" lon="11.6938967"><ele>178.0</ele><time>2026-04-12T07:45:18.267Z</time></trkpt><trkpt lat="44.1803883" lon="11.6937717"><ele>178.0</ele><time>2026-04-12T07:45:19.267Z</time></trkpt><trkpt lat="44.1804467" lon="11.69366"><ele>178.0</ele><time>2026-04-12T07:45:20.268Z</time></trkpt><trkpt lat="44.1805267" lon="11.6935417"><ele>178.0</ele><time>2026-04-12T07:45:21.268Z</time></trkpt><trkpt lat="44.1806117" lon="11.6934383"><ele>178.0</ele><time>2026-04-12T07:45:22.267Z</time></trkpt><trkpt lat="44.1806983" lon="11.69334"><ele>178.0</ele><time>2026-04-12T07:45:23.266Z</time></trkpt><trkpt lat="44.1807733" lon="11.6932417"><ele>180.2</ele><time>2026-04-12T07:45:24.267Z</time></trkpt><trkpt lat="44.1808383" lon="11.6931333"><ele>182.4</ele><time>2026-04-12T07:45:25.266Z</time></trkpt><trkpt lat="44.1808917" lon="11.6930167"><ele>184.6</ele><time>2026-04-12T07:45:26.267Z</time></trkpt><trkpt lat="44.18093" lon="11.6929017"><ele>186.79999999999998</ele><time>2026-04-12T07:45:27.268Z</time></trkpt><trkpt lat="44.180965" lon="11.6927633"><ele>189.0</ele><time>2026-04-12T07:45:28.267Z</time></trkpt><trkpt lat="44.1810017" lon="11.692625"><ele>189.0</ele><time>2026-04-12T07:45:29.266Z</time></trkpt><trkpt lat="44.1810333" lon="11.69251"><ele>189.0</ele><time>2026-04-12T07:45:30.267Z</time></trkpt><trkpt lat="44.181055" lon="11.6924017"><ele>189.0</ele><time>2026-04-12T07:45:31.267Z</time></trkpt><trkpt lat="44.181075" lon="11.6923"><ele>189.0</ele><time>2026-04-12T07:45:32.266Z</time></trkpt><trkpt lat="44.1810883" lon="11.6922117"><ele>189.0</ele><time>2026-04-12T07:45:33.267Z</time></trkpt><trkpt lat="44.181095" lon="11.6920633"><ele>189.0</ele><time>2026-04-12T07:45:35.266Z</time></trkpt><trkpt lat="44.181115" lon="11.69195"><ele>190.0</ele><time>2026-04-12T07:45:37.267Z</time></trkpt><trkpt lat="44.18116" lon="11.6918"><ele>191.0</ele><time>2026-04-12T07:45:39.267Z</time></trkpt><trkpt lat="44.1811817" lon="11.6917133"><ele>192.0</ele><time>2026-04-12T07:45:40.267Z</time></trkpt><trkpt lat="44.1811617" lon="11.6915683"><ele>193.0</ele><time>2026-04-12T07:45:42.268Z</time></trkpt><trkpt lat="44.181155" lon="11.6914667"><ele>194.0</ele><time>2026-04-12T07:45:43.266Z</time></trkpt><trkpt lat="44.1811367" lon="11.691365"><ele>195.0</ele><time>2026-04-12T07:45:44.268Z</time></trkpt><trkpt lat="44.1811267" lon="11.6912567"><ele>195.0</ele><time>2026-04-12T07:45:45.267Z</time></trkpt><trkpt lat="44.1811167" lon="11.6911333"><ele>195.0</ele><time>2026-04-12T07:45:46.266Z</time></trkpt><trkpt lat="44.1811067" lon="11.690985"><ele>195.0</ele><time>2026-04-12T07:45:47.267Z</time></trkpt><trkpt lat="44.1811183" lon="11.6908767"><ele>195.0</ele><time>2026-04-12T07:45:48.267Z</time></trkpt><trkpt lat="44.18113" lon="11.6907717"><ele>195.0</ele><time>2026-04-12T07:45:49.267Z</time></trkpt><trkpt lat="44.18113" lon="11.69062"><ele>196.6</ele><time>2026-04-12T07:45:51.267Z</time></trkpt><trkpt lat="44.1810683" lon="11.6905767"><ele>198.2</ele><time>2026-04-12T07:45:54.266Z</time></trkpt><trkpt lat="44.1810183" lon="11.69069"><ele>199.8</ele><time>2026-04-12T07:45:57.267Z</time></trkpt><trkpt lat="44.180975" lon="11.690865"><ele>201.4</ele><time>2026-04-12T07:45:59.267Z</time></trkpt><trkpt lat="44.18094" lon="11.6909683"><ele>203.0</ele><time>2026-04-12T07:46:00.267Z</time></trkpt><trkpt lat="44.1808867" lon="11.6910717"><ele>201.4</ele><time>2026-04-12T07:46:01.266Z</time></trkpt><trkpt lat="44.1808233" lon="11.69117"><ele>199.8</ele><time>2026-04-12T07:46:02.267Z</time></trkpt><trkpt lat="44.1807117" lon="11.69126"><ele>198.2</ele><time>2026-04-12T07:46:03.267Z</time></trkpt><trkpt lat="44.1806267" lon="11.69134"><ele>196.6</ele><time>2026-04-12T07:46:04.267Z</time></trkpt><trkpt lat="44.1805517" lon="11.6914083"><ele>195.0</ele><time>2026-04-12T07:46:05.266Z</time></trkpt><trkpt lat="44.1804733" lon="11.6914767"><ele>198.0</ele><time>2026-04-12T07:46:06.267Z</time></trkpt><trkpt lat="44.1804033" lon="11.6915417"><ele>201.0</ele><time>2026-04-12T07:46:07.268Z</time></trkpt><trkpt lat="44.180335" lon="11.6916083"><ele>204.0</ele><time>2026-04-12T07:46:08.27Z</time></trkpt><trkpt lat="44.18027" lon="11.691685"><ele>207.0</ele><time>2026-04-12T07:46:09.267Z</time></trkpt><trkpt lat="44.1802117" lon="11.691765"><ele>210.0</ele><time>2026-04-12T07:46:10.266Z</time></trkpt><trkpt lat="44.180155" lon="11.6918283"><ele>213.0</ele><time>2026-04-12T07:46:11.266Z</time></trkpt><trkpt lat="44.1800967" lon="11.6918783"><ele>213.0</ele><time>2026-04-12T07:46:12.266Z</time></trkpt><trkpt lat="44.179995" lon="11.6919033"><ele>213.0</ele><time>2026-04-12T07:46:14.266Z</time></trkpt><trkpt lat="44.1799183" lon="11.691865"><ele>213.0</ele><time>2026-04-12T07:46:16.266Z</time></trkpt><trkpt lat="44.1799267" lon="11.6916983"><ele>213.0</ele><time>2026-04-12T07:46:18.266Z</time></trkpt><trkpt lat="44.1799517" lon="11.6915933"><ele>213.0</ele><time>2026-04-12T07:46:19.267Z</time></trkpt><trkpt lat="44.1799783" lon="11.69149"><ele>213.0</ele><time>2026-04-12T07:46:20.266Z</time></trkpt><trkpt lat="44.1800267" lon="11.6913467"><ele>213.0</ele><time>2026-04-12T07:46:21.266Z</time></trkpt><trkpt lat="44.180095" lon="11.6911817"><ele>213.0</ele><time>2026-04-12T07:46:22.268Z</time></trkpt><trkpt lat="44.1801717" lon="11.69104"><ele>213.0</ele><time>2026-04-12T07:46:23.266Z</time></trkpt><trkpt lat="44.1802483" lon="11.69091"><ele>216.0</ele><time>2026-04-12T07:46:24.267Z</time></trkpt><trkpt lat="44.1803317" lon="11.6907533"><ele>219.0</ele><time>2026-04-12T07:46:25.267Z</time></trkpt><trkpt lat="44.1803933" lon="11.6906117"><ele>222.0</ele><time>2026-04-12T07:46:26.266Z</time></trkpt><trkpt lat="44.1804483" lon="11.690435"><ele>225.0</ele><time>2026-04-12T07:46:27.268Z</time></trkpt><trkpt lat="44.1805033" lon="11.69023"><ele>221.75</ele><time>2026-04-12T07:46:28.267Z</time></trkpt><trkpt lat="44.1805817" lon="11.69003"><ele>218.5</ele><time>2026-04-12T07:46:29.266Z</time></trkpt><trkpt lat="44.180655" lon="11.6898817"><ele>215.25</ele><time>2026-04-12T07:46:30.266Z</time></trkpt><trkpt lat="44.1807183" lon="11.68975"><ele>212.0</ele><time>2026-04-12T07:46:31.268Z</time></trkpt><trkpt lat="44.1807933" lon="11.6896233"><ele>212.0</ele><time>2026-04-12T07:46:32.266Z</time></trkpt><trkpt lat="44.1808733" lon="11.6894933"><ele>212.0</ele><time>2026-04-12T07:46:33.267Z</time></trkpt><trkpt lat="44.180945" lon="11.68936"><ele>212.0</ele><time>2026-04-12T07:46:34.266Z</time></trkpt><trkpt lat="44.1810217" lon="11.689225"><ele>212.0</ele><time>2026-04-12T07:46:35.266Z</time></trkpt><trkpt lat="44.1810917" lon="11.6890967"><ele>216.0</ele><time>2026-04-12T07:46:36.267Z</time></trkpt><trkpt lat="44.18116" lon="11.6889783"><ele>220.0</ele><time>2026-04-12T07:46:37.268Z</time></trkpt><trkpt lat="44.1812483" lon="11.6888767"><ele>224.0</ele><time>2026-04-12T07:46:38.267Z</time></trkpt><trkpt lat="44.1813467" lon="11.6887833"><ele>228.0</ele><time>2026-04-12T07:46:39.267Z</time></trkpt><trkpt lat="44.1814733" lon="11.6886583"><ele>228.33333333333331</ele><time>2026-04-12T07:46:40.268Z</time></trkpt><trkpt lat="44.1815967" lon="11.68853"><ele>228.66666666666666</ele><time>2026-04-12T07:46:41.267Z</time></trkpt><trkpt lat="44.1817233" lon="11.6884083"><ele>229.0</ele><time>2026-04-12T07:46:42.266Z</time></trkpt><trkpt lat="44.1818717" lon="11.6883117"><ele>229.0</ele><time>2026-04-12T07:46:43.271Z</time></trkpt><trkpt lat="44.181985" lon="11.6882467"><ele>228.99999999999997</ele><time>2026-04-12T07:46:44.266Z</time></trkpt><trkpt lat="44.18208" lon="11.6881967"><ele>228.99999999999997</ele><time>2026-04-12T07:46:45.267Z</time></trkpt><trkpt lat="44.18216" lon="11.6881433"><ele>229.0</ele><time>2026-04-12T07:46:46.266Z</time></trkpt><trkpt lat="44.1822283" lon="11.688075"><ele>229.0</ele><time>2026-04-12T07:46:47.267Z</time></trkpt><trkpt lat="44.1822917" lon="11.6879983"><ele>230.2</ele><time>2026-04-12T07:46:48.266Z</time></trkpt><trkpt lat="44.182355" lon="11.6878967"><ele>231.39999999999998</ele><time>2026-04-12T07:46:49.267Z</time></trkpt><trkpt lat="44.1824117" lon="11.6877917"><ele>232.6</ele><time>2026-04-12T07:46:50.267Z</time></trkpt><trkpt lat="44.18248" lon="11.6876933"><ele>233.8</ele><time>2026-04-12T07:46:51.267Z</time></trkpt><trkpt lat="44.1825483" lon="11.6876067"><ele>235.0</ele><time>2026-04-12T07:46:52.266Z</time></trkpt><trkpt lat="44.1826133" lon="11.6875367"><ele>235.0</ele><time>2026-04-12T07:46:53.267Z</time></trkpt><trkpt lat="44.1826867" lon="11.6874917"><ele>235.0</ele><time>2026-04-12T07:46:54.267Z</time></trkpt><trkpt lat="44.182785" lon="11.687465"><ele>235.0</ele><time>2026-04-12T07:46:55.268Z</time></trkpt><trkpt lat="44.182895" lon="11.6874433"><ele>235.0</ele><time>2026-04-12T07:46:56.267Z</time></trkpt><trkpt lat="44.183" lon="11.68742"><ele>235.0</ele><time>2026-04-12T07:46:57.276Z</time></trkpt><trkpt lat="44.1831067" lon="11.68738"><ele>234.0</ele><time>2026-04-12T07:46:58.267Z</time></trkpt><trkpt lat="44.18322" lon="11.68734"><ele>233.0</ele><time>2026-04-12T07:46:59.267Z</time></trkpt><trkpt lat="44.1833417" lon="11.6872767"><ele>232.0</ele><time>2026-04-12T07:47:00.267Z</time></trkpt><trkpt lat="44.1834517" lon="11.6872233"><ele>231.0</ele><time>2026-04-12T07:47:01.267Z</time></trkpt><trkpt lat="44.1835483" lon="11.687165"><ele>231.0</ele><time>2026-04-12T07:47:02.266Z</time></trkpt><trkpt lat="44.1836367" lon="11.6871117"><ele>231.0</ele><time>2026-04-12T07:47:03.266Z</time></trkpt><trkpt lat="44.1837083" lon="11.687065"><ele>231.0</ele><time>2026-04-12T07:47:04.267Z</time></trkpt><trkpt lat="44.183765" lon="11.6870267"><ele>231.0</ele><time>2026-04-12T07:47:05.267Z</time></trkpt><trkpt lat="44.18386" lon="11.6869117"><ele>231.0</ele><time>2026-04-12T07:47:07.265Z</time></trkpt><trkpt lat="44.1839133" lon="11.6868233"><ele>231.0</ele><time>2026-04-12T07:47:08.267Z</time></trkpt><trkpt lat="44.1839567" lon="11.6867167"><ele>232.8</ele><time>2026-04-12T07:47:09.268Z</time></trkpt><trkpt lat="44.1839783" lon="11.686595"><ele>234.60000000000002</ele><time>2026-04-12T07:47:10.267Z</time></trkpt><trkpt lat="44.18401" lon="11.6864917"><ele>236.4</ele><time>2026-04-12T07:47:11.267Z</time></trkpt><trkpt lat="44.1840717" lon="11.6863517"><ele>238.2</ele><time>2026-04-12T07:47:13.267Z</time></trkpt><trkpt lat="44.1841517" lon="11.6862333"><ele>240.0</ele><time>2026-04-12T07:47:15.267Z</time></trkpt><trkpt lat="44.18419" lon="11.6861"><ele>243.2</ele><time>2026-04-12T07:47:17.267Z</time></trkpt><trkpt lat="44.184205" lon="11.685975"><ele>246.4</ele><time>2026-04-12T07:47:18.268Z</time></trkpt><trkpt lat="44.18421" lon="11.685845"><ele>249.60000000000002</ele><time>2026-04-12T07:47:19.268Z</time></trkpt><trkpt lat="44.1842283" lon="11.6857233"><ele>252.8</ele><time>2026-04-12T07:47:20.268Z</time></trkpt><trkpt lat="44.1841933" lon="11.6855483"><ele>256.0</ele><time>2026-04-12T07:47:21.267Z</time></trkpt><trkpt lat="44.18422" lon="11.6854483"><ele>255.99999999999997</ele><time>2026-04-12T07:47:22.267Z</time></trkpt><trkpt lat="44.184255" lon="11.6853583"><ele>256.0</ele><time>2026-04-12T07:47:23.267Z</time></trkpt><trkpt lat="44.1842867" lon="11.6852567"><ele>256.0</ele><time>2026-04-12T07:47:24.267Z</time></trkpt><trkpt lat="44.1843267" lon="11.6851217"><ele>256.0</ele><time>2026-04-12T07:47:25.268Z</time></trkpt><trkpt lat="44.1843933" lon="11.685055"><ele>255.99999999999997</ele><time>2026-04-12T07:47:26.267Z</time></trkpt><trkpt lat="44.1844867" lon="11.6850183"><ele>256.0</ele><time>2026-04-12T07:47:27.268Z</time></trkpt><trkpt lat="44.18455" lon="11.684985"><ele>256.5</ele><time>2026-04-12T07:47:28.266Z</time></trkpt><trkpt lat="44.1846117" lon="11.6849567"><ele>257.0</ele><time>2026-04-12T07:47:29.267Z</time></trkpt><trkpt lat="44.18468" lon="11.684925"><ele>257.5</ele><time>2026-04-12T07:47:30.266Z</time></trkpt><trkpt lat="44.1847433" lon="11.6848517"><ele>258.0</ele><time>2026-04-12T07:47:31.272Z</time></trkpt><trkpt lat="44.18481" lon="11.684765"><ele>258.5</ele><time>2026-04-12T07:47:32.266Z</time></trkpt><trkpt lat="44.1849067" lon="11.6846917"><ele>259.0</ele><time>2026-04-12T07:47:33.267Z</time></trkpt><trkpt lat="44.1849933" lon="11.6846117"><ele>259.0</ele><time>2026-04-12T07:47:34.267Z</time></trkpt><trkpt lat="44.1850983" lon="11.6845483"><ele>259.0</ele><time>2026-04-12T07:47:35.267Z</time></trkpt><trkpt lat="44.185195" lon="11.6845017"><ele>259.0</ele><time>2026-04-12T07:47:36.267Z</time></trkpt><trkpt lat="44.185265" lon="11.68442"><ele>259.0</ele><time>2026-04-12T07:47:37.267Z</time></trkpt><trkpt lat="44.18533" lon="11.6843617"><ele>259.0</ele><time>2026-04-12T07:47:38.267Z</time></trkpt><trkpt lat="44.1854283" lon="11.68429"><ele>261.0</ele><time>2026-04-12T07:47:40.267Z</time></trkpt><trkpt lat="44.1854967" lon="11.6842117"><ele>263.0</ele><time>2026-04-12T07:47:42.268Z</time></trkpt><trkpt lat="44.1853833" lon="11.6841483"><ele>265.0</ele><time>2026-04-12T07:47:46.266Z</time></trkpt><trkpt lat="44.1853117" lon="11.6841383"><ele>267.0</ele><time>2026-04-12T07:47:47.266Z</time></trkpt><trkpt lat="44.1852283" lon="11.6841567"><ele>269.0</ele><time>2026-04-12T07:47:48.267Z</time></trkpt><trkpt lat="44.1851633" lon="11.684175"><ele>271.0</ele><time>2026-04-12T07:47:49.267Z</time></trkpt><trkpt lat="44.185095" lon="11.6842117"><ele>271.0</ele><time>2026-04-12T07:47:50.269Z</time></trkpt><trkpt lat="44.1849733" lon="11.6843133"><ele>271.0</ele><time>2026-04-12T07:47:51.267Z</time></trkpt><trkpt lat="44.1848583" lon="11.68438"><ele>271.0</ele><time>2026-04-12T07:47:52.267Z</time></trkpt><trkpt lat="44.1847267" lon="11.6844217"><ele>271.0</ele><time>2026-04-12T07:47:53.267Z</time></trkpt><trkpt lat="44.184595" lon="11.6844417"><ele>271.75</ele><time>2026-04-12T07:47:54.267Z</time></trkpt><trkpt lat="44.1844633" lon="11.68445"><ele>272.5</ele><time>2026-04-12T07:47:55.266Z</time></trkpt><trkpt lat="44.1842983" lon="11.68443"><ele>273.25</ele><time>2026-04-12T07:47:56.267Z</time></trkpt><trkpt lat="44.1841617" lon="11.6844317"><ele>274.0</ele><time>2026-04-12T07:47:57.267Z</time></trkpt><trkpt lat="44.1840067" lon="11.6844233"><ele>278.5</ele><time>2026-04-12T07:47:58.268Z</time></trkpt><trkpt lat="44.1838717" lon="11.6844433"><ele>283.0</ele><time>2026-04-12T07:47:59.267Z</time></trkpt><trkpt lat="44.1837383" lon="11.6844333"><ele>287.5</ele><time>2026-04-12T07:48:00.267Z</time></trkpt><trkpt lat="44.183615" lon="11.684415"><ele>292.0</ele><time>2026-04-12T07:48:01.267Z</time></trkpt><trkpt lat="44.183475" lon="11.6844183"><ele>296.25</ele><time>2026-04-12T07:48:02.267Z</time></trkpt><trkpt lat="44.18334" lon="11.6844167"><ele>300.5</ele><time>2026-04-12T07:48:03.267Z</time></trkpt><trkpt lat="44.183215" lon="11.68442"><ele>304.75</ele><time>2026-04-12T07:48:04.267Z</time></trkpt><trkpt lat="44.1831017" lon="11.684425"><ele>309.0</ele><time>2026-04-12T07:48:05.266Z</time></trkpt><trkpt lat="44.1829917" lon="11.6844333"><ele>315.2</ele><time>2026-04-12T07:48:06.267Z</time></trkpt><trkpt lat="44.1828733" lon="11.6844083"><ele>321.4</ele><time>2026-04-12T07:48:07.267Z</time></trkpt><trkpt lat="44.1827517" lon="11.684385"><ele>327.6</ele><time>2026-04-12T07:48:08.267Z</time></trkpt><trkpt lat="44.1826433" lon="11.6843583"><ele>333.8</ele><time>2026-04-12T07:48:09.267Z</time></trkpt><trkpt lat="44.1825483" lon="11.684355"><ele>340.0</ele><time>2026-04-12T07:48:10.266Z</time></trkpt><trkpt lat="44.1824517" lon="11.68438"><ele>337.5</ele><time>2026-04-12T07:48:11.267Z</time></trkpt><trkpt lat="44.182345" lon="11.68443"><ele>335.0</ele><time>2026-04-12T07:48:12.267Z</time></trkpt><trkpt lat="44.1822183" lon="11.6844933"><ele>332.5</ele><time>2026-04-12T07:48:13.267Z</time></trkpt><trkpt lat="44.182085" lon="11.6845783"><ele>330.0</ele><time>2026-04-12T07:48:14.267Z</time></trkpt><trkpt lat="44.181945" lon="11.6846717"><ele>330.0</ele><time>2026-04-12T07:48:15.267Z</time></trkpt><trkpt lat="44.1818083" lon="11.68476"><ele>330.0</ele><time>2026-04-12T07:48:16.266Z</time></trkpt><trkpt lat="44.181685" lon="11.6848417"><ele>330.0</ele><time>2026-04-12T07:48:17.267Z</time></trkpt><trkpt lat="44.1815667" lon="11.6849233"><ele>330.0</ele><time>2026-04-12T07:48:18.267Z</time></trkpt><trkpt lat="44.1814617" lon="11.6849967"><ele>330.8</ele><time>2026-04-12T07:48:19.268Z</time></trkpt><trkpt lat="44.1813733" lon="11.6850917"><ele>331.6</ele><time>2026-04-12T07:48:20.268Z</time></trkpt><trkpt lat="44.181305" lon="11.685185"><ele>332.4</ele><time>2026-04-12T07:48:21.267Z</time></trkpt><trkpt lat="44.1812383" lon="11.685285"><ele>333.2</ele><time>2026-04-12T07:48:22.268Z</time></trkpt><trkpt lat="44.18118" lon="11.68537"><ele>334.0</ele><time>2026-04-12T07:48:23.268Z</time></trkpt><trkpt lat="44.1811283" lon="11.6854533"><ele>334.0</ele><time>2026-04-12T07:48:24.268Z</time></trkpt><trkpt lat="44.1810783" lon="11.6855267"><ele>334.0</ele><time>2026-04-12T07:48:25.269Z</time></trkpt><trkpt lat="44.18102" lon="11.6855983"><ele>334.0</ele><time>2026-04-12T07:48:26.267Z</time></trkpt><trkpt lat="44.1809483" lon="11.6857067"><ele>334.0</ele><time>2026-04-12T07:48:28.269Z</time></trkpt><trkpt lat="44.1810417" lon="11.68554"><ele>334.0</ele><time>2026-04-12T07:48:33.269Z</time></trkpt><trkpt lat="44.1811183" lon="11.685435"><ele>334.0</ele><time>2026-04-12T07:48:34.269Z</time></trkpt><trkpt lat="44.1811917" lon="11.6853083"><ele>334.0</ele><time>2026-04-12T07:48:35.269Z</time></trkpt><trkpt lat="44.18125" lon="11.68521"><ele>334.0</ele><time>2026-04-12T07:48:36.268Z</time></trkpt><trkpt lat="44.181315" lon="11.6850883"><ele>334.0</ele><time>2026-04-12T07:48:37.269Z</time></trkpt><trkpt lat="44.1813817" lon="11.6849483"><ele>334.0</ele><time>2026-04-12T07:48:38.267Z</time></trkpt><trkpt lat="44.18144" lon="11.684795"><ele>333.2</ele><time>2026-04-12T07:48:39.268Z</time></trkpt><trkpt lat="44.1814967" lon="11.6846317"><ele>332.4</ele><time>2026-04-12T07:48:40.267Z</time></trkpt><trkpt lat="44.1815483" lon="11.68449"><ele>331.6</ele><time>2026-04-12T07:48:41.268Z</time></trkpt><trkpt lat="44.1815733" lon="11.68437"><ele>330.8</ele><time>2026-04-12T07:48:42.267Z</time></trkpt><trkpt lat="44.1816167" lon="11.6842733"><ele>330.0</ele><time>2026-04-12T07:48:43.268Z</time></trkpt><trkpt lat="44.1816667" lon="11.6841867"><ele>335.4</ele><time>2026-04-12T07:48:44.269Z</time></trkpt><trkpt lat="44.18173" lon="11.68412"><ele>340.8</ele><time>2026-04-12T07:48:45.267Z</time></trkpt><trkpt lat="44.1818" lon="11.68406"><ele>346.20000000000005</ele><time>2026-04-12T07:48:46.268Z</time></trkpt><trkpt lat="44.18189" lon="11.6840017"><ele>351.6</ele><time>2026-04-12T07:48:47.267Z</time></trkpt><trkpt lat="44.1819883" lon="11.683935"><ele>357.0</ele><time>2026-04-12T07:48:48.269Z</time></trkpt><trkpt lat="44.182085" lon="11.6838583"><ele>357.0</ele><time>2026-04-12T07:48:49.267Z</time></trkpt><trkpt lat="44.1821733" lon="11.6837817"><ele>357.0</ele><time>2026-04-12T07:48:50.269Z</time></trkpt><trkpt lat="44.1822533" lon="11.6837067"><ele>357.0</ele><time>2026-04-12T07:48:51.268Z</time></trkpt><trkpt lat="44.1823117" lon="11.683625"><ele>357.0</ele><time>2026-04-12T07:48:52.267Z</time></trkpt><trkpt lat="44.182375" lon="11.6835333"><ele>357.0</ele><time>2026-04-12T07:48:53.267Z</time></trkpt><trkpt lat="44.18242" lon="11.683435"><ele>357.6</ele><time>2026-04-12T07:48:54.267Z</time></trkpt><trkpt lat="44.18247" lon="11.6833067"><ele>358.20000000000005</ele><time>2026-04-12T07:48:55.269Z</time></trkpt><trkpt lat="44.1825183" lon="11.683165"><ele>358.8</ele><time>2026-04-12T07:48:56.268Z</time></trkpt><trkpt lat="44.1825783" lon="11.6830317"><ele>359.4</ele><time>2026-04-12T07:48:57.268Z</time></trkpt><trkpt lat="44.182645" lon="11.6829083"><ele>360.0</ele><time>2026-04-12T07:48:58.269Z</time></trkpt><trkpt lat="44.1826917" lon="11.6828"><ele>361.3333333333333</ele><time>2026-04-12T07:48:59.268Z</time></trkpt><trkpt lat="44.1827367" lon="11.6826933"><ele>362.6666666666667</ele><time>2026-04-12T07:49:00.269Z</time></trkpt><trkpt lat="44.1827867" lon="11.6825933"><ele>364.0</ele><time>2026-04-12T07:49:01.268Z</time></trkpt><trkpt lat="44.182835" lon="11.6824917"><ele>365.33333333333337</ele><time>2026-04-12T07:49:02.269Z</time></trkpt><trkpt lat="44.1828783" lon="11.68241"><ele>366.6666666666667</ele><time>2026-04-12T07:49:03.268Z</time></trkpt><trkpt lat="44.182915" lon="11.6823383"><ele>368.0</ele><time>2026-04-12T07:49:04.268Z</time></trkpt><trkpt lat="44.1829717" lon="11.682215"><ele>368.0</ele><time>2026-04-12T07:49:06.267Z</time></trkpt><trkpt lat="44.1829733" lon="11.68211"><ele>368.0</ele><time>2026-04-12T07:49:08.268Z</time></trkpt><trkpt lat="44.1830117" lon="11.6820333"><ele>368.0</ele><time>2026-04-12T07:49:10.269Z</time></trkpt><trkpt lat="44.1829583" lon="11.68211"><ele>368.0</ele><time>2026-04-12T07:49:15.268Z</time></trkpt><trkpt lat="44.1830233" lon="11.6821067"><ele>368.0</ele><time>2026-04-12T07:49:25.268Z</time></trkpt><trkpt lat="44.183075" lon="11.6821833"><ele>368.0</ele><time>2026-04-12T07:49:31.268Z</time></trkpt><trkpt lat="44.18314" lon="11.6821883"><ele>368.0</ele><time>2026-04-12T07:49:33.268Z</time></trkpt><trkpt lat="44.18326" lon="11.6821417"><ele>367.33333333333337</ele><time>2026-04-12T07:49:35.268Z</time></trkpt><trkpt lat="44.18332" lon="11.6821033"><ele>366.6666666666667</ele><time>2026-04-12T07:49:36.267Z</time></trkpt><trkpt lat="44.1833883" lon="11.6820533"><ele>366.0</ele><time>2026-04-12T07:49:37.27Z</time></trkpt><trkpt lat="44.18345" lon="11.6819967"><ele>365.3333333333333</ele><time>2026-04-12T07:49:38.268Z</time></trkpt><trkpt lat="44.1835367" lon="11.6818983"><ele>364.66666666666663</ele><time>2026-04-12T07:49:40.268Z</time></trkpt><trkpt lat="44.1835667" lon="11.6817817"><ele>364.0</ele><time>2026-04-12T07:49:42.268Z</time></trkpt><trkpt lat="44.183575" lon="11.6816633"><ele>364.0</ele><time>2026-04-12T07:49:44.269Z</time></trkpt><trkpt lat="44.1835867" lon="11.681575"><ele>364.0</ele><time>2026-04-12T07:49:46.269Z</time></trkpt><trkpt lat="44.1836317" lon="11.6815133"><ele>364.0</ele><time>2026-04-12T07:49:48.268Z</time></trkpt><trkpt lat="44.1837217" lon="11.681445"><ele>364.0</ele><time>2026-04-12T07:49:50.268Z</time></trkpt><trkpt lat="44.1837833" lon="11.6813817"><ele>364.0</ele><time>2026-04-12T07:49:51.268Z</time></trkpt><trkpt lat="44.1838667" lon="11.6813117"><ele>364.0</ele><time>2026-04-12T07:49:52.268Z</time></trkpt><trkpt lat="44.18395" lon="11.6812483"><ele>364.79999999999995</ele><time>2026-04-12T07:49:53.269Z</time></trkpt><trkpt lat="44.1840383" lon="11.681195"><ele>365.59999999999997</ele><time>2026-04-12T07:49:54.268Z</time></trkpt><trkpt lat="44.1841183" lon="11.681135"><ele>366.4</ele><time>2026-04-12T07:49:55.268Z</time></trkpt><trkpt lat="44.184195" lon="11.6810617"><ele>367.2</ele><time>2026-04-12T07:49:56.269Z</time></trkpt><trkpt lat="44.1842767" lon="11.68097"><ele>368.0</ele><time>2026-04-12T07:49:57.268Z</time></trkpt><trkpt lat="44.1843717" lon="11.68084"><ele>368.0</ele><time>2026-04-12T07:49:58.268Z</time></trkpt><trkpt lat="44.1844683" lon="11.680705"><ele>368.0</ele><time>2026-04-12T07:49:59.27Z</time></trkpt><trkpt lat="44.184565" lon="11.6805717"><ele>368.0</ele><time>2026-04-12T07:50:00.269Z</time></trkpt><trkpt lat="44.18466" lon="11.680435"><ele>368.0</ele><time>2026-04-12T07:50:01.269Z</time></trkpt><trkpt lat="44.1847533" lon="11.6803117"><ele>369.75</ele><time>2026-04-12T07:50:02.269Z</time></trkpt><trkpt lat="44.18485" lon="11.6801917"><ele>371.5</ele><time>2026-04-12T07:50:03.269Z</time></trkpt><trkpt lat="44.1849417" lon="11.680085"><ele>373.25</ele><time>2026-04-12T07:50:04.268Z</time></trkpt><trkpt lat="44.1850317" lon="11.68"><ele>375.0</ele><time>2026-04-12T07:50:05.268Z</time></trkpt><trkpt lat="44.1851117" lon="11.679935"><ele>375.0</ele><time>2026-04-12T07:50:06.268Z</time></trkpt><trkpt lat="44.1851717" lon="11.6798967"><ele>375.0</ele><time>2026-04-12T07:50:07.268Z</time></trkpt><trkpt lat="44.1852283" lon="11.6798533"><ele>375.0</ele><time>2026-04-12T07:50:08.268Z</time></trkpt><trkpt lat="44.1853017" lon="11.6797867"><ele>375.0</ele><time>2026-04-12T07:50:10.267Z</time></trkpt><trkpt lat="44.185255" lon="11.6796733"><ele>375.0</ele><time>2026-04-12T07:50:14.27Z</time></trkpt><trkpt lat="44.1851583" lon="11.6796567"><ele>375.0</ele><time>2026-04-12T07:50:16.27Z</time></trkpt><trkpt lat="44.1850967" lon="11.679675"><ele>375.0</ele><time>2026-04-12T07:50:17.267Z</time></trkpt><trkpt lat="44.1850333" lon="11.6796917"><ele>375.0</ele><time>2026-04-12T07:50:18.268Z</time></trkpt><trkpt lat="44.184955" lon="11.679725"><ele>375.0</ele><time>2026-04-12T07:50:19.268Z</time></trkpt><trkpt lat="44.1848567" lon="11.6797667"><ele>375.0</ele><time>2026-04-12T07:50:20.267Z</time></trkpt><trkpt lat="44.1847533" lon="11.679815"><ele>375.0</ele><time>2026-04-12T07:50:21.267Z</time></trkpt><trkpt lat="44.1846533" lon="11.6798667"><ele>376.0</ele><time>2026-04-12T07:50:22.268Z</time></trkpt><trkpt lat="44.1845633" lon="11.679895"><ele>377.0</ele><time>2026-04-12T07:50:23.268Z</time></trkpt><trkpt lat="44.1844783" lon="11.67993"><ele>378.0</ele><time>2026-04-12T07:50:24.269Z</time></trkpt><trkpt lat="44.1843983" lon="11.6799483"><ele>379.0</ele><time>2026-04-12T07:50:25.268Z</time></trkpt><trkpt lat="44.1843317" lon="11.6799533"><ele>380.0</ele><time>2026-04-12T07:50:26.268Z</time></trkpt><trkpt lat="44.1842617" lon="11.679855"><ele>381.0</ele><time>2026-04-12T07:50:28.27Z</time></trkpt><trkpt lat="44.1842567" lon="11.679765"><ele>381.0</ele><time>2026-04-12T07:50:29.269Z</time></trkpt><trkpt lat="44.18429" lon="11.6795817"><ele>381.0</ele><time>2026-04-12T07:50:31.271Z</time></trkpt><trkpt lat="44.184375" lon="11.6794317"><ele>381.0</ele><time>2026-04-12T07:50:32.268Z</time></trkpt><trkpt lat="44.1845467" lon="11.6792283"><ele>385.0</ele><time>2026-04-12T07:50:33.269Z</time></trkpt><trkpt lat="44.184625" lon="11.679075"><ele>389.0</ele><time>2026-04-12T07:50:34.271Z</time></trkpt><trkpt lat="44.1847083" lon="11.67894"><ele>393.0</ele><time>2026-04-12T07:50:35.268Z</time></trkpt><trkpt lat="44.1847933" lon="11.6788217"><ele>397.0</ele><time>2026-04-12T07:50:36.267Z</time></trkpt><trkpt lat="44.1848833" lon="11.6786767"><ele>404.25</ele><time>2026-04-12T07:50:37.271Z</time></trkpt><trkpt lat="44.184965" lon="11.678545"><ele>411.5</ele><time>2026-04-12T07:50:38.271Z</time></trkpt><trkpt lat="44.1850633" lon="11.6783983"><ele>418.75</ele><time>2026-04-12T07:50:39.268Z</time></trkpt><trkpt lat="44.1851433" lon="11.6782533"><ele>426.0</ele><time>2026-04-12T07:50:40.269Z</time></trkpt><trkpt lat="44.1852233" lon="11.6781283"><ele>426.0</ele><time>2026-04-12T07:50:41.269Z</time></trkpt><trkpt lat="44.185305" lon="11.67803"><ele>426.0</ele><time>2026-04-12T07:50:42.268Z</time></trkpt><trkpt lat="44.1853817" lon="11.6779583"><ele>426.0</ele><time>2026-04-12T07:50:43.267Z</time></trkpt><trkpt lat="44.1854683" lon="11.6779033"><ele>426.0</ele><time>2026-04-12T07:50:44.269Z</time></trkpt><trkpt lat="44.18555" lon="11.6778517"><ele>426.0</ele><time>2026-04-12T07:50:45.269Z</time></trkpt><trkpt lat="44.1856233" lon="11.677805"><ele>425.1666666666667</ele><time>2026-04-12T07:50:46.268Z</time></trkpt><trkpt lat="44.185695" lon="11.6777483"><ele>424.33333333333337</ele><time>2026-04-12T07:50:47.268Z</time></trkpt><trkpt lat="44.1857567" lon="11.6776883"><ele>423.5</ele><time>2026-04-12T07:50:48.269Z</time></trkpt><trkpt lat="44.1858217" lon="11.677635"><ele>422.6666666666667</ele><time>2026-04-12T07:50:49.27Z</time></trkpt><trkpt lat="44.1858883" lon="11.6775983"><ele>421.83333333333337</ele><time>2026-04-12T07:50:50.269Z</time></trkpt><trkpt lat="44.1859633" lon="11.6775883"><ele>421.0</ele><time>2026-04-12T07:50:51.268Z</time></trkpt><trkpt lat="44.1860583" lon="11.677575"><ele>421.00000000000006</ele><time>2026-04-12T07:50:52.268Z</time></trkpt><trkpt lat="44.18615" lon="11.6775617"><ele>421.0</ele><time>2026-04-12T07:50:53.268Z</time></trkpt><trkpt lat="44.186235" lon="11.6775483"><ele>421.0</ele><time>2026-04-12T07:50:54.269Z</time></trkpt><trkpt lat="44.1863183" lon="11.67754"><ele>421.0</ele><time>2026-04-12T07:50:55.269Z</time></trkpt><trkpt lat="44.1863983" lon="11.6775283"><ele>421.00000000000006</ele><time>2026-04-12T07:50:56.27Z</time></trkpt><trkpt lat="44.1864717" lon="11.677515"><ele>421.0</ele><time>2026-04-12T07:50:57.268Z</time></trkpt><trkpt lat="44.186545" lon="11.677505"><ele>421.6666666666667</ele><time>2026-04-12T07:50:58.268Z</time></trkpt><trkpt lat="44.18661" lon="11.6775"><ele>422.33333333333337</ele><time>2026-04-12T07:50:59.268Z</time></trkpt><trkpt lat="44.1866767" lon="11.67748"><ele>423.0</ele><time>2026-04-12T07:51:00.268Z</time></trkpt><trkpt lat="44.1867433" lon="11.6774767"><ele>423.66666666666663</ele><time>2026-04-12T07:51:01.268Z</time></trkpt><trkpt lat="44.18682" lon="11.6774667"><ele>424.3333333333333</ele><time>2026-04-12T07:51:02.268Z</time></trkpt><trkpt lat="44.1868833" lon="11.6774617"><ele>425.0</ele><time>2026-04-12T07:51:03.268Z</time></trkpt><trkpt lat="44.187015" lon="11.6774367"><ele>424.99999999999994</ele><time>2026-04-12T07:51:05.268Z</time></trkpt><trkpt lat="44.1870833" lon="11.6774083"><ele>425.0</ele><time>2026-04-12T07:51:06.268Z</time></trkpt><trkpt lat="44.18716" lon="11.6773833"><ele>425.0</ele><time>2026-04-12T07:51:07.267Z</time></trkpt><trkpt lat="44.1872317" lon="11.67734"><ele>425.0</ele><time>2026-04-12T07:51:08.269Z</time></trkpt><trkpt lat="44.1872917" lon="11.67731"><ele>424.99999999999994</ele><time>2026-04-12T07:51:09.268Z</time></trkpt><trkpt lat="44.1874" lon="11.67724"><ele>425.0</ele><time>2026-04-12T07:51:11.27Z</time></trkpt><trkpt lat="44.1874617" lon="11.6771383"><ele>425.49999999999994</ele><time>2026-04-12T07:51:13.268Z</time></trkpt><trkpt lat="44.1875217" lon="11.6770083"><ele>426.0</ele><time>2026-04-12T07:51:15.267Z</time></trkpt><trkpt lat="44.1875733" lon="11.6769517"><ele>426.5</ele><time>2026-04-12T07:51:16.268Z</time></trkpt><trkpt lat="44.18763" lon="11.676885"><ele>427.0</ele><time>2026-04-12T07:51:17.267Z</time></trkpt><trkpt lat="44.187705" lon="11.6768433"><ele>427.49999999999994</ele><time>2026-04-12T07:51:18.267Z</time></trkpt><trkpt lat="44.187785" lon="11.6767983"><ele>428.0</ele><time>2026-04-12T07:51:19.267Z</time></trkpt><trkpt lat="44.1878417" lon="11.6767233"><ele>427.3333333333333</ele><time>2026-04-12T07:51:20.265Z</time></trkpt><trkpt lat="44.1879067" lon="11.6766633"><ele>426.66666666666663</ele><time>2026-04-12T07:51:21.267Z</time></trkpt><trkpt lat="44.1879667" lon="11.6765983"><ele>426.0</ele><time>2026-04-12T07:51:22.268Z</time></trkpt><trkpt lat="44.188015" lon="11.676535"><ele>425.33333333333337</ele><time>2026-04-12T07:51:23.268Z</time></trkpt><trkpt lat="44.1880683" lon="11.67644"><ele>424.6666666666667</ele><time>2026-04-12T07:51:25.267Z</time></trkpt><trkpt lat="44.188115" lon="11.6763717"><ele>424.0</ele><time>2026-04-12T07:51:27.268Z</time></trkpt><trkpt lat="44.1881917" lon="11.676315"><ele>421.6666666666667</ele><time>2026-04-12T07:51:56.269Z</time></trkpt><trkpt lat="44.18816" lon="11.6762367"><ele>419.33333333333337</ele><time>2026-04-12T07:51:59.268Z</time></trkpt><trkpt lat="44.1880917" lon="11.6761683"><ele>417.0</ele><time>2026-04-12T07:52:01.269Z</time></trkpt><trkpt lat="44.188" lon="11.6761067"><ele>414.66666666666663</ele><time>2026-04-12T07:52:03.268Z</time></trkpt><trkpt lat="44.1879433" lon="11.6760667"><ele>412.3333333333333</ele><time>2026-04-12T07:52:04.27Z</time></trkpt><trkpt lat="44.187885" lon="11.6760283"><ele>410.0</ele><time>2026-04-12T07:52:05.267Z</time></trkpt><trkpt lat="44.187825" lon="11.6759133"><ele>406.99999999999994</ele><time>2026-04-12T07:52:07.268Z</time></trkpt><trkpt lat="44.1878117" lon="11.6757917"><ele>404.0</ele><time>2026-04-12T07:52:09.268Z</time></trkpt><trkpt lat="44.1878433" lon="11.675695"><ele>401.0</ele><time>2026-04-12T07:52:11.269Z</time></trkpt><trkpt lat="44.18793" lon="11.6756233"><ele>398.0</ele><time>2026-04-12T07:52:13.269Z</time></trkpt><trkpt lat="44.1880033" lon="11.6755967"><ele>394.99999999999994</ele><time>2026-04-12T07:52:14.271Z</time></trkpt><trkpt lat="44.1880683" lon="11.6755433"><ele>392.0</ele><time>2026-04-12T07:52:15.27Z</time></trkpt><trkpt lat="44.1881367" lon="11.6755017"><ele>394.66666666666663</ele><time>2026-04-12T07:52:16.268Z</time></trkpt><trkpt lat="44.1882" lon="11.6754517"><ele>397.3333333333333</ele><time>2026-04-12T07:52:17.268Z</time></trkpt><trkpt lat="44.1882617" lon="11.675395"><ele>400.0</ele><time>2026-04-12T07:52:18.269Z</time></trkpt><trkpt lat="44.1883533" lon="11.6752867"><ele>402.66666666666663</ele><time>2026-04-12T07:52:20.269Z</time></trkpt><trkpt lat="44.1884033" lon="11.675175"><ele>405.3333333333333</ele><time>2026-04-12T07:52:22.269Z</time></trkpt><trkpt lat="44.1883967" lon="11.67506"><ele>408.0</ele><time>2026-04-12T07:52:25.267Z</time></trkpt><trkpt lat="44.188335" lon="11.675005"><ele>408.0</ele><time>2026-04-12T07:52:27.268Z</time></trkpt><trkpt lat="44.1882583" lon="11.6749833"><ele>408.0</ele><time>2026-04-12T07:52:29.267Z</time></trkpt><trkpt lat="44.1881683" lon="11.6749433"><ele>408.0</ele><time>2026-04-12T07:52:31.267Z</time></trkpt><trkpt lat="44.1880533" lon="11.6749067"><ele>408.0</ele><time>2026-04-12T07:52:33.27Z</time></trkpt><trkpt lat="44.1879767" lon="11.674875"><ele>408.0</ele><time>2026-04-12T07:52:34.269Z</time></trkpt><trkpt lat="44.1878983" lon="11.6748283"><ele>405.0</ele><time>2026-04-12T07:52:35.267Z</time></trkpt><trkpt lat="44.1878217" lon="11.674795"><ele>402.0</ele><time>2026-04-12T07:52:36.269Z</time></trkpt><trkpt lat="44.18774" lon="11.674755"><ele>399.0</ele><time>2026-04-12T07:52:37.268Z</time></trkpt><trkpt lat="44.18766" lon="11.67471"><ele>396.0</ele><time>2026-04-12T07:52:38.269Z</time></trkpt><trkpt lat="44.1875833" lon="11.6746617"><ele>393.0</ele><time>2026-04-12T07:52:39.268Z</time></trkpt><trkpt lat="44.1874983" lon="11.674625"><ele>390.0</ele><time>2026-04-12T07:52:40.269Z</time></trkpt><trkpt lat="44.1874117" lon="11.6745917"><ele>389.8333333333333</ele><time>2026-04-12T07:52:41.267Z</time></trkpt><trkpt lat="44.18733" lon="11.674565"><ele>389.66666666666663</ele><time>2026-04-12T07:52:42.268Z</time></trkpt><trkpt lat="44.187255" lon="11.6745317"><ele>389.5</ele><time>2026-04-12T07:52:43.269Z</time></trkpt><trkpt lat="44.187175" lon="11.6744833"><ele>389.3333333333333</ele><time>2026-04-12T07:52:44.269Z</time></trkpt><trkpt lat="44.1870917" lon="11.67444"><ele>389.16666666666663</ele><time>2026-04-12T07:52:45.269Z</time></trkpt><trkpt lat="44.1869983" lon="11.6744017"><ele>389.0</ele><time>2026-04-12T07:52:46.266Z</time></trkpt><trkpt lat="44.18692" lon="11.6743717"><ele>388.99999999999994</ele><time>2026-04-12T07:52:47.267Z</time></trkpt><trkpt lat="44.186835" lon="11.6743433"><ele>389.0</ele><time>2026-04-12T07:52:48.268Z</time></trkpt><trkpt lat="44.1867567" lon="11.67433"><ele>389.0</ele><time>2026-04-12T07:52:49.267Z</time></trkpt><trkpt lat="44.1866717" lon="11.6743283"><ele>389.0</ele><time>2026-04-12T07:52:50.268Z</time></trkpt><trkpt lat="44.186585" lon="11.6743517"><ele>388.99999999999994</ele><time>2026-04-12T07:52:51.267Z</time></trkpt><trkpt lat="44.1865133" lon="11.6743733"><ele>389.0</ele><time>2026-04-12T07:52:52.267Z</time></trkpt><trkpt lat="44.1864383" lon="11.67441"><ele>384.3333333333333</ele><time>2026-04-12T07:52:53.267Z</time></trkpt><trkpt lat="44.1863667" lon="11.674425"><ele>379.66666666666663</ele><time>2026-04-12T07:52:54.268Z</time></trkpt><trkpt lat="44.1862967" lon="11.6744433"><ele>375.0</ele><time>2026-04-12T07:52:55.268Z</time></trkpt><trkpt lat="44.18622" lon="11.67445"><ele>370.3333333333333</ele><time>2026-04-12T07:52:57.267Z</time></trkpt><trkpt lat="44.186305" lon="11.67429"><ele>365.66666666666663</ele><time>2026-04-12T07:53:02.267Z</time></trkpt><trkpt lat="44.18635" lon="11.6741967"><ele>361.0</ele><time>2026-04-12T07:53:03.267Z</time></trkpt><trkpt lat="44.1863917" lon="11.6741217"><ele>361.0</ele><time>2026-04-12T07:53:04.267Z</time></trkpt><trkpt lat="44.1864433" lon="11.674025"><ele>361.0</ele><time>2026-04-12T07:53:05.267Z</time></trkpt><trkpt lat="44.1865017" lon="11.6738917"><ele>361.0</ele><time>2026-04-12T07:53:06.267Z</time></trkpt><trkpt lat="44.1865483" lon="11.67377"><ele>361.0</ele><time>2026-04-12T07:53:07.266Z</time></trkpt><trkpt lat="44.1865917" lon="11.6736567"><ele>361.0</ele><time>2026-04-12T07:53:08.268Z</time></trkpt><trkpt lat="44.1866217" lon="11.6735283"><ele>363.5714285714286</ele><time>2026-04-12T07:53:09.267Z</time></trkpt><trkpt lat="44.1866467" lon="11.6734367"><ele>366.1428571428571</ele><time>2026-04-12T07:53:10.267Z</time></trkpt><trkpt lat="44.1866717" lon="11.6733483"><ele>368.7142857142857</ele><time>2026-04-12T07:53:11.267Z</time></trkpt><trkpt lat="44.1866983" lon="11.6732567"><ele>371.28571428571433</ele><time>2026-04-12T07:53:12.268Z</time></trkpt><trkpt lat="44.1867267" lon="11.67315"><ele>373.8571428571429</ele><time>2026-04-12T07:53:13.267Z</time></trkpt><trkpt lat="44.1867533" lon="11.6730417"><ele>376.42857142857144</ele><time>2026-04-12T07:53:14.267Z</time></trkpt><trkpt lat="44.1867817" lon="11.6729583"><ele>379.0</ele><time>2026-04-12T07:53:15.267Z</time></trkpt><trkpt lat="44.1868217" lon="11.67288"><ele>379.0</ele><time>2026-04-12T07:53:16.267Z</time></trkpt><trkpt lat="44.1868733" lon="11.6727917"><ele>379.0</ele><time>2026-04-12T07:53:17.267Z</time></trkpt><trkpt lat="44.1869367" lon="11.672705"><ele>379.0</ele><time>2026-04-12T07:53:18.266Z</time></trkpt><trkpt lat="44.18701" lon="11.672635"><ele>379.0</ele><time>2026-04-12T07:53:19.267Z</time></trkpt><trkpt lat="44.1870933" lon="11.672555"><ele>379.0</ele><time>2026-04-12T07:53:20.267Z</time></trkpt><trkpt lat="44.18716" lon="11.67249"><ele>379.0</ele><time>2026-04-12T07:53:21.267Z</time></trkpt><trkpt lat="44.1872317" lon="11.67244"><ele>380.0</ele><time>2026-04-12T07:53:22.268Z</time></trkpt><trkpt lat="44.1873133" lon="11.672405"><ele>381.0</ele><time>2026-04-12T07:53:23.267Z</time></trkpt><trkpt lat="44.1873933" lon="11.6723617"><ele>382.0</ele><time>2026-04-12T07:53:24.267Z</time></trkpt><trkpt lat="44.187475" lon="11.6723267"><ele>383.0</ele><time>2026-04-12T07:53:25.267Z</time></trkpt><trkpt lat="44.1875567" lon="11.6722867"><ele>384.00000000000006</ele><time>2026-04-12T07:53:26.268Z</time></trkpt><trkpt lat="44.1876417" lon="11.6722483"><ele>385.0</ele><time>2026-04-12T07:53:27.267Z</time></trkpt><trkpt lat="44.1877167" lon="11.6722067"><ele>385.00000000000006</ele><time>2026-04-12T07:53:28.266Z</time></trkpt><trkpt lat="44.18778" lon="11.6721817"><ele>385.0</ele><time>2026-04-12T07:53:29.266Z</time></trkpt><trkpt lat="44.1878467" lon="11.6721667"><ele>385.0</ele><time>2026-04-12T07:53:30.268Z</time></trkpt><trkpt lat="44.1879217" lon="11.6721583"><ele>385.0</ele><time>2026-04-12T07:53:31.268Z</time></trkpt><trkpt lat="44.1879983" lon="11.6721467"><ele>385.00000000000006</ele><time>2026-04-12T07:53:32.268Z</time></trkpt><trkpt lat="44.1880767" lon="11.6721283"><ele>385.0</ele><time>2026-04-12T07:53:33.267Z</time></trkpt><trkpt lat="44.1881883" lon="11.672055"><ele>380.4</ele><time>2026-04-12T07:53:35.266Z</time></trkpt><trkpt lat="44.1882667" lon="11.67194"><ele>375.8</ele><time>2026-04-12T07:53:37.267Z</time></trkpt><trkpt lat="44.18832" lon="11.6718"><ele>371.20000000000005</ele><time>2026-04-12T07:53:39.267Z</time></trkpt><trkpt lat="44.1883467" lon="11.6716733"><ele>366.6</ele><time>2026-04-12T07:53:41.268Z</time></trkpt><trkpt lat="44.18835" lon="11.671565"><ele>362.0</ele><time>2026-04-12T07:53:43.267Z</time></trkpt><trkpt lat="44.1883" lon="11.6714517"><ele>362.0</ele><time>2026-04-12T07:53:45.267Z</time></trkpt><trkpt lat="44.1882567" lon="11.6713783"><ele>362.0</ele><time>2026-04-12T07:53:46.269Z</time></trkpt><trkpt lat="44.18818" lon="11.6713283"><ele>362.0</ele><time>2026-04-12T07:53:47.267Z</time></trkpt><trkpt lat="44.1881017" lon="11.671285"><ele>362.0</ele><time>2026-04-12T07:53:48.268Z</time></trkpt><trkpt lat="44.188035" lon="11.6712117"><ele>362.0</ele><time>2026-04-12T07:53:49.267Z</time></trkpt><trkpt lat="44.1879833" lon="11.6711367"><ele>362.0</ele><time>2026-04-12T07:53:50.266Z</time></trkpt><trkpt lat="44.18793" lon="11.6710483"><ele>363.33333333333337</ele><time>2026-04-12T07:53:51.27Z</time></trkpt><trkpt lat="44.187895" lon="11.6709483"><ele>364.6666666666667</ele><time>2026-04-12T07:53:52.268Z</time></trkpt><trkpt lat="44.1878417" lon="11.67088"><ele>366.0</ele><time>2026-04-12T07:53:53.266Z</time></trkpt><trkpt lat="44.1877933" lon="11.6708117"><ele>367.3333333333333</ele><time>2026-04-12T07:53:54.267Z</time></trkpt><trkpt lat="44.1877333" lon="11.6707733"><ele>368.66666666666663</ele><time>2026-04-12T07:53:55.267Z</time></trkpt><trkpt lat="44.187655" lon="11.67071"><ele>370.0</ele><time>2026-04-12T07:53:56.267Z</time></trkpt><trkpt lat="44.1875783" lon="11.6706817"><ele>370.0</ele><time>2026-04-12T07:53:57.267Z</time></trkpt><trkpt lat="44.187505" lon="11.6706617"><ele>370.0</ele><time>2026-04-12T07:53:58.267Z</time></trkpt><trkpt lat="44.1874233" lon="11.670645"><ele>370.0</ele><time>2026-04-12T07:53:59.267Z</time></trkpt><trkpt lat="44.187345" lon="11.6706083"><ele>370.0</ele><time>2026-04-12T07:54:00.268Z</time></trkpt><trkpt lat="44.18727" lon="11.6705617"><ele>370.0</ele><time>2026-04-12T07:54:01.268Z</time></trkpt><trkpt lat="44.1871983" lon="11.670525"><ele>370.0</ele><time>2026-04-12T07:54:02.268Z</time></trkpt><trkpt lat="44.18712" lon="11.67048"><ele>371.6</ele><time>2026-04-12T07:54:03.265Z</time></trkpt><trkpt lat="44.1870483" lon="11.6704283"><ele>373.2</ele><time>2026-04-12T07:54:04.267Z</time></trkpt><trkpt lat="44.1869583" lon="11.6703583"><ele>374.79999999999995</ele><time>2026-04-12T07:54:05.267Z</time></trkpt><trkpt lat="44.1868783" lon="11.670285"><ele>376.4</ele><time>2026-04-12T07:54:06.267Z</time></trkpt><trkpt lat="44.1867883" lon="11.670215"><ele>378.0</ele><time>2026-04-12T07:54:07.267Z</time></trkpt><trkpt lat="44.186675" lon="11.6701467"><ele>386.2</ele><time>2026-04-12T07:54:08.267Z</time></trkpt><trkpt lat="44.1865733" lon="11.6700883"><ele>394.4</ele><time>2026-04-12T07:54:09.266Z</time></trkpt><trkpt lat="44.1864717" lon="11.6700517"><ele>402.59999999999997</ele><time>2026-04-12T07:54:10.268Z</time></trkpt><trkpt lat="44.1863617" lon="11.6700117"><ele>410.79999999999995</ele><time>2026-04-12T07:54:11.266Z</time></trkpt><trkpt lat="44.186265" lon="11.6699583"><ele>419.0</ele><time>2026-04-12T07:54:12.267Z</time></trkpt><trkpt lat="44.1861683" lon="11.66991"><ele>419.79999999999995</ele><time>2026-04-12T07:54:13.266Z</time></trkpt><trkpt lat="44.1860667" lon="11.66985"><ele>420.59999999999997</ele><time>2026-04-12T07:54:14.268Z</time></trkpt><trkpt lat="44.18597" lon="11.6697967"><ele>421.4</ele><time>2026-04-12T07:54:15.267Z</time></trkpt><trkpt lat="44.1858817" lon="11.6697367"><ele>422.2</ele><time>2026-04-12T07:54:16.268Z</time></trkpt><trkpt lat="44.185795" lon="11.6696783"><ele>423.0</ele><time>2026-04-12T07:54:17.268Z</time></trkpt><trkpt lat="44.185705" lon="11.66963"><ele>422.3333333333333</ele><time>2026-04-12T07:54:18.268Z</time></trkpt><trkpt lat="44.1856233" lon="11.669585"><ele>421.66666666666663</ele><time>2026-04-12T07:54:19.27Z</time></trkpt><trkpt lat="44.1855367" lon="11.6695417"><ele>421.0</ele><time>2026-04-12T07:54:20.267Z</time></trkpt><trkpt lat="44.1854433" lon="11.6694967"><ele>420.3333333333333</ele><time>2026-04-12T07:54:21.268Z</time></trkpt><trkpt lat="44.1853533" lon="11.6694667"><ele>419.66666666666663</ele><time>2026-04-12T07:54:22.267Z</time></trkpt><trkpt lat="44.18528" lon="11.6694567"><ele>419.0</ele><time>2026-04-12T07:54:23.268Z</time></trkpt><trkpt lat="44.1852067" lon="11.6694483"><ele>416.0</ele><time>2026-04-12T07:54:25.268Z</time></trkpt><trkpt lat="44.1852417" lon="11.66937"><ele>413.0</ele><time>2026-04-12T07:54:43.266Z</time></trkpt><trkpt lat="44.1853467" lon="11.669315"><ele>410.0</ele><time>2026-04-12T07:54:45.266Z</time></trkpt><trkpt lat="44.1854417" lon="11.6692617"><ele>407.0</ele><time>2026-04-12T07:54:47.265Z</time></trkpt><trkpt lat="44.1854983" lon="11.669215"><ele>404.0</ele><time>2026-04-12T07:54:49.267Z</time></trkpt><trkpt lat="44.1856133" lon="11.66918"><ele>404.0</ele><time>2026-04-12T07:55:31.267Z</time></trkpt><trkpt lat="44.1856583" lon="11.6691117"><ele>404.0</ele><time>2026-04-12T07:55:33.267Z</time></trkpt><trkpt lat="44.18574" lon="11.6690467"><ele>404.0</ele><time>2026-04-12T07:55:35.268Z</time></trkpt><trkpt lat="44.185825" lon="11.6690317"><ele>404.0</ele><time>2026-04-12T07:55:37.267Z</time></trkpt><trkpt lat="44.185945" lon="11.669075"><ele>404.0</ele><time>2026-04-12T07:55:39.268Z</time></trkpt><trkpt lat="44.1860317" lon="11.6691233"><ele>409.0</ele><time>2026-04-12T07:55:40.266Z</time></trkpt><trkpt lat="44.1861067" lon="11.6691267"><ele>414.0</ele><time>2026-04-12T07:55:41.266Z</time></trkpt><trkpt lat="44.1861817" lon="11.6691217"><ele>419.0</ele><time>2026-04-12T07:55:42.267Z</time></trkpt><trkpt lat="44.1862533" lon="11.669105"><ele>424.0</ele><time>2026-04-12T07:55:43.266Z</time></trkpt><trkpt lat="44.1863767" lon="11.669095"><ele>429.0</ele><time>2026-04-12T07:55:45.265Z</time></trkpt><trkpt lat="44.1865317" lon="11.6690683"><ele>430.8333333333333</ele><time>2026-04-12T07:55:47.265Z</time></trkpt><trkpt lat="44.1866317" lon="11.6690517"><ele>432.66666666666663</ele><time>2026-04-12T07:55:48.267Z</time></trkpt><trkpt lat="44.186735" lon="11.66903"><ele>434.5</ele><time>2026-04-12T07:55:49.266Z</time></trkpt><trkpt lat="44.1868033" lon="11.6689783"><ele>436.3333333333333</ele><time>2026-04-12T07:55:50.267Z</time></trkpt><trkpt lat="44.1868633" lon="11.66892"><ele>438.16666666666663</ele><time>2026-04-12T07:55:51.265Z</time></trkpt><trkpt lat="44.1869117" lon="11.66885"><ele>440.0</ele><time>2026-04-12T07:55:52.267Z</time></trkpt><trkpt lat="44.186985" lon="11.668725"><ele>439.99999999999994</ele><time>2026-04-12T07:55:54.267Z</time></trkpt><trkpt lat="44.18702" lon="11.6686433"><ele>440.0</ele><time>2026-04-12T07:55:55.268Z</time></trkpt><trkpt lat="44.18705" lon="11.66855"><ele>440.0</ele><time>2026-04-12T07:55:56.267Z</time></trkpt><trkpt lat="44.1871167" lon="11.6684833"><ele>440.0</ele><time>2026-04-12T07:55:57.266Z</time></trkpt><trkpt lat="44.187145" lon="11.6683617"><ele>439.99999999999994</ele><time>2026-04-12T07:55:58.268Z</time></trkpt><trkpt lat="44.1871717" lon="11.6682483"><ele>440.0</ele><time>2026-04-12T07:55:59.265Z</time></trkpt><trkpt lat="44.1871967" lon="11.6681417"><ele>439.8</ele><time>2026-04-12T07:56:00.267Z</time></trkpt><trkpt lat="44.1872083" lon="11.6680383"><ele>439.6</ele><time>2026-04-12T07:56:01.266Z</time></trkpt><trkpt lat="44.1872317" lon="11.6679533"><ele>439.4</ele><time>2026-04-12T07:56:02.267Z</time></trkpt><trkpt lat="44.187255" lon="11.66782"><ele>439.2</ele><time>2026-04-12T07:56:04.267Z</time></trkpt><trkpt lat="44.187325" lon="11.667725"><ele>439.0</ele><time>2026-04-12T07:56:06.266Z</time></trkpt><trkpt lat="44.187415" lon="11.667615"><ele>439.00000000000006</ele><time>2026-04-12T07:56:08.267Z</time></trkpt><trkpt lat="44.1874733" lon="11.667545"><ele>439.0</ele><time>2026-04-12T07:56:09.266Z</time></trkpt><trkpt lat="44.1875233" lon="11.667475"><ele>439.0</ele><time>2026-04-12T07:56:10.267Z</time></trkpt><trkpt lat="44.1875833" lon="11.6674017"><ele>439.0</ele><time>2026-04-12T07:56:11.267Z</time></trkpt><trkpt lat="44.1876383" lon="11.66733"><ele>439.00000000000006</ele><time>2026-04-12T07:56:12.267Z</time></trkpt><trkpt lat="44.1876933" lon="11.6672683"><ele>439.0</ele><time>2026-04-12T07:56:13.266Z</time></trkpt><trkpt lat="44.18775" lon="11.6671967"><ele>439.0</ele><time>2026-04-12T07:56:14.267Z</time></trkpt><trkpt lat="44.1877933" lon="11.667125"><ele>439.0</ele><time>2026-04-12T07:56:15.267Z</time></trkpt><trkpt lat="44.187855" lon="11.6669767"><ele>439.0</ele><time>2026-04-12T07:56:17.265Z</time></trkpt><trkpt lat="44.187875" lon="11.6668217"><ele>439.0</ele><time>2026-04-12T07:56:19.266Z</time></trkpt><trkpt lat="44.18788" lon="11.6666333"><ele>439.0</ele><time>2026-04-12T07:56:21.267Z</time></trkpt><trkpt lat="44.1878283" lon="11.666465"><ele>437.4</ele><time>2026-04-12T07:56:22.267Z</time></trkpt><trkpt lat="44.1877767" lon="11.6663617"><ele>435.79999999999995</ele><time>2026-04-12T07:56:23.266Z</time></trkpt><trkpt lat="44.187705" lon="11.6662283"><ele>434.20000000000005</ele><time>2026-04-12T07:56:24.267Z</time></trkpt><trkpt lat="44.1876267" lon="11.6661617"><ele>432.6</ele><time>2026-04-12T07:56:25.267Z</time></trkpt><trkpt lat="44.1875483" lon="11.6661033"><ele>431.0</ele><time>2026-04-12T07:56:26.266Z</time></trkpt><trkpt lat="44.18746" lon="11.66605"><ele>434.20000000000005</ele><time>2026-04-12T07:56:27.266Z</time></trkpt><trkpt lat="44.1873583" lon="11.6659917"><ele>437.40000000000003</ele><time>2026-04-12T07:56:28.267Z</time></trkpt><trkpt lat="44.1872633" lon="11.6659317"><ele>440.6</ele><time>2026-04-12T07:56:29.266Z</time></trkpt><trkpt lat="44.1871533" lon="11.665875"><ele>443.8</ele><time>2026-04-12T07:56:30.266Z</time></trkpt><trkpt lat="44.1870517" lon="11.665825"><ele>447.0</ele><time>2026-04-12T07:56:31.266Z</time></trkpt><trkpt lat="44.186945" lon="11.6657733"><ele>447.0</ele><time>2026-04-12T07:56:32.267Z</time></trkpt><trkpt lat="44.18686" lon="11.6657367"><ele>447.00000000000006</ele><time>2026-04-12T07:56:33.267Z</time></trkpt><trkpt lat="44.1867683" lon="11.665715"><ele>447.00000000000006</ele><time>2026-04-12T07:56:34.268Z</time></trkpt><trkpt lat="44.186655" lon="11.6657217"><ele>447.0</ele><time>2026-04-12T07:56:35.267Z</time></trkpt><trkpt lat="44.1865667" lon="11.6657183"><ele>447.0</ele><time>2026-04-12T07:56:36.266Z</time></trkpt><trkpt lat="44.18649" lon="11.6656967"><ele>445.1666666666667</ele><time>2026-04-12T07:56:37.266Z</time></trkpt><trkpt lat="44.1864167" lon="11.6656517"><ele>443.33333333333337</ele><time>2026-04-12T07:56:38.266Z</time></trkpt><trkpt lat="44.1863517" lon="11.6656017"><ele>441.5</ele><time>2026-04-12T07:56:39.266Z</time></trkpt><trkpt lat="44.1863" lon="11.6655467"><ele>439.6666666666667</ele><time>2026-04-12T07:56:40.266Z</time></trkpt><trkpt lat="44.1862417" lon="11.6655117"><ele>437.83333333333337</ele><time>2026-04-12T07:56:41.265Z</time></trkpt><trkpt lat="44.186115" lon="11.66545"><ele>436.0</ele><time>2026-04-12T07:56:43.266Z</time></trkpt><trkpt lat="44.1860467" lon="11.66545"><ele>436.00000000000006</ele><time>2026-04-12T07:56:44.266Z</time></trkpt><trkpt lat="44.1859767" lon="11.66546"><ele>436.0</ele><time>2026-04-12T07:56:45.266Z</time></trkpt><trkpt lat="44.1858933" lon="11.6654817"><ele>436.0</ele><time>2026-04-12T07:56:46.266Z</time></trkpt><trkpt lat="44.1858167" lon="11.6655067"><ele>436.0</ele><time>2026-04-12T07:56:47.267Z</time></trkpt><trkpt lat="44.185745" lon="11.66552"><ele>436.00000000000006</ele><time>2026-04-12T07:56:48.265Z</time></trkpt><trkpt lat="44.1856783" lon="11.6655317"><ele>436.0</ele><time>2026-04-12T07:56:49.268Z</time></trkpt><trkpt lat="44.1855767" lon="11.6655117"><ele>434.4</ele><time>2026-04-12T07:56:51.267Z</time></trkpt><trkpt lat="44.185515" lon="11.66541"><ele>432.8</ele><time>2026-04-12T07:56:54.267Z</time></trkpt><trkpt lat="44.185505" lon="11.6652183"><ele>431.19999999999993</ele><time>2026-04-12T07:56:56.267Z</time></trkpt><trkpt lat="44.1854917" lon="11.6651033"><ele>429.59999999999997</ele><time>2026-04-12T07:56:57.265Z</time></trkpt><trkpt lat="44.1854883" lon="11.66499"><ele>428.0</ele><time>2026-04-12T07:56:58.267Z</time></trkpt><trkpt lat="44.185505" lon="11.66485"><ele>428.0</ele><time>2026-04-12T07:56:59.265Z</time></trkpt><trkpt lat="44.1855217" lon="11.6646583"><ele>427.99999999999994</ele><time>2026-04-12T07:57:01.267Z</time></trkpt><trkpt lat="44.1855383" lon="11.6645417"><ele>427.99999999999994</ele><time>2026-04-12T07:57:02.266Z</time></trkpt><trkpt lat="44.1855633" lon="11.6644267"><ele>428.0</ele><time>2026-04-12T07:57:03.266Z</time></trkpt><trkpt lat="44.1855833" lon="11.6643067"><ele>428.0</ele><time>2026-04-12T07:57:04.267Z</time></trkpt><trkpt lat="44.1856" lon="11.6641917"><ele>431.49999999999994</ele><time>2026-04-12T07:57:05.267Z</time></trkpt><trkpt lat="44.1856" lon="11.6640717"><ele>435.0</ele><time>2026-04-12T07:57:06.267Z</time></trkpt><trkpt lat="44.1856" lon="11.66397"><ele>438.5</ele><time>2026-04-12T07:57:07.267Z</time></trkpt><trkpt lat="44.1855733" lon="11.6638283"><ele>442.0</ele><time>2026-04-12T07:57:08.267Z</time></trkpt><trkpt lat="44.1855467" lon="11.66373"><ele>445.49999999999994</ele><time>2026-04-12T07:57:09.266Z</time></trkpt><trkpt lat="44.1855117" lon="11.6636267"><ele>449.0</ele><time>2026-04-12T07:57:10.266Z</time></trkpt><trkpt lat="44.1854667" lon="11.6635267"><ele>453.6</ele><time>2026-04-12T07:57:11.269Z</time></trkpt><trkpt lat="44.1854" lon="11.6634183"><ele>458.2</ele><time>2026-04-12T07:57:12.266Z</time></trkpt><trkpt lat="44.185325" lon="11.6633267"><ele>462.80000000000007</ele><time>2026-04-12T07:57:13.267Z</time></trkpt><trkpt lat="44.1852483" lon="11.6632333"><ele>467.40000000000003</ele><time>2026-04-12T07:57:14.266Z</time></trkpt><trkpt lat="44.185165" lon="11.6631517"><ele>472.0</ele><time>2026-04-12T07:57:15.267Z</time></trkpt><trkpt lat="44.1850883" lon="11.6630733"><ele>472.0</ele><time>2026-04-12T07:57:16.266Z</time></trkpt><trkpt lat="44.185" lon="11.662995"><ele>472.00000000000006</ele><time>2026-04-12T07:57:17.268Z</time></trkpt><trkpt lat="44.1849033" lon="11.6629383"><ele>472.00000000000006</ele><time>2026-04-12T07:57:18.267Z</time></trkpt><trkpt lat="44.18479" lon="11.6628867"><ele>472.0</ele><time>2026-04-12T07:57:19.267Z</time></trkpt><trkpt lat="44.1846933" lon="11.66286"><ele>472.0</ele><time>2026-04-12T07:57:20.266Z</time></trkpt><trkpt lat="44.1845767" lon="11.6628583"><ele>471.33333333333337</ele><time>2026-04-12T07:57:21.265Z</time></trkpt><trkpt lat="44.1844633" lon="11.66284"><ele>470.6666666666667</ele><time>2026-04-12T07:57:22.267Z</time></trkpt><trkpt lat="44.1843817" lon="11.6628267"><ele>470.0</ele><time>2026-04-12T07:57:23.265Z</time></trkpt><trkpt lat="44.18429" lon="11.6628133"><ele>469.33333333333337</ele><time>2026-04-12T07:57:25.266Z</time></trkpt><trkpt lat="44.1842683" lon="11.6627233"><ele>468.6666666666667</ele><time>2026-04-12T07:57:27.266Z</time></trkpt><trkpt lat="44.1842917" lon="11.6626017"><ele>468.0</ele><time>2026-04-12T07:57:29.266Z</time></trkpt><trkpt lat="44.1843167" lon="11.6625133"><ele>468.79999999999995</ele><time>2026-04-12T07:57:30.266Z</time></trkpt><trkpt lat="44.18434" lon="11.6623933"><ele>469.59999999999997</ele><time>2026-04-12T07:57:32.266Z</time></trkpt><trkpt lat="44.1843783" lon="11.6623133"><ele>470.40000000000003</ele><time>2026-04-12T07:57:33.267Z</time></trkpt><trkpt lat="44.184425" lon="11.6622117"><ele>471.20000000000005</ele><time>2026-04-12T07:57:34.266Z</time></trkpt><trkpt lat="44.1844817" lon="11.6620583"><ele>472.0</ele><time>2026-04-12T07:57:36.266Z</time></trkpt><trkpt lat="44.1844933" lon="11.6619367"><ele>472.0</ele><time>2026-04-12T07:57:38.266Z</time></trkpt><trkpt lat="44.18449" lon="11.6617833"><ele>472.00000000000006</ele><time>2026-04-12T07:57:40.267Z</time></trkpt><trkpt lat="44.1844333" lon="11.6616483"><ele>472.00000000000006</ele><time>2026-04-12T07:57:42.267Z</time></trkpt><trkpt lat="44.1843833" lon="11.661565"><ele>472.0</ele><time>2026-04-12T07:57:44.266Z</time></trkpt><trkpt lat="44.1843067" lon="11.6616033"><ele>472.0</ele><time>2026-04-12T07:57:48.266Z</time></trkpt><trkpt lat="44.1842633" lon="11.6617433"><ele>472.0</ele><time>2026-04-12T07:57:51.266Z</time></trkpt><trkpt lat="44.1842033" lon="11.6618683"><ele>472.00000000000006</ele><time>2026-04-12T07:57:53.266Z</time></trkpt><trkpt lat="44.1840933" lon="11.66196"><ele>472.00000000000006</ele><time>2026-04-12T07:57:55.266Z</time></trkpt><trkpt lat="44.1840317" lon="11.6619967"><ele>472.0</ele><time>2026-04-12T07:57:56.267Z</time></trkpt><trkpt lat="44.1839617" lon="11.6620217"><ele>472.0</ele><time>2026-04-12T07:57:57.266Z</time></trkpt><trkpt lat="44.183885" lon="11.6620383"><ele>466.83333333333337</ele><time>2026-04-12T07:57:58.267Z</time></trkpt><trkpt lat="44.1838117" lon="11.6620567"><ele>461.6666666666667</ele><time>2026-04-12T07:57:59.266Z</time></trkpt><trkpt lat="44.1837483" lon="11.662065"><ele>456.5</ele><time>2026-04-12T07:58:00.267Z</time></trkpt><trkpt lat="44.1836617" lon="11.662105"><ele>451.33333333333337</ele><time>2026-04-12T07:58:02.266Z</time></trkpt><trkpt lat="44.1835867" lon="11.6622067"><ele>446.1666666666667</ele><time>2026-04-12T07:58:04.266Z</time></trkpt><trkpt lat="44.1835533" lon="11.6623333"><ele>441.0</ele><time>2026-04-12T07:58:06.267Z</time></trkpt><trkpt lat="44.18351" lon="11.6624217"><ele>441.0</ele><time>2026-04-12T07:58:08.267Z</time></trkpt><trkpt lat="44.18346" lon="11.6624817"><ele>441.0</ele><time>2026-04-12T07:58:11.266Z</time></trkpt><trkpt lat="44.18343" lon="11.6623933"><ele>441.0</ele><time>2026-04-12T07:58:14.266Z</time></trkpt><trkpt lat="44.183385" lon="11.66227"><ele>441.0</ele><time>2026-04-12T07:58:16.266Z</time></trkpt><trkpt lat="44.1833733" lon="11.6621383"><ele>441.0</ele><time>2026-04-12T07:58:18.267Z</time></trkpt><trkpt lat="44.1833433" lon="11.662005"><ele>441.0</ele><time>2026-04-12T07:58:20.266Z</time></trkpt><trkpt lat="44.1832717" lon="11.66194"><ele>441.0</ele><time>2026-04-12T07:58:23.268Z</time></trkpt><trkpt lat="44.1832067" lon="11.6619667"><ele>441.0</ele><time>2026-04-12T07:58:25.268Z</time></trkpt><trkpt lat="44.183175" lon="11.6620433"><ele>441.0</ele><time>2026-04-12T07:58:27.267Z</time></trkpt><trkpt lat="44.18317" lon="11.6621733"><ele>441.0</ele><time>2026-04-12T07:58:29.266Z</time></trkpt><trkpt lat="44.18317" lon="11.6622983"><ele>441.0</ele><time>2026-04-12T07:58:31.272Z</time></trkpt><trkpt lat="44.183155" lon="11.6623933"><ele>441.0</ele><time>2026-04-12T07:58:33.267Z</time></trkpt><trkpt lat="44.183105" lon="11.6624817"><ele>437.20000000000005</ele><time>2026-04-12T07:58:36.267Z</time></trkpt><trkpt lat="44.18304" lon="11.66253"><ele>433.40000000000003</ele><time>2026-04-12T07:58:38.267Z</time></trkpt><trkpt lat="44.1829517" lon="11.662565"><ele>429.6</ele><time>2026-04-12T07:58:40.267Z</time></trkpt><trkpt lat="44.1828417" lon="11.6625517"><ele>425.8</ele><time>2026-04-12T07:58:42.266Z</time></trkpt><trkpt lat="44.182735" lon="11.6624717"><ele>422.0</ele><time>2026-04-12T07:58:44.267Z</time></trkpt><trkpt lat="44.1826783" lon="11.6624233"><ele>421.99999999999994</ele><time>2026-04-12T07:58:45.269Z</time></trkpt><trkpt lat="44.1826183" lon="11.6623817"><ele>422.0</ele><time>2026-04-12T07:58:46.266Z</time></trkpt><trkpt lat="44.1825217" lon="11.6622983"><ele>422.0</ele><time>2026-04-12T07:58:48.267Z</time></trkpt><trkpt lat="44.1824583" lon="11.6622633"><ele>422.0</ele><time>2026-04-12T07:58:49.267Z</time></trkpt><trkpt lat="44.1823817" lon="11.6622417"><ele>421.99999999999994</ele><time>2026-04-12T07:58:50.267Z</time></trkpt><trkpt lat="44.1823083" lon="11.6622117"><ele>422.0</ele><time>2026-04-12T07:58:51.267Z</time></trkpt><trkpt lat="44.18223" lon="11.6621883"><ele>418.16666666666663</ele><time>2026-04-12T07:58:52.268Z</time></trkpt><trkpt lat="44.1821583" lon="11.6621933"><ele>414.3333333333333</ele><time>2026-04-12T07:58:53.266Z</time></trkpt><trkpt lat="44.1820917" lon="11.6622067"><ele>410.5</ele><time>2026-04-12T07:58:54.266Z</time></trkpt><trkpt lat="44.1820217" lon="11.662235"><ele>406.66666666666663</ele><time>2026-04-12T07:58:55.266Z</time></trkpt><trkpt lat="44.1819183" lon="11.662305"><ele>402.8333333333333</ele><time>2026-04-12T07:58:57.267Z</time></trkpt><trkpt lat="44.18187" lon="11.6623717"><ele>399.0</ele><time>2026-04-12T07:58:58.267Z</time></trkpt><trkpt lat="44.1818233" lon="11.6624983"><ele>399.0</ele><time>2026-04-12T07:59:00.266Z</time></trkpt><trkpt lat="44.1818033" lon="11.66265"><ele>399.0</ele><time>2026-04-12T07:59:02.267Z</time></trkpt><trkpt lat="44.1817533" lon="11.66273"><ele>399.0</ele><time>2026-04-12T07:59:04.266Z</time></trkpt><trkpt lat="44.1816917" lon="11.6627733"><ele>399.0</ele><time>2026-04-12T07:59:06.265Z</time></trkpt><trkpt lat="44.18164" lon="11.662835"><ele>399.0</ele><time>2026-04-12T07:59:08.268Z</time></trkpt><trkpt lat="44.181605" lon="11.6627483"><ele>399.0</ele><time>2026-04-12T07:59:12.267Z</time></trkpt><trkpt lat="44.1816133" lon="11.6626267"><ele>399.0</ele><time>2026-04-12T08:00:03.267Z</time></trkpt><trkpt lat="44.1816067" lon="11.66247"><ele>399.0</ele><time>2026-04-12T08:00:05.267Z</time></trkpt><trkpt lat="44.1815983" lon="11.66237"><ele>399.0</ele><time>2026-04-12T08:00:06.267Z</time></trkpt><trkpt lat="44.181595" lon="11.662275"><ele>399.0</ele><time>2026-04-12T08:00:07.266Z</time></trkpt><trkpt lat="44.1815817" lon="11.6621817"><ele>399.0</ele><time>2026-04-12T08:00:08.268Z</time></trkpt><trkpt lat="44.1815583" lon="11.6620917"><ele>399.0</ele><time>2026-04-12T08:00:09.267Z</time></trkpt><trkpt lat="44.1814783" lon="11.6619617"><ele>399.6666666666667</ele><time>2026-04-12T08:00:11.266Z</time></trkpt><trkpt lat="44.1814117" lon="11.6619333"><ele>400.33333333333337</ele><time>2026-04-12T08:00:12.268Z</time></trkpt><trkpt lat="44.1813333" lon="11.6619233"><ele>401.0</ele><time>2026-04-12T08:00:13.267Z</time></trkpt><trkpt lat="44.1812583" lon="11.6619283"><ele>401.6666666666667</ele><time>2026-04-12T08:00:14.267Z</time></trkpt><trkpt lat="44.1811867" lon="11.661935"><ele>402.33333333333337</ele><time>2026-04-12T08:00:15.267Z</time></trkpt><trkpt lat="44.1811233" lon="11.661945"><ele>403.0</ele><time>2026-04-12T08:00:16.267Z</time></trkpt><trkpt lat="44.181015" lon="11.6619833"><ele>399.50000000000006</ele><time>2026-04-12T08:00:18.267Z</time></trkpt><trkpt lat="44.18091" lon="11.6620417"><ele>396.0</ele><time>2026-04-12T08:00:20.269Z</time></trkpt><trkpt lat="44.1808483" lon="11.6620933"><ele>392.5</ele><time>2026-04-12T08:00:21.265Z</time></trkpt><trkpt lat="44.1807867" lon="11.66214"><ele>389.0</ele><time>2026-04-12T08:00:22.267Z</time></trkpt><trkpt lat="44.1807233" lon="11.6621883"><ele>385.5</ele><time>2026-04-12T08:00:23.266Z</time></trkpt><trkpt lat="44.1806567" lon="11.6622383"><ele>382.0</ele><time>2026-04-12T08:00:24.267Z</time></trkpt><trkpt lat="44.1805783" lon="11.6623117"><ele>381.8571428571429</ele><time>2026-04-12T08:00:25.267Z</time></trkpt><trkpt lat="44.18051" lon="11.66238"><ele>381.71428571428567</ele><time>2026-04-12T08:00:26.267Z</time></trkpt><trkpt lat="44.1804517" lon="11.662455"><ele>381.57142857142856</ele><time>2026-04-12T08:00:27.266Z</time></trkpt><trkpt lat="44.1804083" lon="11.6625233"><ele>381.42857142857144</ele><time>2026-04-12T08:00:28.267Z</time></trkpt><trkpt lat="44.1803633" lon="11.6625933"><ele>381.28571428571433</ele><time>2026-04-12T08:00:29.267Z</time></trkpt><trkpt lat="44.1803217" lon="11.66267"><ele>381.1428571428571</ele><time>2026-04-12T08:00:30.267Z</time></trkpt><trkpt lat="44.1802783" lon="11.6627367"><ele>381.0</ele><time>2026-04-12T08:00:31.27Z</time></trkpt><trkpt lat="44.1802317" lon="11.6628"><ele>378.4285714285714</ele><time>2026-04-12T08:00:32.269Z</time></trkpt><trkpt lat="44.1801617" lon="11.6628433"><ele>375.8571428571429</ele><time>2026-04-12T08:00:33.269Z</time></trkpt><trkpt lat="44.1801033" lon="11.6628833"><ele>373.2857142857143</ele><time>2026-04-12T08:00:34.269Z</time></trkpt><trkpt lat="44.1800383" lon="11.6629267"><ele>370.71428571428567</ele><time>2026-04-12T08:00:35.269Z</time></trkpt><trkpt lat="44.1799783" lon="11.6629917"><ele>368.1428571428571</ele><time>2026-04-12T08:00:36.268Z</time></trkpt><trkpt lat="44.1799283" lon="11.6630667"><ele>365.57142857142856</ele><time>2026-04-12T08:00:37.269Z</time></trkpt><trkpt lat="44.1798767" lon="11.6631333"><ele>363.0</ele><time>2026-04-12T08:00:38.267Z</time></trkpt><trkpt lat="44.17982" lon="11.6631967"><ele>360.4</ele><time>2026-04-12T08:00:39.268Z</time></trkpt><trkpt lat="44.1797617" lon="11.6632483"><ele>357.79999999999995</ele><time>2026-04-12T08:00:40.266Z</time></trkpt><trkpt lat="44.179695" lon="11.6633067"><ele>355.2</ele><time>2026-04-12T08:00:41.267Z</time></trkpt><trkpt lat="44.179595" lon="11.663385"><ele>352.6</ele><time>2026-04-12T08:00:43.267Z</time></trkpt><trkpt lat="44.1794967" lon="11.66348"><ele>350.0</ele><time>2026-04-12T08:00:45.266Z</time></trkpt><trkpt lat="44.1794067" lon="11.6635967"><ele>347.33333333333337</ele><time>2026-04-12T08:00:47.267Z</time></trkpt><trkpt lat="44.1793483" lon="11.6636583"><ele>344.6666666666667</ele><time>2026-04-12T08:00:48.267Z</time></trkpt><trkpt lat="44.1792833" lon="11.6637083"><ele>342.0</ele><time>2026-04-12T08:00:49.269Z</time></trkpt><trkpt lat="44.1792167" lon="11.66375"><ele>339.3333333333333</ele><time>2026-04-12T08:00:50.267Z</time></trkpt><trkpt lat="44.1791567" lon="11.6637883"><ele>336.66666666666663</ele><time>2026-04-12T08:00:51.268Z</time></trkpt><trkpt lat="44.179065" lon="11.66387"><ele>334.0</ele><time>2026-04-12T08:00:53.267Z</time></trkpt><trkpt lat="44.1789967" lon="11.6639517"><ele>334.0</ele><time>2026-04-12T08:00:55.267Z</time></trkpt><trkpt lat="44.178925" lon="11.6640383"><ele>334.0</ele><time>2026-04-12T08:00:57.267Z</time></trkpt><trkpt lat="44.1788567" lon="11.6641283"><ele>334.0</ele><time>2026-04-12T08:00:59.267Z</time></trkpt><trkpt lat="44.1788117" lon="11.6642333"><ele>334.0</ele><time>2026-04-12T08:01:01.267Z</time></trkpt><trkpt lat="44.178795" lon="11.6643333"><ele>334.0</ele><time>2026-04-12T08:01:03.268Z</time></trkpt><trkpt lat="44.178785" lon="11.66443"><ele>334.0</ele><time>2026-04-12T08:01:05.267Z</time></trkpt><trkpt lat="44.1787883" lon="11.6645383"><ele>334.2</ele><time>2026-04-12T08:01:08.266Z</time></trkpt><trkpt lat="44.1787783" lon="11.6646733"><ele>334.4</ele><time>2026-04-12T08:01:10.27Z</time></trkpt><trkpt lat="44.1788033" lon="11.6648233"><ele>334.6</ele><time>2026-04-12T08:01:12.266Z</time></trkpt><trkpt lat="44.178835" lon="11.665"><ele>334.8</ele><time>2026-04-12T08:01:14.266Z</time></trkpt><trkpt lat="44.1788517" lon="11.665145"><ele>335.0</ele><time>2026-04-12T08:01:16.266Z</time></trkpt><trkpt lat="44.178865" lon="11.6652983"><ele>337.6</ele><time>2026-04-12T08:01:18.267Z</time></trkpt><trkpt lat="44.178895" lon="11.665455"><ele>340.2</ele><time>2026-04-12T08:01:20.266Z</time></trkpt><trkpt lat="44.17892" lon="11.665545"><ele>342.79999999999995</ele><time>2026-04-12T08:01:21.267Z</time></trkpt><trkpt lat="44.178945" lon="11.66564"><ele>345.4</ele><time>2026-04-12T08:01:22.267Z</time></trkpt><trkpt lat="44.17896" lon="11.6658"><ele>348.0</ele><time>2026-04-12T08:01:23.267Z</time></trkpt><trkpt lat="44.1790083" lon="11.6658817"><ele>345.57142857142856</ele><time>2026-04-12T08:01:24.267Z</time></trkpt><trkpt lat="44.17904" lon="11.6659633"><ele>343.14285714285717</ele><time>2026-04-12T08:01:25.267Z</time></trkpt><trkpt lat="44.1790583" lon="11.666055"><ele>340.7142857142857</ele><time>2026-04-12T08:01:26.267Z</time></trkpt><trkpt lat="44.179075" lon="11.666145"><ele>338.2857142857143</ele><time>2026-04-12T08:01:27.268Z</time></trkpt><trkpt lat="44.1790833" lon="11.6662383"><ele>335.85714285714283</ele><time>2026-04-12T08:01:28.267Z</time></trkpt><trkpt lat="44.1791" lon="11.6663333"><ele>333.42857142857144</ele><time>2026-04-12T08:01:29.267Z</time></trkpt><trkpt lat="44.1791017" lon="11.6664433"><ele>331.0</ele><time>2026-04-12T08:01:30.267Z</time></trkpt><trkpt lat="44.1791017" lon="11.666545"><ele>331.0</ele><time>2026-04-12T08:01:31.267Z</time></trkpt><trkpt lat="44.1790883" lon="11.6666617"><ele>331.0</ele><time>2026-04-12T08:01:32.267Z</time></trkpt><trkpt lat="44.17915" lon="11.6667783"><ele>331.0</ele><time>2026-04-12T08:01:33.267Z</time></trkpt><trkpt lat="44.1791083" lon="11.66692"><ele>331.0</ele><time>2026-04-12T08:01:35.267Z</time></trkpt><trkpt lat="44.1790667" lon="11.6670067"><ele>331.0</ele><time>2026-04-12T08:01:36.266Z</time></trkpt><trkpt lat="44.17901" lon="11.667065"><ele>331.0</ele><time>2026-04-12T08:01:37.267Z</time></trkpt><trkpt lat="44.1789583" lon="11.66714"><ele>334.66666666666663</ele><time>2026-04-12T08:01:38.268Z</time></trkpt><trkpt lat="44.1789017" lon="11.6672283"><ele>338.3333333333333</ele><time>2026-04-12T08:01:39.268Z</time></trkpt><trkpt lat="44.17885" lon="11.6673117"><ele>342.0</ele><time>2026-04-12T08:01:40.268Z</time></trkpt><trkpt lat="44.178795" lon="11.667395"><ele>345.6666666666667</ele><time>2026-04-12T08:01:41.267Z</time></trkpt><trkpt lat="44.178745" lon="11.6674867"><ele>349.33333333333337</ele><time>2026-04-12T08:01:42.267Z</time></trkpt><trkpt lat="44.1787167" lon="11.6675717"><ele>353.0</ele><time>2026-04-12T08:01:43.267Z</time></trkpt><trkpt lat="44.1786833" lon="11.667655"><ele>353.0</ele><time>2026-04-12T08:01:44.266Z</time></trkpt><trkpt lat="44.1786567" lon="11.6677367"><ele>353.0</ele><time>2026-04-12T08:01:45.269Z</time></trkpt><trkpt lat="44.1786017" lon="11.6678883"><ele>353.0</ele><time>2026-04-12T08:01:46.267Z</time></trkpt><trkpt lat="44.1785967" lon="11.6680333"><ele>353.0</ele><time>2026-04-12T08:01:48.267Z</time></trkpt><trkpt lat="44.17865" lon="11.6680983"><ele>353.0</ele><time>2026-04-12T08:01:49.267Z</time></trkpt><trkpt lat="44.1787433" lon="11.6682117"><ele>352.83333333333337</ele><time>2026-04-12T08:01:51.267Z</time></trkpt><trkpt lat="44.1788117" lon="11.6682667"><ele>352.6666666666667</ele><time>2026-04-12T08:01:52.268Z</time></trkpt><trkpt lat="44.1788917" lon="11.6683233"><ele>352.5</ele><time>2026-04-12T08:01:53.267Z</time></trkpt><trkpt lat="44.178955" lon="11.6683883"><ele>352.3333333333333</ele><time>2026-04-12T08:01:54.267Z</time></trkpt><trkpt lat="44.1790233" lon="11.6684733"><ele>352.16666666666663</ele><time>2026-04-12T08:01:55.266Z</time></trkpt><trkpt lat="44.1790783" lon="11.668555"><ele>352.0</ele><time>2026-04-12T08:01:56.267Z</time></trkpt><trkpt lat="44.1792283" lon="11.6686633"><ele>350.66666666666663</ele><time>2026-04-12T08:01:58.267Z</time></trkpt><trkpt lat="44.1792567" lon="11.66879"><ele>349.3333333333333</ele><time>2026-04-12T08:02:00.267Z</time></trkpt><trkpt lat="44.17922" lon="11.6688783"><ele>348.0</ele><time>2026-04-12T08:02:02.266Z</time></trkpt><trkpt lat="44.1791467" lon="11.66892"><ele>346.6666666666667</ele><time>2026-04-12T08:02:04.267Z</time></trkpt><trkpt lat="44.179075" lon="11.6689567"><ele>345.33333333333337</ele><time>2026-04-12T08:02:07.267Z</time></trkpt><trkpt lat="44.17901" lon="11.6690583"><ele>344.0</ele><time>2026-04-12T08:02:10.267Z</time></trkpt><trkpt lat="44.178975" lon="11.6691533"><ele>347.0</ele><time>2026-04-12T08:02:12.265Z</time></trkpt><trkpt lat="44.1789417" lon="11.6692917"><ele>350.0</ele><time>2026-04-12T08:02:15.267Z</time></trkpt><trkpt lat="44.17891" lon="11.6694167"><ele>353.0</ele><time>2026-04-12T08:02:17.267Z</time></trkpt><trkpt lat="44.17886" lon="11.6695183"><ele>356.0</ele><time>2026-04-12T08:02:19.268Z</time></trkpt><trkpt lat="44.1788083" lon="11.6696"><ele>359.0</ele><time>2026-04-12T08:02:22.266Z</time></trkpt><trkpt lat="44.1787617" lon="11.669695"><ele>362.0</ele><time>2026-04-12T08:02:24.265Z</time></trkpt><trkpt lat="44.1787117" lon="11.6697917"><ele>362.20000000000005</ele><time>2026-04-12T08:02:27.267Z</time></trkpt><trkpt lat="44.17866" lon="11.66991"><ele>362.4</ele><time>2026-04-12T08:02:30.269Z</time></trkpt><trkpt lat="44.1786183" lon="11.670005"><ele>362.6</ele><time>2026-04-12T08:02:32.267Z</time></trkpt><trkpt lat="44.178555" lon="11.6701267"><ele>362.79999999999995</ele><time>2026-04-12T08:02:34.266Z</time></trkpt><trkpt lat="44.178515" lon="11.6702533"><ele>363.0</ele><time>2026-04-12T08:02:36.266Z</time></trkpt><trkpt lat="44.17848" lon="11.6703867"><ele>361.5</ele><time>2026-04-12T08:02:38.267Z</time></trkpt><trkpt lat="44.1784517" lon="11.6704833"><ele>360.0</ele><time>2026-04-12T08:02:39.266Z</time></trkpt><trkpt lat="44.1784" lon="11.67065"><ele>358.5</ele><time>2026-04-12T08:02:41.267Z</time></trkpt><trkpt lat="44.1783883" lon="11.670795"><ele>357.0</ele><time>2026-04-12T08:02:43.267Z</time></trkpt><trkpt lat="44.178385" lon="11.6708833"><ele>355.5</ele><time>2026-04-12T08:02:44.267Z</time></trkpt><trkpt lat="44.1783767" lon="11.670985"><ele>354.0</ele><time>2026-04-12T08:02:45.266Z</time></trkpt><trkpt lat="44.1783683" lon="11.6711483"><ele>352.8333333333333</ele><time>2026-04-12T08:02:47.266Z</time></trkpt><trkpt lat="44.1783517" lon="11.6712867"><ele>351.6666666666667</ele><time>2026-04-12T08:02:49.266Z</time></trkpt><trkpt lat="44.1783333" lon="11.671375"><ele>350.5</ele><time>2026-04-12T08:02:50.267Z</time></trkpt><trkpt lat="44.1782883" lon="11.671515"><ele>349.33333333333337</ele><time>2026-04-12T08:02:52.266Z</time></trkpt><trkpt lat="44.1782333" lon="11.671605"><ele>348.1666666666667</ele><time>2026-04-12T08:02:54.266Z</time></trkpt><trkpt lat="44.17816" lon="11.67166"><ele>347.0</ele><time>2026-04-12T08:02:56.267Z</time></trkpt><trkpt lat="44.17805" lon="11.6716917"><ele>350.6</ele><time>2026-04-12T08:02:58.267Z</time></trkpt><trkpt lat="44.1779467" lon="11.671705"><ele>354.20000000000005</ele><time>2026-04-12T08:03:00.267Z</time></trkpt><trkpt lat="44.177835" lon="11.67171"><ele>357.8</ele><time>2026-04-12T08:03:02.267Z</time></trkpt><trkpt lat="44.1777233" lon="11.6717333"><ele>361.4</ele><time>2026-04-12T08:03:04.267Z</time></trkpt><trkpt lat="44.17762" lon="11.6717533"><ele>365.0</ele><time>2026-04-12T08:03:06.267Z</time></trkpt><trkpt lat="44.177555" lon="11.67177"><ele>365.0</ele><time>2026-04-12T08:03:07.268Z</time></trkpt><trkpt lat="44.1774567" lon="11.6718167"><ele>365.0</ele><time>2026-04-12T08:03:09.267Z</time></trkpt><trkpt lat="44.1773733" lon="11.6718783"><ele>365.0</ele><time>2026-04-12T08:03:11.268Z</time></trkpt><trkpt lat="44.177285" lon="11.6719567"><ele>365.0</ele><time>2026-04-12T08:03:13.266Z</time></trkpt><trkpt lat="44.17718" lon="11.6720383"><ele>365.0</ele><time>2026-04-12T08:03:15.267Z</time></trkpt><trkpt lat="44.1771117" lon="11.6721167"><ele>368.83333333333337</ele><time>2026-04-12T08:03:17.266Z</time></trkpt><trkpt lat="44.1770717" lon="11.6722383"><ele>372.6666666666667</ele><time>2026-04-12T08:03:19.268Z</time></trkpt><trkpt lat="44.1770617" lon="11.6723983"><ele>376.5</ele><time>2026-04-12T08:03:21.267Z</time></trkpt><trkpt lat="44.1770767" lon="11.67249"><ele>380.33333333333337</ele><time>2026-04-12T08:03:22.266Z</time></trkpt><trkpt lat="44.1771033" lon="11.6725883"><ele>384.1666666666667</ele><time>2026-04-12T08:03:23.266Z</time></trkpt><trkpt lat="44.177145" lon="11.67268"><ele>388.0</ele><time>2026-04-12T08:03:24.265Z</time></trkpt><trkpt lat="44.17719" lon="11.672775"><ele>388.59999999999997</ele><time>2026-04-12T08:03:25.267Z</time></trkpt><trkpt lat="44.17726" lon="11.6728683"><ele>389.2</ele><time>2026-04-12T08:03:26.266Z</time></trkpt><trkpt lat="44.1773133" lon="11.6729717"><ele>389.8</ele><time>2026-04-12T08:03:27.266Z</time></trkpt><trkpt lat="44.1773783" lon="11.6730833"><ele>390.4</ele><time>2026-04-12T08:03:28.266Z</time></trkpt><trkpt lat="44.17743" lon="11.6731783"><ele>391.0</ele><time>2026-04-12T08:03:29.266Z</time></trkpt><trkpt lat="44.1774717" lon="11.6732833"><ele>387.0</ele><time>2026-04-12T08:03:30.267Z</time></trkpt><trkpt lat="44.1775083" lon="11.6733917"><ele>383.0</ele><time>2026-04-12T08:03:31.267Z</time></trkpt><trkpt lat="44.17754" lon="11.6735133"><ele>379.0</ele><time>2026-04-12T08:03:32.27Z</time></trkpt><trkpt lat="44.177575" lon="11.6736567"><ele>375.0</ele><time>2026-04-12T08:03:33.269Z</time></trkpt><trkpt lat="44.177615" lon="11.6738017"><ele>371.0</ele><time>2026-04-12T08:03:34.266Z</time></trkpt><trkpt lat="44.17766" lon="11.67395"><ele>371.0</ele><time>2026-04-12T08:03:35.267Z</time></trkpt><trkpt lat="44.1776983" lon="11.6740667"><ele>371.0</ele><time>2026-04-12T08:03:36.267Z</time></trkpt><trkpt lat="44.1777367" lon="11.6741633"><ele>371.0</ele><time>2026-04-12T08:03:37.268Z</time></trkpt><trkpt lat="44.1777683" lon="11.6742417"><ele>371.0</ele><time>2026-04-12T08:03:38.267Z</time></trkpt><trkpt lat="44.1777917" lon="11.6743317"><ele>371.0</ele><time>2026-04-12T08:03:39.267Z</time></trkpt><trkpt lat="44.17782" lon="11.6745017"><ele>371.0</ele><time>2026-04-12T08:03:41.266Z</time></trkpt><trkpt lat="44.1778233" lon="11.6745933"><ele>371.33333333333337</ele><time>2026-04-12T08:03:42.267Z</time></trkpt><trkpt lat="44.177815" lon="11.6746967"><ele>371.6666666666667</ele><time>2026-04-12T08:03:43.267Z</time></trkpt><trkpt lat="44.1777917" lon="11.674795"><ele>372.0</ele><time>2026-04-12T08:03:44.266Z</time></trkpt><trkpt lat="44.1777783" lon="11.6749117"><ele>372.3333333333333</ele><time>2026-04-12T08:03:45.267Z</time></trkpt><trkpt lat="44.1777583" lon="11.6750417"><ele>372.66666666666663</ele><time>2026-04-12T08:03:46.266Z</time></trkpt><trkpt lat="44.177745" lon="11.6751683"><ele>373.0</ele><time>2026-04-12T08:03:47.267Z</time></trkpt><trkpt lat="44.1777217" lon="11.675305"><ele>372.3333333333333</ele><time>2026-04-12T08:03:48.266Z</time></trkpt><trkpt lat="44.17771" lon="11.67543"><ele>371.66666666666663</ele><time>2026-04-12T08:03:49.267Z</time></trkpt><trkpt lat="44.1777117" lon="11.6755483"><ele>371.0</ele><time>2026-04-12T08:03:50.267Z</time></trkpt><trkpt lat="44.17772" lon="11.6756583"><ele>370.3333333333333</ele><time>2026-04-12T08:03:51.267Z</time></trkpt><trkpt lat="44.1777083" lon="11.6757617"><ele>369.6666666666667</ele><time>2026-04-12T08:03:52.267Z</time></trkpt><trkpt lat="44.177705" lon="11.6758517"><ele>369.0</ele><time>2026-04-12T08:03:53.267Z</time></trkpt><trkpt lat="44.177705" lon="11.6759467"><ele>369.0</ele><time>2026-04-12T08:03:54.266Z</time></trkpt><trkpt lat="44.177695" lon="11.6760517"><ele>369.0</ele><time>2026-04-12T08:03:55.269Z</time></trkpt><trkpt lat="44.1776833" lon="11.6761667"><ele>369.0</ele><time>2026-04-12T08:03:56.267Z</time></trkpt><trkpt lat="44.1776583" lon="11.67627"><ele>369.0</ele><time>2026-04-12T08:03:57.268Z</time></trkpt><trkpt lat="44.1776217" lon="11.6763767"><ele>369.0</ele><time>2026-04-12T08:03:58.267Z</time></trkpt><trkpt lat="44.1775783" lon="11.676475"><ele>369.0</ele><time>2026-04-12T08:03:59.267Z</time></trkpt><trkpt lat="44.1775267" lon="11.6765733"><ele>369.0</ele><time>2026-04-12T08:04:00.266Z</time></trkpt><trkpt lat="44.177475" lon="11.67666"><ele>369.0</ele><time>2026-04-12T08:04:01.267Z</time></trkpt><trkpt lat="44.1774317" lon="11.6767267"><ele>369.0</ele><time>2026-04-12T08:04:02.267Z</time></trkpt><trkpt lat="44.1773833" lon="11.67679"><ele>369.0</ele><time>2026-04-12T08:04:03.267Z</time></trkpt><trkpt lat="44.17733" lon="11.676845"><ele>369.0</ele><time>2026-04-12T08:04:04.266Z</time></trkpt><trkpt lat="44.17726" lon="11.6769083"><ele>369.0</ele><time>2026-04-12T08:04:06.267Z</time></trkpt><trkpt lat="44.177215" lon="11.676845"><ele>369.0</ele><time>2026-04-12T08:04:12.267Z</time></trkpt><trkpt lat="44.1772683" lon="11.67675"><ele>369.0</ele><time>2026-04-12T08:04:22.266Z</time></trkpt><trkpt lat="44.1773383" lon="11.6766117"><ele>369.0</ele><time>2026-04-12T08:04:24.267Z</time></trkpt><trkpt lat="44.1773717" lon="11.67652"><ele>369.0</ele><time>2026-04-12T08:04:25.268Z</time></trkpt><trkpt lat="44.1774133" lon="11.6764067"><ele>369.0</ele><time>2026-04-12T08:04:26.266Z</time></trkpt><trkpt lat="44.17743" lon="11.6762883"><ele>369.0</ele><time>2026-04-12T08:04:27.267Z</time></trkpt><trkpt lat="44.1774433" lon="11.6761217"><ele>369.0</ele><time>2026-04-12T08:04:28.269Z</time></trkpt><trkpt lat="44.1774183" lon="11.675955"><ele>369.0</ele><time>2026-04-12T08:04:29.268Z</time></trkpt><trkpt lat="44.1774117" lon="11.6757933"><ele>369.0</ele><time>2026-04-12T08:04:30.267Z</time></trkpt><trkpt lat="44.1774067" lon="11.6756333"><ele>369.0</ele><time>2026-04-12T08:04:31.267Z</time></trkpt><trkpt lat="44.17743" lon="11.6754367"><ele>370.0</ele><time>2026-04-12T08:04:32.267Z</time></trkpt><trkpt lat="44.1774567" lon="11.67524"><ele>371.0</ele><time>2026-04-12T08:04:33.268Z</time></trkpt><trkpt lat="44.1774833" lon="11.67502"><ele>372.0</ele><time>2026-04-12T08:04:34.266Z</time></trkpt><trkpt lat="44.1775083" lon="11.6748367"><ele>373.0</ele><time>2026-04-12T08:04:35.267Z</time></trkpt><trkpt lat="44.17751" lon="11.6747133"><ele>373.0</ele><time>2026-04-12T08:04:36.266Z</time></trkpt><trkpt lat="44.1775017" lon="11.6745917"><ele>373.0</ele><time>2026-04-12T08:04:37.267Z</time></trkpt><trkpt lat="44.1774767" lon="11.6744817"><ele>373.0</ele><time>2026-04-12T08:04:38.265Z</time></trkpt><trkpt lat="44.1774483" lon="11.6743733"><ele>373.0</ele><time>2026-04-12T08:04:39.267Z</time></trkpt><trkpt lat="44.177405" lon="11.67428"><ele>373.0</ele><time>2026-04-12T08:04:40.266Z</time></trkpt><trkpt lat="44.177325" lon="11.6741967"><ele>373.0</ele><time>2026-04-12T08:04:41.267Z</time></trkpt><trkpt lat="44.17723" lon="11.6741233"><ele>377.79999999999995</ele><time>2026-04-12T08:04:42.266Z</time></trkpt><trkpt lat="44.1771083" lon="11.67407"><ele>382.6</ele><time>2026-04-12T08:04:43.267Z</time></trkpt><trkpt lat="44.1770217" lon="11.674005"><ele>387.4</ele><time>2026-04-12T08:04:44.267Z</time></trkpt><trkpt lat="44.1769517" lon="11.6739683"><ele>392.20000000000005</ele><time>2026-04-12T08:04:45.267Z</time></trkpt><trkpt lat="44.1768283" lon="11.674005"><ele>397.0</ele><time>2026-04-12T08:04:47.267Z</time></trkpt><trkpt lat="44.1767483" lon="11.6740633"><ele>397.0</ele><time>2026-04-12T08:04:49.267Z</time></trkpt><trkpt lat="44.1767367" lon="11.67433"><ele>397.0</ele><time>2026-04-12T08:04:51.267Z</time></trkpt><trkpt lat="44.1767183" lon="11.674495"><ele>397.0</ele><time>2026-04-12T08:04:52.267Z</time></trkpt><trkpt lat="44.176695" lon="11.674685"><ele>397.75</ele><time>2026-04-12T08:04:53.267Z</time></trkpt><trkpt lat="44.17668" lon="11.6748683"><ele>398.5</ele><time>2026-04-12T08:04:54.267Z</time></trkpt><trkpt lat="44.1766367" lon="11.675075"><ele>399.25</ele><time>2026-04-12T08:04:55.269Z</time></trkpt><trkpt lat="44.1765983" lon="11.675195"><ele>400.0</ele><time>2026-04-12T08:04:56.268Z</time></trkpt><trkpt lat="44.1765633" lon="11.6752983"><ele>400.00000000000006</ele><time>2026-04-12T08:04:57.268Z</time></trkpt><trkpt lat="44.1765317" lon="11.675375"><ele>400.0</ele><time>2026-04-12T08:04:59.267Z</time></trkpt><trkpt lat="44.17654" lon="11.6752733"><ele>400.0</ele><time>2026-04-12T08:05:01.267Z</time></trkpt><trkpt lat="44.1765617" lon="11.6751683"><ele>400.0</ele><time>2026-04-12T08:05:02.267Z</time></trkpt><trkpt lat="44.1765567" lon="11.67502"><ele>400.00000000000006</ele><time>2026-04-12T08:05:03.267Z</time></trkpt><trkpt lat="44.17655" lon="11.6748967"><ele>400.0</ele><time>2026-04-12T08:05:04.266Z</time></trkpt><trkpt lat="44.1765317" lon="11.6747133"><ele>405.33333333333337</ele><time>2026-04-12T08:05:05.267Z</time></trkpt><trkpt lat="44.1764667" lon="11.6744933"><ele>410.66666666666663</ele><time>2026-04-12T08:05:06.267Z</time></trkpt><trkpt lat="44.1763867" lon="11.6742783"><ele>416.0</ele><time>2026-04-12T08:05:07.268Z</time></trkpt><trkpt lat="44.1763033" lon="11.6740917"><ele>417.3333333333333</ele><time>2026-04-12T08:05:08.266Z</time></trkpt><trkpt lat="44.1762083" lon="11.6738783"><ele>418.66666666666663</ele><time>2026-04-12T08:05:09.267Z</time></trkpt><trkpt lat="44.17613" lon="11.6737117"><ele>420.0</ele><time>2026-04-12T08:05:10.266Z</time></trkpt><trkpt lat="44.1760533" lon="11.6735533"><ele>420.0</ele><time>2026-04-12T08:05:11.266Z</time></trkpt><trkpt lat="44.1759833" lon="11.67341"><ele>420.0</ele><time>2026-04-12T08:05:12.266Z</time></trkpt><trkpt lat="44.1759217" lon="11.6732783"><ele>420.0</ele><time>2026-04-12T08:05:13.267Z</time></trkpt><trkpt lat="44.1758667" lon="11.6731733"><ele>420.0</ele><time>2026-04-12T08:05:14.268Z</time></trkpt><trkpt lat="44.1758033" lon="11.6730867"><ele>420.0</ele><time>2026-04-12T08:05:15.267Z</time></trkpt><trkpt lat="44.175735" lon="11.6730183"><ele>422.8</ele><time>2026-04-12T08:05:16.267Z</time></trkpt><trkpt lat="44.1756567" lon="11.6729767"><ele>425.6</ele><time>2026-04-12T08:05:17.267Z</time></trkpt><trkpt lat="44.1755683" lon="11.67298"><ele>428.4</ele><time>2026-04-12T08:05:18.266Z</time></trkpt><trkpt lat="44.1754783" lon="11.672995"><ele>431.2</ele><time>2026-04-12T08:05:19.267Z</time></trkpt><trkpt lat="44.17536" lon="11.673045"><ele>434.0</ele><time>2026-04-12T08:05:20.266Z</time></trkpt><trkpt lat="44.1752167" lon="11.6731333"><ele>434.0</ele><time>2026-04-12T08:05:21.267Z</time></trkpt><trkpt lat="44.1751233" lon="11.67317"><ele>434.0</ele><time>2026-04-12T08:05:22.267Z</time></trkpt><trkpt lat="44.1750417" lon="11.6731967"><ele>434.0</ele><time>2026-04-12T08:05:23.267Z</time></trkpt><trkpt lat="44.174915" lon="11.6732617"><ele>434.0</ele><time>2026-04-12T08:05:24.267Z</time></trkpt><trkpt lat="44.17483" lon="11.6732783"><ele>434.0</ele><time>2026-04-12T08:05:25.267Z</time></trkpt><trkpt lat="44.1747333" lon="11.6732217"><ele>437.6</ele><time>2026-04-12T08:05:27.266Z</time></trkpt><trkpt lat="44.17471" lon="11.67314"><ele>441.2</ele><time>2026-04-12T08:05:28.267Z</time></trkpt><trkpt lat="44.1746933" lon="11.6730333"><ele>444.80000000000007</ele><time>2026-04-12T08:05:29.268Z</time></trkpt><trkpt lat="44.1746883" lon="11.6729033"><ele>448.40000000000003</ele><time>2026-04-12T08:05:30.267Z</time></trkpt><trkpt lat="44.174715" lon="11.6727233"><ele>452.0</ele><time>2026-04-12T08:05:31.267Z</time></trkpt><trkpt lat="44.1747867" lon="11.6724467"><ele>453.3333333333333</ele><time>2026-04-12T08:05:32.266Z</time></trkpt><trkpt lat="44.1748383" lon="11.6722217"><ele>454.66666666666663</ele><time>2026-04-12T08:05:33.269Z</time></trkpt><trkpt lat="44.1748683" lon="11.6720183"><ele>456.0</ele><time>2026-04-12T08:05:34.266Z</time></trkpt><trkpt lat="44.1748867" lon="11.6718333"><ele>458.0</ele><time>2026-04-12T08:05:35.266Z</time></trkpt><trkpt lat="44.17489" lon="11.6716683"><ele>460.0</ele><time>2026-04-12T08:05:36.266Z</time></trkpt><trkpt lat="44.1748833" lon="11.6715033"><ele>462.0</ele><time>2026-04-12T08:05:37.266Z</time></trkpt><trkpt lat="44.174855" lon="11.6713483"><ele>464.0</ele><time>2026-04-12T08:05:38.266Z</time></trkpt><trkpt lat="44.1748283" lon="11.6711917"><ele>466.5</ele><time>2026-04-12T08:05:39.267Z</time></trkpt><trkpt lat="44.1748" lon="11.6710317"><ele>469.0</ele><time>2026-04-12T08:05:40.269Z</time></trkpt><trkpt lat="44.17477" lon="11.6708717"><ele>471.5</ele><time>2026-04-12T08:05:41.266Z</time></trkpt><trkpt lat="44.1747367" lon="11.6707183"><ele>474.0</ele><time>2026-04-12T08:05:42.267Z</time></trkpt><trkpt lat="44.1746983" lon="11.670565"><ele>474.0</ele><time>2026-04-12T08:05:43.267Z</time></trkpt><trkpt lat="44.1746467" lon="11.6703983"><ele>474.0</ele><time>2026-04-12T08:05:44.267Z</time></trkpt><trkpt lat="44.1746017" lon="11.6702317"><ele>474.0</ele><time>2026-04-12T08:05:45.266Z</time></trkpt><trkpt lat="44.1745733" lon="11.6700517"><ele>474.0</ele><time>2026-04-12T08:05:46.266Z</time></trkpt><trkpt lat="44.174545" lon="11.6698783"><ele>475.25</ele><time>2026-04-12T08:05:47.267Z</time></trkpt><trkpt lat="44.1745267" lon="11.6696917"><ele>476.5</ele><time>2026-04-12T08:05:48.267Z</time></trkpt><trkpt lat="44.17451" lon="11.669495"><ele>477.75</ele><time>2026-04-12T08:05:49.267Z</time></trkpt><trkpt lat="44.1744917" lon="11.6693017"><ele>479.0</ele><time>2026-04-12T08:05:50.267Z</time></trkpt><trkpt lat="44.1744717" lon="11.6691133"><ele>479.5</ele><time>2026-04-12T08:05:51.267Z</time></trkpt><trkpt lat="44.1744467" lon="11.6689333"><ele>480.0</ele><time>2026-04-12T08:05:52.267Z</time></trkpt><trkpt lat="44.17441" lon="11.668755"><ele>480.5</ele><time>2026-04-12T08:05:53.267Z</time></trkpt><trkpt lat="44.174375" lon="11.668575"><ele>481.0</ele><time>2026-04-12T08:05:54.267Z</time></trkpt><trkpt lat="44.1743517" lon="11.6684017"><ele>481.25</ele><time>2026-04-12T08:05:55.267Z</time></trkpt><trkpt lat="44.17434" lon="11.66824"><ele>481.5</ele><time>2026-04-12T08:05:56.267Z</time></trkpt><trkpt lat="44.1743483" lon="11.6680817"><ele>481.75</ele><time>2026-04-12T08:05:57.265Z</time></trkpt><trkpt lat="44.1743617" lon="11.6679183"><ele>482.0</ele><time>2026-04-12T08:05:58.267Z</time></trkpt><trkpt lat="44.174385" lon="11.6677383"><ele>483.0</ele><time>2026-04-12T08:05:59.266Z</time></trkpt><trkpt lat="44.1744117" lon="11.6675717"><ele>484.00000000000006</ele><time>2026-04-12T08:06:00.267Z</time></trkpt><trkpt lat="44.1744467" lon="11.667435"><ele>485.00000000000006</ele><time>2026-04-12T08:06:01.267Z</time></trkpt><trkpt lat="44.1744867" lon="11.66732"><ele>486.0</ele><time>2026-04-12T08:06:02.267Z</time></trkpt><trkpt lat="44.17453" lon="11.6672317"><ele>487.0</ele><time>2026-04-12T08:06:03.268Z</time></trkpt><trkpt lat="44.174575" lon="11.6671517"><ele>487.00000000000006</ele><time>2026-04-12T08:06:04.266Z</time></trkpt><trkpt lat="44.174615" lon="11.6670833"><ele>487.0</ele><time>2026-04-12T08:06:05.266Z</time></trkpt><trkpt lat="44.1746717" lon="11.6669817"><ele>487.0</ele><time>2026-04-12T08:06:07.267Z</time></trkpt><trkpt lat="44.1747417" lon="11.6669433"><ele>487.0</ele><time>2026-04-12T08:06:17.265Z</time></trkpt><trkpt lat="44.1747517" lon="11.666765"><ele>487.00000000000006</ele><time>2026-04-12T08:08:05.266Z</time></trkpt><trkpt lat="44.1747517" lon="11.6666633"><ele>487.0</ele><time>2026-04-12T08:08:08.266Z</time></trkpt><trkpt lat="44.1747367" lon="11.6665433"><ele>488.20000000000005</ele><time>2026-04-12T08:08:10.267Z</time></trkpt><trkpt lat="44.1747017" lon="11.6663967"><ele>489.40000000000003</ele><time>2026-04-12T08:08:12.267Z</time></trkpt><trkpt lat="44.1746617" lon="11.6663117"><ele>490.59999999999997</ele><time>2026-04-12T08:08:13.267Z</time></trkpt><trkpt lat="44.1746083" lon="11.66622"><ele>491.79999999999995</ele><time>2026-04-12T08:08:14.267Z</time></trkpt><trkpt lat="44.17455" lon="11.6661083"><ele>493.0</ele><time>2026-04-12T08:08:15.267Z</time></trkpt><trkpt lat="44.174505" lon="11.6660017"><ele>493.33333333333337</ele><time>2026-04-12T08:08:16.267Z</time></trkpt><trkpt lat="44.1744767" lon="11.6658933"><ele>493.6666666666667</ele><time>2026-04-12T08:08:17.266Z</time></trkpt><trkpt lat="44.1744517" lon="11.665785"><ele>494.0</ele><time>2026-04-12T08:08:18.267Z</time></trkpt><trkpt lat="44.1744533" lon="11.6656517"><ele>494.33333333333337</ele><time>2026-04-12T08:08:19.268Z</time></trkpt><trkpt lat="44.1744633" lon="11.6655133"><ele>494.6666666666667</ele><time>2026-04-12T08:08:20.266Z</time></trkpt><trkpt lat="44.174465" lon="11.6653933"><ele>495.0</ele><time>2026-04-12T08:08:21.268Z</time></trkpt><trkpt lat="44.1744583" lon="11.6652667"><ele>493.6666666666667</ele><time>2026-04-12T08:08:22.267Z</time></trkpt><trkpt lat="44.1744467" lon="11.66515"><ele>492.33333333333337</ele><time>2026-04-12T08:08:23.267Z</time></trkpt><trkpt lat="44.174415" lon="11.6650467"><ele>491.0</ele><time>2026-04-12T08:08:24.267Z</time></trkpt><trkpt lat="44.174375" lon="11.6649633"><ele>489.6666666666667</ele><time>2026-04-12T08:08:25.268Z</time></trkpt><trkpt lat="44.1743167" lon="11.6648917"><ele>488.33333333333337</ele><time>2026-04-12T08:08:26.269Z</time></trkpt><trkpt lat="44.1742367" lon="11.6648383"><ele>487.0</ele><time>2026-04-12T08:08:27.269Z</time></trkpt><trkpt lat="44.1741517" lon="11.6647683"><ele>487.0</ele><time>2026-04-12T08:08:28.268Z</time></trkpt><trkpt lat="44.1740383" lon="11.664705"><ele>487.0</ele><time>2026-04-12T08:08:29.268Z</time></trkpt><trkpt lat="44.1739317" lon="11.6646283"><ele>487.0</ele><time>2026-04-12T08:08:30.273Z</time></trkpt><trkpt lat="44.173835" lon="11.664555"><ele>487.0</ele><time>2026-04-12T08:08:31.269Z</time></trkpt><trkpt lat="44.1737417" lon="11.664475"><ele>488.20000000000005</ele><time>2026-04-12T08:08:32.268Z</time></trkpt><trkpt lat="44.1736633" lon="11.6643933"><ele>489.40000000000003</ele><time>2026-04-12T08:08:33.268Z</time></trkpt><trkpt lat="44.1735733" lon="11.6643367"><ele>490.59999999999997</ele><time>2026-04-12T08:08:34.268Z</time></trkpt><trkpt lat="44.173485" lon="11.6642783"><ele>491.79999999999995</ele><time>2026-04-12T08:08:35.269Z</time></trkpt><trkpt lat="44.1733933" lon="11.6642033"><ele>493.0</ele><time>2026-04-12T08:08:36.27Z</time></trkpt><trkpt lat="44.1732983" lon="11.66412"><ele>493.0</ele><time>2026-04-12T08:08:37.268Z</time></trkpt><trkpt lat="44.17322" lon="11.6640133"><ele>492.99999999999994</ele><time>2026-04-12T08:08:38.268Z</time></trkpt><trkpt lat="44.1731467" lon="11.6638933"><ele>492.99999999999994</ele><time>2026-04-12T08:08:39.269Z</time></trkpt><trkpt lat="44.1730767" lon="11.6637783"><ele>493.0</ele><time>2026-04-12T08:08:40.267Z</time></trkpt><trkpt lat="44.1730083" lon="11.6636817"><ele>493.0</ele><time>2026-04-12T08:08:41.267Z</time></trkpt><trkpt lat="44.1729483" lon="11.6636083"><ele>495.1666666666667</ele><time>2026-04-12T08:08:42.269Z</time></trkpt><trkpt lat="44.1728983" lon="11.6635517"><ele>497.33333333333337</ele><time>2026-04-12T08:08:43.268Z</time></trkpt><trkpt lat="44.1728283" lon="11.663495"><ele>499.5</ele><time>2026-04-12T08:08:45.269Z</time></trkpt><trkpt lat="44.1727733" lon="11.6635467"><ele>501.66666666666663</ele><time>2026-04-12T08:08:47.268Z</time></trkpt><trkpt lat="44.1726983" lon="11.6636467"><ele>503.8333333333333</ele><time>2026-04-12T08:08:49.268Z</time></trkpt><trkpt lat="44.1726433" lon="11.66376"><ele>506.0</ele><time>2026-04-12T08:08:51.267Z</time></trkpt><trkpt lat="44.172615" lon="11.663905"><ele>506.28571428571433</ele><time>2026-04-12T08:08:53.268Z</time></trkpt><trkpt lat="44.1726083" lon="11.664"><ele>506.57142857142856</ele><time>2026-04-12T08:08:54.268Z</time></trkpt><trkpt lat="44.1726067" lon="11.6641033"><ele>506.8571428571429</ele><time>2026-04-12T08:08:55.267Z</time></trkpt><trkpt lat="44.172615" lon="11.6642017"><ele>507.14285714285717</ele><time>2026-04-12T08:08:56.268Z</time></trkpt><trkpt lat="44.1726317" lon="11.6642983"><ele>507.42857142857144</ele><time>2026-04-12T08:08:57.268Z</time></trkpt><trkpt lat="44.17265" lon="11.6643917"><ele>507.7142857142857</ele><time>2026-04-12T08:08:58.268Z</time></trkpt><trkpt lat="44.1726583" lon="11.6644883"><ele>508.0</ele><time>2026-04-12T08:08:59.267Z</time></trkpt><trkpt lat="44.172685" lon="11.6646567"><ele>509.0</ele><time>2026-04-12T08:09:01.267Z</time></trkpt><trkpt lat="44.17269" lon="11.664745"><ele>509.99999999999994</ele><time>2026-04-12T08:09:02.268Z</time></trkpt><trkpt lat="44.17268" lon="11.664895"><ele>510.99999999999994</ele><time>2026-04-12T08:09:04.268Z</time></trkpt><trkpt lat="44.1726367" lon="11.6650183"><ele>512.0</ele><time>2026-04-12T08:09:06.268Z</time></trkpt><trkpt lat="44.1725483" lon="11.6651033"><ele>513.0</ele><time>2026-04-12T08:09:08.268Z</time></trkpt><trkpt lat="44.1724367" lon="11.6651783"><ele>513.0</ele><time>2026-04-12T08:09:10.269Z</time></trkpt><trkpt lat="44.1723767" lon="11.6652283"><ele>513.0</ele><time>2026-04-12T08:09:11.269Z</time></trkpt><trkpt lat="44.1723067" lon="11.6652767"><ele>513.0</ele><time>2026-04-12T08:09:12.268Z</time></trkpt><trkpt lat="44.172245" lon="11.66534"><ele>513.0</ele><time>2026-04-12T08:09:13.268Z</time></trkpt><trkpt lat="44.1721817" lon="11.6654083"><ele>513.0</ele><time>2026-04-12T08:09:14.267Z</time></trkpt><trkpt lat="44.1721217" lon="11.66547"><ele>513.0</ele><time>2026-04-12T08:09:15.268Z</time></trkpt><trkpt lat="44.1720633" lon="11.6655283"><ele>518.1428571428572</ele><time>2026-04-12T08:09:16.267Z</time></trkpt><trkpt lat="44.1720033" lon="11.6655933"><ele>523.2857142857143</ele><time>2026-04-12T08:09:17.267Z</time></trkpt><trkpt lat="44.1719433" lon="11.6656567"><ele>528.4285714285714</ele><time>2026-04-12T08:09:18.268Z</time></trkpt><trkpt lat="44.1718867" lon="11.6657167"><ele>533.5714285714287</ele><time>2026-04-12T08:09:19.269Z</time></trkpt><trkpt lat="44.1718317" lon="11.6657767"><ele>538.7142857142858</ele><time>2026-04-12T08:09:20.268Z</time></trkpt><trkpt lat="44.1717733" lon="11.6658283"><ele>543.8571428571429</ele><time>2026-04-12T08:09:21.269Z</time></trkpt><trkpt lat="44.1717133" lon="11.6658767"><ele>549.0</ele><time>2026-04-12T08:09:22.269Z</time></trkpt><trkpt lat="44.171655" lon="11.6659117"><ele>549.0</ele><time>2026-04-12T08:09:23.267Z</time></trkpt><trkpt lat="44.17159" lon="11.6659567"><ele>549.0</ele><time>2026-04-12T08:09:24.267Z</time></trkpt><trkpt lat="44.1715267" lon="11.66599"><ele>549.0</ele><time>2026-04-12T08:09:25.268Z</time></trkpt><trkpt lat="44.17145" lon="11.6660233"><ele>549.0</ele><time>2026-04-12T08:09:26.269Z</time></trkpt><trkpt lat="44.17137" lon="11.66603"><ele>549.0</ele><time>2026-04-12T08:09:27.269Z</time></trkpt><trkpt lat="44.1712833" lon="11.6660283"><ele>549.0</ele><time>2026-04-12T08:09:28.269Z</time></trkpt><trkpt lat="44.1711933" lon="11.6660367"><ele>552.1666666666666</ele><time>2026-04-12T08:09:29.269Z</time></trkpt><trkpt lat="44.1710983" lon="11.6660583"><ele>555.3333333333334</ele><time>2026-04-12T08:09:30.269Z</time></trkpt><trkpt lat="44.171015" lon="11.6660933"><ele>558.5</ele><time>2026-04-12T08:09:31.269Z</time></trkpt><trkpt lat="44.17094" lon="11.6661367"><ele>561.6666666666667</ele><time>2026-04-12T08:09:32.268Z</time></trkpt><trkpt lat="44.1708617" lon="11.6661833"><ele>564.8333333333334</ele><time>2026-04-12T08:09:33.269Z</time></trkpt><trkpt lat="44.1707883" lon="11.666235"><ele>568.0</ele><time>2026-04-12T08:09:34.268Z</time></trkpt><trkpt lat="44.1707133" lon="11.66628"><ele>569.6666666666667</ele><time>2026-04-12T08:09:35.27Z</time></trkpt><trkpt lat="44.1706467" lon="11.6663183"><ele>571.3333333333334</ele><time>2026-04-12T08:09:36.272Z</time></trkpt><trkpt lat="44.17059" lon="11.66636"><ele>573.0</ele><time>2026-04-12T08:09:37.269Z</time></trkpt><trkpt lat="44.1705267" lon="11.666375"><ele>574.6666666666666</ele><time>2026-04-12T08:09:38.27Z</time></trkpt><trkpt lat="44.1703983" lon="11.6663417"><ele>576.3333333333333</ele><time>2026-04-12T08:09:40.268Z</time></trkpt><trkpt lat="44.17033" lon="11.6663067"><ele>578.0</ele><time>2026-04-12T08:09:41.268Z</time></trkpt><trkpt lat="44.1702633" lon="11.6662717"><ele>578.0</ele><time>2026-04-12T08:09:42.268Z</time></trkpt><trkpt lat="44.1702017" lon="11.6662283"><ele>578.0</ele><time>2026-04-12T08:09:43.269Z</time></trkpt><trkpt lat="44.1701383" lon="11.666185"><ele>578.0</ele><time>2026-04-12T08:09:44.268Z</time></trkpt><trkpt lat="44.17008" lon="11.6661433"><ele>578.0</ele><time>2026-04-12T08:09:45.268Z</time></trkpt><trkpt lat="44.1700267" lon="11.6660917"><ele>578.0</ele><time>2026-04-12T08:09:46.267Z</time></trkpt><trkpt lat="44.1699783" lon="11.6660267"><ele>578.0</ele><time>2026-04-12T08:09:47.268Z</time></trkpt><trkpt lat="44.1699083" lon="11.6658967"><ele>579.6</ele><time>2026-04-12T08:09:49.268Z</time></trkpt><trkpt lat="44.1698717" lon="11.6657867"><ele>581.1999999999999</ele><time>2026-04-12T08:09:51.268Z</time></trkpt><trkpt lat="44.1698033" lon="11.6657033"><ele>582.8</ele><time>2026-04-12T08:10:07.269Z</time></trkpt><trkpt lat="44.1697317" lon="11.665645"><ele>584.4</ele><time>2026-04-12T08:10:09.267Z</time></trkpt><trkpt lat="44.1696417" lon="11.6656133"><ele>586.0</ele><time>2026-04-12T08:10:11.267Z</time></trkpt><trkpt lat="44.1695417" lon="11.6655767"><ele>586.6666666666667</ele><time>2026-04-12T08:10:13.268Z</time></trkpt><trkpt lat="44.169485" lon="11.6655367"><ele>587.3333333333334</ele><time>2026-04-12T08:10:14.269Z</time></trkpt><trkpt lat="44.1694117" lon="11.6654683"><ele>588.0</ele><time>2026-04-12T08:10:16.269Z</time></trkpt><trkpt lat="44.1694767" lon="11.66545"><ele>588.6666666666666</ele><time>2026-04-12T08:10:41.268Z</time></trkpt><trkpt lat="44.1695383" lon="11.665515"><ele>589.3333333333333</ele><time>2026-04-12T08:10:43.269Z</time></trkpt><trkpt lat="44.169615" lon="11.6655983"><ele>590.0</ele><time>2026-04-12T08:10:45.269Z</time></trkpt><trkpt lat="44.1697017" lon="11.6656583"><ele>590.0</ele><time>2026-04-12T08:10:47.267Z</time></trkpt><trkpt lat="44.169805" lon="11.6656833"><ele>590.0</ele><time>2026-04-12T08:11:13.268Z</time></trkpt><trkpt lat="44.169875" lon="11.66577"><ele>590.0</ele><time>2026-04-12T08:11:18.268Z</time></trkpt><trkpt lat="44.1699" lon="11.6658633"><ele>590.0</ele><time>2026-04-12T08:11:20.269Z</time></trkpt><trkpt lat="44.16993" lon="11.665985"><ele>590.0</ele><time>2026-04-12T08:11:22.268Z</time></trkpt><trkpt lat="44.1699583" lon="11.666105"><ele>588.0</ele><time>2026-04-12T08:11:24.27Z</time></trkpt><trkpt lat="44.1700033" lon="11.6662033"><ele>586.0</ele><time>2026-04-12T08:11:26.269Z</time></trkpt><trkpt lat="44.1700533" lon="11.6662783"><ele>584.0</ele><time>2026-04-12T08:11:28.267Z</time></trkpt><trkpt lat="44.1700933" lon="11.66635"><ele>582.0</ele><time>2026-04-12T08:11:30.269Z</time></trkpt><trkpt lat="44.1701483" lon="11.6664633"><ele>580.0</ele><time>2026-04-12T08:11:33.27Z</time></trkpt><trkpt lat="44.1702067" lon="11.66655"><ele>578.0</ele><time>2026-04-12T08:11:35.269Z</time></trkpt><trkpt lat="44.1702683" lon="11.6666067"><ele>578.0</ele><time>2026-04-12T08:11:37.269Z</time></trkpt><trkpt lat="44.1703517" lon="11.6666483"><ele>578.0</ele><time>2026-04-12T08:11:40.267Z</time></trkpt><trkpt lat="44.1704383" lon="11.6666683"><ele>578.0</ele><time>2026-04-12T08:11:43.268Z</time></trkpt><trkpt lat="44.1705267" lon="11.666705"><ele>578.0</ele><time>2026-04-12T08:11:46.269Z</time></trkpt><trkpt lat="44.17059" lon="11.6666833"><ele>578.0</ele><time>2026-04-12T08:11:48.269Z</time></trkpt><trkpt lat="44.1706433" lon="11.6665983"><ele>578.0</ele><time>2026-04-12T08:11:51.268Z</time></trkpt><trkpt lat="44.1706567" lon="11.6664867"><ele>578.0</ele><time>2026-04-12T08:11:53.268Z</time></trkpt><trkpt lat="44.1706767" lon="11.6663617"><ele>578.0</ele><time>2026-04-12T08:11:55.269Z</time></trkpt><trkpt lat="44.1706933" lon="11.6662567"><ele>578.0</ele><time>2026-04-12T08:11:57.27Z</time></trkpt><trkpt lat="44.170725" lon="11.6661633"><ele>578.0</ele><time>2026-04-12T08:12:00.268Z</time></trkpt><trkpt lat="44.1707933" lon="11.66613"><ele>578.0</ele><time>2026-04-12T08:12:04.269Z</time></trkpt><trkpt lat="44.1708417" lon="11.6662033"><ele>578.0</ele><time>2026-04-12T08:12:06.269Z</time></trkpt><trkpt lat="44.1708633" lon="11.6663067"><ele>578.0</ele><time>2026-04-12T08:12:08.269Z</time></trkpt><trkpt lat="44.1708433" lon="11.6664017"><ele>578.0</ele><time>2026-04-12T08:12:10.269Z</time></trkpt><trkpt lat="44.1707917" lon="11.6664817"><ele>578.0</ele><time>2026-04-12T08:12:12.269Z</time></trkpt><trkpt lat="44.17071" lon="11.6665233"><ele>578.0</ele><time>2026-04-12T08:12:14.269Z</time></trkpt><trkpt lat="44.170635" lon="11.6665067"><ele>578.0</ele><time>2026-04-12T08:12:16.269Z</time></trkpt><trkpt lat="44.1705767" lon="11.666415"><ele>578.0</ele><time>2026-04-12T08:12:18.269Z</time></trkpt><trkpt lat="44.1705083" lon="11.666315"><ele>578.0</ele><time>2026-04-12T08:12:20.268Z</time></trkpt><trkpt lat="44.1704283" lon="11.6662067"><ele>578.0</ele><time>2026-04-12T08:12:22.269Z</time></trkpt><trkpt lat="44.1703667" lon="11.6661317"><ele>578.0</ele><time>2026-04-12T08:12:24.269Z</time></trkpt><trkpt lat="44.1703483" lon="11.66603"><ele>578.0</ele><time>2026-04-12T08:12:26.269Z</time></trkpt><trkpt lat="44.1704383" lon="11.6659117"><ele>578.0</ele><time>2026-04-12T08:12:33.269Z</time></trkpt><trkpt lat="44.1705033" lon="11.665835"><ele>579.3333333333333</ele><time>2026-04-12T08:12:36.268Z</time></trkpt><trkpt lat="44.1705783" lon="11.6657767"><ele>580.6666666666666</ele><time>2026-04-12T08:12:39.268Z</time></trkpt><trkpt lat="44.1706433" lon="11.6657233"><ele>582.0</ele><time>2026-04-12T08:12:42.268Z</time></trkpt><trkpt lat="44.1706817" lon="11.66563"><ele>583.3333333333334</ele><time>2026-04-12T08:12:45.269Z</time></trkpt><trkpt lat="44.1706917" lon="11.6655233"><ele>584.6666666666667</ele><time>2026-04-12T08:12:47.268Z</time></trkpt><trkpt lat="44.1706933" lon="11.66542"><ele>586.0</ele><time>2026-04-12T08:12:49.269Z</time></trkpt><trkpt lat="44.1706783" lon="11.6653233"><ele>585.5</ele><time>2026-04-12T08:12:52.269Z</time></trkpt><trkpt lat="44.170625" lon="11.6652567"><ele>585.0</ele><time>2026-04-12T08:13:09.268Z</time></trkpt><trkpt lat="44.1705667" lon="11.665175"><ele>584.5</ele><time>2026-04-12T08:13:11.268Z</time></trkpt><trkpt lat="44.1705133" lon="11.665095"><ele>584.0</ele><time>2026-04-12T08:13:13.269Z</time></trkpt><trkpt lat="44.1704367" lon="11.6650183"><ele>583.5</ele><time>2026-04-12T08:13:15.27Z</time></trkpt><trkpt lat="44.17034" lon="11.66497"><ele>583.0</ele><time>2026-04-12T08:13:17.27Z</time></trkpt><trkpt lat="44.1702417" lon="11.6649517"><ele>583.0</ele><time>2026-04-12T08:13:19.269Z</time></trkpt><trkpt lat="44.170155" lon="11.6649783"><ele>583.0</ele><time>2026-04-12T08:13:21.269Z</time></trkpt><trkpt lat="44.1700683" lon="11.6650283"><ele>583.0</ele><time>2026-04-12T08:13:23.269Z</time></trkpt><trkpt lat="44.1699783" lon="11.6650883"><ele>583.0</ele><time>2026-04-12T08:13:25.27Z</time></trkpt><trkpt lat="44.169905" lon="11.665165"><ele>583.0</ele><time>2026-04-12T08:13:27.271Z</time></trkpt><trkpt lat="44.1698367" lon="11.6652733"><ele>584.1666666666667</ele><time>2026-04-12T08:13:29.269Z</time></trkpt><trkpt lat="44.1697783" lon="11.665375"><ele>585.3333333333334</ele><time>2026-04-12T08:13:31.269Z</time></trkpt><trkpt lat="44.1697383" lon="11.6654683"><ele>586.5</ele><time>2026-04-12T08:13:33.269Z</time></trkpt><trkpt lat="44.1697433" lon="11.6655583"><ele>587.6666666666666</ele><time>2026-04-12T08:13:35.268Z</time></trkpt><trkpt lat="44.16978" lon="11.6656317"><ele>588.8333333333333</ele><time>2026-04-12T08:13:37.27Z</time></trkpt><trkpt lat="44.1696867" lon="11.66559"><ele>590.0</ele><time>2026-04-12T08:17:27.266Z</time></trkpt><trkpt lat="44.1696183" lon="11.6655733"><ele>590.0</ele><time>2026-04-12T08:17:28.267Z</time></trkpt><trkpt lat="44.1695383" lon="11.6655417"><ele>590.0</ele><time>2026-04-12T08:17:29.267Z</time></trkpt><trkpt lat="44.1694583" lon="11.6655067"><ele>590.0</ele><time>2026-04-12T08:17:30.268Z</time></trkpt><trkpt lat="44.1693767" lon="11.665465"><ele>590.0</ele><time>2026-04-12T08:17:31.267Z</time></trkpt><trkpt lat="44.1692933" lon="11.6654217"><ele>590.0</ele><time>2026-04-12T08:17:32.267Z</time></trkpt><trkpt lat="44.16921" lon="11.6653767"><ele>590.0</ele><time>2026-04-12T08:17:33.267Z</time></trkpt><trkpt lat="44.1691317" lon="11.66533"><ele>592.3333333333333</ele><time>2026-04-12T08:17:34.266Z</time></trkpt><trkpt lat="44.1690617" lon="11.6652783"><ele>594.6666666666666</ele><time>2026-04-12T08:17:35.267Z</time></trkpt><trkpt lat="44.1689917" lon="11.6652317"><ele>597.0</ele><time>2026-04-12T08:17:36.267Z</time></trkpt><trkpt lat="44.1689267" lon="11.665175"><ele>599.3333333333334</ele><time>2026-04-12T08:17:37.267Z</time></trkpt><trkpt lat="44.1688633" lon="11.6651183"><ele>601.6666666666667</ele><time>2026-04-12T08:17:38.268Z</time></trkpt><trkpt lat="44.168795" lon="11.6650633"><ele>604.0</ele><time>2026-04-12T08:17:39.267Z</time></trkpt><trkpt lat="44.16872" lon="11.6650083"><ele>604.6</ele><time>2026-04-12T08:17:40.267Z</time></trkpt><trkpt lat="44.1686383" lon="11.6649467"><ele>605.2</ele><time>2026-04-12T08:17:41.266Z</time></trkpt><trkpt lat="44.1685517" lon="11.6648833"><ele>605.8000000000001</ele><time>2026-04-12T08:17:42.267Z</time></trkpt><trkpt lat="44.16846" lon="11.664815"><ele>606.4</ele><time>2026-04-12T08:17:43.267Z</time></trkpt><trkpt lat="44.16837" lon="11.6647533"><ele>607.0</ele><time>2026-04-12T08:17:44.267Z</time></trkpt><trkpt lat="44.16829" lon="11.6647"><ele>607.0</ele><time>2026-04-12T08:17:45.268Z</time></trkpt><trkpt lat="44.16822" lon="11.664655"><ele>607.0</ele><time>2026-04-12T08:17:46.268Z</time></trkpt><trkpt lat="44.168155" lon="11.6646183"><ele>607.0</ele><time>2026-04-12T08:17:47.268Z</time></trkpt><trkpt lat="44.1680867" lon="11.6645867"><ele>607.0</ele><time>2026-04-12T08:17:48.269Z</time></trkpt><trkpt lat="44.1680133" lon="11.6645667"><ele>607.0</ele><time>2026-04-12T08:17:49.268Z</time></trkpt><trkpt lat="44.1679433" lon="11.6645567"><ele>607.0</ele><time>2026-04-12T08:17:50.267Z</time></trkpt><trkpt lat="44.16784" lon="11.66455"><ele>608.1666666666667</ele><time>2026-04-12T08:17:52.268Z</time></trkpt><trkpt lat="44.16777" lon="11.6645233"><ele>609.3333333333334</ele><time>2026-04-12T08:21:20.267Z</time></trkpt><trkpt lat="44.1677083" lon="11.6644817"><ele>610.5</ele><time>2026-04-12T08:21:23.268Z</time></trkpt><trkpt lat="44.1676233" lon="11.6644567"><ele>611.6666666666666</ele><time>2026-04-12T08:21:26.267Z</time></trkpt><trkpt lat="44.1675483" lon="11.6644517"><ele>612.8333333333333</ele><time>2026-04-12T08:21:28.269Z</time></trkpt><trkpt lat="44.1674617" lon="11.6644517"><ele>614.0</ele><time>2026-04-12T08:21:30.267Z</time></trkpt><trkpt lat="44.16735" lon="11.6644517"><ele>615.8</ele><time>2026-04-12T08:21:32.267Z</time></trkpt><trkpt lat="44.16725" lon="11.6644467"><ele>617.5999999999999</ele><time>2026-04-12T08:21:34.268Z</time></trkpt><trkpt lat="44.1671533" lon="11.664405"><ele>619.4</ele><time>2026-04-12T08:21:36.267Z</time></trkpt><trkpt lat="44.1670733" lon="11.6643433"><ele>621.1999999999999</ele><time>2026-04-12T08:21:38.269Z</time></trkpt><trkpt lat="44.1669867" lon="11.664275"><ele>623.0</ele><time>2026-04-12T08:21:40.269Z</time></trkpt><trkpt lat="44.1669217" lon="11.6641917"><ele>623.4</ele><time>2026-04-12T08:21:42.269Z</time></trkpt><trkpt lat="44.1668583" lon="11.66408"><ele>623.8</ele><time>2026-04-12T08:21:44.269Z</time></trkpt><trkpt lat="44.1667717" lon="11.6639517"><ele>624.2</ele><time>2026-04-12T08:21:46.268Z</time></trkpt><trkpt lat="44.1667417" lon="11.6638733"><ele>624.6</ele><time>2026-04-12T08:21:47.268Z</time></trkpt><trkpt lat="44.1667117" lon="11.6637917"><ele>625.0</ele><time>2026-04-12T08:21:48.269Z</time></trkpt><trkpt lat="44.16667" lon="11.6636667"><ele>625.0</ele><time>2026-04-12T08:21:50.269Z</time></trkpt><trkpt lat="44.1666333" lon="11.6635533"><ele>625.0</ele><time>2026-04-12T08:21:53.267Z</time></trkpt><trkpt lat="44.1665883" lon="11.6634467"><ele>625.0</ele><time>2026-04-12T08:21:56.267Z</time></trkpt><trkpt lat="44.16653" lon="11.6633733"><ele>625.0</ele><time>2026-04-12T08:22:58.267Z</time></trkpt><trkpt lat="44.1664683" lon="11.66332"><ele>625.0</ele><time>2026-04-12T08:23:02.268Z</time></trkpt><trkpt lat="44.1664117" lon="11.6632433"><ele>625.0</ele><time>2026-04-12T08:23:04.266Z</time></trkpt><trkpt lat="44.1663567" lon="11.66317"><ele>623.0000000000001</ele><time>2026-04-12T08:23:06.268Z</time></trkpt><trkpt lat="44.1663117" lon="11.6631017"><ele>621.0</ele><time>2026-04-12T08:23:08.269Z</time></trkpt><trkpt lat="44.1662567" lon="11.6630583"><ele>619.0</ele><time>2026-04-12T08:23:10.268Z</time></trkpt><trkpt lat="44.16619" lon="11.6629883"><ele>617.0</ele><time>2026-04-12T08:23:13.268Z</time></trkpt><trkpt lat="44.1661183" lon="11.662925"><ele>615.0</ele><time>2026-04-12T08:23:58.266Z</time></trkpt><trkpt lat="44.1660583" lon="11.6628717"><ele>613.0000000000001</ele><time>2026-04-12T08:24:00.267Z</time></trkpt><trkpt lat="44.1660017" lon="11.662825"><ele>611.0</ele><time>2026-04-12T08:24:02.268Z</time></trkpt><trkpt lat="44.165925" lon="11.662725"><ele>611.0</ele><time>2026-04-12T08:24:05.268Z</time></trkpt><trkpt lat="44.16589" lon="11.6626217"><ele>611.0</ele><time>2026-04-12T08:24:07.267Z</time></trkpt><trkpt lat="44.1658667" lon="11.6625367"><ele>611.0</ele><time>2026-04-12T08:24:09.268Z</time></trkpt><trkpt lat="44.1657867" lon="11.662425"><ele>611.0</ele><time>2026-04-12T08:24:11.268Z</time></trkpt><trkpt lat="44.16573" lon="11.66237"><ele>611.0</ele><time>2026-04-12T08:24:12.268Z</time></trkpt><trkpt lat="44.1656717" lon="11.6623133"><ele>611.0</ele><time>2026-04-12T08:24:13.267Z</time></trkpt><trkpt lat="44.16562" lon="11.6622583"><ele>610.6</ele><time>2026-04-12T08:24:14.267Z</time></trkpt><trkpt lat="44.1655467" lon="11.6621333"><ele>610.2</ele><time>2026-04-12T08:24:16.267Z</time></trkpt><trkpt lat="44.1654717" lon="11.6619867"><ele>609.8</ele><time>2026-04-12T08:24:18.267Z</time></trkpt><trkpt lat="44.16543" lon="11.6619183"><ele>609.4</ele><time>2026-04-12T08:24:19.267Z</time></trkpt><trkpt lat="44.1653817" lon="11.661855"><ele>609.0</ele><time>2026-04-12T08:24:20.267Z</time></trkpt><trkpt lat="44.1653183" lon="11.6617933"><ele>609.0</ele><time>2026-04-12T08:24:21.267Z</time></trkpt><trkpt lat="44.1652467" lon="11.6617283"><ele>609.0</ele><time>2026-04-12T08:24:22.269Z</time></trkpt><trkpt lat="44.1651717" lon="11.661675"><ele>609.0</ele><time>2026-04-12T08:24:23.267Z</time></trkpt><trkpt lat="44.1651083" lon="11.6616317"><ele>609.0</ele><time>2026-04-12T08:24:24.268Z</time></trkpt><trkpt lat="44.1650517" lon="11.661585"><ele>609.0</ele><time>2026-04-12T08:24:25.268Z</time></trkpt><trkpt lat="44.1649967" lon="11.66154"><ele>609.0</ele><time>2026-04-12T08:24:26.268Z</time></trkpt><trkpt lat="44.1649067" lon="11.6614417"><ele>608.5</ele><time>2026-04-12T08:24:28.268Z</time></trkpt><trkpt lat="44.1648233" lon="11.6613533"><ele>608.0</ele><time>2026-04-12T08:24:30.267Z</time></trkpt><trkpt lat="44.16471" lon="11.6612983"><ele>607.5</ele><time>2026-04-12T08:24:32.268Z</time></trkpt><trkpt lat="44.1646483" lon="11.6612717"><ele>607.0</ele><time>2026-04-12T08:24:33.267Z</time></trkpt><trkpt lat="44.16458" lon="11.6612483"><ele>606.5</ele><time>2026-04-12T08:24:34.269Z</time></trkpt><trkpt lat="44.1645133" lon="11.6612367"><ele>606.0</ele><time>2026-04-12T08:24:35.266Z</time></trkpt><trkpt lat="44.1644017" lon="11.6612117"><ele>606.0</ele><time>2026-04-12T08:24:37.268Z</time></trkpt><trkpt lat="44.1643333" lon="11.661195"><ele>606.0</ele><time>2026-04-12T08:24:39.269Z</time></trkpt><trkpt lat="44.1642633" lon="11.661185"><ele>606.0</ele><time>2026-04-12T08:24:42.267Z</time></trkpt><trkpt lat="44.1641517" lon="11.6611733"><ele>606.0</ele><time>2026-04-12T08:25:09.267Z</time></trkpt><trkpt lat="44.1640517" lon="11.66123"><ele>606.0</ele><time>2026-04-12T08:25:11.267Z</time></trkpt><trkpt lat="44.16399" lon="11.6612517"><ele>606.0</ele><time>2026-04-12T08:25:12.267Z</time></trkpt><trkpt lat="44.1639267" lon="11.6612783"><ele>604.6666666666666</ele><time>2026-04-12T08:25:13.267Z</time></trkpt><trkpt lat="44.163855" lon="11.6612967"><ele>603.3333333333334</ele><time>2026-04-12T08:25:14.267Z</time></trkpt><trkpt lat="44.1637767" lon="11.6613233"><ele>602.0</ele><time>2026-04-12T08:25:15.267Z</time></trkpt><trkpt lat="44.1636983" lon="11.6613483"><ele>600.6666666666667</ele><time>2026-04-12T08:25:16.267Z</time></trkpt><trkpt lat="44.1636233" lon="11.661375"><ele>599.3333333333334</ele><time>2026-04-12T08:25:17.268Z</time></trkpt><trkpt lat="44.1635417" lon="11.6614067"><ele>598.0</ele><time>2026-04-12T08:25:18.267Z</time></trkpt><trkpt lat="44.1634617" lon="11.6614367"><ele>598.0</ele><time>2026-04-12T08:25:19.268Z</time></trkpt><trkpt lat="44.1633933" lon="11.6614733"><ele>598.0</ele><time>2026-04-12T08:25:20.267Z</time></trkpt><trkpt lat="44.1633267" lon="11.6615183"><ele>598.0</ele><time>2026-04-12T08:25:21.268Z</time></trkpt><trkpt lat="44.16326" lon="11.6615717"><ele>598.0</ele><time>2026-04-12T08:25:22.268Z</time></trkpt><trkpt lat="44.1631983" lon="11.6616283"><ele>598.0</ele><time>2026-04-12T08:25:23.268Z</time></trkpt><trkpt lat="44.1631317" lon="11.6616733"><ele>598.0</ele><time>2026-04-12T08:25:24.268Z</time></trkpt><trkpt lat="44.1630567" lon="11.6616983"><ele>598.0</ele><time>2026-04-12T08:25:25.268Z</time></trkpt><trkpt lat="44.16298" lon="11.66171"><ele>595.1666666666667</ele><time>2026-04-12T08:25:26.268Z</time></trkpt><trkpt lat="44.1629033" lon="11.6617217"><ele>592.3333333333334</ele><time>2026-04-12T08:25:27.267Z</time></trkpt><trkpt lat="44.1628267" lon="11.661735"><ele>589.5</ele><time>2026-04-12T08:25:28.267Z</time></trkpt><trkpt lat="44.1627567" lon="11.6617483"><ele>586.6666666666666</ele><time>2026-04-12T08:25:29.268Z</time></trkpt><trkpt lat="44.1626933" lon="11.661765"><ele>583.8333333333333</ele><time>2026-04-12T08:25:30.267Z</time></trkpt><trkpt lat="44.1625933" lon="11.6617733"><ele>581.0</ele><time>2026-04-12T08:25:32.269Z</time></trkpt><trkpt lat="44.16254" lon="11.6616933"><ele>581.0</ele><time>2026-04-12T08:25:34.268Z</time></trkpt><trkpt lat="44.162515" lon="11.6615583"><ele>581.0</ele><time>2026-04-12T08:25:36.268Z</time></trkpt><trkpt lat="44.16253" lon="11.6614667"><ele>581.0</ele><time>2026-04-12T08:25:37.268Z</time></trkpt><trkpt lat="44.1625433" lon="11.6613533"><ele>581.0</ele><time>2026-04-12T08:25:38.269Z</time></trkpt><trkpt lat="44.1625417" lon="11.66126"><ele>581.0</ele><time>2026-04-12T08:25:39.267Z</time></trkpt><trkpt lat="44.1625133" lon="11.66118"><ele>581.0</ele><time>2026-04-12T08:25:40.267Z</time></trkpt><trkpt lat="44.16251" lon="11.66104"><ele>582.5</ele><time>2026-04-12T08:25:41.268Z</time></trkpt><trkpt lat="44.16244" lon="11.6609783"><ele>584.0</ele><time>2026-04-12T08:25:42.269Z</time></trkpt><trkpt lat="44.1623883" lon="11.66091"><ele>585.5</ele><time>2026-04-12T08:25:43.268Z</time></trkpt><trkpt lat="44.1623433" lon="11.6608417"><ele>587.0</ele><time>2026-04-12T08:25:44.267Z</time></trkpt><trkpt lat="44.1623217" lon="11.660755"><ele>588.5</ele><time>2026-04-12T08:25:45.267Z</time></trkpt><trkpt lat="44.1622517" lon="11.6606117"><ele>590.0</ele><time>2026-04-12T08:25:47.267Z</time></trkpt><trkpt lat="44.16219" lon="11.66055"><ele>586.5</ele><time>2026-04-12T08:25:48.269Z</time></trkpt><trkpt lat="44.1621233" lon="11.6604933"><ele>583.0</ele><time>2026-04-12T08:25:49.268Z</time></trkpt><trkpt lat="44.1620667" lon="11.6604217"><ele>579.5</ele><time>2026-04-12T08:25:50.268Z</time></trkpt><trkpt lat="44.16202" lon="11.6603367"><ele>576.0</ele><time>2026-04-12T08:25:51.267Z</time></trkpt><trkpt lat="44.1619783" lon="11.6602433"><ele>572.5</ele><time>2026-04-12T08:25:52.267Z</time></trkpt><trkpt lat="44.1619467" lon="11.66014"><ele>569.0</ele><time>2026-04-12T08:25:53.266Z</time></trkpt><trkpt lat="44.16192" lon="11.6600333"><ele>569.0</ele><time>2026-04-12T08:25:54.268Z</time></trkpt><trkpt lat="44.16189" lon="11.659935"><ele>569.0</ele><time>2026-04-12T08:25:55.266Z</time></trkpt><trkpt lat="44.1618567" lon="11.65985"><ele>569.0</ele><time>2026-04-12T08:25:56.267Z</time></trkpt><trkpt lat="44.1617917" lon="11.6597133"><ele>569.0</ele><time>2026-04-12T08:25:58.268Z</time></trkpt><trkpt lat="44.161735" lon="11.659665"><ele>569.0</ele><time>2026-04-12T08:25:59.268Z</time></trkpt><trkpt lat="44.1616683" lon="11.6596333"><ele>569.0</ele><time>2026-04-12T08:26:00.268Z</time></trkpt><trkpt lat="44.16157" lon="11.65964"><ele>565.0</ele><time>2026-04-12T08:26:01.27Z</time></trkpt><trkpt lat="44.1614533" lon="11.65969"><ele>561.0</ele><time>2026-04-12T08:26:02.27Z</time></trkpt><trkpt lat="44.1613433" lon="11.659735"><ele>557.0</ele><time>2026-04-12T08:26:03.268Z</time></trkpt><trkpt lat="44.16124" lon="11.659785"><ele>553.0</ele><time>2026-04-12T08:26:04.267Z</time></trkpt><trkpt lat="44.1611567" lon="11.6598333"><ele>549.0</ele><time>2026-04-12T08:26:05.267Z</time></trkpt><trkpt lat="44.1610867" lon="11.65987"><ele>549.0</ele><time>2026-04-12T08:26:06.268Z</time></trkpt><trkpt lat="44.1610167" lon="11.6598933"><ele>549.0</ele><time>2026-04-12T08:26:07.267Z</time></trkpt><trkpt lat="44.1609183" lon="11.659865"><ele>549.0</ele><time>2026-04-12T08:26:09.269Z</time></trkpt><trkpt lat="44.160885" lon="11.6597683"><ele>549.0</ele><time>2026-04-12T08:26:11.269Z</time></trkpt><trkpt lat="44.160905" lon="11.659575"><ele>549.0</ele><time>2026-04-12T08:26:13.268Z</time></trkpt><trkpt lat="44.160915" lon="11.6594467"><ele>550.5</ele><time>2026-04-12T08:26:14.268Z</time></trkpt><trkpt lat="44.16093" lon="11.6592833"><ele>552.0</ele><time>2026-04-12T08:26:15.269Z</time></trkpt><trkpt lat="44.160925" lon="11.65913"><ele>553.5</ele><time>2026-04-12T08:26:16.267Z</time></trkpt><trkpt lat="44.160905" lon="11.6589467"><ele>555.0</ele><time>2026-04-12T08:26:17.267Z</time></trkpt><trkpt lat="44.16088" lon="11.658795"><ele>555.0</ele><time>2026-04-12T08:26:18.268Z</time></trkpt><trkpt lat="44.16084" lon="11.658685"><ele>555.0</ele><time>2026-04-12T08:26:19.267Z</time></trkpt><trkpt lat="44.1608017" lon="11.6585883"><ele>555.0</ele><time>2026-04-12T08:26:20.267Z</time></trkpt><trkpt lat="44.1607517" lon="11.6585083"><ele>555.0</ele><time>2026-04-12T08:26:21.267Z</time></trkpt><trkpt lat="44.160675" lon="11.6583867"><ele>555.0</ele><time>2026-04-12T08:26:23.269Z</time></trkpt><trkpt lat="44.1606117" lon="11.6583483"><ele>555.0</ele><time>2026-04-12T08:26:24.27Z</time></trkpt><trkpt lat="44.1605617" lon="11.6582867"><ele>553.3333333333334</ele><time>2026-04-12T08:26:25.267Z</time></trkpt><trkpt lat="44.1604817" lon="11.658165"><ele>551.6666666666666</ele><time>2026-04-12T08:26:27.267Z</time></trkpt><trkpt lat="44.1604467" lon="11.6580817"><ele>550.0</ele><time>2026-04-12T08:26:28.268Z</time></trkpt><trkpt lat="44.1604017" lon="11.6580067"><ele>548.3333333333333</ele><time>2026-04-12T08:26:29.267Z</time></trkpt><trkpt lat="44.16036" lon="11.6579367"><ele>546.6666666666666</ele><time>2026-04-12T08:26:30.267Z</time></trkpt><trkpt lat="44.1602883" lon="11.6579033"><ele>545.0</ele><time>2026-04-12T08:26:31.267Z</time></trkpt><trkpt lat="44.160205" lon="11.6578883"><ele>545.0</ele><time>2026-04-12T08:26:32.268Z</time></trkpt><trkpt lat="44.1601167" lon="11.6578733"><ele>545.0</ele><time>2026-04-12T08:26:33.268Z</time></trkpt><trkpt lat="44.1600133" lon="11.6578667"><ele>545.0</ele><time>2026-04-12T08:26:34.267Z</time></trkpt><trkpt lat="44.1599133" lon="11.6578733"><ele>545.0</ele><time>2026-04-12T08:26:35.268Z</time></trkpt><trkpt lat="44.1598083" lon="11.6578817"><ele>545.0</ele><time>2026-04-12T08:26:36.267Z</time></trkpt><trkpt lat="44.15972" lon="11.6578783"><ele>542.0</ele><time>2026-04-12T08:26:37.268Z</time></trkpt><trkpt lat="44.1596317" lon="11.6578817"><ele>539.0</ele><time>2026-04-12T08:26:38.27Z</time></trkpt><trkpt lat="44.1595417" lon="11.65789"><ele>536.0</ele><time>2026-04-12T08:26:39.267Z</time></trkpt><trkpt lat="44.159455" lon="11.6579"><ele>533.0</ele><time>2026-04-12T08:26:40.268Z</time></trkpt><trkpt lat="44.15938" lon="11.657905"><ele>530.0</ele><time>2026-04-12T08:26:41.268Z</time></trkpt><trkpt lat="44.159275" lon="11.6578717"><ele>527.0</ele><time>2026-04-12T08:26:43.268Z</time></trkpt><trkpt lat="44.1592" lon="11.6578217"><ele>529.5</ele><time>2026-04-12T08:26:45.269Z</time></trkpt><trkpt lat="44.1591717" lon="11.657725"><ele>532.0</ele><time>2026-04-12T08:26:47.266Z</time></trkpt><trkpt lat="44.1592017" lon="11.6575117"><ele>534.5</ele><time>2026-04-12T08:26:49.27Z</time></trkpt><trkpt lat="44.159235" lon="11.6573517"><ele>537.0</ele><time>2026-04-12T08:26:50.269Z</time></trkpt><trkpt lat="44.1592483" lon="11.65721"><ele>537.0</ele><time>2026-04-12T08:26:51.268Z</time></trkpt><trkpt lat="44.1592583" lon="11.6570883"><ele>537.0</ele><time>2026-04-12T08:26:52.268Z</time></trkpt><trkpt lat="44.1592583" lon="11.6569883"><ele>537.0</ele><time>2026-04-12T08:26:53.267Z</time></trkpt><trkpt lat="44.1592383" lon="11.6568583"><ele>537.0</ele><time>2026-04-12T08:26:55.267Z</time></trkpt><trkpt lat="44.159195" lon="11.65679"><ele>537.0</ele><time>2026-04-12T08:26:57.27Z</time></trkpt><trkpt lat="44.1591283" lon="11.6568383"><ele>537.0</ele><time>2026-04-12T08:26:59.269Z</time></trkpt><trkpt lat="44.1591033" lon="11.656995"><ele>537.0</ele><time>2026-04-12T08:27:01.27Z</time></trkpt><trkpt lat="44.1591067" lon="11.65711"><ele>537.0</ele><time>2026-04-12T08:27:02.268Z</time></trkpt><trkpt lat="44.1590783" lon="11.6572217"><ele>537.0</ele><time>2026-04-12T08:27:03.269Z</time></trkpt><trkpt lat="44.1590533" lon="11.65735"><ele>537.0</ele><time>2026-04-12T08:27:04.268Z</time></trkpt><trkpt lat="44.1590267" lon="11.657485"><ele>537.0</ele><time>2026-04-12T08:27:05.267Z</time></trkpt><trkpt lat="44.1589917" lon="11.6576117"><ele>530.6</ele><time>2026-04-12T08:27:06.268Z</time></trkpt><trkpt lat="44.15895" lon="11.6577417"><ele>524.2</ele><time>2026-04-12T08:27:07.267Z</time></trkpt><trkpt lat="44.158895" lon="11.6578517"><ele>517.8</ele><time>2026-04-12T08:27:08.268Z</time></trkpt><trkpt lat="44.1588333" lon="11.6579567"><ele>511.4</ele><time>2026-04-12T08:27:09.267Z</time></trkpt><trkpt lat="44.1587783" lon="11.658055"><ele>505.0</ele><time>2026-04-12T08:27:10.269Z</time></trkpt><trkpt lat="44.1587267" lon="11.6581633"><ele>503.6</ele><time>2026-04-12T08:27:11.266Z</time></trkpt><trkpt lat="44.158675" lon="11.6582883"><ele>502.2</ele><time>2026-04-12T08:27:12.267Z</time></trkpt><trkpt lat="44.1586167" lon="11.65842"><ele>500.79999999999995</ele><time>2026-04-12T08:27:13.267Z</time></trkpt><trkpt lat="44.1585533" lon="11.6585433"><ele>499.4</ele><time>2026-04-12T08:27:14.268Z</time></trkpt><trkpt lat="44.1584833" lon="11.6586633"><ele>498.0</ele><time>2026-04-12T08:27:15.267Z</time></trkpt><trkpt lat="44.1584083" lon="11.65878"><ele>498.0</ele><time>2026-04-12T08:27:16.267Z</time></trkpt><trkpt lat="44.1583133" lon="11.6588867"><ele>497.99999999999994</ele><time>2026-04-12T08:27:17.266Z</time></trkpt><trkpt lat="44.1582317" lon="11.6589717"><ele>497.99999999999994</ele><time>2026-04-12T08:27:18.266Z</time></trkpt><trkpt lat="44.1581583" lon="11.6590417"><ele>498.0</ele><time>2026-04-12T08:27:19.267Z</time></trkpt><trkpt lat="44.1580783" lon="11.6591067"><ele>498.0</ele><time>2026-04-12T08:27:20.268Z</time></trkpt><trkpt lat="44.15801" lon="11.65917"><ele>494.0</ele><time>2026-04-12T08:27:21.267Z</time></trkpt><trkpt lat="44.1579467" lon="11.659225"><ele>489.99999999999994</ele><time>2026-04-12T08:27:22.268Z</time></trkpt><trkpt lat="44.1578967" lon="11.659285"><ele>485.99999999999994</ele><time>2026-04-12T08:27:23.267Z</time></trkpt><trkpt lat="44.1578267" lon="11.6594183"><ele>482.0</ele><time>2026-04-12T08:27:25.266Z</time></trkpt><trkpt lat="44.1577667" lon="11.6595467"><ele>478.0</ele><time>2026-04-12T08:27:27.267Z</time></trkpt><trkpt lat="44.15765" lon="11.6595917"><ele>478.0</ele><time>2026-04-12T08:27:29.267Z</time></trkpt><trkpt lat="44.1575667" lon="11.6595717"><ele>477.99999999999994</ele><time>2026-04-12T08:27:31.267Z</time></trkpt><trkpt lat="44.1575633" lon="11.659475"><ele>477.99999999999994</ele><time>2026-04-12T08:27:34.268Z</time></trkpt><trkpt lat="44.157635" lon="11.6593783"><ele>478.0</ele><time>2026-04-12T08:27:35.268Z</time></trkpt><trkpt lat="44.1576883" lon="11.659285"><ele>478.0</ele><time>2026-04-12T08:27:36.267Z</time></trkpt><trkpt lat="44.157775" lon="11.6591617"><ele>478.0</ele><time>2026-04-12T08:27:37.267Z</time></trkpt><trkpt lat="44.1578417" lon="11.6590533"><ele>477.99999999999994</ele><time>2026-04-12T08:27:38.268Z</time></trkpt><trkpt lat="44.157885" lon="11.6589467"><ele>477.99999999999994</ele><time>2026-04-12T08:27:39.268Z</time></trkpt><trkpt lat="44.1579367" lon="11.6588233"><ele>478.0</ele><time>2026-04-12T08:27:40.267Z</time></trkpt><trkpt lat="44.1579767" lon="11.6587067"><ele>478.0</ele><time>2026-04-12T08:27:41.266Z</time></trkpt><trkpt lat="44.1580283" lon="11.658605"><ele>476.00000000000006</ele><time>2026-04-12T08:27:42.268Z</time></trkpt><trkpt lat="44.1580583" lon="11.658515"><ele>474.0</ele><time>2026-04-12T08:27:43.268Z</time></trkpt><trkpt lat="44.1580867" lon="11.65841"><ele>472.0</ele><time>2026-04-12T08:27:44.266Z</time></trkpt><trkpt lat="44.1581167" lon="11.6583167"><ele>470.0</ele><time>2026-04-12T08:27:45.267Z</time></trkpt><trkpt lat="44.1581567" lon="11.6581883"><ele>468.00000000000006</ele><time>2026-04-12T08:27:46.269Z</time></trkpt><trkpt lat="44.1581633" lon="11.6580783"><ele>466.0</ele><time>2026-04-12T08:27:47.267Z</time></trkpt><trkpt lat="44.158155" lon="11.6579717"><ele>466.0</ele><time>2026-04-12T08:27:48.268Z</time></trkpt><trkpt lat="44.15808" lon="11.65782"><ele>466.0</ele><time>2026-04-12T08:27:50.267Z</time></trkpt><trkpt lat="44.158025" lon="11.6577467"><ele>466.0</ele><time>2026-04-12T08:27:51.267Z</time></trkpt><trkpt lat="44.1579483" lon="11.6576917"><ele>466.0</ele><time>2026-04-12T08:27:52.268Z</time></trkpt><trkpt lat="44.1578517" lon="11.657645"><ele>466.0</ele><time>2026-04-12T08:27:53.267Z</time></trkpt><trkpt lat="44.1577117" lon="11.657635"><ele>468.75</ele><time>2026-04-12T08:27:54.267Z</time></trkpt><trkpt lat="44.157575" lon="11.6576533"><ele>471.5</ele><time>2026-04-12T08:27:55.268Z</time></trkpt><trkpt lat="44.1574517" lon="11.657645"><ele>474.25</ele><time>2026-04-12T08:27:56.267Z</time></trkpt><trkpt lat="44.1573133" lon="11.6576867"><ele>477.0</ele><time>2026-04-12T08:27:57.267Z</time></trkpt><trkpt lat="44.1572117" lon="11.6577267"><ele>477.0</ele><time>2026-04-12T08:27:58.267Z</time></trkpt><trkpt lat="44.1571117" lon="11.6577667"><ele>477.00000000000006</ele><time>2026-04-12T08:27:59.267Z</time></trkpt><trkpt lat="44.1570167" lon="11.6578033"><ele>477.00000000000006</ele><time>2026-04-12T08:28:00.266Z</time></trkpt><trkpt lat="44.1569183" lon="11.657835"><ele>477.0</ele><time>2026-04-12T08:28:01.268Z</time></trkpt><trkpt lat="44.1568233" lon="11.657855"><ele>477.0</ele><time>2026-04-12T08:28:02.269Z</time></trkpt><trkpt lat="44.1567417" lon="11.6578683"><ele>472.85714285714283</ele><time>2026-04-12T08:28:03.268Z</time></trkpt><trkpt lat="44.15667" lon="11.65788"><ele>468.71428571428567</ele><time>2026-04-12T08:28:04.266Z</time></trkpt><trkpt lat="44.1566033" lon="11.6579083"><ele>464.57142857142856</ele><time>2026-04-12T08:28:05.269Z</time></trkpt><trkpt lat="44.1565433" lon="11.6579483"><ele>460.42857142857144</ele><time>2026-04-12T08:28:06.267Z</time></trkpt><trkpt lat="44.1564883" lon="11.6580033"><ele>456.2857142857143</ele><time>2026-04-12T08:28:07.268Z</time></trkpt><trkpt lat="44.1564283" lon="11.6580517"><ele>452.1428571428571</ele><time>2026-04-12T08:28:08.267Z</time></trkpt><trkpt lat="44.156365" lon="11.6581"><ele>448.0</ele><time>2026-04-12T08:28:09.267Z</time></trkpt><trkpt lat="44.1562983" lon="11.6581467"><ele>447.83333333333337</ele><time>2026-04-12T08:28:10.267Z</time></trkpt><trkpt lat="44.156235" lon="11.6581767"><ele>447.6666666666667</ele><time>2026-04-12T08:28:11.267Z</time></trkpt><trkpt lat="44.156165" lon="11.6582167"><ele>447.5</ele><time>2026-04-12T08:28:12.267Z</time></trkpt><trkpt lat="44.1560833" lon="11.65827"><ele>447.33333333333337</ele><time>2026-04-12T08:28:13.267Z</time></trkpt><trkpt lat="44.1560083" lon="11.6583367"><ele>447.1666666666667</ele><time>2026-04-12T08:28:14.266Z</time></trkpt><trkpt lat="44.1559283" lon="11.6584133"><ele>447.0</ele><time>2026-04-12T08:28:15.268Z</time></trkpt><trkpt lat="44.1558483" lon="11.6584917"><ele>447.0</ele><time>2026-04-12T08:28:16.267Z</time></trkpt><trkpt lat="44.1557617" lon="11.6585783"><ele>447.0</ele><time>2026-04-12T08:28:17.268Z</time></trkpt><trkpt lat="44.1556617" lon="11.6586683"><ele>447.0</ele><time>2026-04-12T08:28:18.266Z</time></trkpt><trkpt lat="44.155555" lon="11.6587433"><ele>447.0</ele><time>2026-04-12T08:28:19.266Z</time></trkpt><trkpt lat="44.1554533" lon="11.6588117"><ele>442.40000000000003</ele><time>2026-04-12T08:28:20.267Z</time></trkpt><trkpt lat="44.15536" lon="11.6588817"><ele>437.80000000000007</ele><time>2026-04-12T08:28:21.268Z</time></trkpt><trkpt lat="44.15527" lon="11.6589733"><ele>433.2</ele><time>2026-04-12T08:28:22.267Z</time></trkpt><trkpt lat="44.1551867" lon="11.6590667"><ele>428.6</ele><time>2026-04-12T08:28:23.268Z</time></trkpt><trkpt lat="44.155105" lon="11.6591533"><ele>424.0</ele><time>2026-04-12T08:28:24.267Z</time></trkpt><trkpt lat="44.155035" lon="11.6592317"><ele>424.00000000000006</ele><time>2026-04-12T08:28:25.268Z</time></trkpt><trkpt lat="44.1549783" lon="11.659295"><ele>424.0</ele><time>2026-04-12T08:28:26.266Z</time></trkpt><trkpt lat="44.1549233" lon="11.65934"><ele>424.0</ele><time>2026-04-12T08:28:27.268Z</time></trkpt><trkpt lat="44.1548267" lon="11.6593617"><ele>424.0</ele><time>2026-04-12T08:28:29.267Z</time></trkpt><trkpt lat="44.1547217" lon="11.6593217"><ele>424.00000000000006</ele><time>2026-04-12T08:28:31.268Z</time></trkpt><trkpt lat="44.15464" lon="11.6592667"><ele>424.0</ele><time>2026-04-12T08:28:32.267Z</time></trkpt><trkpt lat="44.1545483" lon="11.6592067"><ele>420.50000000000006</ele><time>2026-04-12T08:28:33.267Z</time></trkpt><trkpt lat="44.1544667" lon="11.6591467"><ele>417.0</ele><time>2026-04-12T08:28:34.266Z</time></trkpt><trkpt lat="44.1543917" lon="11.659085"><ele>413.5</ele><time>2026-04-12T08:28:35.267Z</time></trkpt><trkpt lat="44.154325" lon="11.6590117"><ele>410.0</ele><time>2026-04-12T08:28:36.266Z</time></trkpt><trkpt lat="44.1542633" lon="11.6589467"><ele>406.50000000000006</ele><time>2026-04-12T08:28:37.266Z</time></trkpt><trkpt lat="44.1542" lon="11.6588933"><ele>403.0</ele><time>2026-04-12T08:28:38.267Z</time></trkpt><trkpt lat="44.15412" lon="11.6588583"><ele>398.33333333333337</ele><time>2026-04-12T08:28:39.268Z</time></trkpt><trkpt lat="44.1540233" lon="11.658855"><ele>393.6666666666667</ele><time>2026-04-12T08:28:40.267Z</time></trkpt><trkpt lat="44.1539317" lon="11.6588633"><ele>389.0</ele><time>2026-04-12T08:28:41.267Z</time></trkpt><trkpt lat="44.153855" lon="11.65886"><ele>384.33333333333337</ele><time>2026-04-12T08:28:42.267Z</time></trkpt><trkpt lat="44.1537883" lon="11.6588533"><ele>379.6666666666667</ele><time>2026-04-12T08:28:43.266Z</time></trkpt><trkpt lat="44.1537233" lon="11.6588283"><ele>375.0</ele><time>2026-04-12T08:28:44.266Z</time></trkpt><trkpt lat="44.1536267" lon="11.6587"><ele>377.0</ele><time>2026-04-12T08:28:46.267Z</time></trkpt><trkpt lat="44.153585" lon="11.6586167"><ele>379.0</ele><time>2026-04-12T08:28:47.267Z</time></trkpt><trkpt lat="44.1535367" lon="11.6585"><ele>381.0</ele><time>2026-04-12T08:28:48.266Z</time></trkpt><trkpt lat="44.1534667" lon="11.6583683"><ele>383.0</ele><time>2026-04-12T08:28:49.268Z</time></trkpt><trkpt lat="44.1534067" lon="11.65825"><ele>385.0</ele><time>2026-04-12T08:28:50.266Z</time></trkpt><trkpt lat="44.15337" lon="11.6581367"><ele>385.00000000000006</ele><time>2026-04-12T08:28:51.27Z</time></trkpt><trkpt lat="44.153345" lon="11.65803"><ele>385.0</ele><time>2026-04-12T08:28:52.267Z</time></trkpt><trkpt lat="44.1533333" lon="11.6579217"><ele>385.0</ele><time>2026-04-12T08:28:53.268Z</time></trkpt><trkpt lat="44.1533433" lon="11.6578133"><ele>385.0</ele><time>2026-04-12T08:28:54.267Z</time></trkpt><trkpt lat="44.1533617" lon="11.6576633"><ele>385.00000000000006</ele><time>2026-04-12T08:28:56.267Z</time></trkpt><trkpt lat="44.15335" lon="11.6575733"><ele>385.0</ele><time>2026-04-12T08:28:58.268Z</time></trkpt><trkpt lat="44.1533233" lon="11.65749"><ele>385.2</ele><time>2026-04-12T08:29:03.267Z</time></trkpt><trkpt lat="44.153315" lon="11.657385"><ele>385.4</ele><time>2026-04-12T08:31:05.272Z</time></trkpt><trkpt lat="44.15331" lon="11.6572067"><ele>385.6</ele><time>2026-04-12T08:31:07.268Z</time></trkpt><trkpt lat="44.1533033" lon="11.6570833"><ele>385.8</ele><time>2026-04-12T08:31:08.268Z</time></trkpt><trkpt lat="44.15329" lon="11.6569433"><ele>386.0</ele><time>2026-04-12T08:31:09.267Z</time></trkpt><trkpt lat="44.1532667" lon="11.6568233"><ele>386.0</ele><time>2026-04-12T08:31:10.268Z</time></trkpt><trkpt lat="44.1532333" lon="11.656705"><ele>386.0</ele><time>2026-04-12T08:31:11.267Z</time></trkpt><trkpt lat="44.1531983" lon="11.6565833"><ele>386.0</ele><time>2026-04-12T08:31:12.267Z</time></trkpt><trkpt lat="44.1531567" lon="11.6564567"><ele>386.0</ele><time>2026-04-12T08:31:13.269Z</time></trkpt><trkpt lat="44.15311" lon="11.6563367"><ele>386.0</ele><time>2026-04-12T08:31:14.268Z</time></trkpt><trkpt lat="44.1530767" lon="11.6562317"><ele>385.99999999999994</ele><time>2026-04-12T08:31:15.268Z</time></trkpt><trkpt lat="44.153055" lon="11.6561367"><ele>386.0</ele><time>2026-04-12T08:31:16.268Z</time></trkpt><trkpt lat="44.15304" lon="11.6560417"><ele>386.0</ele><time>2026-04-12T08:31:17.269Z</time></trkpt><trkpt lat="44.1530383" lon="11.6559467"><ele>386.0</ele><time>2026-04-12T08:31:18.268Z</time></trkpt><trkpt lat="44.153035" lon="11.6558533"><ele>385.99999999999994</ele><time>2026-04-12T08:31:19.268Z</time></trkpt><trkpt lat="44.1530317" lon="11.65567"><ele>386.0</ele><time>2026-04-12T08:31:21.268Z</time></trkpt><trkpt lat="44.1530083" lon="11.6555883"><ele>385.49999999999994</ele><time>2026-04-12T08:31:22.269Z</time></trkpt><trkpt lat="44.15299" lon="11.6554933"><ele>385.0</ele><time>2026-04-12T08:31:23.267Z</time></trkpt><trkpt lat="44.15296" lon="11.655385"><ele>384.5</ele><time>2026-04-12T08:31:24.268Z</time></trkpt><trkpt lat="44.15293" lon="11.6552983"><ele>384.0</ele><time>2026-04-12T08:31:25.27Z</time></trkpt><trkpt lat="44.1528567" lon="11.6552067"><ele>383.5</ele><time>2026-04-12T08:31:26.269Z</time></trkpt><trkpt lat="44.1528067" lon="11.6551117"><ele>383.0</ele><time>2026-04-12T08:31:27.267Z</time></trkpt><trkpt lat="44.1527617" lon="11.65501"><ele>385.0</ele><time>2026-04-12T08:31:28.267Z</time></trkpt><trkpt lat="44.15271" lon="11.6549"><ele>387.0</ele><time>2026-04-12T08:31:29.268Z</time></trkpt><trkpt lat="44.1526533" lon="11.6547667"><ele>389.0</ele><time>2026-04-12T08:31:30.271Z</time></trkpt><trkpt lat="44.1526083" lon="11.654635"><ele>391.0</ele><time>2026-04-12T08:31:31.268Z</time></trkpt><trkpt lat="44.152575" lon="11.65451"><ele>393.0</ele><time>2026-04-12T08:31:32.267Z</time></trkpt><trkpt lat="44.1525567" lon="11.6544033"><ele>394.6666666666667</ele><time>2026-04-12T08:31:33.268Z</time></trkpt><trkpt lat="44.1525467" lon="11.6542983"><ele>396.33333333333337</ele><time>2026-04-12T08:31:34.268Z</time></trkpt><trkpt lat="44.1525583" lon="11.654185"><ele>398.0</ele><time>2026-04-12T08:31:35.267Z</time></trkpt><trkpt lat="44.1525667" lon="11.6540667"><ele>399.6666666666667</ele><time>2026-04-12T08:31:36.268Z</time></trkpt><trkpt lat="44.1525933" lon="11.65395"><ele>401.33333333333337</ele><time>2026-04-12T08:31:37.27Z</time></trkpt><trkpt lat="44.1526233" lon="11.65382"><ele>403.0</ele><time>2026-04-12T08:31:38.269Z</time></trkpt><trkpt lat="44.1526433" lon="11.6536717"><ele>404.2</ele><time>2026-04-12T08:31:39.269Z</time></trkpt><trkpt lat="44.152665" lon="11.6535283"><ele>405.4</ele><time>2026-04-12T08:31:40.267Z</time></trkpt><trkpt lat="44.1526883" lon="11.653385"><ele>406.59999999999997</ele><time>2026-04-12T08:31:41.268Z</time></trkpt><trkpt lat="44.1527017" lon="11.6532633"><ele>407.79999999999995</ele><time>2026-04-12T08:31:42.268Z</time></trkpt><trkpt lat="44.152715" lon="11.6531433"><ele>409.0</ele><time>2026-04-12T08:31:43.269Z</time></trkpt><trkpt lat="44.15274" lon="11.6530333"><ele>409.00000000000006</ele><time>2026-04-12T08:31:44.268Z</time></trkpt><trkpt lat="44.1527633" lon="11.65293"><ele>409.0</ele><time>2026-04-12T08:31:45.268Z</time></trkpt><trkpt lat="44.1528033" lon="11.6528383"><ele>409.0</ele><time>2026-04-12T08:31:46.268Z</time></trkpt><trkpt lat="44.15285" lon="11.6527483"><ele>409.0</ele><time>2026-04-12T08:31:47.269Z</time></trkpt><trkpt lat="44.1528967" lon="11.6526733"><ele>409.00000000000006</ele><time>2026-04-12T08:31:48.269Z</time></trkpt><trkpt lat="44.1529683" lon="11.65261"><ele>409.0</ele><time>2026-04-12T08:31:49.269Z</time></trkpt><trkpt lat="44.1530183" lon="11.6525483"><ele>410.4</ele><time>2026-04-12T08:31:50.268Z</time></trkpt><trkpt lat="44.1530667" lon="11.6524817"><ele>411.79999999999995</ele><time>2026-04-12T08:31:51.269Z</time></trkpt><trkpt lat="44.1531517" lon="11.6523433"><ele>413.20000000000005</ele><time>2026-04-12T08:31:53.268Z</time></trkpt><trkpt lat="44.15319" lon="11.6522083"><ele>414.6</ele><time>2026-04-12T08:31:55.268Z</time></trkpt><trkpt lat="44.1532067" lon="11.6520533"><ele>416.0</ele><time>2026-04-12T08:31:57.272Z</time></trkpt><trkpt lat="44.1531583" lon="11.6519167"><ele>420.0</ele><time>2026-04-12T08:31:59.27Z</time></trkpt><trkpt lat="44.1531083" lon="11.6518617"><ele>424.0</ele><time>2026-04-12T08:32:00.269Z</time></trkpt><trkpt lat="44.15303" lon="11.651815"><ele>428.0</ele><time>2026-04-12T08:32:01.273Z</time></trkpt><trkpt lat="44.1529283" lon="11.6517783"><ele>432.0</ele><time>2026-04-12T08:32:02.269Z</time></trkpt><trkpt lat="44.1528033" lon="11.6517517"><ele>436.0</ele><time>2026-04-12T08:32:03.27Z</time></trkpt><trkpt lat="44.15262" lon="11.6518083"><ele>436.0</ele><time>2026-04-12T08:32:04.269Z</time></trkpt><trkpt lat="44.1525" lon="11.6517083"><ele>436.0</ele><time>2026-04-12T08:32:05.268Z</time></trkpt><trkpt lat="44.1524017" lon="11.651645"><ele>436.0</ele><time>2026-04-12T08:32:06.269Z</time></trkpt><trkpt lat="44.1522917" lon="11.65158"><ele>436.0</ele><time>2026-04-12T08:32:07.27Z</time></trkpt><trkpt lat="44.15219" lon="11.6515267"><ele>436.8</ele><time>2026-04-12T08:32:08.268Z</time></trkpt><trkpt lat="44.1520933" lon="11.651485"><ele>437.6</ele><time>2026-04-12T08:32:09.269Z</time></trkpt><trkpt lat="44.1520017" lon="11.6514517"><ele>438.4</ele><time>2026-04-12T08:32:10.269Z</time></trkpt><trkpt lat="44.1519167" lon="11.6514367"><ele>439.2</ele><time>2026-04-12T08:32:11.267Z</time></trkpt><trkpt lat="44.151825" lon="11.6514333"><ele>440.0</ele><time>2026-04-12T08:32:12.27Z</time></trkpt><trkpt lat="44.15174" lon="11.6514367"><ele>440.0</ele><time>2026-04-12T08:32:13.268Z</time></trkpt><trkpt lat="44.1516583" lon="11.6514317"><ele>440.0</ele><time>2026-04-12T08:32:14.269Z</time></trkpt><trkpt lat="44.1515617" lon="11.65141"><ele>440.0</ele><time>2026-04-12T08:32:15.271Z</time></trkpt><trkpt lat="44.1514617" lon="11.6513717"><ele>440.0</ele><time>2026-04-12T08:32:16.269Z</time></trkpt><trkpt lat="44.1513717" lon="11.6513217"><ele>440.0</ele><time>2026-04-12T08:32:17.266Z</time></trkpt><trkpt lat="44.151305" lon="11.6512417"><ele>442.8</ele><time>2026-04-12T08:32:18.268Z</time></trkpt><trkpt lat="44.151245" lon="11.65115"><ele>445.6</ele><time>2026-04-12T08:32:19.273Z</time></trkpt><trkpt lat="44.1511817" lon="11.6510567"><ele>448.4</ele><time>2026-04-12T08:32:20.269Z</time></trkpt><trkpt lat="44.151115" lon="11.65095"><ele>451.2</ele><time>2026-04-12T08:32:21.269Z</time></trkpt><trkpt lat="44.1510283" lon="11.6508633"><ele>454.0</ele><time>2026-04-12T08:32:22.267Z</time></trkpt><trkpt lat="44.1509333" lon="11.6507783"><ele>454.0</ele><time>2026-04-12T08:32:23.266Z</time></trkpt><trkpt lat="44.150835" lon="11.65068"><ele>454.0</ele><time>2026-04-12T08:32:24.266Z</time></trkpt><trkpt lat="44.1507317" lon="11.650615"><ele>454.0</ele><time>2026-04-12T08:32:25.267Z</time></trkpt><trkpt lat="44.15062" lon="11.650565"><ele>454.0</ele><time>2026-04-12T08:32:26.266Z</time></trkpt><trkpt lat="44.1505067" lon="11.6505317"><ele>451.50000000000006</ele><time>2026-04-12T08:32:27.267Z</time></trkpt><trkpt lat="44.150425" lon="11.650495"><ele>449.0</ele><time>2026-04-12T08:32:28.266Z</time></trkpt><trkpt lat="44.1503567" lon="11.6504617"><ele>446.5</ele><time>2026-04-12T08:32:29.267Z</time></trkpt><trkpt lat="44.150295" lon="11.6504283"><ele>444.0</ele><time>2026-04-12T08:32:30.266Z</time></trkpt><trkpt lat="44.1502083" lon="11.65033"><ele>441.50000000000006</ele><time>2026-04-12T08:32:32.266Z</time></trkpt><trkpt lat="44.150115" lon="11.6502967"><ele>439.0</ele><time>2026-04-12T08:32:34.267Z</time></trkpt><trkpt lat="44.1501283" lon="11.6501583"><ele>439.0</ele><time>2026-04-12T08:32:37.268Z</time></trkpt><trkpt lat="44.1502417" lon="11.6500483"><ele>439.0</ele><time>2026-04-12T08:32:39.268Z</time></trkpt><trkpt lat="44.150295" lon="11.6499717"><ele>439.0</ele><time>2026-04-12T08:32:40.267Z</time></trkpt><trkpt lat="44.1503517" lon="11.6498783"><ele>439.0</ele><time>2026-04-12T08:32:41.268Z</time></trkpt><trkpt lat="44.1504267" lon="11.6497683"><ele>439.0</ele><time>2026-04-12T08:32:42.267Z</time></trkpt><trkpt lat="44.1505583" lon="11.649555"><ele>443.25</ele><time>2026-04-12T08:32:43.268Z</time></trkpt><trkpt lat="44.150655" lon="11.6494233"><ele>447.5</ele><time>2026-04-12T08:32:44.266Z</time></trkpt><trkpt lat="44.1507333" lon="11.6492917"><ele>451.75</ele><time>2026-04-12T08:32:45.267Z</time></trkpt><trkpt lat="44.1508083" lon="11.6491483"><ele>456.0</ele><time>2026-04-12T08:32:46.266Z</time></trkpt><trkpt lat="44.15089" lon="11.649005"><ele>456.4</ele><time>2026-04-12T08:32:47.266Z</time></trkpt><trkpt lat="44.15096" lon="11.6488633"><ele>456.8</ele><time>2026-04-12T08:32:48.267Z</time></trkpt><trkpt lat="44.1510083" lon="11.6487433"><ele>457.19999999999993</ele><time>2026-04-12T08:32:49.267Z</time></trkpt><trkpt lat="44.1510533" lon="11.6486267"><ele>457.59999999999997</ele><time>2026-04-12T08:32:50.265Z</time></trkpt><trkpt lat="44.151085" lon="11.6485133"><ele>458.0</ele><time>2026-04-12T08:32:51.267Z</time></trkpt><trkpt lat="44.1510867" lon="11.6484067"><ele>459.0</ele><time>2026-04-12T08:32:52.266Z</time></trkpt><trkpt lat="44.1510833" lon="11.6482917"><ele>459.99999999999994</ele><time>2026-04-12T08:32:53.266Z</time></trkpt><trkpt lat="44.151085" lon="11.6481817"><ele>460.99999999999994</ele><time>2026-04-12T08:32:54.266Z</time></trkpt><trkpt lat="44.1510667" lon="11.6480617"><ele>462.0</ele><time>2026-04-12T08:32:55.268Z</time></trkpt><trkpt lat="44.1510867" lon="11.64794"><ele>463.0</ele><time>2026-04-12T08:32:56.267Z</time></trkpt><trkpt lat="44.15109" lon="11.64777"><ele>463.0</ele><time>2026-04-12T08:32:58.266Z</time></trkpt><trkpt lat="44.1510217" lon="11.6477533"><ele>463.0</ele><time>2026-04-12T08:33:00.265Z</time></trkpt><trkpt lat="44.1508767" lon="11.6478683"><ele>463.0</ele><time>2026-04-12T08:33:02.266Z</time></trkpt><trkpt lat="44.150785" lon="11.6479667"><ele>463.0</ele><time>2026-04-12T08:33:03.267Z</time></trkpt><trkpt lat="44.150665" lon="11.64808"><ele>468.5</ele><time>2026-04-12T08:33:04.266Z</time></trkpt><trkpt lat="44.1505783" lon="11.64817"><ele>474.0</ele><time>2026-04-12T08:33:05.266Z</time></trkpt><trkpt lat="44.1504633" lon="11.6482933"><ele>479.5</ele><time>2026-04-12T08:33:06.266Z</time></trkpt><trkpt lat="44.150335" lon="11.6484317"><ele>485.0</ele><time>2026-04-12T08:33:07.267Z</time></trkpt><trkpt lat="44.1502517" lon="11.6485133"><ele>485.0</ele><time>2026-04-12T08:33:08.266Z</time></trkpt><trkpt lat="44.1501717" lon="11.6485817"><ele>485.0</ele><time>2026-04-12T08:33:09.267Z</time></trkpt><trkpt lat="44.1501017" lon="11.6486783"><ele>485.0</ele><time>2026-04-12T08:33:10.265Z</time></trkpt><trkpt lat="44.1500283" lon="11.6487767"><ele>485.0</ele><time>2026-04-12T08:33:11.266Z</time></trkpt><trkpt lat="44.1499583" lon="11.6488733"><ele>485.0</ele><time>2026-04-12T08:33:12.265Z</time></trkpt><trkpt lat="44.1498767" lon="11.6489967"><ele>479.3333333333333</ele><time>2026-04-12T08:33:13.267Z</time></trkpt><trkpt lat="44.1498283" lon="11.649105"><ele>473.66666666666663</ele><time>2026-04-12T08:33:14.267Z</time></trkpt><trkpt lat="44.1497867" lon="11.6492183"><ele>468.0</ele><time>2026-04-12T08:33:15.267Z</time></trkpt><trkpt lat="44.1497367" lon="11.6493317"><ele>462.33333333333337</ele><time>2026-04-12T08:33:16.266Z</time></trkpt><trkpt lat="44.149685" lon="11.6494283"><ele>456.6666666666667</ele><time>2026-04-12T08:33:17.266Z</time></trkpt><trkpt lat="44.14963" lon="11.64951"><ele>451.0</ele><time>2026-04-12T08:33:18.266Z</time></trkpt><trkpt lat="44.1495733" lon="11.6495633"><ele>448.00000000000006</ele><time>2026-04-12T08:33:19.268Z</time></trkpt><trkpt lat="44.1495133" lon="11.649625"><ele>445.0</ele><time>2026-04-12T08:33:20.266Z</time></trkpt><trkpt lat="44.1494483" lon="11.649675"><ele>442.0</ele><time>2026-04-12T08:33:21.267Z</time></trkpt><trkpt lat="44.149365" lon="11.6497067"><ele>439.0</ele><time>2026-04-12T08:33:22.266Z</time></trkpt><trkpt lat="44.1492817" lon="11.6496917"><ele>436.00000000000006</ele><time>2026-04-12T08:33:23.267Z</time></trkpt><trkpt lat="44.14921" lon="11.649645"><ele>433.0</ele><time>2026-04-12T08:33:24.266Z</time></trkpt><trkpt lat="44.149145" lon="11.6495933"><ele>433.0</ele><time>2026-04-12T08:33:25.267Z</time></trkpt><trkpt lat="44.1490767" lon="11.6495167"><ele>432.99999999999994</ele><time>2026-04-12T08:33:26.266Z</time></trkpt><trkpt lat="44.1490133" lon="11.64942"><ele>432.99999999999994</ele><time>2026-04-12T08:33:27.266Z</time></trkpt><trkpt lat="44.1489417" lon="11.6492933"><ele>433.0</ele><time>2026-04-12T08:33:28.267Z</time></trkpt><trkpt lat="44.14886" lon="11.64916"><ele>433.0</ele><time>2026-04-12T08:33:29.266Z</time></trkpt><trkpt lat="44.1487817" lon="11.6490483"><ele>435.2</ele><time>2026-04-12T08:33:30.266Z</time></trkpt><trkpt lat="44.1486983" lon="11.6489583"><ele>437.4</ele><time>2026-04-12T08:33:31.268Z</time></trkpt><trkpt lat="44.1486183" lon="11.648885"><ele>439.59999999999997</ele><time>2026-04-12T08:33:32.266Z</time></trkpt><trkpt lat="44.1485383" lon="11.6488417"><ele>441.79999999999995</ele><time>2026-04-12T08:33:33.267Z</time></trkpt><trkpt lat="44.148455" lon="11.64881"><ele>444.0</ele><time>2026-04-12T08:33:34.266Z</time></trkpt><trkpt lat="44.14837" lon="11.6487783"><ele>444.0</ele><time>2026-04-12T08:33:35.266Z</time></trkpt><trkpt lat="44.14829" lon="11.6487467"><ele>444.0</ele><time>2026-04-12T08:33:36.266Z</time></trkpt><trkpt lat="44.148215" lon="11.6487067"><ele>444.0</ele><time>2026-04-12T08:33:37.266Z</time></trkpt><trkpt lat="44.1481467" lon="11.6486733"><ele>444.0</ele><time>2026-04-12T08:33:38.266Z</time></trkpt><trkpt lat="44.1481" lon="11.64861"><ele>444.0</ele><time>2026-04-12T08:33:39.267Z</time></trkpt><trkpt lat="44.148045" lon="11.6485567"><ele>444.0</ele><time>2026-04-12T08:33:40.266Z</time></trkpt><trkpt lat="44.14801" lon="11.6484833"><ele>444.0</ele><time>2026-04-12T08:33:41.268Z</time></trkpt><trkpt lat="44.1479983" lon="11.648365"><ele>446.6</ele><time>2026-04-12T08:33:42.266Z</time></trkpt><trkpt lat="44.148015" lon="11.6481783"><ele>449.2</ele><time>2026-04-12T08:33:43.267Z</time></trkpt><trkpt lat="44.1480333" lon="11.6480267"><ele>451.80000000000007</ele><time>2026-04-12T08:33:44.267Z</time></trkpt><trkpt lat="44.148065" lon="11.6478867"><ele>454.40000000000003</ele><time>2026-04-12T08:33:45.266Z</time></trkpt><trkpt lat="44.148095" lon="11.6477783"><ele>457.0</ele><time>2026-04-12T08:33:46.267Z</time></trkpt><trkpt lat="44.1481167" lon="11.6476883"><ele>457.6</ele><time>2026-04-12T08:33:47.266Z</time></trkpt><trkpt lat="44.1481367" lon="11.6475967"><ele>458.20000000000005</ele><time>2026-04-12T08:33:48.265Z</time></trkpt><trkpt lat="44.1481717" lon="11.6474883"><ele>458.8</ele><time>2026-04-12T08:33:49.266Z</time></trkpt><trkpt lat="44.1482283" lon="11.6473733"><ele>459.4</ele><time>2026-04-12T08:33:50.266Z</time></trkpt><trkpt lat="44.1482883" lon="11.6472417"><ele>460.0</ele><time>2026-04-12T08:33:51.266Z</time></trkpt><trkpt lat="44.1483483" lon="11.6471117"><ele>463.0</ele><time>2026-04-12T08:33:52.267Z</time></trkpt><trkpt lat="44.148415" lon="11.6469733"><ele>466.0</ele><time>2026-04-12T08:33:53.265Z</time></trkpt><trkpt lat="44.1484767" lon="11.6468517"><ele>469.0</ele><time>2026-04-12T08:33:54.267Z</time></trkpt><trkpt lat="44.148535" lon="11.64672"><ele>472.0</ele><time>2026-04-12T08:33:55.267Z</time></trkpt><trkpt lat="44.148595" lon="11.646615"><ele>475.0</ele><time>2026-04-12T08:33:56.267Z</time></trkpt><trkpt lat="44.1486483" lon="11.6465183"><ele>475.83333333333337</ele><time>2026-04-12T08:33:57.265Z</time></trkpt><trkpt lat="44.1486917" lon="11.6464333"><ele>476.6666666666667</ele><time>2026-04-12T08:33:58.266Z</time></trkpt><trkpt lat="44.1487283" lon="11.6463367"><ele>477.5</ele><time>2026-04-12T08:33:59.267Z</time></trkpt><trkpt lat="44.14876" lon="11.646255"><ele>478.33333333333337</ele><time>2026-04-12T08:34:00.266Z</time></trkpt><trkpt lat="44.1487633" lon="11.646135"><ele>479.1666666666667</ele><time>2026-04-12T08:34:02.268Z</time></trkpt><trkpt lat="44.1486667" lon="11.6460767"><ele>480.0</ele><time>2026-04-12T08:34:03.267Z</time></trkpt><trkpt lat="44.1485833" lon="11.6460633"><ele>480.4</ele><time>2026-04-12T08:34:04.266Z</time></trkpt><trkpt lat="44.14849" lon="11.6460633"><ele>480.8</ele><time>2026-04-12T08:34:05.267Z</time></trkpt><trkpt lat="44.14839" lon="11.646065"><ele>481.20000000000005</ele><time>2026-04-12T08:34:06.268Z</time></trkpt><trkpt lat="44.1483083" lon="11.646075"><ele>481.6</ele><time>2026-04-12T08:34:07.268Z</time></trkpt><trkpt lat="44.148205" lon="11.6461183"><ele>482.0</ele><time>2026-04-12T08:34:08.268Z</time></trkpt><trkpt lat="44.14806" lon="11.6461717"><ele>482.0</ele><time>2026-04-12T08:34:09.267Z</time></trkpt><trkpt lat="44.1479517" lon="11.6462133"><ele>482.00000000000006</ele><time>2026-04-12T08:34:10.266Z</time></trkpt><trkpt lat="44.1478767" lon="11.6462283"><ele>482.00000000000006</ele><time>2026-04-12T08:34:11.267Z</time></trkpt><trkpt lat="44.1478" lon="11.6462117"><ele>482.0</ele><time>2026-04-12T08:34:12.266Z</time></trkpt><trkpt lat="44.1477067" lon="11.6461683"><ele>482.0</ele><time>2026-04-12T08:34:13.267Z</time></trkpt><trkpt lat="44.147605" lon="11.6461517"><ele>485.3333333333333</ele><time>2026-04-12T08:34:14.266Z</time></trkpt><trkpt lat="44.147525" lon="11.64612"><ele>488.66666666666663</ele><time>2026-04-12T08:34:15.266Z</time></trkpt><trkpt lat="44.1474617" lon="11.646095"><ele>492.0</ele><time>2026-04-12T08:34:16.266Z</time></trkpt><trkpt lat="44.1473767" lon="11.6459883"><ele>495.33333333333337</ele><time>2026-04-12T08:34:18.266Z</time></trkpt><trkpt lat="44.14733" lon="11.64592"><ele>498.6666666666667</ele><time>2026-04-12T08:34:19.27Z</time></trkpt><trkpt lat="44.1472783" lon="11.64584"><ele>502.0</ele><time>2026-04-12T08:34:20.266Z</time></trkpt><trkpt lat="44.147225" lon="11.6457583"><ele>502.00000000000006</ele><time>2026-04-12T08:34:21.267Z</time></trkpt><trkpt lat="44.1471567" lon="11.6456917"><ele>502.0</ele><time>2026-04-12T08:34:22.267Z</time></trkpt><trkpt lat="44.1470733" lon="11.6456283"><ele>502.0</ele><time>2026-04-12T08:34:23.265Z</time></trkpt><trkpt lat="44.1469933" lon="11.6455783"><ele>502.0</ele><time>2026-04-12T08:34:24.267Z</time></trkpt><trkpt lat="44.1469283" lon="11.6455433"><ele>502.00000000000006</ele><time>2026-04-12T08:34:25.266Z</time></trkpt><trkpt lat="44.1468583" lon="11.6455133"><ele>502.0</ele><time>2026-04-12T08:34:26.266Z</time></trkpt><trkpt lat="44.1467883" lon="11.6454917"><ele>502.00000000000006</ele><time>2026-04-12T08:34:27.266Z</time></trkpt><trkpt lat="44.1467483" lon="11.6454233"><ele>502.0</ele><time>2026-04-12T08:34:28.266Z</time></trkpt><trkpt lat="44.1466883" lon="11.6453667"><ele>502.0</ele><time>2026-04-12T08:34:29.264Z</time></trkpt><trkpt lat="44.1465967" lon="11.6453033"><ele>502.0</ele><time>2026-04-12T08:34:31.266Z</time></trkpt><trkpt lat="44.1465533" lon="11.6451517"><ele>502.00000000000006</ele><time>2026-04-12T08:34:33.266Z</time></trkpt><trkpt lat="44.1465483" lon="11.6450333"><ele>502.0</ele><time>2026-04-12T08:34:34.266Z</time></trkpt><trkpt lat="44.14654" lon="11.6449217"><ele>499.6</ele><time>2026-04-12T08:34:35.266Z</time></trkpt><trkpt lat="44.1465283" lon="11.6447517"><ele>497.20000000000005</ele><time>2026-04-12T08:34:37.267Z</time></trkpt><trkpt lat="44.1465533" lon="11.6446233"><ele>494.8</ele><time>2026-04-12T08:34:39.27Z</time></trkpt><trkpt lat="44.1466117" lon="11.6445017"><ele>492.4</ele><time>2026-04-12T08:34:41.266Z</time></trkpt><trkpt lat="44.1466667" lon="11.64443"><ele>490.0</ele><time>2026-04-12T08:34:42.266Z</time></trkpt><trkpt lat="44.1467133" lon="11.6443417"><ele>495.50000000000006</ele><time>2026-04-12T08:34:43.266Z</time></trkpt><trkpt lat="44.1467617" lon="11.644265"><ele>501.0</ele><time>2026-04-12T08:34:44.267Z</time></trkpt><trkpt lat="44.1468083" lon="11.6441833"><ele>506.5</ele><time>2026-04-12T08:34:45.266Z</time></trkpt><trkpt lat="44.14684" lon="11.6440883"><ele>512.0</ele><time>2026-04-12T08:34:46.269Z</time></trkpt><trkpt lat="44.1468583" lon="11.643995"><ele>517.5</ele><time>2026-04-12T08:34:47.267Z</time></trkpt><trkpt lat="44.146875" lon="11.6439083"><ele>523.0</ele><time>2026-04-12T08:34:48.266Z</time></trkpt><trkpt lat="44.1468783" lon="11.643765"><ele>523.8333333333334</ele><time>2026-04-12T08:34:50.266Z</time></trkpt><trkpt lat="44.146875" lon="11.643625"><ele>524.6666666666667</ele><time>2026-04-12T08:34:52.266Z</time></trkpt><trkpt lat="44.14687" lon="11.6435017"><ele>525.5</ele><time>2026-04-12T08:34:54.266Z</time></trkpt><trkpt lat="44.1468983" lon="11.6434033"><ele>526.3333333333334</ele><time>2026-04-12T08:34:55.266Z</time></trkpt><trkpt lat="44.1469217" lon="11.6433083"><ele>527.1666666666666</ele><time>2026-04-12T08:34:56.266Z</time></trkpt><trkpt lat="44.1469383" lon="11.643215"><ele>528.0</ele><time>2026-04-12T08:34:57.267Z</time></trkpt><trkpt lat="44.1469567" lon="11.643115"><ele>528.0</ele><time>2026-04-12T08:34:58.266Z</time></trkpt><trkpt lat="44.14694" lon="11.6428667"><ele>528.0</ele><time>2026-04-12T08:35:00.267Z</time></trkpt><trkpt lat="44.1469383" lon="11.64276"><ele>528.0</ele><time>2026-04-12T08:35:01.267Z</time></trkpt><trkpt lat="44.1469433" lon="11.64266"><ele>528.0</ele><time>2026-04-12T08:35:02.268Z</time></trkpt><trkpt lat="44.1469317" lon="11.6425583"><ele>528.0</ele><time>2026-04-12T08:35:03.267Z</time></trkpt><trkpt lat="44.1468933" lon="11.64245"><ele>529.8333333333334</ele><time>2026-04-12T08:35:04.267Z</time></trkpt><trkpt lat="44.146845" lon="11.6423467"><ele>531.6666666666666</ele><time>2026-04-12T08:35:05.266Z</time></trkpt><trkpt lat="44.1467917" lon="11.64227"><ele>533.5</ele><time>2026-04-12T08:35:06.266Z</time></trkpt><trkpt lat="44.1467367" lon="11.6421983"><ele>535.3333333333333</ele><time>2026-04-12T08:35:07.266Z</time></trkpt><trkpt lat="44.146675" lon="11.64214"><ele>537.1666666666666</ele><time>2026-04-12T08:35:08.267Z</time></trkpt><trkpt lat="44.146575" lon="11.6420717"><ele>539.0</ele><time>2026-04-12T08:35:09.267Z</time></trkpt><trkpt lat="44.146475" lon="11.641995"><ele>539.5</ele><time>2026-04-12T08:35:10.267Z</time></trkpt><trkpt lat="44.146375" lon="11.6419083"><ele>540.0</ele><time>2026-04-12T08:35:11.266Z</time></trkpt><trkpt lat="44.14628" lon="11.6418133"><ele>540.5</ele><time>2026-04-12T08:35:12.266Z</time></trkpt><trkpt lat="44.146165" lon="11.6417033"><ele>541.0</ele><time>2026-04-12T08:35:13.267Z</time></trkpt><trkpt lat="44.14605" lon="11.6415967"><ele>541.0</ele><time>2026-04-12T08:35:14.266Z</time></trkpt><trkpt lat="44.1459567" lon="11.6415117"><ele>541.0</ele><time>2026-04-12T08:35:15.266Z</time></trkpt><trkpt lat="44.1458733" lon="11.64145"><ele>541.0</ele><time>2026-04-12T08:35:16.266Z</time></trkpt><trkpt lat="44.1458017" lon="11.6414083"><ele>541.0</ele><time>2026-04-12T08:35:17.266Z</time></trkpt><trkpt lat="44.14574" lon="11.6413467"><ele>541.0</ele><time>2026-04-12T08:35:18.266Z</time></trkpt><trkpt lat="44.145695" lon="11.6412417"><ele>541.0</ele><time>2026-04-12T08:35:20.266Z</time></trkpt><trkpt lat="44.1456833" lon="11.6411317"><ele>539.8333333333334</ele><time>2026-04-12T08:35:22.266Z</time></trkpt><trkpt lat="44.1457067" lon="11.6410317"><ele>538.6666666666667</ele><time>2026-04-12T08:35:24.266Z</time></trkpt><trkpt lat="44.1457483" lon="11.6409483"><ele>537.5</ele><time>2026-04-12T08:35:27.266Z</time></trkpt><trkpt lat="44.145805" lon="11.6408917"><ele>536.3333333333334</ele><time>2026-04-12T08:35:55.267Z</time></trkpt><trkpt lat="44.1458633" lon="11.6407833"><ele>535.1666666666666</ele><time>2026-04-12T08:35:58.267Z</time></trkpt><trkpt lat="44.1459417" lon="11.6406667"><ele>534.0</ele><time>2026-04-12T08:36:00.266Z</time></trkpt><trkpt lat="44.1460433" lon="11.6405333"><ele>537.4</ele><time>2026-04-12T08:36:02.267Z</time></trkpt><trkpt lat="44.14611" lon="11.64044"><ele>540.8</ele><time>2026-04-12T08:36:03.266Z</time></trkpt><trkpt lat="44.1461683" lon="11.6403583"><ele>544.2</ele><time>2026-04-12T08:36:04.266Z</time></trkpt><trkpt lat="44.146215" lon="11.64028"><ele>547.6</ele><time>2026-04-12T08:36:05.267Z</time></trkpt><trkpt lat="44.1463133" lon="11.640175"><ele>551.0</ele><time>2026-04-12T08:36:07.267Z</time></trkpt><trkpt lat="44.1464167" lon="11.6401083"><ele>551.0</ele><time>2026-04-12T08:36:09.267Z</time></trkpt><trkpt lat="44.146515" lon="11.6401583"><ele>551.0</ele><time>2026-04-12T08:36:11.266Z</time></trkpt><trkpt lat="44.1465467" lon="11.6402483"><ele>551.0</ele><time>2026-04-12T08:36:12.267Z</time></trkpt><trkpt lat="44.14656" lon="11.6404083"><ele>551.0</ele><time>2026-04-12T08:36:14.266Z</time></trkpt><trkpt lat="44.14651" lon="11.6405583"><ele>551.0</ele><time>2026-04-12T08:36:15.266Z</time></trkpt><trkpt lat="44.146475" lon="11.6406867"><ele>551.0</ele><time>2026-04-12T08:36:16.267Z</time></trkpt><trkpt lat="44.1464633" lon="11.6407917"><ele>551.0</ele><time>2026-04-12T08:36:17.266Z</time></trkpt><trkpt lat="44.1464767" lon="11.6409483"><ele>551.0</ele><time>2026-04-12T08:36:19.267Z</time></trkpt><trkpt lat="44.1465183" lon="11.6410483"><ele>551.0</ele><time>2026-04-12T08:36:21.268Z</time></trkpt><trkpt lat="44.146615" lon="11.6410183"><ele>551.0</ele><time>2026-04-12T08:36:23.266Z</time></trkpt><trkpt lat="44.1467467" lon="11.6409717"><ele>557.0</ele><time>2026-04-12T08:36:25.265Z</time></trkpt><trkpt lat="44.146825" lon="11.64094"><ele>563.0</ele><time>2026-04-12T08:36:26.266Z</time></trkpt><trkpt lat="44.14689" lon="11.6408933"><ele>569.0</ele><time>2026-04-12T08:36:27.266Z</time></trkpt><trkpt lat="44.147" lon="11.6407983"><ele>575.0</ele><time>2026-04-12T08:36:29.265Z</time></trkpt><trkpt lat="44.1470567" lon="11.6407433"><ele>581.0</ele><time>2026-04-12T08:36:30.266Z</time></trkpt><trkpt lat="44.1471233" lon="11.6406917"><ele>587.0</ele><time>2026-04-12T08:36:31.267Z</time></trkpt><trkpt lat="44.1471933" lon="11.640645"><ele>587.0</ele><time>2026-04-12T08:36:32.266Z</time></trkpt><trkpt lat="44.1472617" lon="11.6406"><ele>587.0</ele><time>2026-04-12T08:36:33.266Z</time></trkpt><trkpt lat="44.147335" lon="11.6405667"><ele>587.0</ele><time>2026-04-12T08:36:34.267Z</time></trkpt><trkpt lat="44.147425" lon="11.6405517"><ele>587.0</ele><time>2026-04-12T08:36:35.266Z</time></trkpt><trkpt lat="44.14753" lon="11.640555"><ele>587.0</ele><time>2026-04-12T08:36:36.269Z</time></trkpt><trkpt lat="44.1476217" lon="11.6405667"><ele>587.0</ele><time>2026-04-12T08:36:37.266Z</time></trkpt><trkpt lat="44.1477183" lon="11.640575"><ele>591.0</ele><time>2026-04-12T08:36:38.267Z</time></trkpt><trkpt lat="44.1477967" lon="11.64058"><ele>595.0</ele><time>2026-04-12T08:36:39.267Z</time></trkpt><trkpt lat="44.1478633" lon="11.6406217"><ele>599.0</ele><time>2026-04-12T08:36:40.267Z</time></trkpt><trkpt lat="44.1479417" lon="11.6406833"><ele>603.0</ele><time>2026-04-12T08:36:42.267Z</time></trkpt><trkpt lat="44.1480217" lon="11.6406683"><ele>607.0</ele><time>2026-04-12T08:36:44.267Z</time></trkpt><trkpt lat="44.1480883" lon="11.64059"><ele>611.0</ele><time>2026-04-12T08:36:46.271Z</time></trkpt><trkpt lat="44.1481333" lon="11.6404183"><ele>611.0000000000001</ele><time>2026-04-12T08:36:48.267Z</time></trkpt><trkpt lat="44.1481583" lon="11.6403267"><ele>611.0</ele><time>2026-04-12T08:36:49.267Z</time></trkpt><trkpt lat="44.1481933" lon="11.6402467"><ele>611.0</ele><time>2026-04-12T08:36:50.266Z</time></trkpt><trkpt lat="44.1482267" lon="11.6401617"><ele>611.0</ele><time>2026-04-12T08:36:51.266Z</time></trkpt><trkpt lat="44.1482617" lon="11.6400767"><ele>611.0</ele><time>2026-04-12T08:36:52.266Z</time></trkpt><trkpt lat="44.14829" lon="11.6399933"><ele>611.0000000000001</ele><time>2026-04-12T08:36:53.266Z</time></trkpt><trkpt lat="44.1483183" lon="11.639905"><ele>611.0</ele><time>2026-04-12T08:36:54.267Z</time></trkpt><trkpt lat="44.1483517" lon="11.6398217"><ele>614.8333333333333</ele><time>2026-04-12T08:36:55.266Z</time></trkpt><trkpt lat="44.14838" lon="11.6397433"><ele>618.6666666666666</ele><time>2026-04-12T08:36:56.267Z</time></trkpt><trkpt lat="44.1484117" lon="11.63964"><ele>622.5</ele><time>2026-04-12T08:36:57.267Z</time></trkpt><trkpt lat="44.1484417" lon="11.6395367"><ele>626.3333333333334</ele><time>2026-04-12T08:36:58.266Z</time></trkpt><trkpt lat="44.1484683" lon="11.6394383"><ele>630.1666666666667</ele><time>2026-04-12T08:36:59.266Z</time></trkpt><trkpt lat="44.1485067" lon="11.6393667"><ele>634.0</ele><time>2026-04-12T08:37:00.266Z</time></trkpt><trkpt lat="44.1485667" lon="11.6392783"><ele>634.0</ele><time>2026-04-12T08:37:02.265Z</time></trkpt><trkpt lat="44.1485067" lon="11.639375"><ele>634.0</ele><time>2026-04-12T08:37:15.267Z</time></trkpt><trkpt lat="44.1484617" lon="11.63948"><ele>634.0</ele><time>2026-04-12T08:37:17.265Z</time></trkpt><trkpt lat="44.1483967" lon="11.6396"><ele>634.0</ele><time>2026-04-12T08:37:19.267Z</time></trkpt><trkpt lat="44.1483067" lon="11.6396983"><ele>634.0</ele><time>2026-04-12T08:37:21.267Z</time></trkpt><trkpt lat="44.148195" lon="11.639785"><ele>633.5</ele><time>2026-04-12T08:37:23.266Z</time></trkpt><trkpt lat="44.14813" lon="11.639825"><ele>633.0</ele><time>2026-04-12T08:37:24.266Z</time></trkpt><trkpt lat="44.1480583" lon="11.6398733"><ele>632.5</ele><time>2026-04-12T08:37:25.267Z</time></trkpt><trkpt lat="44.14798" lon="11.6399233"><ele>632.0</ele><time>2026-04-12T08:37:26.266Z</time></trkpt><trkpt lat="44.147905" lon="11.6399533"><ele>631.5</ele><time>2026-04-12T08:37:27.266Z</time></trkpt><trkpt lat="44.1478233" lon="11.6399583"><ele>631.0</ele><time>2026-04-12T08:37:28.266Z</time></trkpt><trkpt lat="44.147745" lon="11.6399433"><ele>631.0</ele><time>2026-04-12T08:37:29.266Z</time></trkpt><trkpt lat="44.1476717" lon="11.6399117"><ele>631.0</ele><time>2026-04-12T08:37:30.267Z</time></trkpt><trkpt lat="44.1476083" lon="11.6398833"><ele>631.0</ele><time>2026-04-12T08:37:31.266Z</time></trkpt><trkpt lat="44.1475033" lon="11.63978"><ele>631.0</ele><time>2026-04-12T08:37:33.265Z</time></trkpt><trkpt lat="44.1474717" lon="11.6397"><ele>631.0</ele><time>2026-04-12T08:37:34.271Z</time></trkpt><trkpt lat="44.1474867" lon="11.6395583"><ele>631.0</ele><time>2026-04-12T08:37:35.267Z</time></trkpt><trkpt lat="44.14751" lon="11.6394367"><ele>632.75</ele><time>2026-04-12T08:37:36.268Z</time></trkpt><trkpt lat="44.147525" lon="11.6393067"><ele>634.5</ele><time>2026-04-12T08:37:37.266Z</time></trkpt><trkpt lat="44.1475817" lon="11.6391833"><ele>636.25</ele><time>2026-04-12T08:37:38.267Z</time></trkpt><trkpt lat="44.1476583" lon="11.6390367"><ele>638.0</ele><time>2026-04-12T08:37:39.268Z</time></trkpt><trkpt lat="44.1477383" lon="11.63889"><ele>638.0</ele><time>2026-04-12T08:37:40.271Z</time></trkpt><trkpt lat="44.147775" lon="11.638755"><ele>638.0</ele><time>2026-04-12T08:37:41.266Z</time></trkpt><trkpt lat="44.14782" lon="11.6386017"><ele>638.0</ele><time>2026-04-12T08:37:42.267Z</time></trkpt><trkpt lat="44.14783" lon="11.6384383"><ele>638.0</ele><time>2026-04-12T08:37:43.266Z</time></trkpt><trkpt lat="44.1478417" lon="11.6383017"><ele>638.0</ele><time>2026-04-12T08:37:44.267Z</time></trkpt><trkpt lat="44.14787" lon="11.6381967"><ele>638.5999999999999</ele><time>2026-04-12T08:37:45.265Z</time></trkpt><trkpt lat="44.1478667" lon="11.6380917"><ele>639.1999999999999</ele><time>2026-04-12T08:37:46.266Z</time></trkpt><trkpt lat="44.14785" lon="11.63797"><ele>639.8</ele><time>2026-04-12T08:37:47.266Z</time></trkpt><trkpt lat="44.14783" lon="11.637835"><ele>640.4</ele><time>2026-04-12T08:37:48.267Z</time></trkpt><trkpt lat="44.14781" lon="11.6376667"><ele>641.0</ele><time>2026-04-12T08:37:49.267Z</time></trkpt><trkpt lat="44.1477883" lon="11.6375067"><ele>642.25</ele><time>2026-04-12T08:37:50.266Z</time></trkpt><trkpt lat="44.1477667" lon="11.6373467"><ele>643.5</ele><time>2026-04-12T08:37:51.267Z</time></trkpt><trkpt lat="44.1477383" lon="11.6371817"><ele>644.75</ele><time>2026-04-12T08:37:52.27Z</time></trkpt><trkpt lat="44.147705" lon="11.6370183"><ele>646.0</ele><time>2026-04-12T08:37:53.265Z</time></trkpt><trkpt lat="44.1476683" lon="11.636865"><ele>652.0</ele><time>2026-04-12T08:37:54.266Z</time></trkpt><trkpt lat="44.1476233" lon="11.6367217"><ele>658.0</ele><time>2026-04-12T08:37:55.266Z</time></trkpt><trkpt lat="44.1475733" lon="11.6365733"><ele>664.0</ele><time>2026-04-12T08:37:56.266Z</time></trkpt><trkpt lat="44.1475233" lon="11.6364233"><ele>670.0</ele><time>2026-04-12T08:37:57.266Z</time></trkpt><trkpt lat="44.1474533" lon="11.6363"><ele>666.6</ele><time>2026-04-12T08:37:58.266Z</time></trkpt><trkpt lat="44.1473683" lon="11.6361983"><ele>663.2</ele><time>2026-04-12T08:37:59.266Z</time></trkpt><trkpt lat="44.1472967" lon="11.636115"><ele>659.8</ele><time>2026-04-12T08:38:00.266Z</time></trkpt><trkpt lat="44.1472233" lon="11.6360417"><ele>656.4</ele><time>2026-04-12T08:38:01.267Z</time></trkpt><trkpt lat="44.1471317" lon="11.63599"><ele>653.0</ele><time>2026-04-12T08:38:02.267Z</time></trkpt><trkpt lat="44.147015" lon="11.6359633"><ele>660.0</ele><time>2026-04-12T08:38:03.265Z</time></trkpt><trkpt lat="44.146885" lon="11.63597"><ele>667.0</ele><time>2026-04-12T08:38:04.267Z</time></trkpt><trkpt lat="44.1467583" lon="11.6359617"><ele>674.0</ele><time>2026-04-12T08:38:05.269Z</time></trkpt><trkpt lat="44.1466333" lon="11.6359383"><ele>681.0</ele><time>2026-04-12T08:38:06.266Z</time></trkpt><trkpt lat="44.1465017" lon="11.6358983"><ele>681.0</ele><time>2026-04-12T08:38:07.266Z</time></trkpt><trkpt lat="44.1463667" lon="11.6358483"><ele>681.0</ele><time>2026-04-12T08:38:08.266Z</time></trkpt><trkpt lat="44.1462233" lon="11.6358517"><ele>681.0</ele><time>2026-04-12T08:38:09.27Z</time></trkpt><trkpt lat="44.1460783" lon="11.6358367"><ele>681.0</ele><time>2026-04-12T08:38:10.266Z</time></trkpt><trkpt lat="44.14594" lon="11.6358217"><ele>681.0</ele><time>2026-04-12T08:38:11.267Z</time></trkpt><trkpt lat="44.1458217" lon="11.635805"><ele>681.0</ele><time>2026-04-12T08:38:12.266Z</time></trkpt><trkpt lat="44.145715" lon="11.6357817"><ele>681.0</ele><time>2026-04-12T08:38:13.267Z</time></trkpt><trkpt lat="44.1456233" lon="11.6357783"><ele>681.0</ele><time>2026-04-12T08:38:14.266Z</time></trkpt><trkpt lat="44.1455333" lon="11.6357817"><ele>681.0</ele><time>2026-04-12T08:38:15.267Z</time></trkpt><trkpt lat="44.1454433" lon="11.6358017"><ele>679.5999999999999</ele><time>2026-04-12T08:38:16.267Z</time></trkpt><trkpt lat="44.1453517" lon="11.6358467"><ele>678.2</ele><time>2026-04-12T08:38:17.267Z</time></trkpt><trkpt lat="44.1452667" lon="11.635915"><ele>676.8</ele><time>2026-04-12T08:38:18.267Z</time></trkpt><trkpt lat="44.1451867" lon="11.63601"><ele>675.4000000000001</ele><time>2026-04-12T08:38:19.268Z</time></trkpt><trkpt lat="44.1451233" lon="11.6361033"><ele>674.0</ele><time>2026-04-12T08:38:20.266Z</time></trkpt><trkpt lat="44.1450633" lon="11.6361867"><ele>674.0</ele><time>2026-04-12T08:38:21.266Z</time></trkpt><trkpt lat="44.145" lon="11.6362467"><ele>674.0</ele><time>2026-04-12T08:38:22.266Z</time></trkpt><trkpt lat="44.1449317" lon="11.63628"><ele>674.0</ele><time>2026-04-12T08:38:23.266Z</time></trkpt><trkpt lat="44.1448517" lon="11.6362983"><ele>674.0</ele><time>2026-04-12T08:38:24.267Z</time></trkpt><trkpt lat="44.1447583" lon="11.6362983"><ele>674.0</ele><time>2026-04-12T08:38:25.267Z</time></trkpt><trkpt lat="44.1446583" lon="11.6362617"><ele>674.0</ele><time>2026-04-12T08:38:26.267Z</time></trkpt><trkpt lat="44.1445867" lon="11.6361783"><ele>678.8000000000001</ele><time>2026-04-12T08:38:27.266Z</time></trkpt><trkpt lat="44.144495" lon="11.63611"><ele>683.6</ele><time>2026-04-12T08:38:28.266Z</time></trkpt><trkpt lat="44.1444233" lon="11.6360067"><ele>688.4</ele><time>2026-04-12T08:38:29.266Z</time></trkpt><trkpt lat="44.144345" lon="11.6358933"><ele>693.2</ele><time>2026-04-12T08:38:30.267Z</time></trkpt><trkpt lat="44.1442617" lon="11.6357833"><ele>698.0</ele><time>2026-04-12T08:38:31.266Z</time></trkpt><trkpt lat="44.1441683" lon="11.6356833"><ele>698.0</ele><time>2026-04-12T08:38:32.268Z</time></trkpt><trkpt lat="44.144075" lon="11.63559"><ele>698.0</ele><time>2026-04-12T08:38:33.266Z</time></trkpt><trkpt lat="44.143985" lon="11.635505"><ele>698.0</ele><time>2026-04-12T08:38:34.266Z</time></trkpt><trkpt lat="44.1438967" lon="11.6354233"><ele>698.0</ele><time>2026-04-12T08:38:35.266Z</time></trkpt><trkpt lat="44.143795" lon="11.6353583"><ele>698.0</ele><time>2026-04-12T08:38:36.267Z</time></trkpt><trkpt lat="44.1436967" lon="11.6353067"><ele>700.0</ele><time>2026-04-12T08:38:37.269Z</time></trkpt><trkpt lat="44.1435867" lon="11.635305"><ele>702.0</ele><time>2026-04-12T08:38:38.267Z</time></trkpt><trkpt lat="44.1434467" lon="11.635335"><ele>704.0</ele><time>2026-04-12T08:38:39.266Z</time></trkpt><trkpt lat="44.1433117" lon="11.6353317"><ele>706.0</ele><time>2026-04-12T08:38:40.266Z</time></trkpt><trkpt lat="44.143165" lon="11.63531"><ele>713.0</ele><time>2026-04-12T08:38:41.266Z</time></trkpt><trkpt lat="44.14302" lon="11.63527"><ele>720.0</ele><time>2026-04-12T08:38:42.267Z</time></trkpt><trkpt lat="44.14287" lon="11.6352217"><ele>727.0</ele><time>2026-04-12T08:38:43.267Z</time></trkpt><trkpt lat="44.1427033" lon="11.6352367"><ele>727.0</ele><time>2026-04-12T08:38:44.266Z</time></trkpt><trkpt lat="44.142545" lon="11.63522"><ele>727.0</ele><time>2026-04-12T08:38:45.266Z</time></trkpt><trkpt lat="44.1423933" lon="11.6351617"><ele>727.0</ele><time>2026-04-12T08:38:46.267Z</time></trkpt><trkpt lat="44.1422483" lon="11.6350883"><ele>727.6666666666667</ele><time>2026-04-12T08:38:47.268Z</time></trkpt><trkpt lat="44.142105" lon="11.6350067"><ele>728.3333333333334</ele><time>2026-04-12T08:38:48.266Z</time></trkpt><trkpt lat="44.1419567" lon="11.6349033"><ele>729.0</ele><time>2026-04-12T08:38:49.267Z</time></trkpt><trkpt lat="44.1418117" lon="11.63481"><ele>729.0</ele><time>2026-04-12T08:38:50.266Z</time></trkpt><trkpt lat="44.1416667" lon="11.6347317"><ele>729.0</ele><time>2026-04-12T08:38:51.267Z</time></trkpt><trkpt lat="44.14153" lon="11.63465"><ele>729.0</ele><time>2026-04-12T08:38:52.266Z</time></trkpt><trkpt lat="44.1414067" lon="11.6345783"><ele>729.0</ele><time>2026-04-12T08:38:53.266Z</time></trkpt><trkpt lat="44.14129" lon="11.6345167"><ele>733.5</ele><time>2026-04-12T08:38:54.267Z</time></trkpt><trkpt lat="44.141175" lon="11.634455"><ele>738.0</ele><time>2026-04-12T08:38:55.266Z</time></trkpt><trkpt lat="44.141055" lon="11.6344067"><ele>742.5</ele><time>2026-04-12T08:38:56.266Z</time></trkpt><trkpt lat="44.14094" lon="11.634355"><ele>747.0</ele><time>2026-04-12T08:38:57.267Z</time></trkpt><trkpt lat="44.140815" lon="11.6343567"><ele>747.0</ele><time>2026-04-12T08:38:58.266Z</time></trkpt><trkpt lat="44.1406867" lon="11.6344"><ele>747.0</ele><time>2026-04-12T08:38:59.266Z</time></trkpt><trkpt lat="44.140555" lon="11.6344567"><ele>747.0</ele><time>2026-04-12T08:39:00.266Z</time></trkpt><trkpt lat="44.1404117" lon="11.6344967"><ele>747.0</ele><time>2026-04-12T08:39:01.265Z</time></trkpt><trkpt lat="44.1402683" lon="11.6345467"><ele>747.0</ele><time>2026-04-12T08:39:02.267Z</time></trkpt><trkpt lat="44.14013" lon="11.6346183"><ele>747.0</ele><time>2026-04-12T08:39:03.266Z</time></trkpt><trkpt lat="44.1399983" lon="11.6347133"><ele>747.0</ele><time>2026-04-12T08:39:04.266Z</time></trkpt><trkpt lat="44.1398567" lon="11.6348317"><ele>750.3333333333334</ele><time>2026-04-12T08:39:05.266Z</time></trkpt><trkpt lat="44.1397167" lon="11.634955"><ele>753.6666666666667</ele><time>2026-04-12T08:39:06.265Z</time></trkpt><trkpt lat="44.1395783" lon="11.635095"><ele>757.0</ele><time>2026-04-12T08:39:07.266Z</time></trkpt><trkpt lat="44.1394567" lon="11.6352533"><ele>755.6666666666667</ele><time>2026-04-12T08:39:08.268Z</time></trkpt><trkpt lat="44.139365" lon="11.6354183"><ele>754.3333333333334</ele><time>2026-04-12T08:39:09.266Z</time></trkpt><trkpt lat="44.139285" lon="11.6355967"><ele>753.0</ele><time>2026-04-12T08:39:10.266Z</time></trkpt><trkpt lat="44.139215" lon="11.6357817"><ele>753.0</ele><time>2026-04-12T08:39:11.266Z</time></trkpt><trkpt lat="44.13915" lon="11.6359633"><ele>753.0</ele><time>2026-04-12T08:39:12.267Z</time></trkpt><trkpt lat="44.1390817" lon="11.6361283"><ele>753.0</ele><time>2026-04-12T08:39:13.267Z</time></trkpt><trkpt lat="44.1389767" lon="11.6362917"><ele>753.0</ele><time>2026-04-12T08:39:14.267Z</time></trkpt><trkpt lat="44.1388567" lon="11.6364183"><ele>753.0</ele><time>2026-04-12T08:39:15.266Z</time></trkpt><trkpt lat="44.1387183" lon="11.636535"><ele>753.0</ele><time>2026-04-12T08:39:16.266Z</time></trkpt><trkpt lat="44.1385833" lon="11.6366483"><ele>753.0</ele><time>2026-04-12T08:39:17.265Z</time></trkpt><trkpt lat="44.1384517" lon="11.6367483"><ele>753.0</ele><time>2026-04-12T08:39:18.27Z</time></trkpt><trkpt lat="44.1383317" lon="11.6368333"><ele>753.0</ele><time>2026-04-12T08:39:19.267Z</time></trkpt><trkpt lat="44.1382317" lon="11.6369083"><ele>753.0</ele><time>2026-04-12T08:39:20.267Z</time></trkpt><trkpt lat="44.138155" lon="11.6369783"><ele>753.0</ele><time>2026-04-12T08:39:21.267Z</time></trkpt><trkpt lat="44.1381017" lon="11.6370467"><ele>753.0</ele><time>2026-04-12T08:39:22.267Z</time></trkpt><trkpt lat="44.1380267" lon="11.637145"><ele>752.5999999999999</ele><time>2026-04-12T08:39:24.266Z</time></trkpt><trkpt lat="44.1379917" lon="11.63706"><ele>752.1999999999999</ele><time>2026-04-12T08:39:35.266Z</time></trkpt><trkpt lat="44.13797" lon="11.63691"><ele>751.8</ele><time>2026-04-12T08:39:37.267Z</time></trkpt><trkpt lat="44.1379817" lon="11.6367867"><ele>751.4</ele><time>2026-04-12T08:39:38.268Z</time></trkpt><trkpt lat="44.1379567" lon="11.6365517"><ele>751.0</ele><time>2026-04-12T08:39:40.266Z</time></trkpt><trkpt lat="44.137935" lon="11.6364417"><ele>751.0</ele><time>2026-04-12T08:39:41.266Z</time></trkpt><trkpt lat="44.13791" lon="11.63633"><ele>751.0</ele><time>2026-04-12T08:39:42.266Z</time></trkpt><trkpt lat="44.13789" lon="11.6362183"><ele>751.0</ele><time>2026-04-12T08:39:43.266Z</time></trkpt><trkpt lat="44.13787" lon="11.6361017"><ele>751.0</ele><time>2026-04-12T08:39:44.266Z</time></trkpt><trkpt lat="44.1378433" lon="11.6359783"><ele>751.0</ele><time>2026-04-12T08:39:45.266Z</time></trkpt><trkpt lat="44.1378183" lon="11.63586"><ele>751.0</ele><time>2026-04-12T08:39:46.266Z</time></trkpt><trkpt lat="44.1377933" lon="11.6357417"><ele>751.0</ele><time>2026-04-12T08:39:47.267Z</time></trkpt><trkpt lat="44.1377683" lon="11.635625"><ele>751.0</ele><time>2026-04-12T08:39:48.266Z</time></trkpt><trkpt lat="44.1377367" lon="11.635505"><ele>751.0</ele><time>2026-04-12T08:39:49.266Z</time></trkpt><trkpt lat="44.1376967" lon="11.6353783"><ele>751.0</ele><time>2026-04-12T08:39:50.266Z</time></trkpt><trkpt lat="44.1376533" lon="11.63525"><ele>751.0</ele><time>2026-04-12T08:39:51.267Z</time></trkpt><trkpt lat="44.1376067" lon="11.6351217"><ele>750.8</ele><time>2026-04-12T08:39:52.266Z</time></trkpt><trkpt lat="44.1375517" lon="11.6349967"><ele>750.5999999999999</ele><time>2026-04-12T08:39:53.267Z</time></trkpt><trkpt lat="44.1374933" lon="11.6348683"><ele>750.4</ele><time>2026-04-12T08:39:54.267Z</time></trkpt><trkpt lat="44.1374367" lon="11.63475"><ele>750.2</ele><time>2026-04-12T08:39:55.267Z</time></trkpt><trkpt lat="44.13738" lon="11.634625"><ele>750.0</ele><time>2026-04-12T08:39:56.266Z</time></trkpt><trkpt lat="44.137325" lon="11.63451"><ele>750.8</ele><time>2026-04-12T08:39:57.267Z</time></trkpt><trkpt lat="44.1372767" lon="11.63441"><ele>751.6</ele><time>2026-04-12T08:39:58.266Z</time></trkpt><trkpt lat="44.1372333" lon="11.6343333"><ele>752.4000000000001</ele><time>2026-04-12T08:39:59.267Z</time></trkpt><trkpt lat="44.1371617" lon="11.634235"><ele>753.2</ele><time>2026-04-12T08:40:01.267Z</time></trkpt><trkpt lat="44.1372517" lon="11.63426"><ele>754.0</ele><time>2026-04-12T08:40:21.267Z</time></trkpt><trkpt lat="44.1373033" lon="11.6341267"><ele>754.0</ele><time>2026-04-12T08:40:25.266Z</time></trkpt><trkpt lat="44.1373033" lon="11.6339683"><ele>754.0</ele><time>2026-04-12T08:40:27.266Z</time></trkpt><trkpt lat="44.1372933" lon="11.633875"><ele>754.0</ele><time>2026-04-12T08:40:28.266Z</time></trkpt><trkpt lat="44.1372717" lon="11.6337767"><ele>754.0</ele><time>2026-04-12T08:40:29.266Z</time></trkpt><trkpt lat="44.1372517" lon="11.6336783"><ele>754.0</ele><time>2026-04-12T08:40:30.267Z</time></trkpt><trkpt lat="44.137235" lon="11.63359"><ele>754.0</ele><time>2026-04-12T08:40:31.266Z</time></trkpt><trkpt lat="44.1372183" lon="11.6335033"><ele>755.5</ele><time>2026-04-12T08:40:32.266Z</time></trkpt><trkpt lat="44.1371917" lon="11.6333383"><ele>757.0</ele><time>2026-04-12T08:40:34.266Z</time></trkpt><trkpt lat="44.13716" lon="11.6331733"><ele>758.5</ele><time>2026-04-12T08:40:36.266Z</time></trkpt><trkpt lat="44.1371333" lon="11.633025"><ele>760.0</ele><time>2026-04-12T08:40:38.267Z</time></trkpt><trkpt lat="44.1371" lon="11.6328717"><ele>757.6666666666667</ele><time>2026-04-12T08:40:40.267Z</time></trkpt><trkpt lat="44.1370667" lon="11.6327317"><ele>755.3333333333334</ele><time>2026-04-12T08:40:42.267Z</time></trkpt><trkpt lat="44.1370183" lon="11.63263"><ele>753.0</ele><time>2026-04-12T08:40:44.267Z</time></trkpt><trkpt lat="44.1369883" lon="11.6325367"><ele>750.6666666666666</ele><time>2026-04-12T08:40:47.267Z</time></trkpt><trkpt lat="44.1370583" lon="11.6325083"><ele>748.3333333333333</ele><time>2026-04-12T08:40:52.267Z</time></trkpt><trkpt lat="44.1370217" lon="11.6325917"><ele>746.0</ele><time>2026-04-12T08:41:51.268Z</time></trkpt><trkpt lat="44.137055" lon="11.63271"><ele>748.8</ele><time>2026-04-12T08:41:54.268Z</time></trkpt><trkpt lat="44.1370717" lon="11.6328317"><ele>751.5999999999999</ele><time>2026-04-12T08:41:56.268Z</time></trkpt><trkpt lat="44.1370917" lon="11.6329617"><ele>754.4</ele><time>2026-04-12T08:41:58.267Z</time></trkpt><trkpt lat="44.1371183" lon="11.633095"><ele>757.2</ele><time>2026-04-12T08:42:00.268Z</time></trkpt><trkpt lat="44.137135" lon="11.633225"><ele>760.0</ele><time>2026-04-12T08:42:02.267Z</time></trkpt><trkpt lat="44.13715" lon="11.6333533"><ele>760.0</ele><time>2026-04-12T08:42:04.268Z</time></trkpt><trkpt lat="44.1371517" lon="11.6334783"><ele>760.0</ele><time>2026-04-12T08:42:06.267Z</time></trkpt><trkpt lat="44.13717" lon="11.6336067"><ele>760.0</ele><time>2026-04-12T08:42:08.268Z</time></trkpt><trkpt lat="44.1371967" lon="11.6337433"><ele>760.0</ele><time>2026-04-12T08:42:10.268Z</time></trkpt><trkpt lat="44.13721" lon="11.6338817"><ele>760.0</ele><time>2026-04-12T08:42:12.268Z</time></trkpt><trkpt lat="44.13722" lon="11.6340117"><ele>758.8</ele><time>2026-04-12T08:42:14.268Z</time></trkpt><trkpt lat="44.1372183" lon="11.634125"><ele>757.6</ele><time>2026-04-12T08:42:16.267Z</time></trkpt><trkpt lat="44.13721" lon="11.634225"><ele>756.4000000000001</ele><time>2026-04-12T08:42:18.267Z</time></trkpt><trkpt lat="44.13724" lon="11.6343333"><ele>755.2</ele><time>2026-04-12T08:42:55.268Z</time></trkpt><trkpt lat="44.1372817" lon="11.6344467"><ele>754.0</ele><time>2026-04-12T08:42:57.268Z</time></trkpt><trkpt lat="44.13735" lon="11.6345933"><ele>753.3333333333334</ele><time>2026-04-12T08:42:59.268Z</time></trkpt><trkpt lat="44.1373933" lon="11.6346783"><ele>752.6666666666667</ele><time>2026-04-12T08:43:00.269Z</time></trkpt><trkpt lat="44.1374383" lon="11.6347667"><ele>752.0</ele><time>2026-04-12T08:43:01.267Z</time></trkpt><trkpt lat="44.1374867" lon="11.63486"><ele>751.3333333333334</ele><time>2026-04-12T08:43:02.268Z</time></trkpt><trkpt lat="44.137535" lon="11.6349617"><ele>750.6666666666666</ele><time>2026-04-12T08:43:03.268Z</time></trkpt><trkpt lat="44.1375817" lon="11.6350683"><ele>750.0</ele><time>2026-04-12T08:43:04.269Z</time></trkpt><trkpt lat="44.1376233" lon="11.6351817"><ele>750.0</ele><time>2026-04-12T08:43:05.266Z</time></trkpt><trkpt lat="44.137665" lon="11.635295"><ele>750.0</ele><time>2026-04-12T08:43:06.266Z</time></trkpt><trkpt lat="44.1377033" lon="11.63541"><ele>750.0</ele><time>2026-04-12T08:43:07.267Z</time></trkpt><trkpt lat="44.1377417" lon="11.6355233"><ele>750.0</ele><time>2026-04-12T08:43:08.266Z</time></trkpt><trkpt lat="44.1377767" lon="11.6356383"><ele>750.0</ele><time>2026-04-12T08:43:09.265Z</time></trkpt><trkpt lat="44.1378133" lon="11.6357683"><ele>750.1666666666666</ele><time>2026-04-12T08:43:10.267Z</time></trkpt><trkpt lat="44.13784" lon="11.6358933"><ele>750.3333333333334</ele><time>2026-04-12T08:43:11.267Z</time></trkpt><trkpt lat="44.1378683" lon="11.6360183"><ele>750.5</ele><time>2026-04-12T08:43:12.266Z</time></trkpt><trkpt lat="44.1378933" lon="11.636135"><ele>750.6666666666667</ele><time>2026-04-12T08:43:13.266Z</time></trkpt><trkpt lat="44.1379183" lon="11.63625"><ele>750.8333333333334</ele><time>2026-04-12T08:43:14.266Z</time></trkpt><trkpt lat="44.13794" lon="11.6363567"><ele>751.0</ele><time>2026-04-12T08:43:15.266Z</time></trkpt><trkpt lat="44.1379583" lon="11.6364417"><ele>751.0</ele><time>2026-04-12T08:43:16.267Z</time></trkpt><trkpt lat="44.1379933" lon="11.6366"><ele>751.0</ele><time>2026-04-12T08:43:18.266Z</time></trkpt><trkpt lat="44.138005" lon="11.6366967"><ele>751.0</ele><time>2026-04-12T08:43:19.267Z</time></trkpt><trkpt lat="44.1380117" lon="11.6368083"><ele>751.0</ele><time>2026-04-12T08:43:20.269Z</time></trkpt><trkpt lat="44.1380167" lon="11.636925"><ele>751.0</ele><time>2026-04-12T08:43:21.268Z</time></trkpt><trkpt lat="44.1380217" lon="11.6370317"><ele>751.0</ele><time>2026-04-12T08:43:22.269Z</time></trkpt><trkpt lat="44.1380267" lon="11.6371217"><ele>749.8333333333334</ele><time>2026-04-12T08:43:23.267Z</time></trkpt><trkpt lat="44.1380317" lon="11.6372167"><ele>748.6666666666667</ele><time>2026-04-12T08:43:25.267Z</time></trkpt><trkpt lat="44.1380217" lon="11.6373233"><ele>747.5</ele><time>2026-04-12T08:43:27.267Z</time></trkpt><trkpt lat="44.1379817" lon="11.6374967"><ele>746.3333333333334</ele><time>2026-04-12T08:43:29.267Z</time></trkpt><trkpt lat="44.1379667" lon="11.6376083"><ele>745.1666666666666</ele><time>2026-04-12T08:43:30.266Z</time></trkpt><trkpt lat="44.137955" lon="11.637715"><ele>744.0</ele><time>2026-04-12T08:43:31.267Z</time></trkpt><trkpt lat="44.1379433" lon="11.63781"><ele>744.0</ele><time>2026-04-12T08:43:32.266Z</time></trkpt><trkpt lat="44.1379233" lon="11.6379083"><ele>744.0</ele><time>2026-04-12T08:43:34.266Z</time></trkpt><trkpt lat="44.13785" lon="11.6379117"><ele>744.0</ele><time>2026-04-12T08:43:39.267Z</time></trkpt><trkpt lat="44.1377817" lon="11.63779"><ele>744.0</ele><time>2026-04-12T08:43:41.267Z</time></trkpt><trkpt lat="44.1377383" lon="11.6376783"><ele>744.0</ele><time>2026-04-12T08:43:42.266Z</time></trkpt><trkpt lat="44.1376967" lon="11.6375733"><ele>744.0</ele><time>2026-04-12T08:43:43.267Z</time></trkpt><trkpt lat="44.13766" lon="11.6374533"><ele>744.0</ele><time>2026-04-12T08:43:44.267Z</time></trkpt><trkpt lat="44.1376183" lon="11.6373233"><ele>744.0</ele><time>2026-04-12T08:43:45.267Z</time></trkpt><trkpt lat="44.137575" lon="11.63718"><ele>744.0</ele><time>2026-04-12T08:43:46.266Z</time></trkpt><trkpt lat="44.13752" lon="11.6370467"><ele>744.0</ele><time>2026-04-12T08:43:47.267Z</time></trkpt><trkpt lat="44.1374567" lon="11.6369333"><ele>744.0</ele><time>2026-04-12T08:43:48.269Z</time></trkpt><trkpt lat="44.137375" lon="11.63683"><ele>744.25</ele><time>2026-04-12T08:43:49.267Z</time></trkpt><trkpt lat="44.1372783" lon="11.63674"><ele>744.5</ele><time>2026-04-12T08:43:50.266Z</time></trkpt><trkpt lat="44.1371683" lon="11.6366667"><ele>744.75</ele><time>2026-04-12T08:43:51.267Z</time></trkpt><trkpt lat="44.1370633" lon="11.63661"><ele>745.0</ele><time>2026-04-12T08:43:52.266Z</time></trkpt><trkpt lat="44.1369683" lon="11.6365533"><ele>745.0</ele><time>2026-04-12T08:43:53.267Z</time></trkpt><trkpt lat="44.1368783" lon="11.636495"><ele>745.0</ele><time>2026-04-12T08:43:54.266Z</time></trkpt><trkpt lat="44.1367933" lon="11.63643"><ele>745.0</ele><time>2026-04-12T08:43:55.267Z</time></trkpt><trkpt lat="44.1367067" lon="11.6363583"><ele>745.0</ele><time>2026-04-12T08:43:56.266Z</time></trkpt><trkpt lat="44.136625" lon="11.6362883"><ele>745.0</ele><time>2026-04-12T08:43:57.268Z</time></trkpt><trkpt lat="44.1365533" lon="11.6362217"><ele>744.8333333333334</ele><time>2026-04-12T08:43:58.267Z</time></trkpt><trkpt lat="44.13649" lon="11.6361633"><ele>744.6666666666667</ele><time>2026-04-12T08:43:59.267Z</time></trkpt><trkpt lat="44.1364433" lon="11.6360683"><ele>744.5</ele><time>2026-04-12T08:44:01.268Z</time></trkpt><trkpt lat="44.1364633" lon="11.63597"><ele>744.3333333333334</ele><time>2026-04-12T08:44:05.266Z</time></trkpt><trkpt lat="44.1364317" lon="11.6358833"><ele>744.1666666666666</ele><time>2026-04-12T08:44:08.267Z</time></trkpt><trkpt lat="44.1363767" lon="11.6358017"><ele>744.0</ele><time>2026-04-12T08:44:10.267Z</time></trkpt><trkpt lat="44.1362983" lon="11.6357117"><ele>744.0</ele><time>2026-04-12T08:44:12.267Z</time></trkpt><trkpt lat="44.1362133" lon="11.6356033"><ele>744.0</ele><time>2026-04-12T08:44:14.267Z</time></trkpt><trkpt lat="44.1361167" lon="11.6355"><ele>744.0</ele><time>2026-04-12T08:44:16.267Z</time></trkpt><trkpt lat="44.13602" lon="11.6353933"><ele>744.0</ele><time>2026-04-12T08:44:18.267Z</time></trkpt><trkpt lat="44.1359667" lon="11.635345"><ele>744.0</ele><time>2026-04-12T08:44:19.266Z</time></trkpt><trkpt lat="44.1359083" lon="11.6352983"><ele>743.2</ele><time>2026-04-12T08:44:20.267Z</time></trkpt><trkpt lat="44.13585" lon="11.63525"><ele>742.4000000000001</ele><time>2026-04-12T08:44:21.267Z</time></trkpt><trkpt lat="44.1357867" lon="11.6352083"><ele>741.6</ele><time>2026-04-12T08:44:22.267Z</time></trkpt><trkpt lat="44.13569" lon="11.6351333"><ele>740.8</ele><time>2026-04-12T08:44:24.267Z</time></trkpt><trkpt lat="44.1355917" lon="11.635035"><ele>740.0</ele><time>2026-04-12T08:44:26.266Z</time></trkpt><trkpt lat="44.1354933" lon="11.6349567"><ele>738.6666666666666</ele><time>2026-04-12T08:44:28.266Z</time></trkpt><trkpt lat="44.135395" lon="11.6348967"><ele>737.3333333333333</ele><time>2026-04-12T08:44:30.266Z</time></trkpt><trkpt lat="44.1353067" lon="11.6348433"><ele>736.0</ele><time>2026-04-12T08:44:32.266Z</time></trkpt><trkpt lat="44.1352183" lon="11.63484"><ele>734.6666666666666</ele><time>2026-04-12T08:44:34.267Z</time></trkpt><trkpt lat="44.1351417" lon="11.6348483"><ele>733.3333333333334</ele><time>2026-04-12T08:44:36.266Z</time></trkpt><trkpt lat="44.1350767" lon="11.634815"><ele>732.0</ele><time>2026-04-12T08:44:46.266Z</time></trkpt><trkpt lat="44.13502" lon="11.6347767"><ele>732.0</ele><time>2026-04-12T08:44:50.266Z</time></trkpt><trkpt lat="44.1349567" lon="11.6346883"><ele>732.0</ele><time>2026-04-12T08:44:59.268Z</time></trkpt><trkpt lat="44.1349183" lon="11.6346133"><ele>732.0</ele><time>2026-04-12T08:45:06.266Z</time></trkpt><trkpt lat="44.1348417" lon="11.6345383"><ele>732.0</ele><time>2026-04-12T08:45:13.267Z</time></trkpt><trkpt lat="44.134765" lon="11.6344733"><ele>732.0</ele><time>2026-04-12T08:45:15.266Z</time></trkpt><trkpt lat="44.1346633" lon="11.6343833"><ele>727.8</ele><time>2026-04-12T08:45:17.267Z</time></trkpt><trkpt lat="44.1345567" lon="11.6342833"><ele>723.6</ele><time>2026-04-12T08:45:19.267Z</time></trkpt><trkpt lat="44.1344683" lon="11.6341617"><ele>719.4</ele><time>2026-04-12T08:45:21.267Z</time></trkpt><trkpt lat="44.1343733" lon="11.63406"><ele>715.1999999999999</ele><time>2026-04-12T08:45:23.267Z</time></trkpt><trkpt lat="44.1343133" lon="11.6340183"><ele>711.0</ele><time>2026-04-12T08:45:24.267Z</time></trkpt><trkpt lat="44.1342533" lon="11.6339867"><ele>711.0</ele><time>2026-04-12T08:45:25.267Z</time></trkpt><trkpt lat="44.1341867" lon="11.6339533"><ele>711.0</ele><time>2026-04-12T08:45:26.268Z</time></trkpt><trkpt lat="44.1341217" lon="11.6339283"><ele>711.0</ele><time>2026-04-12T08:45:27.265Z</time></trkpt><trkpt lat="44.134045" lon="11.6338917"><ele>711.0</ele><time>2026-04-12T08:45:29.266Z</time></trkpt><trkpt lat="44.13398" lon="11.6338717"><ele>711.0</ele><time>2026-04-12T08:45:31.266Z</time></trkpt><trkpt lat="44.1338867" lon="11.6338133"><ele>711.0</ele><time>2026-04-12T08:45:33.266Z</time></trkpt><trkpt lat="44.1337833" lon="11.633735"><ele>709.0</ele><time>2026-04-12T08:45:35.266Z</time></trkpt><trkpt lat="44.1337283" lon="11.633685"><ele>707.0</ele><time>2026-04-12T08:45:36.267Z</time></trkpt><trkpt lat="44.133615" lon="11.6336133"><ele>705.0</ele><time>2026-04-12T08:45:38.266Z</time></trkpt><trkpt lat="44.1335517" lon="11.6335867"><ele>703.0</ele><time>2026-04-12T08:45:39.267Z</time></trkpt><trkpt lat="44.1334867" lon="11.63356"><ele>701.0</ele><time>2026-04-12T08:45:40.267Z</time></trkpt><trkpt lat="44.1334283" lon="11.6335267"><ele>699.0</ele><time>2026-04-12T08:45:41.267Z</time></trkpt><trkpt lat="44.1333717" lon="11.6334833"><ele>699.0</ele><time>2026-04-12T08:45:42.267Z</time></trkpt><trkpt lat="44.1333167" lon="11.6334367"><ele>699.0</ele><time>2026-04-12T08:45:43.268Z</time></trkpt><trkpt lat="44.1332167" lon="11.6333483"><ele>699.0</ele><time>2026-04-12T08:45:45.267Z</time></trkpt><trkpt lat="44.1331317" lon="11.6332483"><ele>699.0</ele><time>2026-04-12T08:45:47.267Z</time></trkpt><trkpt lat="44.13305" lon="11.6331567"><ele>699.0</ele><time>2026-04-12T08:45:49.267Z</time></trkpt><trkpt lat="44.132955" lon="11.6330817"><ele>696.5</ele><time>2026-04-12T08:45:51.266Z</time></trkpt><trkpt lat="44.132865" lon="11.633025"><ele>694.0</ele><time>2026-04-12T08:45:53.266Z</time></trkpt><trkpt lat="44.132825" lon="11.6329133"><ele>691.5</ele><time>2026-04-12T08:45:55.266Z</time></trkpt><trkpt lat="44.1328333" lon="11.6327933"><ele>689.0</ele><time>2026-04-12T08:45:58.266Z</time></trkpt><trkpt lat="44.1328717" lon="11.6326783"><ele>686.5</ele><time>2026-04-12T08:46:00.267Z</time></trkpt><trkpt lat="44.1328783" lon="11.6325817"><ele>684.0</ele><time>2026-04-12T08:46:02.267Z</time></trkpt><trkpt lat="44.1328267" lon="11.63252"><ele>684.0</ele><time>2026-04-12T08:46:04.267Z</time></trkpt><trkpt lat="44.1327583" lon="11.63256"><ele>684.0</ele><time>2026-04-12T08:46:06.268Z</time></trkpt><trkpt lat="44.1326533" lon="11.63256"><ele>684.0</ele><time>2026-04-12T08:46:39.268Z</time></trkpt><trkpt lat="44.13257" lon="11.6325"><ele>684.0</ele><time>2026-04-12T08:46:42.267Z</time></trkpt><trkpt lat="44.1324667" lon="11.6323817"><ele>684.0</ele><time>2026-04-12T08:46:44.268Z</time></trkpt><trkpt lat="44.1324067" lon="11.6323017"><ele>685.0</ele><time>2026-04-12T08:46:45.267Z</time></trkpt><trkpt lat="44.1323433" lon="11.6322267"><ele>686.0</ele><time>2026-04-12T08:46:46.267Z</time></trkpt><trkpt lat="44.1322733" lon="11.6321417"><ele>687.0</ele><time>2026-04-12T08:46:47.268Z</time></trkpt><trkpt lat="44.1321933" lon="11.63205"><ele>688.0</ele><time>2026-04-12T08:46:48.267Z</time></trkpt><trkpt lat="44.1320967" lon="11.6319617"><ele>689.0</ele><time>2026-04-12T08:46:49.268Z</time></trkpt><trkpt lat="44.1320017" lon="11.6318667"><ele>689.0</ele><time>2026-04-12T08:46:50.267Z</time></trkpt><trkpt lat="44.1319067" lon="11.6317717"><ele>689.0</ele><time>2026-04-12T08:46:51.269Z</time></trkpt><trkpt lat="44.131805" lon="11.6316633"><ele>689.0</ele><time>2026-04-12T08:46:52.267Z</time></trkpt><trkpt lat="44.1317183" lon="11.6315617"><ele>689.0</ele><time>2026-04-12T08:46:53.267Z</time></trkpt><trkpt lat="44.1316333" lon="11.631455"><ele>691.25</ele><time>2026-04-12T08:46:54.267Z</time></trkpt><trkpt lat="44.1315383" lon="11.631335"><ele>693.5</ele><time>2026-04-12T08:46:55.267Z</time></trkpt><trkpt lat="44.1314417" lon="11.6312183"><ele>695.75</ele><time>2026-04-12T08:46:56.267Z</time></trkpt><trkpt lat="44.1313317" lon="11.6310817"><ele>698.0</ele><time>2026-04-12T08:46:57.268Z</time></trkpt><trkpt lat="44.1312417" lon="11.63096"><ele>698.0</ele><time>2026-04-12T08:46:58.266Z</time></trkpt><trkpt lat="44.13115" lon="11.6308383"><ele>698.0</ele><time>2026-04-12T08:46:59.267Z</time></trkpt><trkpt lat="44.1310617" lon="11.6307233"><ele>698.0</ele><time>2026-04-12T08:47:00.266Z</time></trkpt><trkpt lat="44.1309783" lon="11.6306033"><ele>698.0</ele><time>2026-04-12T08:47:01.267Z</time></trkpt><trkpt lat="44.1309067" lon="11.6304867"><ele>698.0</ele><time>2026-04-12T08:47:02.267Z</time></trkpt><trkpt lat="44.130845" lon="11.63037"><ele>698.0</ele><time>2026-04-12T08:47:03.266Z</time></trkpt><trkpt lat="44.13079" lon="11.630285"><ele>698.0</ele><time>2026-04-12T08:47:04.268Z</time></trkpt><trkpt lat="44.1307167" lon="11.63019"><ele>698.0</ele><time>2026-04-12T08:47:05.267Z</time></trkpt><trkpt lat="44.1306333" lon="11.6300983"><ele>698.0</ele><time>2026-04-12T08:47:06.267Z</time></trkpt><trkpt lat="44.130545" lon="11.63"><ele>700.8</ele><time>2026-04-12T08:47:07.268Z</time></trkpt><trkpt lat="44.130455" lon="11.6299083"><ele>703.5999999999999</ele><time>2026-04-12T08:47:08.267Z</time></trkpt><trkpt lat="44.1303767" lon="11.6298183"><ele>706.4000000000001</ele><time>2026-04-12T08:47:09.268Z</time></trkpt><trkpt lat="44.1303167" lon="11.62973"><ele>709.2</ele><time>2026-04-12T08:47:10.267Z</time></trkpt><trkpt lat="44.130265" lon="11.6296333"><ele>712.0</ele><time>2026-04-12T08:47:11.268Z</time></trkpt><trkpt lat="44.1302233" lon="11.629515"><ele>712.1666666666667</ele><time>2026-04-12T08:47:12.268Z</time></trkpt><trkpt lat="44.13019" lon="11.6293883"><ele>712.3333333333334</ele><time>2026-04-12T08:47:13.267Z</time></trkpt><trkpt lat="44.1301633" lon="11.6292767"><ele>712.5</ele><time>2026-04-12T08:47:14.268Z</time></trkpt><trkpt lat="44.1301283" lon="11.6291767"><ele>712.6666666666666</ele><time>2026-04-12T08:47:15.267Z</time></trkpt><trkpt lat="44.1300867" lon="11.6290867"><ele>712.8333333333333</ele><time>2026-04-12T08:47:16.268Z</time></trkpt><trkpt lat="44.13003" lon="11.6290017"><ele>713.0</ele><time>2026-04-12T08:47:17.268Z</time></trkpt><trkpt lat="44.1299717" lon="11.6289117"><ele>713.0</ele><time>2026-04-12T08:47:18.268Z</time></trkpt><trkpt lat="44.1299217" lon="11.628815"><ele>713.0</ele><time>2026-04-12T08:47:19.267Z</time></trkpt><trkpt lat="44.1298767" lon="11.6287083"><ele>713.0</ele><time>2026-04-12T08:47:20.267Z</time></trkpt><trkpt lat="44.1298367" lon="11.628605"><ele>713.0</ele><time>2026-04-12T08:47:21.268Z</time></trkpt><trkpt lat="44.129785" lon="11.6284867"><ele>713.0</ele><time>2026-04-12T08:47:22.267Z</time></trkpt><trkpt lat="44.1297067" lon="11.6283533"><ele>711.0</ele><time>2026-04-12T08:47:23.268Z</time></trkpt><trkpt lat="44.12963" lon="11.6282283"><ele>709.0</ele><time>2026-04-12T08:47:24.269Z</time></trkpt><trkpt lat="44.12957" lon="11.628105"><ele>707.0</ele><time>2026-04-12T08:47:25.267Z</time></trkpt><trkpt lat="44.129525" lon="11.6279817"><ele>705.0</ele><time>2026-04-12T08:47:26.267Z</time></trkpt><trkpt lat="44.1294933" lon="11.6278567"><ele>703.0</ele><time>2026-04-12T08:47:27.267Z</time></trkpt><trkpt lat="44.1294617" lon="11.6277317"><ele>703.0</ele><time>2026-04-12T08:47:28.268Z</time></trkpt><trkpt lat="44.1294233" lon="11.6276217"><ele>703.0</ele><time>2026-04-12T08:47:29.267Z</time></trkpt><trkpt lat="44.12936" lon="11.6275217"><ele>703.0</ele><time>2026-04-12T08:47:30.268Z</time></trkpt><trkpt lat="44.1292833" lon="11.6274333"><ele>703.0</ele><time>2026-04-12T08:47:31.268Z</time></trkpt><trkpt lat="44.129185" lon="11.6273233"><ele>703.0</ele><time>2026-04-12T08:47:32.266Z</time></trkpt><trkpt lat="44.1290833" lon="11.6272017"><ele>704.25</ele><time>2026-04-12T08:47:33.268Z</time></trkpt><trkpt lat="44.1289917" lon="11.6270717"><ele>705.5</ele><time>2026-04-12T08:47:34.267Z</time></trkpt><trkpt lat="44.1289083" lon="11.6269483"><ele>706.75</ele><time>2026-04-12T08:47:35.266Z</time></trkpt><trkpt lat="44.128835" lon="11.6268367"><ele>708.0</ele><time>2026-04-12T08:47:36.266Z</time></trkpt><trkpt lat="44.1287383" lon="11.6267333"><ele>708.0</ele><time>2026-04-12T08:47:37.266Z</time></trkpt><trkpt lat="44.1286383" lon="11.6266317"><ele>708.0</ele><time>2026-04-12T08:47:38.268Z</time></trkpt><trkpt lat="44.1285267" lon="11.6265483"><ele>708.0</ele><time>2026-04-12T08:47:39.267Z</time></trkpt><trkpt lat="44.128425" lon="11.6264833"><ele>708.0</ele><time>2026-04-12T08:47:40.267Z</time></trkpt><trkpt lat="44.128335" lon="11.6264133"><ele>708.0</ele><time>2026-04-12T08:47:41.266Z</time></trkpt><trkpt lat="44.1282567" lon="11.62633"><ele>708.0</ele><time>2026-04-12T08:47:42.267Z</time></trkpt><trkpt lat="44.12817" lon="11.62622"><ele>708.0</ele><time>2026-04-12T08:47:43.267Z</time></trkpt><trkpt lat="44.1280783" lon="11.626105"><ele>708.0</ele><time>2026-04-12T08:47:44.267Z</time></trkpt><trkpt lat="44.1279783" lon="11.6259967"><ele>706.4</ele><time>2026-04-12T08:47:45.266Z</time></trkpt><trkpt lat="44.1278883" lon="11.6259017"><ele>704.8</ele><time>2026-04-12T08:47:46.268Z</time></trkpt><trkpt lat="44.1277917" lon="11.6258167"><ele>703.2</ele><time>2026-04-12T08:47:47.267Z</time></trkpt><trkpt lat="44.1277017" lon="11.6257383"><ele>701.6</ele><time>2026-04-12T08:47:48.268Z</time></trkpt><trkpt lat="44.1276183" lon="11.625655"><ele>700.0</ele><time>2026-04-12T08:47:49.267Z</time></trkpt><trkpt lat="44.1275467" lon="11.6255633"><ele>700.0</ele><time>2026-04-12T08:47:50.267Z</time></trkpt><trkpt lat="44.1274733" lon="11.6254583"><ele>700.0</ele><time>2026-04-12T08:47:51.267Z</time></trkpt><trkpt lat="44.1274033" lon="11.6253433"><ele>700.0</ele><time>2026-04-12T08:47:52.268Z</time></trkpt><trkpt lat="44.1273283" lon="11.6252317"><ele>700.0</ele><time>2026-04-12T08:47:53.266Z</time></trkpt><trkpt lat="44.1272317" lon="11.6251117"><ele>698.3333333333334</ele><time>2026-04-12T08:47:54.268Z</time></trkpt><trkpt lat="44.1271117" lon="11.6249867"><ele>696.6666666666666</ele><time>2026-04-12T08:47:55.267Z</time></trkpt><trkpt lat="44.126985" lon="11.6248633"><ele>695.0</ele><time>2026-04-12T08:47:56.268Z</time></trkpt><trkpt lat="44.126855" lon="11.62473"><ele>695.0</ele><time>2026-04-12T08:47:57.266Z</time></trkpt><trkpt lat="44.1267233" lon="11.6246"><ele>695.0</ele><time>2026-04-12T08:47:58.267Z</time></trkpt><trkpt lat="44.1266033" lon="11.6244717"><ele>695.0</ele><time>2026-04-12T08:47:59.268Z</time></trkpt><trkpt lat="44.1264917" lon="11.6243517"><ele>697.0</ele><time>2026-04-12T08:48:00.266Z</time></trkpt><trkpt lat="44.1263933" lon="11.62423"><ele>699.0</ele><time>2026-04-12T08:48:01.267Z</time></trkpt><trkpt lat="44.1263033" lon="11.6241167"><ele>701.0</ele><time>2026-04-12T08:48:02.267Z</time></trkpt><trkpt lat="44.12621" lon="11.624015"><ele>703.0</ele><time>2026-04-12T08:48:03.267Z</time></trkpt><trkpt lat="44.12613" lon="11.623925"><ele>703.0</ele><time>2026-04-12T08:48:04.267Z</time></trkpt><trkpt lat="44.1260583" lon="11.623835"><ele>703.0</ele><time>2026-04-12T08:48:05.266Z</time></trkpt><trkpt lat="44.126005" lon="11.6237317"><ele>703.0</ele><time>2026-04-12T08:48:06.268Z</time></trkpt><trkpt lat="44.1259617" lon="11.623635"><ele>703.0</ele><time>2026-04-12T08:48:07.267Z</time></trkpt><trkpt lat="44.1259383" lon="11.62353"><ele>703.0</ele><time>2026-04-12T08:48:08.268Z</time></trkpt><trkpt lat="44.1259183" lon="11.623415"><ele>703.0</ele><time>2026-04-12T08:48:09.267Z</time></trkpt><trkpt lat="44.1258917" lon="11.6232917"><ele>703.0</ele><time>2026-04-12T08:48:10.267Z</time></trkpt><trkpt lat="44.1258733" lon="11.6231817"><ele>703.0</ele><time>2026-04-12T08:48:11.267Z</time></trkpt><trkpt lat="44.1258533" lon="11.6230767"><ele>703.0</ele><time>2026-04-12T08:48:12.267Z</time></trkpt><trkpt lat="44.1258333" lon="11.6229883"><ele>703.0</ele><time>2026-04-12T08:48:13.266Z</time></trkpt><trkpt lat="44.125815" lon="11.6228933"><ele>703.0</ele><time>2026-04-12T08:48:15.267Z</time></trkpt><trkpt lat="44.1257983" lon="11.6227617"><ele>703.0</ele><time>2026-04-12T08:48:18.268Z</time></trkpt><trkpt lat="44.125785" lon="11.6226733"><ele>703.0</ele><time>2026-04-12T08:48:19.267Z</time></trkpt><trkpt lat="44.1257683" lon="11.6225"><ele>703.0</ele><time>2026-04-12T08:48:21.266Z</time></trkpt><trkpt lat="44.12577" lon="11.6224017"><ele>703.0</ele><time>2026-04-12T08:48:22.267Z</time></trkpt><trkpt lat="44.125775" lon="11.6222967"><ele>703.0</ele><time>2026-04-12T08:48:23.268Z</time></trkpt><trkpt lat="44.1257833" lon="11.6222017"><ele>703.0</ele><time>2026-04-12T08:48:24.267Z</time></trkpt><trkpt lat="44.1257967" lon="11.622115"><ele>703.0</ele><time>2026-04-12T08:48:25.268Z</time></trkpt><trkpt lat="44.1258167" lon="11.622025"><ele>703.6666666666667</ele><time>2026-04-12T08:48:26.267Z</time></trkpt><trkpt lat="44.1258483" lon="11.6219283"><ele>704.3333333333334</ele><time>2026-04-12T08:48:27.267Z</time></trkpt><trkpt lat="44.1258867" lon="11.62183"><ele>705.0</ele><time>2026-04-12T08:48:28.266Z</time></trkpt><trkpt lat="44.1259167" lon="11.6217283"><ele>705.6666666666666</ele><time>2026-04-12T08:48:29.265Z</time></trkpt><trkpt lat="44.1259483" lon="11.6216183"><ele>706.3333333333333</ele><time>2026-04-12T08:48:30.268Z</time></trkpt><trkpt lat="44.12597" lon="11.6214833"><ele>707.0</ele><time>2026-04-12T08:48:31.267Z</time></trkpt><trkpt lat="44.1259783" lon="11.6213367"><ele>707.0</ele><time>2026-04-12T08:48:32.267Z</time></trkpt><trkpt lat="44.1259717" lon="11.6211983"><ele>707.0</ele><time>2026-04-12T08:48:33.268Z</time></trkpt><trkpt lat="44.1259483" lon="11.6210683"><ele>707.0</ele><time>2026-04-12T08:48:34.267Z</time></trkpt><trkpt lat="44.1259183" lon="11.620965"><ele>707.0</ele><time>2026-04-12T08:48:35.267Z</time></trkpt><trkpt lat="44.125875" lon="11.6208433"><ele>707.0</ele><time>2026-04-12T08:48:36.267Z</time></trkpt><trkpt lat="44.12579" lon="11.6207233"><ele>705.4000000000001</ele><time>2026-04-12T08:48:37.267Z</time></trkpt><trkpt lat="44.1257117" lon="11.6206067"><ele>703.8000000000001</ele><time>2026-04-12T08:48:38.266Z</time></trkpt><trkpt lat="44.12565" lon="11.62048"><ele>702.2</ele><time>2026-04-12T08:48:39.268Z</time></trkpt><trkpt lat="44.1255983" lon="11.62037"><ele>700.6</ele><time>2026-04-12T08:48:40.265Z</time></trkpt><trkpt lat="44.1255583" lon="11.6202533"><ele>699.0</ele><time>2026-04-12T08:48:41.268Z</time></trkpt><trkpt lat="44.1255317" lon="11.6201183"><ele>699.0</ele><time>2026-04-12T08:48:42.267Z</time></trkpt><trkpt lat="44.1255133" lon="11.6199917"><ele>699.0</ele><time>2026-04-12T08:48:43.268Z</time></trkpt><trkpt lat="44.1254883" lon="11.619875"><ele>699.0</ele><time>2026-04-12T08:48:44.266Z</time></trkpt><trkpt lat="44.1254617" lon="11.6197717"><ele>699.0</ele><time>2026-04-12T08:48:45.268Z</time></trkpt><trkpt lat="44.125445" lon="11.6196817"><ele>699.0</ele><time>2026-04-12T08:48:46.268Z</time></trkpt><trkpt lat="44.125435" lon="11.6195617"><ele>699.0</ele><time>2026-04-12T08:48:47.267Z</time></trkpt><trkpt lat="44.125435" lon="11.6194567"><ele>699.1666666666666</ele><time>2026-04-12T08:48:48.266Z</time></trkpt><trkpt lat="44.1254383" lon="11.6193683"><ele>699.3333333333334</ele><time>2026-04-12T08:48:49.268Z</time></trkpt><trkpt lat="44.12544" lon="11.6191933"><ele>699.5</ele><time>2026-04-12T08:48:51.266Z</time></trkpt><trkpt lat="44.1254383" lon="11.6190883"><ele>699.6666666666667</ele><time>2026-04-12T08:48:52.266Z</time></trkpt><trkpt lat="44.12544" lon="11.6189817"><ele>699.8333333333334</ele><time>2026-04-12T08:48:53.267Z</time></trkpt><trkpt lat="44.1254467" lon="11.6188783"><ele>700.0</ele><time>2026-04-12T08:48:54.267Z</time></trkpt><trkpt lat="44.125445" lon="11.6187817"><ele>700.6666666666667</ele><time>2026-04-12T08:48:55.267Z</time></trkpt><trkpt lat="44.1254267" lon="11.61865"><ele>701.3333333333334</ele><time>2026-04-12T08:48:57.267Z</time></trkpt><trkpt lat="44.125365" lon="11.6185717"><ele>702.0</ele><time>2026-04-12T09:08:12.267Z</time></trkpt><trkpt lat="44.1253083" lon="11.618505"><ele>702.6666666666666</ele><time>2026-04-12T09:08:14.268Z</time></trkpt><trkpt lat="44.12523" lon="11.6184183"><ele>703.3333333333333</ele><time>2026-04-12T09:08:16.266Z</time></trkpt><trkpt lat="44.12518" lon="11.61836"><ele>704.0</ele><time>2026-04-12T09:08:17.268Z</time></trkpt><trkpt lat="44.1251183" lon="11.6182867"><ele>704.0</ele><time>2026-04-12T09:08:18.267Z</time></trkpt><trkpt lat="44.12506" lon="11.6182017"><ele>704.0</ele><time>2026-04-12T09:08:19.268Z</time></trkpt><trkpt lat="44.1250017" lon="11.61811"><ele>704.0</ele><time>2026-04-12T09:08:20.267Z</time></trkpt><trkpt lat="44.1249533" lon="11.618005"><ele>704.0</ele><time>2026-04-12T09:08:21.268Z</time></trkpt><trkpt lat="44.124915" lon="11.6178933"><ele>704.0</ele><time>2026-04-12T09:08:22.266Z</time></trkpt><trkpt lat="44.1248733" lon="11.6177833"><ele>704.0</ele><time>2026-04-12T09:08:23.267Z</time></trkpt><trkpt lat="44.124845" lon="11.61767"><ele>700.8333333333333</ele><time>2026-04-12T09:08:24.266Z</time></trkpt><trkpt lat="44.124815" lon="11.6175517"><ele>697.6666666666666</ele><time>2026-04-12T09:08:25.267Z</time></trkpt><trkpt lat="44.124785" lon="11.6174367"><ele>694.5</ele><time>2026-04-12T09:08:26.267Z</time></trkpt><trkpt lat="44.1247533" lon="11.61732"><ele>691.3333333333334</ele><time>2026-04-12T09:08:27.268Z</time></trkpt><trkpt lat="44.1247183" lon="11.6172167"><ele>688.1666666666667</ele><time>2026-04-12T09:08:28.266Z</time></trkpt><trkpt lat="44.1246783" lon="11.61713"><ele>685.0</ele><time>2026-04-12T09:08:29.267Z</time></trkpt><trkpt lat="44.1246333" lon="11.6170583"><ele>687.4</ele><time>2026-04-12T09:08:30.266Z</time></trkpt><trkpt lat="44.1245133" lon="11.616965"><ele>689.8</ele><time>2026-04-12T09:08:32.266Z</time></trkpt><trkpt lat="44.1244233" lon="11.6169267"><ele>692.2</ele><time>2026-04-12T09:08:33.267Z</time></trkpt><trkpt lat="44.1243467" lon="11.616875"><ele>694.6</ele><time>2026-04-12T09:08:34.265Z</time></trkpt><trkpt lat="44.1242783" lon="11.61682"><ele>697.0</ele><time>2026-04-12T09:08:35.267Z</time></trkpt><trkpt lat="44.1242167" lon="11.6167633"><ele>697.0</ele><time>2026-04-12T09:08:36.265Z</time></trkpt><trkpt lat="44.1241567" lon="11.6166883"><ele>697.0</ele><time>2026-04-12T09:08:37.267Z</time></trkpt><trkpt lat="44.1240983" lon="11.6165983"><ele>697.0</ele><time>2026-04-12T09:08:38.266Z</time></trkpt><trkpt lat="44.1240317" lon="11.6165133"><ele>697.0</ele><time>2026-04-12T09:08:39.268Z</time></trkpt><trkpt lat="44.1239517" lon="11.6164283"><ele>697.0</ele><time>2026-04-12T09:08:40.266Z</time></trkpt><trkpt lat="44.12387" lon="11.6163433"><ele>698.3333333333334</ele><time>2026-04-12T09:08:41.267Z</time></trkpt><trkpt lat="44.123805" lon="11.6162633"><ele>699.6666666666667</ele><time>2026-04-12T09:08:42.265Z</time></trkpt><trkpt lat="44.1237583" lon="11.61617"><ele>701.0</ele><time>2026-04-12T09:08:43.267Z</time></trkpt><trkpt lat="44.12371" lon="11.6160717"><ele>702.3333333333334</ele><time>2026-04-12T09:08:44.267Z</time></trkpt><trkpt lat="44.123655" lon="11.6159733"><ele>703.6666666666666</ele><time>2026-04-12T09:08:45.266Z</time></trkpt><trkpt lat="44.1235933" lon="11.6158767"><ele>705.0</ele><time>2026-04-12T09:08:46.268Z</time></trkpt><trkpt lat="44.1235333" lon="11.6157933"><ele>705.0</ele><time>2026-04-12T09:08:47.266Z</time></trkpt><trkpt lat="44.1234617" lon="11.6157133"><ele>705.0</ele><time>2026-04-12T09:08:48.267Z</time></trkpt><trkpt lat="44.1233883" lon="11.6156417"><ele>705.0</ele><time>2026-04-12T09:08:49.266Z</time></trkpt><trkpt lat="44.1233233" lon="11.6155767"><ele>705.0</ele><time>2026-04-12T09:08:50.267Z</time></trkpt><trkpt lat="44.12326" lon="11.6155083"><ele>705.0</ele><time>2026-04-12T09:08:51.267Z</time></trkpt><trkpt lat="44.1232" lon="11.61544"><ele>705.0</ele><time>2026-04-12T09:08:52.267Z</time></trkpt><trkpt lat="44.1231433" lon="11.6153717"><ele>708.5</ele><time>2026-04-12T09:08:53.267Z</time></trkpt><trkpt lat="44.12308" lon="11.6153167"><ele>712.0</ele><time>2026-04-12T09:08:54.267Z</time></trkpt><trkpt lat="44.1230233" lon="11.6152683"><ele>715.5</ele><time>2026-04-12T09:08:55.268Z</time></trkpt><trkpt lat="44.1229183" lon="11.6151817"><ele>719.0</ele><time>2026-04-12T09:08:57.267Z</time></trkpt><trkpt lat="44.1228633" lon="11.61512"><ele>722.5</ele><time>2026-04-12T09:08:58.267Z</time></trkpt><trkpt lat="44.1228017" lon="11.6150517"><ele>726.0</ele><time>2026-04-12T09:08:59.266Z</time></trkpt><trkpt lat="44.1227217" lon="11.6149817"><ele>726.0</ele><time>2026-04-12T09:09:00.267Z</time></trkpt><trkpt lat="44.1226433" lon="11.6149267"><ele>726.0</ele><time>2026-04-12T09:09:01.268Z</time></trkpt><trkpt lat="44.1225617" lon="11.614875"><ele>726.0</ele><time>2026-04-12T09:09:02.268Z</time></trkpt><trkpt lat="44.1224733" lon="11.61482"><ele>726.0</ele><time>2026-04-12T09:09:03.267Z</time></trkpt><trkpt lat="44.12239" lon="11.6147683"><ele>726.0</ele><time>2026-04-12T09:09:04.267Z</time></trkpt><trkpt lat="44.1223083" lon="11.6147183"><ele>729.8333333333334</ele><time>2026-04-12T09:09:05.267Z</time></trkpt><trkpt lat="44.1222333" lon="11.6146667"><ele>733.6666666666666</ele><time>2026-04-12T09:09:06.267Z</time></trkpt><trkpt lat="44.1221667" lon="11.61461"><ele>737.5</ele><time>2026-04-12T09:09:07.267Z</time></trkpt><trkpt lat="44.1220933" lon="11.614565"><ele>741.3333333333333</ele><time>2026-04-12T09:09:08.268Z</time></trkpt><trkpt lat="44.1220217" lon="11.61453"><ele>745.1666666666666</ele><time>2026-04-12T09:09:09.267Z</time></trkpt><trkpt lat="44.1219533" lon="11.6145067"><ele>749.0</ele><time>2026-04-12T09:09:10.267Z</time></trkpt><trkpt lat="44.1218433" lon="11.6144667"><ele>749.2857142857143</ele><time>2026-04-12T09:09:12.267Z</time></trkpt><trkpt lat="44.121785" lon="11.6144183"><ele>749.5714285714286</ele><time>2026-04-12T09:09:13.269Z</time></trkpt><trkpt lat="44.121725" lon="11.6143683"><ele>749.8571428571429</ele><time>2026-04-12T09:09:14.268Z</time></trkpt><trkpt lat="44.1216583" lon="11.6143167"><ele>750.1428571428571</ele><time>2026-04-12T09:09:15.268Z</time></trkpt><trkpt lat="44.12161" lon="11.614255"><ele>750.4285714285714</ele><time>2026-04-12T09:09:16.268Z</time></trkpt><trkpt lat="44.1215533" lon="11.6141917"><ele>750.7142857142858</ele><time>2026-04-12T09:09:17.267Z</time></trkpt><trkpt lat="44.12151" lon="11.6141267"><ele>751.0</ele><time>2026-04-12T09:09:18.267Z</time></trkpt><trkpt lat="44.1214317" lon="11.6139933"><ele>751.0</ele><time>2026-04-12T09:09:20.268Z</time></trkpt><trkpt lat="44.1213917" lon="11.6139117"><ele>751.0</ele><time>2026-04-12T09:09:21.268Z</time></trkpt><trkpt lat="44.121345" lon="11.613835"><ele>751.0</ele><time>2026-04-12T09:09:22.269Z</time></trkpt><trkpt lat="44.12125" lon="11.6137083"><ele>751.0</ele><time>2026-04-12T09:09:24.268Z</time></trkpt><trkpt lat="44.121165" lon="11.6135817"><ele>751.0</ele><time>2026-04-12T09:09:26.268Z</time></trkpt><trkpt lat="44.121095" lon="11.6135067"><ele>752.1666666666667</ele><time>2026-04-12T09:09:28.267Z</time></trkpt><trkpt lat="44.12102" lon="11.6134533"><ele>753.3333333333334</ele><time>2026-04-12T09:09:31.267Z</time></trkpt><trkpt lat="44.1209583" lon="11.6133617"><ele>754.5</ele><time>2026-04-12T09:09:34.266Z</time></trkpt><trkpt lat="44.1208867" lon="11.6133017"><ele>755.6666666666666</ele><time>2026-04-12T09:09:36.267Z</time></trkpt><trkpt lat="44.120825" lon="11.61328"><ele>756.8333333333333</ele><time>2026-04-12T09:09:37.267Z</time></trkpt><trkpt lat="44.120705" lon="11.6132333"><ele>758.0</ele><time>2026-04-12T09:09:39.267Z</time></trkpt><trkpt lat="44.1206083" lon="11.6132217"><ele>760.2</ele><time>2026-04-12T09:09:41.267Z</time></trkpt><trkpt lat="44.1205367" lon="11.6132483"><ele>762.4</ele><time>2026-04-12T09:09:43.267Z</time></trkpt><trkpt lat="44.1204533" lon="11.6131417"><ele>764.6</ele><time>2026-04-12T09:10:29.265Z</time></trkpt><trkpt lat="44.1204267" lon="11.6130467"><ele>766.8000000000001</ele><time>2026-04-12T09:10:31.268Z</time></trkpt><trkpt lat="44.12029" lon="11.6128967"><ele>769.0</ele><time>2026-04-12T09:10:33.267Z</time></trkpt><trkpt lat="44.1202267" lon="11.6128133"><ele>769.6</ele><time>2026-04-12T09:10:34.267Z</time></trkpt><trkpt lat="44.120135" lon="11.6127383"><ele>770.2</ele><time>2026-04-12T09:10:35.267Z</time></trkpt><trkpt lat="44.1200333" lon="11.612675"><ele>770.8000000000001</ele><time>2026-04-12T09:10:36.266Z</time></trkpt><trkpt lat="44.1199583" lon="11.6126117"><ele>771.4000000000001</ele><time>2026-04-12T09:10:37.267Z</time></trkpt><trkpt lat="44.1198983" lon="11.612535"><ele>772.0</ele><time>2026-04-12T09:10:38.266Z</time></trkpt><trkpt lat="44.119845" lon="11.6124617"><ele>771.7142857142858</ele><time>2026-04-12T09:10:39.268Z</time></trkpt><trkpt lat="44.1198" lon="11.6123883"><ele>771.4285714285714</ele><time>2026-04-12T09:10:40.268Z</time></trkpt><trkpt lat="44.1197517" lon="11.61232"><ele>771.1428571428571</ele><time>2026-04-12T09:10:41.267Z</time></trkpt><trkpt lat="44.1196967" lon="11.6122583"><ele>770.8571428571429</ele><time>2026-04-12T09:10:42.267Z</time></trkpt><trkpt lat="44.11964" lon="11.6121967"><ele>770.5714285714286</ele><time>2026-04-12T09:10:43.267Z</time></trkpt><trkpt lat="44.119585" lon="11.61214"><ele>770.2857142857143</ele><time>2026-04-12T09:10:44.267Z</time></trkpt><trkpt lat="44.1195367" lon="11.6120783"><ele>770.0</ele><time>2026-04-12T09:10:45.268Z</time></trkpt><trkpt lat="44.1194667" lon="11.6119417"><ele>770.0</ele><time>2026-04-12T09:10:47.267Z</time></trkpt><trkpt lat="44.1193983" lon="11.6117817"><ele>770.0</ele><time>2026-04-12T09:10:49.268Z</time></trkpt><trkpt lat="44.1193583" lon="11.6116867"><ele>770.0</ele><time>2026-04-12T09:10:50.267Z</time></trkpt><trkpt lat="44.1193283" lon="11.6115467"><ele>770.0</ele><time>2026-04-12T09:10:51.268Z</time></trkpt><trkpt lat="44.1192917" lon="11.61146"><ele>770.0</ele><time>2026-04-12T09:10:52.266Z</time></trkpt><trkpt lat="44.1192567" lon="11.6113583"><ele>770.0000000000001</ele><time>2026-04-12T09:10:53.267Z</time></trkpt><trkpt lat="44.119215" lon="11.6112717"><ele>770.0</ele><time>2026-04-12T09:10:54.267Z</time></trkpt><trkpt lat="44.1191683" lon="11.6111533"><ele>770.0</ele><time>2026-04-12T09:10:55.267Z</time></trkpt><trkpt lat="44.1191183" lon="11.6110483"><ele>770.0</ele><time>2026-04-12T09:10:56.266Z</time></trkpt><trkpt lat="44.1190667" lon="11.6109433"><ele>770.0000000000001</ele><time>2026-04-12T09:10:57.267Z</time></trkpt><trkpt lat="44.11901" lon="11.6108433"><ele>770.0</ele><time>2026-04-12T09:10:58.267Z</time></trkpt><trkpt lat="44.1189567" lon="11.61075"><ele>769.8333333333334</ele><time>2026-04-12T09:10:59.267Z</time></trkpt><trkpt lat="44.1188983" lon="11.610685"><ele>769.6666666666667</ele><time>2026-04-12T09:11:00.267Z</time></trkpt><trkpt lat="44.1188467" lon="11.610605"><ele>769.5</ele><time>2026-04-12T09:11:01.267Z</time></trkpt><trkpt lat="44.118795" lon="11.61055"><ele>769.3333333333333</ele><time>2026-04-12T09:11:02.267Z</time></trkpt><trkpt lat="44.1186883" lon="11.6104633"><ele>769.1666666666666</ele><time>2026-04-12T09:11:04.269Z</time></trkpt><trkpt lat="44.11863" lon="11.6103967"><ele>769.0</ele><time>2026-04-12T09:11:05.267Z</time></trkpt><trkpt lat="44.1185333" lon="11.6102783"><ele>769.0</ele><time>2026-04-12T09:11:07.268Z</time></trkpt><trkpt lat="44.1184833" lon="11.6102217"><ele>769.0</ele><time>2026-04-12T09:11:08.267Z</time></trkpt><trkpt lat="44.1184" lon="11.61011"><ele>769.0</ele><time>2026-04-12T09:11:10.267Z</time></trkpt><trkpt lat="44.118345" lon="11.609995"><ele>769.0</ele><time>2026-04-12T09:11:12.27Z</time></trkpt><trkpt lat="44.1182883" lon="11.609915"><ele>769.0</ele><time>2026-04-12T09:11:14.267Z</time></trkpt><trkpt lat="44.1182183" lon="11.6098267"><ele>766.0</ele><time>2026-04-12T09:11:20.267Z</time></trkpt><trkpt lat="44.118185" lon="11.609725"><ele>763.0</ele><time>2026-04-12T09:11:22.267Z</time></trkpt><trkpt lat="44.1181383" lon="11.60959"><ele>760.0</ele><time>2026-04-12T09:11:24.267Z</time></trkpt><trkpt lat="44.1180733" lon="11.6094417"><ele>757.0</ele><time>2026-04-12T09:11:26.267Z</time></trkpt><trkpt lat="44.1180067" lon="11.6093033"><ele>754.0</ele><time>2026-04-12T09:11:28.267Z</time></trkpt><trkpt lat="44.1179383" lon="11.6091783"><ele>754.0</ele><time>2026-04-12T09:11:30.267Z</time></trkpt><trkpt lat="44.11786" lon="11.60905"><ele>754.0</ele><time>2026-04-12T09:11:32.268Z</time></trkpt><trkpt lat="44.117785" lon="11.6089117"><ele>754.0</ele><time>2026-04-12T09:11:34.267Z</time></trkpt><trkpt lat="44.1177133" lon="11.6087783"><ele>754.0</ele><time>2026-04-12T09:11:36.268Z</time></trkpt><trkpt lat="44.1176417" lon="11.6086467"><ele>754.6666666666667</ele><time>2026-04-12T09:11:38.268Z</time></trkpt><trkpt lat="44.11758" lon="11.6085283"><ele>755.3333333333334</ele><time>2026-04-12T09:11:40.267Z</time></trkpt><trkpt lat="44.1174867" lon="11.6083967"><ele>756.0</ele><time>2026-04-12T09:11:42.267Z</time></trkpt><trkpt lat="44.1174417" lon="11.6083233"><ele>756.6666666666666</ele><time>2026-04-12T09:11:43.267Z</time></trkpt><trkpt lat="44.117395" lon="11.608255"><ele>757.3333333333333</ele><time>2026-04-12T09:11:44.267Z</time></trkpt><trkpt lat="44.1173433" lon="11.6082"><ele>758.0</ele><time>2026-04-12T09:11:45.268Z</time></trkpt><trkpt lat="44.1172767" lon="11.6081483"><ele>759.0000000000001</ele><time>2026-04-12T09:11:46.268Z</time></trkpt><trkpt lat="44.11721" lon="11.608115"><ele>760.0</ele><time>2026-04-12T09:11:47.267Z</time></trkpt><trkpt lat="44.1171467" lon="11.6080917"><ele>761.0</ele><time>2026-04-12T09:11:48.267Z</time></trkpt><trkpt lat="44.1170733" lon="11.60808"><ele>762.0</ele><time>2026-04-12T09:11:49.268Z</time></trkpt><trkpt lat="44.1170017" lon="11.6080833"><ele>763.0</ele><time>2026-04-12T09:11:50.268Z</time></trkpt><trkpt lat="44.11692" lon="11.6081133"><ele>764.0000000000001</ele><time>2026-04-12T09:11:51.268Z</time></trkpt><trkpt lat="44.1168433" lon="11.6081517"><ele>765.0</ele><time>2026-04-12T09:11:52.267Z</time></trkpt><trkpt lat="44.1167583" lon="11.6082017"><ele>765.0</ele><time>2026-04-12T09:11:53.267Z</time></trkpt><trkpt lat="44.116675" lon="11.6082467"><ele>765.0</ele><time>2026-04-12T09:11:54.267Z</time></trkpt><trkpt lat="44.1166033" lon="11.608265"><ele>765.0</ele><time>2026-04-12T09:11:55.268Z</time></trkpt><trkpt lat="44.11651" lon="11.6083133"><ele>765.0</ele><time>2026-04-12T09:11:56.267Z</time></trkpt><trkpt lat="44.1164383" lon="11.60832"><ele>765.0</ele><time>2026-04-12T09:11:57.268Z</time></trkpt><trkpt lat="44.1163667" lon="11.6083117"><ele>765.0</ele><time>2026-04-12T09:11:58.267Z</time></trkpt><trkpt lat="44.1162967" lon="11.608305"><ele>766.0</ele><time>2026-04-12T09:11:59.267Z</time></trkpt><trkpt lat="44.1162233" lon="11.60831"><ele>767.0</ele><time>2026-04-12T09:12:00.267Z</time></trkpt><trkpt lat="44.1161567" lon="11.6083133"><ele>768.0</ele><time>2026-04-12T09:12:01.269Z</time></trkpt><trkpt lat="44.1160883" lon="11.60831"><ele>769.0</ele><time>2026-04-12T09:12:02.268Z</time></trkpt><trkpt lat="44.1160233" lon="11.6083117"><ele>770.0</ele><time>2026-04-12T09:12:03.267Z</time></trkpt><trkpt lat="44.115955" lon="11.6082967"><ele>771.0</ele><time>2026-04-12T09:12:04.267Z</time></trkpt><trkpt lat="44.1158317" lon="11.608235"><ele>771.0</ele><time>2026-04-12T09:12:06.267Z</time></trkpt><trkpt lat="44.115755" lon="11.6082033"><ele>771.0</ele><time>2026-04-12T09:12:07.267Z</time></trkpt><trkpt lat="44.1156817" lon="11.60816"><ele>771.0</ele><time>2026-04-12T09:12:08.266Z</time></trkpt><trkpt lat="44.1156067" lon="11.608115"><ele>771.0</ele><time>2026-04-12T09:12:09.268Z</time></trkpt><trkpt lat="44.1155233" lon="11.6080717"><ele>771.0</ele><time>2026-04-12T09:12:10.268Z</time></trkpt><trkpt lat="44.115435" lon="11.6080333"><ele>771.0</ele><time>2026-04-12T09:12:11.269Z</time></trkpt><trkpt lat="44.115345" lon="11.6079967"><ele>768.5</ele><time>2026-04-12T09:12:12.267Z</time></trkpt><trkpt lat="44.1152517" lon="11.6079717"><ele>766.0</ele><time>2026-04-12T09:12:13.269Z</time></trkpt><trkpt lat="44.1151667" lon="11.60794"><ele>763.5</ele><time>2026-04-12T09:12:14.268Z</time></trkpt><trkpt lat="44.115085" lon="11.6079167"><ele>761.0</ele><time>2026-04-12T09:12:15.268Z</time></trkpt><trkpt lat="44.1150133" lon="11.6079133"><ele>758.5</ele><time>2026-04-12T09:12:16.268Z</time></trkpt><trkpt lat="44.1149467" lon="11.60792"><ele>756.0</ele><time>2026-04-12T09:12:17.267Z</time></trkpt><trkpt lat="44.1148783" lon="11.6079367"><ele>752.5999999999999</ele><time>2026-04-12T09:12:18.268Z</time></trkpt><trkpt lat="44.11481" lon="11.6079817"><ele>749.2</ele><time>2026-04-12T09:12:19.268Z</time></trkpt><trkpt lat="44.1147483" lon="11.6080217"><ele>745.8</ele><time>2026-04-12T09:12:20.268Z</time></trkpt><trkpt lat="44.11464" lon="11.608115"><ele>742.4000000000001</ele><time>2026-04-12T09:12:22.268Z</time></trkpt><trkpt lat="44.114595" lon="11.6081767"><ele>739.0</ele><time>2026-04-12T09:12:23.267Z</time></trkpt><trkpt lat="44.114535" lon="11.6083267"><ele>739.0</ele><time>2026-04-12T09:12:25.268Z</time></trkpt><trkpt lat="44.1145067" lon="11.6084183"><ele>739.0</ele><time>2026-04-12T09:12:26.267Z</time></trkpt><trkpt lat="44.1144833" lon="11.6085333"><ele>739.0</ele><time>2026-04-12T09:12:27.268Z</time></trkpt><trkpt lat="44.1144633" lon="11.608645"><ele>739.0</ele><time>2026-04-12T09:12:28.267Z</time></trkpt><trkpt lat="44.1144517" lon="11.60874"><ele>739.0</ele><time>2026-04-12T09:12:29.267Z</time></trkpt><trkpt lat="44.11444" lon="11.6088433"><ele>739.0</ele><time>2026-04-12T09:12:30.267Z</time></trkpt><trkpt lat="44.1144067" lon="11.6089533"><ele>739.0</ele><time>2026-04-12T09:12:32.268Z</time></trkpt><trkpt lat="44.11433" lon="11.60879"><ele>739.0</ele><time>2026-04-12T09:12:38.267Z</time></trkpt><trkpt lat="44.11428" lon="11.6086517"><ele>739.0</ele><time>2026-04-12T09:12:40.27Z</time></trkpt><trkpt lat="44.1142067" lon="11.6085067"><ele>739.0</ele><time>2026-04-12T09:12:42.268Z</time></trkpt><trkpt lat="44.1141617" lon="11.6083533"><ele>739.0</ele><time>2026-04-12T09:12:44.267Z</time></trkpt><trkpt lat="44.1141417" lon="11.60818"><ele>739.0</ele><time>2026-04-12T09:12:46.268Z</time></trkpt><trkpt lat="44.1141367" lon="11.6080067"><ele>739.0</ele><time>2026-04-12T09:12:48.268Z</time></trkpt><trkpt lat="44.1141283" lon="11.607825"><ele>739.0</ele><time>2026-04-12T09:12:50.268Z</time></trkpt><trkpt lat="44.114105" lon="11.6076617"><ele>734.5</ele><time>2026-04-12T09:12:52.268Z</time></trkpt><trkpt lat="44.114065" lon="11.6075733"><ele>730.0</ele><time>2026-04-12T09:12:53.267Z</time></trkpt><trkpt lat="44.114" lon="11.6075017"><ele>725.5</ele><time>2026-04-12T09:12:54.268Z</time></trkpt><trkpt lat="44.11394" lon="11.6074217"><ele>721.0</ele><time>2026-04-12T09:12:55.268Z</time></trkpt><trkpt lat="44.113885" lon="11.607355"><ele>716.5</ele><time>2026-04-12T09:12:56.268Z</time></trkpt><trkpt lat="44.1137867" lon="11.607265"><ele>712.0</ele><time>2026-04-12T09:12:58.268Z</time></trkpt><trkpt lat="44.113725" lon="11.60724"><ele>712.0</ele><time>2026-04-12T09:12:59.267Z</time></trkpt><trkpt lat="44.11366" lon="11.6072233"><ele>712.0</ele><time>2026-04-12T09:13:00.268Z</time></trkpt><trkpt lat="44.1135967" lon="11.6072133"><ele>712.0</ele><time>2026-04-12T09:13:01.268Z</time></trkpt><trkpt lat="44.11353" lon="11.60723"><ele>712.0</ele><time>2026-04-12T09:13:02.268Z</time></trkpt><trkpt lat="44.1134667" lon="11.60724"><ele>712.0</ele><time>2026-04-12T09:13:03.267Z</time></trkpt><trkpt lat="44.1133717" lon="11.6073183"><ele>712.0</ele><time>2026-04-12T09:13:05.267Z</time></trkpt><trkpt lat="44.1132867" lon="11.6073167"><ele>706.4000000000001</ele><time>2026-04-12T09:13:07.267Z</time></trkpt><trkpt lat="44.113185" lon="11.6073017"><ele>700.8000000000001</ele><time>2026-04-12T09:13:09.268Z</time></trkpt><trkpt lat="44.1130867" lon="11.607285"><ele>695.2</ele><time>2026-04-12T09:13:11.267Z</time></trkpt><trkpt lat="44.1129817" lon="11.6072517"><ele>689.6</ele><time>2026-04-12T09:13:13.268Z</time></trkpt><trkpt lat="44.11288" lon="11.6071967"><ele>684.0</ele><time>2026-04-12T09:13:15.267Z</time></trkpt><trkpt lat="44.1128083" lon="11.6071017"><ele>687.2</ele><time>2026-04-12T09:13:17.268Z</time></trkpt><trkpt lat="44.112755" lon="11.6069717"><ele>690.4000000000001</ele><time>2026-04-12T09:13:19.268Z</time></trkpt><trkpt lat="44.1126867" lon="11.6068717"><ele>693.6</ele><time>2026-04-12T09:13:21.268Z</time></trkpt><trkpt lat="44.11262" lon="11.6067467"><ele>696.8</ele><time>2026-04-12T09:13:44.267Z</time></trkpt><trkpt lat="44.112585" lon="11.6066733"><ele>700.0</ele><time>2026-04-12T09:16:41.266Z</time></trkpt><trkpt lat="44.11254" lon="11.6065633"><ele>700.0</ele><time>2026-04-12T09:16:42.268Z</time></trkpt><trkpt lat="44.1124767" lon="11.6065017"><ele>700.0</ele><time>2026-04-12T09:26:42.267Z</time></trkpt><trkpt lat="44.1124117" lon="11.6065267"><ele>700.0</ele><time>2026-04-12T09:26:45.268Z</time></trkpt><trkpt lat="44.112305" lon="11.60657"><ele>700.0</ele><time>2026-04-12T09:26:47.268Z</time></trkpt><trkpt lat="44.1122333" lon="11.6065883"><ele>700.0</ele><time>2026-04-12T09:26:48.268Z</time></trkpt><trkpt lat="44.1121133" lon="11.606645"><ele>698.3333333333334</ele><time>2026-04-12T09:26:49.268Z</time></trkpt><trkpt lat="44.1120317" lon="11.606685"><ele>696.6666666666667</ele><time>2026-04-12T09:26:50.267Z</time></trkpt><trkpt lat="44.111965" lon="11.6067367"><ele>695.0</ele><time>2026-04-12T09:26:51.267Z</time></trkpt><trkpt lat="44.111905" lon="11.606805"><ele>693.3333333333334</ele><time>2026-04-12T09:26:52.268Z</time></trkpt><trkpt lat="44.1118533" lon="11.6068717"><ele>691.6666666666666</ele><time>2026-04-12T09:26:53.267Z</time></trkpt><trkpt lat="44.111795" lon="11.6069367"><ele>690.0</ele><time>2026-04-12T09:26:54.268Z</time></trkpt><trkpt lat="44.1117267" lon="11.6069783"><ele>687.6</ele><time>2026-04-12T09:26:55.269Z</time></trkpt><trkpt lat="44.1116467" lon="11.6070017"><ele>685.2</ele><time>2026-04-12T09:26:56.267Z</time></trkpt><trkpt lat="44.1115783" lon="11.607"><ele>682.8</ele><time>2026-04-12T09:26:57.267Z</time></trkpt><trkpt lat="44.1114683" lon="11.6069483"><ele>680.4</ele><time>2026-04-12T09:26:59.267Z</time></trkpt><trkpt lat="44.1113483" lon="11.6068783"><ele>678.0</ele><time>2026-04-12T09:27:01.267Z</time></trkpt><trkpt lat="44.11128" lon="11.60685"><ele>678.0</ele><time>2026-04-12T09:27:02.268Z</time></trkpt><trkpt lat="44.1112083" lon="11.6068333"><ele>678.0</ele><time>2026-04-12T09:27:03.267Z</time></trkpt><trkpt lat="44.1111317" lon="11.60682"><ele>678.0</ele><time>2026-04-12T09:27:04.268Z</time></trkpt><trkpt lat="44.111065" lon="11.6068283"><ele>678.0</ele><time>2026-04-12T09:27:05.269Z</time></trkpt><trkpt lat="44.11097" lon="11.6068583"><ele>678.0</ele><time>2026-04-12T09:27:07.267Z</time></trkpt><trkpt lat="44.1108783" lon="11.60683"><ele>678.0</ele><time>2026-04-12T09:27:13.269Z</time></trkpt><trkpt lat="44.1108" lon="11.6067967"><ele>676.8333333333334</ele><time>2026-04-12T09:27:16.268Z</time></trkpt><trkpt lat="44.1106867" lon="11.6067417"><ele>675.6666666666666</ele><time>2026-04-12T09:27:18.269Z</time></trkpt><trkpt lat="44.1106217" lon="11.6067083"><ele>674.5</ele><time>2026-04-12T09:27:19.267Z</time></trkpt><trkpt lat="44.1105517" lon="11.6066783"><ele>673.3333333333333</ele><time>2026-04-12T09:27:20.269Z</time></trkpt><trkpt lat="44.1104767" lon="11.60665"><ele>672.1666666666666</ele><time>2026-04-12T09:27:21.267Z</time></trkpt><trkpt lat="44.1103967" lon="11.6066167"><ele>671.0</ele><time>2026-04-12T09:27:22.269Z</time></trkpt><trkpt lat="44.1103233" lon="11.6065683"><ele>671.0</ele><time>2026-04-12T09:27:23.267Z</time></trkpt><trkpt lat="44.11026" lon="11.6065"><ele>671.0</ele><time>2026-04-12T09:27:24.267Z</time></trkpt><trkpt lat="44.1101967" lon="11.606425"><ele>671.0</ele><time>2026-04-12T09:27:25.267Z</time></trkpt><trkpt lat="44.110145" lon="11.6063533"><ele>671.0</ele><time>2026-04-12T09:27:26.267Z</time></trkpt><trkpt lat="44.1101017" lon="11.6062667"><ele>671.0</ele><time>2026-04-12T09:27:27.267Z</time></trkpt><trkpt lat="44.1100617" lon="11.6061833"><ele>671.0</ele><time>2026-04-12T09:27:28.268Z</time></trkpt><trkpt lat="44.11002" lon="11.6061033"><ele>670.4285714285714</ele><time>2026-04-12T09:27:29.266Z</time></trkpt><trkpt lat="44.1099733" lon="11.6060333"><ele>669.8571428571429</ele><time>2026-04-12T09:27:30.269Z</time></trkpt><trkpt lat="44.109925" lon="11.60596"><ele>669.2857142857143</ele><time>2026-04-12T09:27:31.267Z</time></trkpt><trkpt lat="44.1098867" lon="11.6058883"><ele>668.7142857142858</ele><time>2026-04-12T09:27:32.267Z</time></trkpt><trkpt lat="44.1098483" lon="11.60581"><ele>668.1428571428571</ele><time>2026-04-12T09:27:33.267Z</time></trkpt><trkpt lat="44.1098117" lon="11.6057133"><ele>667.5714285714287</ele><time>2026-04-12T09:27:34.267Z</time></trkpt><trkpt lat="44.1097767" lon="11.6056167"><ele>667.0</ele><time>2026-04-12T09:27:35.268Z</time></trkpt><trkpt lat="44.1097433" lon="11.6055183"><ele>666.3333333333334</ele><time>2026-04-12T09:27:36.266Z</time></trkpt><trkpt lat="44.1097117" lon="11.6054217"><ele>665.6666666666667</ele><time>2026-04-12T09:27:37.267Z</time></trkpt><trkpt lat="44.1096783" lon="11.6053267"><ele>665.0</ele><time>2026-04-12T09:27:38.267Z</time></trkpt><trkpt lat="44.1096333" lon="11.6052317"><ele>664.3333333333334</ele><time>2026-04-12T09:27:39.267Z</time></trkpt><trkpt lat="44.1095917" lon="11.6051333"><ele>663.6666666666666</ele><time>2026-04-12T09:27:40.267Z</time></trkpt><trkpt lat="44.10955" lon="11.60504"><ele>663.0</ele><time>2026-04-12T09:27:41.268Z</time></trkpt><trkpt lat="44.10951" lon="11.6049533"><ele>663.0</ele><time>2026-04-12T09:27:42.268Z</time></trkpt><trkpt lat="44.1094767" lon="11.604875"><ele>663.0</ele><time>2026-04-12T09:27:43.269Z</time></trkpt><trkpt lat="44.1094183" lon="11.604745"><ele>663.0</ele><time>2026-04-12T09:27:45.268Z</time></trkpt><trkpt lat="44.1093817" lon="11.6046433"><ele>663.0</ele><time>2026-04-12T09:27:47.267Z</time></trkpt><trkpt lat="44.109345" lon="11.6045717"><ele>663.0</ele><time>2026-04-12T09:27:50.266Z</time></trkpt><trkpt lat="44.1093167" lon="11.6044483"><ele>663.0</ele><time>2026-04-12T09:27:53.266Z</time></trkpt><trkpt lat="44.1092883" lon="11.604315"><ele>664.25</ele><time>2026-04-12T09:27:55.268Z</time></trkpt><trkpt lat="44.1092567" lon="11.6041483"><ele>665.5</ele><time>2026-04-12T09:27:57.267Z</time></trkpt><trkpt lat="44.1092567" lon="11.603985"><ele>666.75</ele><time>2026-04-12T09:27:59.266Z</time></trkpt><trkpt lat="44.109305" lon="11.60386"><ele>668.0</ele><time>2026-04-12T09:28:01.267Z</time></trkpt><trkpt lat="44.1094233" lon="11.6038067"><ele>668.0</ele><time>2026-04-12T09:28:03.267Z</time></trkpt><trkpt lat="44.1094833" lon="11.603765"><ele>668.0</ele><time>2026-04-12T09:28:04.266Z</time></trkpt><trkpt lat="44.1095733" lon="11.60369"><ele>668.0</ele><time>2026-04-12T09:28:06.266Z</time></trkpt><trkpt lat="44.1095967" lon="11.60355"><ele>668.0</ele><time>2026-04-12T09:28:09.267Z</time></trkpt><trkpt lat="44.1096167" lon="11.6034183"><ele>668.0</ele><time>2026-04-12T09:28:11.267Z</time></trkpt><trkpt lat="44.1096367" lon="11.60333"><ele>668.0</ele><time>2026-04-12T09:28:12.266Z</time></trkpt><trkpt lat="44.1096617" lon="11.6032383"><ele>667.8571428571429</ele><time>2026-04-12T09:28:13.267Z</time></trkpt><trkpt lat="44.1096817" lon="11.603145"><ele>667.7142857142858</ele><time>2026-04-12T09:28:14.266Z</time></trkpt><trkpt lat="44.1097017" lon="11.60304"><ele>667.5714285714287</ele><time>2026-04-12T09:28:15.266Z</time></trkpt><trkpt lat="44.1097167" lon="11.6029383"><ele>667.4285714285714</ele><time>2026-04-12T09:28:16.267Z</time></trkpt><trkpt lat="44.1097283" lon="11.6028367"><ele>667.2857142857143</ele><time>2026-04-12T09:28:17.267Z</time></trkpt><trkpt lat="44.1097333" lon="11.6027367"><ele>667.1428571428572</ele><time>2026-04-12T09:28:18.266Z</time></trkpt><trkpt lat="44.1097317" lon="11.602645"><ele>667.0</ele><time>2026-04-12T09:28:19.268Z</time></trkpt><trkpt lat="44.10972" lon="11.6024667"><ele>667.5</ele><time>2026-04-12T09:28:21.267Z</time></trkpt><trkpt lat="44.10971" lon="11.60237"><ele>668.0</ele><time>2026-04-12T09:28:22.267Z</time></trkpt><trkpt lat="44.1096933" lon="11.6022817"><ele>668.5</ele><time>2026-04-12T09:28:23.267Z</time></trkpt><trkpt lat="44.1096383" lon="11.6021233"><ele>669.0</ele><time>2026-04-12T09:28:25.268Z</time></trkpt><trkpt lat="44.1096133" lon="11.6020383"><ele>669.5</ele><time>2026-04-12T09:28:26.266Z</time></trkpt><trkpt lat="44.1095917" lon="11.601945"><ele>670.0</ele><time>2026-04-12T09:28:27.268Z</time></trkpt><trkpt lat="44.109565" lon="11.6018483"><ele>671.8</ele><time>2026-04-12T09:28:28.267Z</time></trkpt><trkpt lat="44.1095417" lon="11.6017633"><ele>673.6</ele><time>2026-04-12T09:28:29.267Z</time></trkpt><trkpt lat="44.1095367" lon="11.6016083"><ele>675.4000000000001</ele><time>2026-04-12T09:28:31.268Z</time></trkpt><trkpt lat="44.10958" lon="11.6014533"><ele>677.2</ele><time>2026-04-12T09:28:33.267Z</time></trkpt><trkpt lat="44.1096017" lon="11.60137"><ele>679.0</ele><time>2026-04-12T09:28:34.268Z</time></trkpt><trkpt lat="44.1096233" lon="11.6011967"><ele>680.2</ele><time>2026-04-12T09:28:36.268Z</time></trkpt><trkpt lat="44.1096183" lon="11.6010883"><ele>681.4000000000001</ele><time>2026-04-12T09:28:37.266Z</time></trkpt><trkpt lat="44.109615" lon="11.6009667"><ele>682.6</ele><time>2026-04-12T09:28:38.267Z</time></trkpt><trkpt lat="44.10961" lon="11.6008333"><ele>683.8</ele><time>2026-04-12T09:28:39.267Z</time></trkpt><trkpt lat="44.1096017" lon="11.600705"><ele>685.0</ele><time>2026-04-12T09:28:40.268Z</time></trkpt><trkpt lat="44.1095783" lon="11.600575"><ele>685.0</ele><time>2026-04-12T09:28:41.266Z</time></trkpt><trkpt lat="44.1095583" lon="11.6004667"><ele>685.0</ele><time>2026-04-12T09:28:42.268Z</time></trkpt><trkpt lat="44.1095317" lon="11.600375"><ele>685.0</ele><time>2026-04-12T09:28:43.266Z</time></trkpt><trkpt lat="44.109175" lon="11.6000333"><ele>687.25</ele><time>2026-04-12T09:28:45.874Z</time></trkpt><trkpt lat="44.1090133" lon="11.5998917"><ele>689.5</ele><time>2026-04-12T09:28:48.267Z</time></trkpt><trkpt lat="44.1089083" lon="11.5997983"><ele>691.75</ele><time>2026-04-12T09:28:49.266Z</time></trkpt><trkpt lat="44.1088183" lon="11.5996817"><ele>694.0</ele><time>2026-04-12T09:28:50.267Z</time></trkpt><trkpt lat="44.1087517" lon="11.5995883"><ele>698.0</ele><time>2026-04-12T09:28:51.266Z</time></trkpt><trkpt lat="44.1086817" lon="11.5995"><ele>702.0</ele><time>2026-04-12T09:28:52.267Z</time></trkpt><trkpt lat="44.10861" lon="11.5994283"><ele>706.0</ele><time>2026-04-12T09:28:53.268Z</time></trkpt><trkpt lat="44.1085367" lon="11.5993967"><ele>710.0</ele><time>2026-04-12T09:28:54.267Z</time></trkpt><trkpt lat="44.1084667" lon="11.5993633"><ele>714.0</ele><time>2026-04-12T09:28:55.266Z</time></trkpt><trkpt lat="44.1083833" lon="11.599345"><ele>718.0</ele><time>2026-04-12T09:28:56.267Z</time></trkpt><trkpt lat="44.108305" lon="11.59932"><ele>715.1666666666667</ele><time>2026-04-12T09:28:57.266Z</time></trkpt><trkpt lat="44.1082317" lon="11.599295"><ele>712.3333333333334</ele><time>2026-04-12T09:28:58.266Z</time></trkpt><trkpt lat="44.1081517" lon="11.5992733"><ele>709.5</ele><time>2026-04-12T09:28:59.266Z</time></trkpt><trkpt lat="44.1080617" lon="11.599235"><ele>706.6666666666666</ele><time>2026-04-12T09:29:01.266Z</time></trkpt><trkpt lat="44.108045" lon="11.5991317"><ele>703.8333333333333</ele><time>2026-04-12T09:29:04.267Z</time></trkpt><trkpt lat="44.108095" lon="11.59903"><ele>701.0</ele><time>2026-04-12T09:29:06.266Z</time></trkpt><trkpt lat="44.10815" lon="11.59893"><ele>701.0</ele><time>2026-04-12T09:29:09.268Z</time></trkpt><trkpt lat="44.108195" lon="11.5988667"><ele>701.0</ele><time>2026-04-12T09:29:11.267Z</time></trkpt><trkpt lat="44.108245" lon="11.5988067"><ele>701.0</ele><time>2026-04-12T09:29:13.266Z</time></trkpt><trkpt lat="44.1083083" lon="11.598735"><ele>701.0</ele><time>2026-04-12T09:29:15.267Z</time></trkpt><trkpt lat="44.1084083" lon="11.5986467"><ele>701.0</ele><time>2026-04-12T09:29:17.267Z</time></trkpt><trkpt lat="44.1084633" lon="11.5986017"><ele>701.0</ele><time>2026-04-12T09:29:18.266Z</time></trkpt><trkpt lat="44.1085467" lon="11.5985117"><ele>703.4</ele><time>2026-04-12T09:29:20.266Z</time></trkpt><trkpt lat="44.1086133" lon="11.5983733"><ele>705.8</ele><time>2026-04-12T09:29:22.267Z</time></trkpt><trkpt lat="44.1086583" lon="11.5982867"><ele>708.1999999999999</ele><time>2026-04-12T09:29:23.267Z</time></trkpt><trkpt lat="44.1087083" lon="11.5981217"><ele>710.5999999999999</ele><time>2026-04-12T09:29:25.267Z</time></trkpt><trkpt lat="44.1087283" lon="11.5980233"><ele>713.0</ele><time>2026-04-12T09:29:26.267Z</time></trkpt><trkpt lat="44.108745" lon="11.597905"><ele>713.3333333333333</ele><time>2026-04-12T09:29:27.267Z</time></trkpt><trkpt lat="44.108765" lon="11.5978017"><ele>713.6666666666666</ele><time>2026-04-12T09:29:28.266Z</time></trkpt><trkpt lat="44.1088" lon="11.5977133"><ele>714.0</ele><time>2026-04-12T09:29:29.267Z</time></trkpt><trkpt lat="44.1088233" lon="11.597615"><ele>714.3333333333334</ele><time>2026-04-12T09:29:30.267Z</time></trkpt><trkpt lat="44.108835" lon="11.5975183"><ele>714.6666666666667</ele><time>2026-04-12T09:29:31.266Z</time></trkpt><trkpt lat="44.1088383" lon="11.5973933"><ele>715.0</ele><time>2026-04-12T09:29:32.266Z</time></trkpt><trkpt lat="44.1088267" lon="11.5972817"><ele>715.0</ele><time>2026-04-12T09:29:33.267Z</time></trkpt><trkpt lat="44.1087883" lon="11.5971217"><ele>715.0</ele><time>2026-04-12T09:29:35.267Z</time></trkpt><trkpt lat="44.10879" lon="11.5969517"><ele>715.0</ele><time>2026-04-12T09:29:37.267Z</time></trkpt><trkpt lat="44.1087983" lon="11.596855"><ele>715.0</ele><time>2026-04-12T09:29:38.267Z</time></trkpt><trkpt lat="44.1088117" lon="11.5967317"><ele>715.0</ele><time>2026-04-12T09:29:39.268Z</time></trkpt><trkpt lat="44.1088217" lon="11.59663"><ele>716.6</ele><time>2026-04-12T09:29:40.266Z</time></trkpt><trkpt lat="44.1088383" lon="11.596535"><ele>718.2</ele><time>2026-04-12T09:29:41.266Z</time></trkpt><trkpt lat="44.1088767" lon="11.5963733"><ele>719.8</ele><time>2026-04-12T09:29:43.267Z</time></trkpt><trkpt lat="44.1089183" lon="11.5962333"><ele>721.4</ele><time>2026-04-12T09:29:45.267Z</time></trkpt><trkpt lat="44.1089317" lon="11.5961217"><ele>723.0</ele><time>2026-04-12T09:29:47.267Z</time></trkpt><trkpt lat="44.1088783" lon="11.595995"><ele>726.5999999999999</ele><time>2026-04-12T09:29:49.267Z</time></trkpt><trkpt lat="44.1088267" lon="11.5959317"><ele>730.1999999999999</ele><time>2026-04-12T09:29:50.266Z</time></trkpt><trkpt lat="44.10876" lon="11.5957933"><ele>733.8</ele><time>2026-04-12T09:29:52.268Z</time></trkpt><trkpt lat="44.10874" lon="11.5956183"><ele>737.4</ele><time>2026-04-12T09:29:54.266Z</time></trkpt><trkpt lat="44.1087433" lon="11.5955217"><ele>741.0</ele><time>2026-04-12T09:29:55.267Z</time></trkpt><trkpt lat="44.1087617" lon="11.59542"><ele>743.5</ele><time>2026-04-12T09:29:56.266Z</time></trkpt><trkpt lat="44.1087617" lon="11.5953033"><ele>746.0</ele><time>2026-04-12T09:29:57.267Z</time></trkpt><trkpt lat="44.1087667" lon="11.595185"><ele>748.5</ele><time>2026-04-12T09:29:58.266Z</time></trkpt><trkpt lat="44.1087917" lon="11.5950717"><ele>751.0</ele><time>2026-04-12T09:29:59.267Z</time></trkpt><trkpt lat="44.1088417" lon="11.5950033"><ele>753.5</ele><time>2026-04-12T09:30:00.266Z</time></trkpt><trkpt lat="44.1089017" lon="11.5949717"><ele>756.0</ele><time>2026-04-12T09:30:01.266Z</time></trkpt><trkpt lat="44.10899" lon="11.594995"><ele>756.3333333333334</ele><time>2026-04-12T09:30:02.266Z</time></trkpt><trkpt lat="44.109085" lon="11.5950017"><ele>756.6666666666666</ele><time>2026-04-12T09:30:03.267Z</time></trkpt><trkpt lat="44.10916" lon="11.5949733"><ele>757.0</ele><time>2026-04-12T09:30:04.266Z</time></trkpt><trkpt lat="44.1092233" lon="11.59492"><ele>757.3333333333333</ele><time>2026-04-12T09:30:05.267Z</time></trkpt><trkpt lat="44.1092883" lon="11.594855"><ele>757.6666666666666</ele><time>2026-04-12T09:30:06.266Z</time></trkpt><trkpt lat="44.10935" lon="11.5947833"><ele>758.0</ele><time>2026-04-12T09:30:07.267Z</time></trkpt><trkpt lat="44.1094" lon="11.5946917"><ele>758.0</ele><time>2026-04-12T09:30:08.267Z</time></trkpt><trkpt lat="44.10946" lon="11.59459"><ele>758.0</ele><time>2026-04-12T09:30:09.267Z</time></trkpt><trkpt lat="44.1095167" lon="11.5944717"><ele>758.0</ele><time>2026-04-12T09:30:10.266Z</time></trkpt><trkpt lat="44.1095567" lon="11.5943617"><ele>758.0</ele><time>2026-04-12T09:30:11.267Z</time></trkpt><trkpt lat="44.1095767" lon="11.5942033"><ele>758.0</ele><time>2026-04-12T09:30:12.266Z</time></trkpt><trkpt lat="44.1096133" lon="11.5940617"><ele>758.0</ele><time>2026-04-12T09:30:13.267Z</time></trkpt><trkpt lat="44.1096533" lon="11.5939317"><ele>758.0</ele><time>2026-04-12T09:30:14.266Z</time></trkpt><trkpt lat="44.109695" lon="11.593805"><ele>758.0</ele><time>2026-04-12T09:30:15.267Z</time></trkpt><trkpt lat="44.109725" lon="11.5936767"><ele>758.0</ele><time>2026-04-12T09:30:16.268Z</time></trkpt><trkpt lat="44.10974" lon="11.5935483"><ele>758.0</ele><time>2026-04-12T09:30:17.267Z</time></trkpt><trkpt lat="44.10974" lon="11.593425"><ele>758.0</ele><time>2026-04-12T09:30:18.266Z</time></trkpt><trkpt lat="44.1097417" lon="11.5933017"><ele>758.0</ele><time>2026-04-12T09:30:19.266Z</time></trkpt><trkpt lat="44.10974" lon="11.59318"><ele>758.0</ele><time>2026-04-12T09:30:20.266Z</time></trkpt><trkpt lat="44.1097333" lon="11.59306"><ele>758.0</ele><time>2026-04-12T09:30:21.267Z</time></trkpt><trkpt lat="44.1097217" lon="11.59294"><ele>758.0</ele><time>2026-04-12T09:30:22.266Z</time></trkpt><trkpt lat="44.109715" lon="11.592825"><ele>758.0</ele><time>2026-04-12T09:30:23.267Z</time></trkpt><trkpt lat="44.10971" lon="11.5927183"><ele>759.8</ele><time>2026-04-12T09:30:24.267Z</time></trkpt><trkpt lat="44.1097067" lon="11.5926133"><ele>761.5999999999999</ele><time>2026-04-12T09:30:25.267Z</time></trkpt><trkpt lat="44.109695" lon="11.59252"><ele>763.4000000000001</ele><time>2026-04-12T09:30:26.265Z</time></trkpt><trkpt lat="44.1096483" lon="11.59236"><ele>765.2</ele><time>2026-04-12T09:30:28.267Z</time></trkpt><trkpt lat="44.10962" lon="11.5921967"><ele>767.0</ele><time>2026-04-12T09:30:30.267Z</time></trkpt><trkpt lat="44.1096367" lon="11.5920567"><ele>768.2</ele><time>2026-04-12T09:30:32.267Z</time></trkpt><trkpt lat="44.1096667" lon="11.5919767"><ele>769.4000000000001</ele><time>2026-04-12T09:30:33.268Z</time></trkpt><trkpt lat="44.10971" lon="11.591905"><ele>770.5999999999999</ele><time>2026-04-12T09:30:34.267Z</time></trkpt><trkpt lat="44.1097967" lon="11.591775"><ele>771.8</ele><time>2026-04-12T09:30:36.266Z</time></trkpt><trkpt lat="44.109835" lon="11.5917"><ele>773.0</ele><time>2026-04-12T09:30:37.267Z</time></trkpt><trkpt lat="44.10992" lon="11.5915667"><ele>778.0000000000001</ele><time>2026-04-12T09:30:38.267Z</time></trkpt><trkpt lat="44.10997" lon="11.5914883"><ele>783.0</ele><time>2026-04-12T09:30:39.267Z</time></trkpt><trkpt lat="44.1099983" lon="11.5913883"><ele>788.0</ele><time>2026-04-12T09:30:40.267Z</time></trkpt><trkpt lat="44.110025" lon="11.5912867"><ele>793.0</ele><time>2026-04-12T09:30:41.267Z</time></trkpt><trkpt lat="44.1100417" lon="11.5911733"><ele>798.0000000000001</ele><time>2026-04-12T09:30:42.266Z</time></trkpt><trkpt lat="44.1100633" lon="11.5909917"><ele>803.0</ele><time>2026-04-12T09:30:44.267Z</time></trkpt><trkpt lat="44.1100867" lon="11.5908967"><ele>803.0</ele><time>2026-04-12T09:30:45.268Z</time></trkpt><trkpt lat="44.1100867" lon="11.5907167"><ele>803.0</ele><time>2026-04-12T09:30:47.268Z</time></trkpt><trkpt lat="44.110195" lon="11.5906333"><ele>803.0</ele><time>2026-04-12T09:30:49.268Z</time></trkpt><trkpt lat="44.1102667" lon="11.59063"><ele>803.0</ele><time>2026-04-12T09:30:50.266Z</time></trkpt><trkpt lat="44.1103333" lon="11.5906483"><ele>803.0</ele><time>2026-04-12T09:30:51.268Z</time></trkpt><trkpt lat="44.1104167" lon="11.59067"><ele>803.0000000000001</ele><time>2026-04-12T09:30:52.266Z</time></trkpt><trkpt lat="44.1104983" lon="11.5906933"><ele>803.0</ele><time>2026-04-12T09:30:53.267Z</time></trkpt><trkpt lat="44.1105817" lon="11.5907133"><ele>803.0</ele><time>2026-04-12T09:30:54.266Z</time></trkpt><trkpt lat="44.1106583" lon="11.5907217"><ele>803.0</ele><time>2026-04-12T09:30:55.267Z</time></trkpt><trkpt lat="44.1107317" lon="11.59071"><ele>803.0000000000001</ele><time>2026-04-12T09:30:56.267Z</time></trkpt><trkpt lat="44.1108033" lon="11.59068"><ele>803.0</ele><time>2026-04-12T09:30:57.267Z</time></trkpt><trkpt lat="44.1109233" lon="11.590615"><ele>804.3333333333334</ele><time>2026-04-12T09:30:59.266Z</time></trkpt><trkpt lat="44.110995" lon="11.5905717"><ele>805.6666666666667</ele><time>2026-04-12T09:31:00.268Z</time></trkpt><trkpt lat="44.1110633" lon="11.590525"><ele>807.0</ele><time>2026-04-12T09:31:01.267Z</time></trkpt><trkpt lat="44.11112" lon="11.5904767"><ele>808.3333333333333</ele><time>2026-04-12T09:31:02.266Z</time></trkpt><trkpt lat="44.1112033" lon="11.59038"><ele>809.6666666666666</ele><time>2026-04-12T09:31:04.267Z</time></trkpt><trkpt lat="44.1112567" lon="11.59028"><ele>811.0</ele><time>2026-04-12T09:31:06.267Z</time></trkpt><trkpt lat="44.1112933" lon="11.5901583"><ele>810.5999999999999</ele><time>2026-04-12T09:31:08.267Z</time></trkpt><trkpt lat="44.1113267" lon="11.590025"><ele>810.2</ele><time>2026-04-12T09:31:10.267Z</time></trkpt><trkpt lat="44.1113617" lon="11.5898867"><ele>809.8</ele><time>2026-04-12T09:31:12.267Z</time></trkpt><trkpt lat="44.1113967" lon="11.5897333"><ele>809.4000000000001</ele><time>2026-04-12T09:31:14.268Z</time></trkpt><trkpt lat="44.11141" lon="11.5895883"><ele>809.0</ele><time>2026-04-12T09:31:16.267Z</time></trkpt><trkpt lat="44.1114317" lon="11.5894283"><ele>809.0000000000001</ele><time>2026-04-12T09:31:18.267Z</time></trkpt><trkpt lat="44.1114683" lon="11.5892983"><ele>809.0</ele><time>2026-04-12T09:31:20.267Z</time></trkpt><trkpt lat="44.1115383" lon="11.5892"><ele>809.0</ele><time>2026-04-12T09:31:22.268Z</time></trkpt><trkpt lat="44.1115867" lon="11.589105"><ele>809.0</ele><time>2026-04-12T09:31:24.267Z</time></trkpt><trkpt lat="44.11162" lon="11.5890267"><ele>809.0000000000001</ele><time>2026-04-12T09:31:26.267Z</time></trkpt><trkpt lat="44.11164" lon="11.5889317"><ele>809.0</ele><time>2026-04-12T09:31:29.267Z</time></trkpt><trkpt lat="44.111665" lon="11.5888283"><ele>805.0</ele><time>2026-04-12T09:31:32.267Z</time></trkpt><trkpt lat="44.1116883" lon="11.5887317"><ele>801.0</ele><time>2026-04-12T09:31:34.267Z</time></trkpt><trkpt lat="44.1117167" lon="11.5886017"><ele>797.0</ele><time>2026-04-12T09:31:36.267Z</time></trkpt><trkpt lat="44.11175" lon="11.5884683"><ele>793.0</ele><time>2026-04-12T09:31:38.268Z</time></trkpt><trkpt lat="44.1117567" lon="11.5883183"><ele>789.0</ele><time>2026-04-12T09:31:40.268Z</time></trkpt><trkpt lat="44.1117683" lon="11.588185"><ele>788.3333333333334</ele><time>2026-04-12T09:31:42.268Z</time></trkpt><trkpt lat="44.1118" lon="11.5880583"><ele>787.6666666666667</ele><time>2026-04-12T09:31:44.267Z</time></trkpt><trkpt lat="44.111835" lon="11.587955"><ele>787.0</ele><time>2026-04-12T09:31:46.268Z</time></trkpt><trkpt lat="44.1118517" lon="11.5878533"><ele>786.3333333333334</ele><time>2026-04-12T09:31:48.268Z</time></trkpt><trkpt lat="44.1118483" lon="11.5877217"><ele>785.6666666666667</ele><time>2026-04-12T09:31:50.266Z</time></trkpt><trkpt lat="44.1118667" lon="11.58762"><ele>785.0</ele><time>2026-04-12T09:31:52.267Z</time></trkpt><trkpt lat="44.1118633" lon="11.5875167"><ele>785.0000000000001</ele><time>2026-04-12T09:31:55.268Z</time></trkpt><trkpt lat="44.1118367" lon="11.587435"><ele>785.0</ele><time>2026-04-12T09:31:59.267Z</time></trkpt><trkpt lat="44.1117717" lon="11.5874583"><ele>785.0</ele><time>2026-04-12T09:32:10.268Z</time></trkpt><trkpt lat="44.1117467" lon="11.5875617"><ele>785.0</ele><time>2026-04-12T09:32:13.267Z</time></trkpt><trkpt lat="44.1117117" lon="11.58767"><ele>785.0000000000001</ele><time>2026-04-12T09:32:16.267Z</time></trkpt><trkpt lat="44.111695" lon="11.5877933"><ele>785.0</ele><time>2026-04-12T09:32:19.267Z</time></trkpt><trkpt lat="44.111675" lon="11.58789"><ele>785.0000000000001</ele><time>2026-04-12T09:32:21.267Z</time></trkpt><trkpt lat="44.1116733" lon="11.5879983"><ele>785.0</ele><time>2026-04-12T09:32:24.267Z</time></trkpt><trkpt lat="44.1116517" lon="11.5880917"><ele>785.0</ele><time>2026-04-12T09:32:26.267Z</time></trkpt><trkpt lat="44.11163" lon="11.5882583"><ele>785.0</ele><time>2026-04-12T09:32:50.267Z</time></trkpt><trkpt lat="44.11161" lon="11.5883417"><ele>785.0000000000001</ele><time>2026-04-12T09:32:52.267Z</time></trkpt><trkpt lat="44.1115933" lon="11.588445"><ele>785.0</ele><time>2026-04-12T09:32:54.267Z</time></trkpt><trkpt lat="44.1115767" lon="11.5885683"><ele>791.0</ele><time>2026-04-12T09:32:56.267Z</time></trkpt><trkpt lat="44.11154" lon="11.588715"><ele>797.0</ele><time>2026-04-12T09:32:58.268Z</time></trkpt><trkpt lat="44.1114783" lon="11.588845"><ele>803.0</ele><time>2026-04-12T09:33:00.267Z</time></trkpt><trkpt lat="44.1114183" lon="11.588995"><ele>809.0</ele><time>2026-04-12T09:33:02.267Z</time></trkpt><trkpt lat="44.1113783" lon="11.58915"><ele>809.0000000000001</ele><time>2026-04-12T09:33:04.267Z</time></trkpt><trkpt lat="44.111355" lon="11.5892533"><ele>809.0</ele><time>2026-04-12T09:33:05.267Z</time></trkpt><trkpt lat="44.1113283" lon="11.589335"><ele>809.0</ele><time>2026-04-12T09:33:06.267Z</time></trkpt><trkpt lat="44.1113017" lon="11.5894167"><ele>809.0</ele><time>2026-04-12T09:33:07.266Z</time></trkpt><trkpt lat="44.111275" lon="11.5895767"><ele>809.0000000000001</ele><time>2026-04-12T09:33:09.267Z</time></trkpt><trkpt lat="44.1112433" lon="11.5897383"><ele>809.0</ele><time>2026-04-12T09:33:11.267Z</time></trkpt><trkpt lat="44.11122" lon="11.58982"><ele>810.6666666666667</ele><time>2026-04-12T09:33:12.267Z</time></trkpt><trkpt lat="44.1112017" lon="11.589905"><ele>812.3333333333334</ele><time>2026-04-12T09:33:13.267Z</time></trkpt><trkpt lat="44.1111633" lon="11.58999"><ele>814.0</ele><time>2026-04-12T09:33:14.267Z</time></trkpt><trkpt lat="44.111095" lon="11.5901133"><ele>815.6666666666667</ele><time>2026-04-12T09:33:16.267Z</time></trkpt><trkpt lat="44.111055" lon="11.5901917"><ele>817.3333333333334</ele><time>2026-04-12T09:33:18.267Z</time></trkpt><trkpt lat="44.1109983" lon="11.5901467"><ele>819.0</ele><time>2026-04-12T09:33:32.267Z</time></trkpt><trkpt lat="44.1109217" lon="11.5901883"><ele>819.0</ele><time>2026-04-12T09:33:35.267Z</time></trkpt><trkpt lat="44.110865" lon="11.5902467"><ele>819.0</ele><time>2026-04-12T09:33:38.267Z</time></trkpt><trkpt lat="44.1109183" lon="11.5901667"><ele>819.0</ele><time>2026-04-12T09:33:42.267Z</time></trkpt><trkpt lat="44.11097" lon="11.59011"><ele>819.0</ele><time>2026-04-12T09:33:43.267Z</time></trkpt><trkpt lat="44.111055" lon="11.589995"><ele>819.0</ele><time>2026-04-12T09:33:45.268Z</time></trkpt><trkpt lat="44.1111233" lon="11.5898967"><ele>819.0</ele><time>2026-04-12T09:33:47.267Z</time></trkpt><trkpt lat="44.1111683" lon="11.5898233"><ele>819.0</ele><time>2026-04-12T09:33:49.268Z</time></trkpt><trkpt lat="44.1111067" lon="11.5897"><ele>819.0</ele><time>2026-04-12T09:33:57.267Z</time></trkpt><trkpt lat="44.1110883" lon="11.5896133"><ele>819.0</ele><time>2026-04-12T09:33:59.267Z</time></trkpt><trkpt lat="44.1110317" lon="11.589535"><ele>819.0</ele><time>2026-04-12T09:34:00.266Z</time></trkpt><trkpt lat="44.11098" lon="11.589395"><ele>819.0</ele><time>2026-04-12T09:34:02.267Z</time></trkpt><trkpt lat="44.1109367" lon="11.5892983"><ele>819.0</ele><time>2026-04-12T09:34:04.267Z</time></trkpt><trkpt lat="44.1108783" lon="11.589205"><ele>817.3333333333334</ele><time>2026-04-12T09:34:06.267Z</time></trkpt><trkpt lat="44.1107983" lon="11.58922"><ele>815.6666666666667</ele><time>2026-04-12T09:34:09.267Z</time></trkpt><trkpt lat="44.1107033" lon="11.589205"><ele>814.0</ele><time>2026-04-12T09:34:11.267Z</time></trkpt><trkpt lat="44.1106233" lon="11.58919"><ele>812.3333333333334</ele><time>2026-04-12T09:34:13.267Z</time></trkpt><trkpt lat="44.11053" lon="11.5891567"><ele>810.6666666666667</ele><time>2026-04-12T09:34:15.268Z</time></trkpt><trkpt lat="44.1104467" lon="11.5890983"><ele>809.0</ele><time>2026-04-12T09:34:17.266Z</time></trkpt><trkpt lat="44.1103883" lon="11.5889883"><ele>808.8000000000001</ele><time>2026-04-12T09:34:20.267Z</time></trkpt><trkpt lat="44.1103167" lon="11.5888717"><ele>808.6</ele><time>2026-04-12T09:34:22.267Z</time></trkpt><trkpt lat="44.1102633" lon="11.5887383"><ele>808.4</ele><time>2026-04-12T09:34:24.267Z</time></trkpt><trkpt lat="44.1102233" lon="11.5886183"><ele>808.2</ele><time>2026-04-12T09:34:26.267Z</time></trkpt><trkpt lat="44.1102" lon="11.5884733"><ele>808.0</ele><time>2026-04-12T09:34:28.268Z</time></trkpt><trkpt lat="44.11018" lon="11.5883267"><ele>809.8</ele><time>2026-04-12T09:34:30.268Z</time></trkpt><trkpt lat="44.11019" lon="11.5881883"><ele>811.5999999999999</ele><time>2026-04-12T09:34:32.267Z</time></trkpt><trkpt lat="44.110205" lon="11.5880467"><ele>813.4000000000001</ele><time>2026-04-12T09:34:34.268Z</time></trkpt><trkpt lat="44.1102217" lon="11.5878917"><ele>815.2</ele><time>2026-04-12T09:34:36.268Z</time></trkpt><trkpt lat="44.110235" lon="11.5877067"><ele>817.0</ele><time>2026-04-12T09:34:38.268Z</time></trkpt><trkpt lat="44.110235" lon="11.5876133"><ele>820.1666666666666</ele><time>2026-04-12T09:34:39.268Z</time></trkpt><trkpt lat="44.11022" lon="11.5874633"><ele>823.3333333333333</ele><time>2026-04-12T09:34:41.267Z</time></trkpt><trkpt lat="44.1102217" lon="11.5873667"><ele>826.5</ele><time>2026-04-12T09:34:43.268Z</time></trkpt><trkpt lat="44.110205" lon="11.5872783"><ele>829.6666666666667</ele><time>2026-04-12T09:34:45.269Z</time></trkpt><trkpt lat="44.1100983" lon="11.5872217"><ele>832.8333333333334</ele><time>2026-04-12T09:35:04.267Z</time></trkpt><trkpt lat="44.110025" lon="11.5871917"><ele>836.0</ele><time>2026-04-12T09:35:09.269Z</time></trkpt><trkpt lat="44.1099483" lon="11.58711"><ele>836.5000000000001</ele><time>2026-04-12T09:35:12.268Z</time></trkpt><trkpt lat="44.109885" lon="11.5870367"><ele>837.0</ele><time>2026-04-12T09:35:14.268Z</time></trkpt><trkpt lat="44.1098083" lon="11.5869667"><ele>837.5</ele><time>2026-04-12T09:35:16.268Z</time></trkpt><trkpt lat="44.1097367" lon="11.586915"><ele>838.0</ele><time>2026-04-12T09:35:18.27Z</time></trkpt><trkpt lat="44.1096767" lon="11.5868317"><ele>838.5000000000001</ele><time>2026-04-12T09:35:20.268Z</time></trkpt><trkpt lat="44.10963" lon="11.5867183"><ele>839.0</ele><time>2026-04-12T09:35:22.267Z</time></trkpt><trkpt lat="44.1095767" lon="11.5866117"><ele>839.0</ele><time>2026-04-12T09:35:24.267Z</time></trkpt><trkpt lat="44.1095" lon="11.58652"><ele>839.0</ele><time>2026-04-12T09:35:26.267Z</time></trkpt><trkpt lat="44.10945" lon="11.5864567"><ele>839.0</ele><time>2026-04-12T09:35:27.268Z</time></trkpt><trkpt lat="44.1093767" lon="11.586365"><ele>839.0</ele><time>2026-04-12T09:35:29.267Z</time></trkpt><trkpt lat="44.109325" lon="11.5862817"><ele>839.0</ele><time>2026-04-12T09:35:31.268Z</time></trkpt><trkpt lat="44.1092583" lon="11.5861333"><ele>838.8333333333334</ele><time>2026-04-12T09:35:34.268Z</time></trkpt><trkpt lat="44.1092217" lon="11.5860083"><ele>838.6666666666667</ele><time>2026-04-12T09:35:36.268Z</time></trkpt><trkpt lat="44.1091633" lon="11.5859317"><ele>838.5</ele><time>2026-04-12T09:35:38.269Z</time></trkpt><trkpt lat="44.10911" lon="11.5858433"><ele>838.3333333333333</ele><time>2026-04-12T09:35:40.268Z</time></trkpt><trkpt lat="44.10905" lon="11.585735"><ele>838.1666666666666</ele><time>2026-04-12T09:35:42.267Z</time></trkpt><trkpt lat="44.1090117" lon="11.5856267"><ele>838.0</ele><time>2026-04-12T09:35:44.268Z</time></trkpt><trkpt lat="44.1089533" lon="11.5855317"><ele>839.0</ele><time>2026-04-12T09:35:46.269Z</time></trkpt><trkpt lat="44.1088483" lon="11.5853833"><ele>840.0</ele><time>2026-04-12T09:35:48.269Z</time></trkpt><trkpt lat="44.1089333" lon="11.5852"><ele>841.0</ele><time>2026-04-12T09:35:49.268Z</time></trkpt><trkpt lat="44.1089583" lon="11.5850733"><ele>842.0</ele><time>2026-04-12T09:35:50.269Z</time></trkpt><trkpt lat="44.1089517" lon="11.5849683"><ele>842.3333333333334</ele><time>2026-04-12T09:35:52.267Z</time></trkpt><trkpt lat="44.1089567" lon="11.5848133"><ele>842.6666666666667</ele><time>2026-04-12T09:36:04.268Z</time></trkpt><trkpt lat="44.10888" lon="11.58474"><ele>843.0</ele><time>2026-04-12T09:37:26.266Z</time></trkpt><trkpt lat="44.10885" lon="11.58464"><ele>843.3333333333333</ele><time>2026-04-12T09:37:29.267Z</time></trkpt><trkpt lat="44.10888" lon="11.58454"><ele>843.6666666666666</ele><time>2026-04-12T09:37:53.266Z</time></trkpt><trkpt lat="44.10894" lon="11.5844567"><ele>844.0</ele><time>2026-04-12T09:37:55.268Z</time></trkpt><trkpt lat="44.1089867" lon="11.5843933"><ele>844.1666666666666</ele><time>2026-04-12T09:37:56.266Z</time></trkpt><trkpt lat="44.1090767" lon="11.5842533"><ele>844.3333333333333</ele><time>2026-04-12T09:37:58.267Z</time></trkpt><trkpt lat="44.1091217" lon="11.5841733"><ele>844.5</ele><time>2026-04-12T09:37:59.267Z</time></trkpt><trkpt lat="44.1091667" lon="11.5841033"><ele>844.6666666666667</ele><time>2026-04-12T09:38:00.267Z</time></trkpt><trkpt lat="44.1092083" lon="11.584025"><ele>844.8333333333334</ele><time>2026-04-12T09:38:01.268Z</time></trkpt><trkpt lat="44.1092533" lon="11.5839483"><ele>845.0</ele><time>2026-04-12T09:38:02.265Z</time></trkpt><trkpt lat="44.1093" lon="11.5838867"><ele>845.0000000000001</ele><time>2026-04-12T09:38:03.268Z</time></trkpt><trkpt lat="44.10935" lon="11.5838233"><ele>845.0</ele><time>2026-04-12T09:38:04.267Z</time></trkpt><trkpt lat="44.1094083" lon="11.5837517"><ele>845.0</ele><time>2026-04-12T09:38:05.267Z</time></trkpt><trkpt lat="44.1094533" lon="11.5836883"><ele>845.0</ele><time>2026-04-12T09:38:06.266Z</time></trkpt><trkpt lat="44.10951" lon="11.5835533"><ele>845.0000000000001</ele><time>2026-04-12T09:38:08.266Z</time></trkpt><trkpt lat="44.1095417" lon="11.58339"><ele>845.0</ele><time>2026-04-12T09:38:10.266Z</time></trkpt><trkpt lat="44.10956" lon="11.5832983"><ele>845.3333333333334</ele><time>2026-04-12T09:38:11.268Z</time></trkpt><trkpt lat="44.109585" lon="11.5831933"><ele>845.6666666666667</ele><time>2026-04-12T09:38:12.267Z</time></trkpt><trkpt lat="44.10961" lon="11.5830967"><ele>846.0</ele><time>2026-04-12T09:38:13.268Z</time></trkpt><trkpt lat="44.1096467" lon="11.5829867"><ele>846.3333333333333</ele><time>2026-04-12T09:38:14.266Z</time></trkpt><trkpt lat="44.1096917" lon="11.5829017"><ele>846.6666666666666</ele><time>2026-04-12T09:38:15.267Z</time></trkpt><trkpt lat="44.1097417" lon="11.58283"><ele>847.0</ele><time>2026-04-12T09:38:16.268Z</time></trkpt><trkpt lat="44.1097917" lon="11.58276"><ele>846.8571428571429</ele><time>2026-04-12T09:38:17.267Z</time></trkpt><trkpt lat="44.109835" lon="11.582685"><ele>846.7142857142858</ele><time>2026-04-12T09:38:18.266Z</time></trkpt><trkpt lat="44.1098767" lon="11.582595"><ele>846.5714285714286</ele><time>2026-04-12T09:38:19.267Z</time></trkpt><trkpt lat="44.1099067" lon="11.5825"><ele>846.4285714285714</ele><time>2026-04-12T09:38:20.266Z</time></trkpt><trkpt lat="44.1099217" lon="11.5823933"><ele>846.2857142857143</ele><time>2026-04-12T09:38:21.266Z</time></trkpt><trkpt lat="44.1099317" lon="11.5823"><ele>846.1428571428571</ele><time>2026-04-12T09:38:22.266Z</time></trkpt><trkpt lat="44.1099383" lon="11.582195"><ele>846.0</ele><time>2026-04-12T09:38:23.266Z</time></trkpt><trkpt lat="44.1099533" lon="11.5820817"><ele>842.1666666666666</ele><time>2026-04-12T09:38:24.266Z</time></trkpt><trkpt lat="44.1099717" lon="11.5819733"><ele>838.3333333333333</ele><time>2026-04-12T09:38:25.267Z</time></trkpt><trkpt lat="44.1099967" lon="11.58186"><ele>834.5</ele><time>2026-04-12T09:38:26.267Z</time></trkpt><trkpt lat="44.1100283" lon="11.5817667"><ele>830.6666666666666</ele><time>2026-04-12T09:38:27.267Z</time></trkpt><trkpt lat="44.1100567" lon="11.5816817"><ele>826.8333333333333</ele><time>2026-04-12T09:38:28.267Z</time></trkpt><trkpt lat="44.1100767" lon="11.581595"><ele>823.0</ele><time>2026-04-12T09:38:29.266Z</time></trkpt><trkpt lat="44.1101033" lon="11.5814917"><ele>822.9999999999999</ele><time>2026-04-12T09:38:31.267Z</time></trkpt><trkpt lat="44.1101533" lon="11.58143"><ele>823.0</ele><time>2026-04-12T09:38:34.267Z</time></trkpt><trkpt lat="44.1101283" lon="11.581325"><ele>823.0</ele><time>2026-04-12T09:38:36.267Z</time></trkpt><trkpt lat="44.1101083" lon="11.5812267"><ele>823.0</ele><time>2026-04-12T09:38:38.266Z</time></trkpt><trkpt lat="44.1100417" lon="11.5811583"><ele>822.9999999999999</ele><time>2026-04-12T09:38:39.267Z</time></trkpt><trkpt lat="44.1100833" lon="11.5810033"><ele>823.0</ele><time>2026-04-12T09:38:43.267Z</time></trkpt><trkpt lat="44.11013" lon="11.5808867"><ele>821.3333333333333</ele><time>2026-04-12T09:38:44.265Z</time></trkpt><trkpt lat="44.1100883" lon="11.5809567"><ele>819.6666666666666</ele><time>2026-04-12T09:38:47.267Z</time></trkpt><trkpt lat="44.1100217" lon="11.5810117"><ele>818.0</ele><time>2026-04-12T09:38:50.268Z</time></trkpt><trkpt lat="44.1099567" lon="11.5809983"><ele>816.3333333333333</ele><time>2026-04-12T09:38:52.266Z</time></trkpt><trkpt lat="44.1098917" lon="11.5810817"><ele>814.6666666666666</ele><time>2026-04-12T09:38:55.267Z</time></trkpt><trkpt lat="44.1098583" lon="11.5811817"><ele>813.0</ele><time>2026-04-12T09:38:57.267Z</time></trkpt><trkpt lat="44.1098267" lon="11.5813117"><ele>813.0</ele><time>2026-04-12T09:38:59.266Z</time></trkpt><trkpt lat="44.1098817" lon="11.5811983"><ele>813.0</ele><time>2026-04-12T09:39:14.266Z</time></trkpt><trkpt lat="44.1099283" lon="11.58111"><ele>813.0</ele><time>2026-04-12T09:39:16.266Z</time></trkpt><trkpt lat="44.1099433" lon="11.58102"><ele>813.0</ele><time>2026-04-12T09:39:19.267Z</time></trkpt><trkpt lat="44.10989" lon="11.5809633"><ele>813.0</ele><time>2026-04-12T09:39:22.266Z</time></trkpt><trkpt lat="44.1098233" lon="11.5809833"><ele>813.0</ele><time>2026-04-12T09:39:25.267Z</time></trkpt><trkpt lat="44.1098633" lon="11.58107"><ele>813.0</ele><time>2026-04-12T09:39:30.266Z</time></trkpt><trkpt lat="44.1099283" lon="11.5810783"><ele>813.0</ele><time>2026-04-12T09:39:33.269Z</time></trkpt><trkpt lat="44.11" lon="11.5810567"><ele>813.0</ele><time>2026-04-12T09:39:42.266Z</time></trkpt><trkpt lat="44.1099633" lon="11.5809533"><ele>813.0</ele><time>2026-04-12T09:39:45.267Z</time></trkpt><trkpt lat="44.109865" lon="11.580915"><ele>813.0</ele><time>2026-04-12T09:39:47.266Z</time></trkpt><trkpt lat="44.1098017" lon="11.58092"><ele>813.0</ele><time>2026-04-12T09:39:48.267Z</time></trkpt><trkpt lat="44.10971" lon="11.5809417"><ele>811.4</ele><time>2026-04-12T09:39:50.267Z</time></trkpt><trkpt lat="44.1096483" lon="11.5809167"><ele>809.8</ele><time>2026-04-12T09:41:07.267Z</time></trkpt><trkpt lat="44.1095733" lon="11.5809617"><ele>808.2</ele><time>2026-04-12T09:41:10.267Z</time></trkpt><trkpt lat="44.1095167" lon="11.5811017"><ele>806.6</ele><time>2026-04-12T09:41:12.267Z</time></trkpt><trkpt lat="44.1094417" lon="11.58129"><ele>805.0</ele><time>2026-04-12T09:41:13.267Z</time></trkpt><trkpt lat="44.1094067" lon="11.58142"><ele>805.0</ele><time>2026-04-12T09:41:14.267Z</time></trkpt><trkpt lat="44.10939" lon="11.581525"><ele>805.0</ele><time>2026-04-12T09:41:15.267Z</time></trkpt><trkpt lat="44.10939" lon="11.5816333"><ele>805.0</ele><time>2026-04-12T09:41:16.267Z</time></trkpt><trkpt lat="44.1093867" lon="11.5817317"><ele>805.0</ele><time>2026-04-12T09:41:17.265Z</time></trkpt><trkpt lat="44.10938" lon="11.5818217"><ele>805.0</ele><time>2026-04-12T09:41:18.266Z</time></trkpt><trkpt lat="44.10937" lon="11.581915"><ele>805.0</ele><time>2026-04-12T09:41:19.267Z</time></trkpt><trkpt lat="44.1093517" lon="11.582015"><ele>805.0</ele><time>2026-04-12T09:41:20.267Z</time></trkpt><trkpt lat="44.10932" lon="11.5820967"><ele>803.6666666666666</ele><time>2026-04-12T09:41:21.266Z</time></trkpt><trkpt lat="44.1092783" lon="11.582175"><ele>802.3333333333333</ele><time>2026-04-12T09:41:22.268Z</time></trkpt><trkpt lat="44.1092267" lon="11.58224"><ele>801.0</ele><time>2026-04-12T09:41:23.266Z</time></trkpt><trkpt lat="44.1091717" lon="11.582295"><ele>799.6666666666667</ele><time>2026-04-12T09:41:24.267Z</time></trkpt><trkpt lat="44.1090817" lon="11.5824183"><ele>798.3333333333334</ele><time>2026-04-12T09:41:26.267Z</time></trkpt><trkpt lat="44.1090467" lon="11.5824967"><ele>797.0</ele><time>2026-04-12T09:41:27.268Z</time></trkpt><trkpt lat="44.1090233" lon="11.582585"><ele>797.0</ele><time>2026-04-12T09:41:28.267Z</time></trkpt><trkpt lat="44.109015" lon="11.582675"><ele>797.0</ele><time>2026-04-12T09:41:29.266Z</time></trkpt><trkpt lat="44.109005" lon="11.5827733"><ele>797.0</ele><time>2026-04-12T09:41:30.266Z</time></trkpt><trkpt lat="44.10899" lon="11.582935"><ele>797.0</ele><time>2026-04-12T09:41:32.266Z</time></trkpt><trkpt lat="44.1089567" lon="11.5830817"><ele>797.0</ele><time>2026-04-12T09:41:34.267Z</time></trkpt><trkpt lat="44.108865" lon="11.5831833"><ele>801.6666666666667</ele><time>2026-04-12T09:41:36.267Z</time></trkpt><trkpt lat="44.108785" lon="11.583285"><ele>806.3333333333334</ele><time>2026-04-12T09:41:38.268Z</time></trkpt><trkpt lat="44.1087417" lon="11.583355"><ele>811.0</ele><time>2026-04-12T09:41:39.268Z</time></trkpt><trkpt lat="44.1087033" lon="11.58344"><ele>815.6666666666667</ele><time>2026-04-12T09:41:40.269Z</time></trkpt><trkpt lat="44.10866" lon="11.5835233"><ele>820.3333333333334</ele><time>2026-04-12T09:41:41.268Z</time></trkpt><trkpt lat="44.1085967" lon="11.5836667"><ele>825.0</ele><time>2026-04-12T09:41:43.269Z</time></trkpt><trkpt lat="44.1085233" lon="11.5837967"><ele>827.0</ele><time>2026-04-12T09:41:45.268Z</time></trkpt><trkpt lat="44.1084383" lon="11.58392"><ele>829.0</ele><time>2026-04-12T09:41:47.267Z</time></trkpt><trkpt lat="44.1083833" lon="11.584015"><ele>831.0</ele><time>2026-04-12T09:41:49.271Z</time></trkpt><trkpt lat="44.108395" lon="11.5841067"><ele>833.0</ele><time>2026-04-12T09:41:52.267Z</time></trkpt><trkpt lat="44.1083517" lon="11.5841933"><ele>835.0</ele><time>2026-04-12T09:41:58.266Z</time></trkpt><trkpt lat="44.1083683" lon="11.5842783"><ele>837.0</ele><time>2026-04-12T09:42:22.267Z</time></trkpt><trkpt lat="44.108395" lon="11.58438"><ele>837.0</ele><time>2026-04-12T09:42:26.267Z</time></trkpt><trkpt lat="44.1084133" lon="11.584485"><ele>837.0</ele><time>2026-04-12T09:42:31.268Z</time></trkpt><trkpt lat="44.1084417" lon="11.5845867"><ele>837.0</ele><time>2026-04-12T09:42:36.267Z</time></trkpt><trkpt lat="44.1085017" lon="11.5846567"><ele>837.0</ele><time>2026-04-12T09:42:38.267Z</time></trkpt><trkpt lat="44.1085317" lon="11.584785"><ele>837.0</ele><time>2026-04-12T09:42:41.267Z</time></trkpt><trkpt lat="44.1085383" lon="11.5848917"><ele>837.0</ele><time>2026-04-12T09:42:43.266Z</time></trkpt><trkpt lat="44.1085467" lon="11.58502"><ele>838.0</ele><time>2026-04-12T09:42:45.267Z</time></trkpt><trkpt lat="44.1085483" lon="11.5851683"><ele>839.0</ele><time>2026-04-12T09:42:47.267Z</time></trkpt><trkpt lat="44.1085517" lon="11.585265"><ele>840.0</ele><time>2026-04-12T09:42:48.268Z</time></trkpt><trkpt lat="44.1086067" lon="11.585375"><ele>841.0</ele><time>2026-04-12T09:42:50.267Z</time></trkpt><trkpt lat="44.1086617" lon="11.5854633"><ele>842.0</ele><time>2026-04-12T09:42:52.267Z</time></trkpt><trkpt lat="44.1087067" lon="11.5855833"><ele>842.0</ele><time>2026-04-12T09:42:54.267Z</time></trkpt><trkpt lat="44.1087583" lon="11.585735"><ele>842.0</ele><time>2026-04-12T09:42:56.268Z</time></trkpt><trkpt lat="44.1088083" lon="11.5858917"><ele>842.0</ele><time>2026-04-12T09:42:58.268Z</time></trkpt><trkpt lat="44.108855" lon="11.5859967"><ele>842.0</ele><time>2026-04-12T09:43:00.268Z</time></trkpt><trkpt lat="44.1089017" lon="11.5861217"><ele>842.0</ele><time>2026-04-12T09:43:02.268Z</time></trkpt><trkpt lat="44.1089117" lon="11.5862117"><ele>841.5000000000001</ele><time>2026-04-12T09:43:03.268Z</time></trkpt><trkpt lat="44.10895" lon="11.5863283"><ele>841.0</ele><time>2026-04-12T09:43:04.268Z</time></trkpt><trkpt lat="44.1089983" lon="11.5864717"><ele>840.5</ele><time>2026-04-12T09:43:06.267Z</time></trkpt><trkpt lat="44.1090583" lon="11.5865467"><ele>840.0</ele><time>2026-04-12T09:43:08.267Z</time></trkpt><trkpt lat="44.1091133" lon="11.5866133"><ele>839.5000000000001</ele><time>2026-04-12T09:43:12.266Z</time></trkpt><trkpt lat="44.1091533" lon="11.5866967"><ele>839.0</ele><time>2026-04-12T09:43:16.267Z</time></trkpt><trkpt lat="44.1091683" lon="11.58681"><ele>839.0</ele><time>2026-04-12T09:43:18.266Z</time></trkpt><trkpt lat="44.109175" lon="11.58692"><ele>839.0</ele><time>2026-04-12T09:43:20.266Z</time></trkpt><trkpt lat="44.109235" lon="11.5870317"><ele>839.0</ele><time>2026-04-12T09:43:22.268Z</time></trkpt><trkpt lat="44.10927" lon="11.58717"><ele>839.0</ele><time>2026-04-12T09:43:24.266Z</time></trkpt><trkpt lat="44.109325" lon="11.5872467"><ele>839.0</ele><time>2026-04-12T09:43:25.267Z</time></trkpt><trkpt lat="44.109305" lon="11.5874017"><ele>834.6</ele><time>2026-04-12T09:43:27.268Z</time></trkpt><trkpt lat="44.109295" lon="11.5875517"><ele>830.2</ele><time>2026-04-12T09:43:29.268Z</time></trkpt><trkpt lat="44.10928" lon="11.5876933"><ele>825.8000000000001</ele><time>2026-04-12T09:43:31.268Z</time></trkpt><trkpt lat="44.1092467" lon="11.587855"><ele>821.4000000000001</ele><time>2026-04-12T09:43:33.268Z</time></trkpt><trkpt lat="44.109225" lon="11.588"><ele>817.0</ele><time>2026-04-12T09:43:35.267Z</time></trkpt><trkpt lat="44.10926" lon="11.58814"><ele>808.25</ele><time>2026-04-12T09:43:37.266Z</time></trkpt><trkpt lat="44.1092867" lon="11.58831"><ele>799.5</ele><time>2026-04-12T09:43:39.269Z</time></trkpt><trkpt lat="44.1093167" lon="11.58845"><ele>790.75</ele><time>2026-04-12T09:43:40.267Z</time></trkpt><trkpt lat="44.1093517" lon="11.5885817"><ele>782.0</ele><time>2026-04-12T09:43:41.266Z</time></trkpt><trkpt lat="44.1094683" lon="11.5887233"><ele>777.75</ele><time>2026-04-12T09:43:42.267Z</time></trkpt><trkpt lat="44.1095783" lon="11.5888067"><ele>773.5</ele><time>2026-04-12T09:43:43.268Z</time></trkpt><trkpt lat="44.1095767" lon="11.588965"><ele>769.25</ele><time>2026-04-12T09:43:44.266Z</time></trkpt><trkpt lat="44.1096417" lon="11.589055"><ele>765.0</ele><time>2026-04-12T09:43:45.268Z</time></trkpt><trkpt lat="44.1099367" lon="11.5892267"><ele>775.75</ele><time>2026-04-12T09:43:46.267Z</time></trkpt><trkpt lat="44.1100017" lon="11.5893"><ele>786.5</ele><time>2026-04-12T09:43:47.266Z</time></trkpt><trkpt lat="44.110085" lon="11.5893683"><ele>797.25</ele><time>2026-04-12T09:43:48.267Z</time></trkpt><trkpt lat="44.1103117" lon="11.5894817"><ele>808.0</ele><time>2026-04-12T09:43:50.267Z</time></trkpt><trkpt lat="44.1103683" lon="11.5894383"><ele>808.0</ele><time>2026-04-12T09:43:51.267Z</time></trkpt><trkpt lat="44.1104917" lon="11.5894467"><ele>808.0</ele><time>2026-04-12T09:43:53.267Z</time></trkpt><trkpt lat="44.110585" lon="11.5895033"><ele>808.0</ele><time>2026-04-12T09:43:55.267Z</time></trkpt><trkpt lat="44.1106533" lon="11.589645"><ele>808.0</ele><time>2026-04-12T09:43:57.267Z</time></trkpt><trkpt lat="44.1106883" lon="11.5897983"><ele>808.4</ele><time>2026-04-12T09:43:59.266Z</time></trkpt><trkpt lat="44.1106917" lon="11.5899633"><ele>808.8</ele><time>2026-04-12T09:44:01.266Z</time></trkpt><trkpt lat="44.1107183" lon="11.5901217"><ele>809.2</ele><time>2026-04-12T09:44:03.267Z</time></trkpt><trkpt lat="44.110705" lon="11.59022"><ele>809.6</ele><time>2026-04-12T09:44:04.267Z</time></trkpt><trkpt lat="44.1106767" lon="11.590365"><ele>810.0</ele><time>2026-04-12T09:44:06.265Z</time></trkpt><trkpt lat="44.1106" lon="11.5904683"><ele>808.8333333333334</ele><time>2026-04-12T09:44:08.267Z</time></trkpt><trkpt lat="44.110525" lon="11.5905533"><ele>807.6666666666667</ele><time>2026-04-12T09:44:10.269Z</time></trkpt><trkpt lat="44.110435" lon="11.5906083"><ele>806.5</ele><time>2026-04-12T09:44:12.267Z</time></trkpt><trkpt lat="44.1105" lon="11.5906733"><ele>805.3333333333334</ele><time>2026-04-12T09:44:14.267Z</time></trkpt><trkpt lat="44.1105817" lon="11.5906617"><ele>804.1666666666667</ele><time>2026-04-12T09:44:15.267Z</time></trkpt><trkpt lat="44.1104917" lon="11.5906583"><ele>803.0</ele><time>2026-04-12T09:44:17.266Z</time></trkpt><trkpt lat="44.11038" lon="11.59068"><ele>803.0</ele><time>2026-04-12T09:44:19.267Z</time></trkpt><trkpt lat="44.110275" lon="11.5906683"><ele>803.0</ele><time>2026-04-12T09:44:21.267Z</time></trkpt><trkpt lat="44.1101833" lon="11.5906667"><ele>803.0</ele><time>2026-04-12T09:44:23.267Z</time></trkpt><trkpt lat="44.110115" lon="11.5906733"><ele>803.0</ele><time>2026-04-12T09:44:25.269Z</time></trkpt><trkpt lat="44.1100233" lon="11.5907033"><ele>803.0</ele><time>2026-04-12T09:44:27.267Z</time></trkpt><trkpt lat="44.10993" lon="11.5907667"><ele>797.0</ele><time>2026-04-12T09:44:29.267Z</time></trkpt><trkpt lat="44.1098683" lon="11.590875"><ele>791.0</ele><time>2026-04-12T09:44:31.266Z</time></trkpt><trkpt lat="44.10983" lon="11.5910233"><ele>785.0</ele><time>2026-04-12T09:44:33.268Z</time></trkpt><trkpt lat="44.1098117" lon="11.5911083"><ele>779.0</ele><time>2026-04-12T09:44:34.267Z</time></trkpt><trkpt lat="44.1097967" lon="11.5911967"><ele>773.0</ele><time>2026-04-12T09:44:35.266Z</time></trkpt><trkpt lat="44.1097733" lon="11.5913533"><ele>773.0</ele><time>2026-04-12T09:44:37.265Z</time></trkpt><trkpt lat="44.10972" lon="11.5914767"><ele>773.0</ele><time>2026-04-12T09:44:39.268Z</time></trkpt><trkpt lat="44.109655" lon="11.5916017"><ele>773.0</ele><time>2026-04-12T09:44:41.267Z</time></trkpt><trkpt lat="44.1095833" lon="11.591695"><ele>773.0</ele><time>2026-04-12T09:44:43.268Z</time></trkpt><trkpt lat="44.1095033" lon="11.591795"><ele>773.0</ele><time>2026-04-12T09:44:45.268Z</time></trkpt><trkpt lat="44.109465" lon="11.5919083"><ele>771.8</ele><time>2026-04-12T09:44:47.268Z</time></trkpt><trkpt lat="44.109475" lon="11.592045"><ele>770.5999999999999</ele><time>2026-04-12T09:44:49.268Z</time></trkpt><trkpt lat="44.1095217" lon="11.5921917"><ele>769.4000000000001</ele><time>2026-04-12T09:44:51.268Z</time></trkpt><trkpt lat="44.1095667" lon="11.5923167"><ele>768.2</ele><time>2026-04-12T09:44:53.267Z</time></trkpt><trkpt lat="44.1095983" lon="11.59248"><ele>767.0</ele><time>2026-04-12T09:44:55.268Z</time></trkpt><trkpt lat="44.109635" lon="11.59264"><ele>767.0</ele><time>2026-04-12T09:44:57.268Z</time></trkpt><trkpt lat="44.1096467" lon="11.5927317"><ele>767.0</ele><time>2026-04-12T09:44:58.267Z</time></trkpt><trkpt lat="44.1096633" lon="11.5928267"><ele>767.0</ele><time>2026-04-12T09:44:59.267Z</time></trkpt><trkpt lat="44.1096767" lon="11.5929317"><ele>767.0</ele><time>2026-04-12T09:45:00.267Z</time></trkpt><trkpt lat="44.1096917" lon="11.59302"><ele>767.0</ele><time>2026-04-12T09:45:01.269Z</time></trkpt><trkpt lat="44.109705" lon="11.593115"><ele>767.0</ele><time>2026-04-12T09:45:02.267Z</time></trkpt><trkpt lat="44.1097183" lon="11.5932217"><ele>767.0</ele><time>2026-04-12T09:45:03.266Z</time></trkpt><trkpt lat="44.1097233" lon="11.5933383"><ele>765.6</ele><time>2026-04-12T09:45:04.266Z</time></trkpt><trkpt lat="44.1097233" lon="11.5934717"><ele>764.2</ele><time>2026-04-12T09:45:05.267Z</time></trkpt><trkpt lat="44.1097067" lon="11.5936167"><ele>762.8</ele><time>2026-04-12T09:45:06.267Z</time></trkpt><trkpt lat="44.1096733" lon="11.5937617"><ele>761.4</ele><time>2026-04-12T09:45:07.267Z</time></trkpt><trkpt lat="44.109625" lon="11.5939083"><ele>760.0</ele><time>2026-04-12T09:45:08.266Z</time></trkpt><trkpt lat="44.109585" lon="11.5940567"><ele>760.0</ele><time>2026-04-12T09:45:09.266Z</time></trkpt><trkpt lat="44.1095467" lon="11.5942083"><ele>760.0</ele><time>2026-04-12T09:45:10.265Z</time></trkpt><trkpt lat="44.10952" lon="11.5943567"><ele>760.0</ele><time>2026-04-12T09:45:11.266Z</time></trkpt><trkpt lat="44.10949" lon="11.5944883"><ele>760.0</ele><time>2026-04-12T09:45:12.266Z</time></trkpt><trkpt lat="44.1094583" lon="11.59461"><ele>760.0</ele><time>2026-04-12T09:45:13.267Z</time></trkpt><trkpt lat="44.10943" lon="11.5947133"><ele>759.6666666666667</ele><time>2026-04-12T09:45:14.266Z</time></trkpt><trkpt lat="44.1093983" lon="11.59482"><ele>759.3333333333334</ele><time>2026-04-12T09:45:15.266Z</time></trkpt><trkpt lat="44.1093533" lon="11.594915"><ele>759.0</ele><time>2026-04-12T09:45:16.266Z</time></trkpt><trkpt lat="44.1092933" lon="11.5949867"><ele>758.6666666666666</ele><time>2026-04-12T09:45:17.267Z</time></trkpt><trkpt lat="44.1092317" lon="11.5950533"><ele>758.3333333333333</ele><time>2026-04-12T09:45:18.265Z</time></trkpt><trkpt lat="44.109165" lon="11.59509"><ele>758.0</ele><time>2026-04-12T09:45:19.267Z</time></trkpt><trkpt lat="44.1091017" lon="11.5951017"><ele>757.6666666666666</ele><time>2026-04-12T09:45:20.266Z</time></trkpt><trkpt lat="44.109025" lon="11.5950833"><ele>757.3333333333333</ele><time>2026-04-12T09:45:21.267Z</time></trkpt><trkpt lat="44.10894" lon="11.5950283"><ele>757.0</ele><time>2026-04-12T09:45:22.266Z</time></trkpt><trkpt lat="44.1088583" lon="11.5949983"><ele>756.6666666666666</ele><time>2026-04-12T09:45:23.267Z</time></trkpt><trkpt lat="44.10878" lon="11.5950083"><ele>756.3333333333334</ele><time>2026-04-12T09:45:24.266Z</time></trkpt><trkpt lat="44.108705" lon="11.5950383"><ele>756.0</ele><time>2026-04-12T09:45:25.266Z</time></trkpt><trkpt lat="44.1086417" lon="11.5950617"><ele>756.0</ele><time>2026-04-12T09:45:26.266Z</time></trkpt><trkpt lat="44.1085767" lon="11.5951433"><ele>756.0</ele><time>2026-04-12T09:45:27.267Z</time></trkpt><trkpt lat="44.1085233" lon="11.5952417"><ele>756.0</ele><time>2026-04-12T09:45:28.266Z</time></trkpt><trkpt lat="44.1084983" lon="11.5953583"><ele>756.0</ele><time>2026-04-12T09:45:29.266Z</time></trkpt><trkpt lat="44.108475" lon="11.5954867"><ele>756.0</ele><time>2026-04-12T09:45:30.266Z</time></trkpt><trkpt lat="44.10848" lon="11.5956083"><ele>756.0</ele><time>2026-04-12T09:45:31.267Z</time></trkpt><trkpt lat="44.1085267" lon="11.59572"><ele>753.5</ele><time>2026-04-12T09:45:32.265Z</time></trkpt><trkpt lat="44.1085533" lon="11.5958033"><ele>751.0</ele><time>2026-04-12T09:45:33.266Z</time></trkpt><trkpt lat="44.1086283" lon="11.5959133"><ele>748.5</ele><time>2026-04-12T09:45:35.266Z</time></trkpt><trkpt lat="44.1086933" lon="11.5960183"><ele>746.0</ele><time>2026-04-12T09:45:37.266Z</time></trkpt><trkpt lat="44.1086983" lon="11.5961083"><ele>743.5</ele><time>2026-04-12T09:45:39.268Z</time></trkpt><trkpt lat="44.1086683" lon="11.5962117"><ele>741.0</ele><time>2026-04-12T09:45:41.268Z</time></trkpt><trkpt lat="44.1086483" lon="11.5963333"><ele>737.4</ele><time>2026-04-12T09:45:44.266Z</time></trkpt><trkpt lat="44.10865" lon="11.5964283"><ele>733.8</ele><time>2026-04-12T09:46:30.266Z</time></trkpt><trkpt lat="44.108645" lon="11.596525"><ele>730.1999999999999</ele><time>2026-04-12T09:46:32.267Z</time></trkpt><trkpt lat="44.10864" lon="11.5966683"><ele>726.5999999999999</ele><time>2026-04-12T09:46:34.265Z</time></trkpt><trkpt lat="44.1086667" lon="11.5968267"><ele>723.0</ele><time>2026-04-12T09:46:36.266Z</time></trkpt><trkpt lat="44.108705" lon="11.5969683"><ele>721.0</ele><time>2026-04-12T09:46:38.267Z</time></trkpt><trkpt lat="44.10872" lon="11.59713"><ele>719.0</ele><time>2026-04-12T09:46:40.266Z</time></trkpt><trkpt lat="44.1087083" lon="11.597295"><ele>717.0</ele><time>2026-04-12T09:46:42.266Z</time></trkpt><trkpt lat="44.108705" lon="11.5974567"><ele>715.0</ele><time>2026-04-12T09:46:44.267Z</time></trkpt><trkpt lat="44.1087383" lon="11.5976183"><ele>715.0</ele><time>2026-04-12T09:46:46.265Z</time></trkpt><trkpt lat="44.1087683" lon="11.597775"><ele>715.0</ele><time>2026-04-12T09:46:48.266Z</time></trkpt><trkpt lat="44.1087817" lon="11.5979317"><ele>715.0</ele><time>2026-04-12T09:46:50.266Z</time></trkpt><trkpt lat="44.1087533" lon="11.598045"><ele>715.0</ele><time>2026-04-12T09:46:52.266Z</time></trkpt><trkpt lat="44.1086883" lon="11.598135"><ele>715.0</ele><time>2026-04-12T09:46:54.267Z</time></trkpt><trkpt lat="44.1086133" lon="11.5982083"><ele>714.6666666666667</ele><time>2026-04-12T09:46:56.266Z</time></trkpt><trkpt lat="44.1085633" lon="11.598275"><ele>714.3333333333334</ele><time>2026-04-12T09:46:57.266Z</time></trkpt><trkpt lat="44.1084917" lon="11.5983483"><ele>714.0</ele><time>2026-04-12T09:46:58.266Z</time></trkpt><trkpt lat="44.10843" lon="11.598415"><ele>713.6666666666666</ele><time>2026-04-12T09:46:59.266Z</time></trkpt><trkpt lat="44.108365" lon="11.598495"><ele>713.3333333333333</ele><time>2026-04-12T09:47:00.266Z</time></trkpt><trkpt lat="44.108315" lon="11.5985717"><ele>713.0</ele><time>2026-04-12T09:47:01.266Z</time></trkpt><trkpt lat="44.1082733" lon="11.59864"><ele>711.2857142857142</ele><time>2026-04-12T09:47:02.266Z</time></trkpt><trkpt lat="44.1082317" lon="11.5987133"><ele>709.5714285714287</ele><time>2026-04-12T09:47:03.268Z</time></trkpt><trkpt lat="44.10821" lon="11.59881"><ele>707.8571428571429</ele><time>2026-04-12T09:47:04.266Z</time></trkpt><trkpt lat="44.1081967" lon="11.598905"><ele>706.1428571428571</ele><time>2026-04-12T09:47:05.266Z</time></trkpt><trkpt lat="44.108175" lon="11.5989917"><ele>704.4285714285713</ele><time>2026-04-12T09:47:06.267Z</time></trkpt><trkpt lat="44.1081467" lon="11.5991083"><ele>702.7142857142858</ele><time>2026-04-12T09:47:08.267Z</time></trkpt><trkpt lat="44.1081733" lon="11.5992067"><ele>701.0</ele><time>2026-04-12T09:47:10.266Z</time></trkpt><trkpt lat="44.1082283" lon="11.5992933"><ele>699.8333333333333</ele><time>2026-04-12T09:47:12.267Z</time></trkpt><trkpt lat="44.10831" lon="11.5993867"><ele>698.6666666666666</ele><time>2026-04-12T09:47:14.266Z</time></trkpt><trkpt lat="44.1083717" lon="11.599405"><ele>697.5</ele><time>2026-04-12T09:47:15.266Z</time></trkpt><trkpt lat="44.108435" lon="11.59942"><ele>696.3333333333334</ele><time>2026-04-12T09:47:16.267Z</time></trkpt><trkpt lat="44.108495" lon="11.59945"><ele>695.1666666666667</ele><time>2026-04-12T09:47:17.266Z</time></trkpt><trkpt lat="44.1085583" lon="11.5994783"><ele>694.0</ele><time>2026-04-12T09:47:18.266Z</time></trkpt><trkpt lat="44.1086733" lon="11.59957"><ele>694.0</ele><time>2026-04-12T09:47:20.267Z</time></trkpt><trkpt lat="44.1087283" lon="11.5996317"><ele>694.0</ele><time>2026-04-12T09:47:21.266Z</time></trkpt><trkpt lat="44.1087867" lon="11.599695"><ele>694.0</ele><time>2026-04-12T09:47:22.266Z</time></trkpt><trkpt lat="44.1088633" lon="11.5997683"><ele>694.0</ele><time>2026-04-12T09:47:23.266Z</time></trkpt><trkpt lat="44.10895" lon="11.5998233"><ele>694.0</ele><time>2026-04-12T09:47:24.267Z</time></trkpt><trkpt lat="44.1090367" lon="11.5998883"><ele>694.0</ele><time>2026-04-12T09:47:25.266Z</time></trkpt><trkpt lat="44.1091217" lon="11.5999583"><ele>692.5</ele><time>2026-04-12T09:47:26.267Z</time></trkpt><trkpt lat="44.1092" lon="11.6000133"><ele>691.0</ele><time>2026-04-12T09:47:27.267Z</time></trkpt><trkpt lat="44.1092883" lon="11.60008"><ele>689.5</ele><time>2026-04-12T09:47:28.266Z</time></trkpt><trkpt lat="44.1093667" lon="11.6001433"><ele>688.0</ele><time>2026-04-12T09:47:29.266Z</time></trkpt><trkpt lat="44.1094333" lon="11.600215"><ele>686.5</ele><time>2026-04-12T09:47:30.266Z</time></trkpt><trkpt lat="44.109485" lon="11.6003"><ele>685.0</ele><time>2026-04-12T09:47:31.267Z</time></trkpt><trkpt lat="44.109535" lon="11.600395"><ele>685.0</ele><time>2026-04-12T09:47:32.266Z</time></trkpt><trkpt lat="44.1095783" lon="11.6005"><ele>685.0</ele><time>2026-04-12T09:47:33.267Z</time></trkpt><trkpt lat="44.1096017" lon="11.6006267"><ele>685.0</ele><time>2026-04-12T09:47:34.267Z</time></trkpt><trkpt lat="44.1096333" lon="11.6007367"><ele>685.0</ele><time>2026-04-12T09:47:35.267Z</time></trkpt><trkpt lat="44.10964" lon="11.6008617"><ele>685.0</ele><time>2026-04-12T09:47:36.267Z</time></trkpt><trkpt lat="44.1096467" lon="11.6009717"><ele>685.0</ele><time>2026-04-12T09:47:37.266Z</time></trkpt><trkpt lat="44.1096167" lon="11.6011117"><ele>684.0</ele><time>2026-04-12T09:47:38.267Z</time></trkpt><trkpt lat="44.10957" lon="11.60124"><ele>683.0</ele><time>2026-04-12T09:47:39.267Z</time></trkpt><trkpt lat="44.1095483" lon="11.6013483"><ele>682.0</ele><time>2026-04-12T09:47:40.266Z</time></trkpt><trkpt lat="44.109525" lon="11.6014717"><ele>681.0</ele><time>2026-04-12T09:47:41.267Z</time></trkpt><trkpt lat="44.10951" lon="11.60157"><ele>680.0</ele><time>2026-04-12T09:47:42.267Z</time></trkpt><trkpt lat="44.1095133" lon="11.60167"><ele>679.0</ele><time>2026-04-12T09:47:43.267Z</time></trkpt><trkpt lat="44.10953" lon="11.6017683"><ele>679.0</ele><time>2026-04-12T09:47:44.269Z</time></trkpt><trkpt lat="44.1095567" lon="11.6018633"><ele>679.0</ele><time>2026-04-12T09:47:45.267Z</time></trkpt><trkpt lat="44.1095817" lon="11.6019617"><ele>679.0</ele><time>2026-04-12T09:47:46.266Z</time></trkpt><trkpt lat="44.1096083" lon="11.6020767"><ele>679.0</ele><time>2026-04-12T09:47:47.267Z</time></trkpt><trkpt lat="44.10963" lon="11.6021833"><ele>679.0</ele><time>2026-04-12T09:47:48.266Z</time></trkpt><trkpt lat="44.1096533" lon="11.6022933"><ele>679.0</ele><time>2026-04-12T09:47:49.267Z</time></trkpt><trkpt lat="44.109675" lon="11.6024067"><ele>677.2</ele><time>2026-04-12T09:47:50.266Z</time></trkpt><trkpt lat="44.1096883" lon="11.6025183"><ele>675.4000000000001</ele><time>2026-04-12T09:47:51.267Z</time></trkpt><trkpt lat="44.1096983" lon="11.6026367"><ele>673.6</ele><time>2026-04-12T09:47:52.267Z</time></trkpt><trkpt lat="44.1097017" lon="11.6027483"><ele>671.8</ele><time>2026-04-12T09:47:53.266Z</time></trkpt><trkpt lat="44.1096933" lon="11.6028417"><ele>670.0</ele><time>2026-04-12T09:47:54.267Z</time></trkpt><trkpt lat="44.109665" lon="11.6030267"><ele>669.4</ele><time>2026-04-12T09:47:56.267Z</time></trkpt><trkpt lat="44.109655" lon="11.6031217"><ele>668.8</ele><time>2026-04-12T09:47:57.266Z</time></trkpt><trkpt lat="44.1096517" lon="11.6032167"><ele>668.2</ele><time>2026-04-12T09:47:58.266Z</time></trkpt><trkpt lat="44.109645" lon="11.603395"><ele>667.6</ele><time>2026-04-12T09:48:00.267Z</time></trkpt><trkpt lat="44.1096383" lon="11.6035317"><ele>667.0</ele><time>2026-04-12T09:48:02.266Z</time></trkpt><trkpt lat="44.1095983" lon="11.6036583"><ele>667.2</ele><time>2026-04-12T09:48:04.266Z</time></trkpt><trkpt lat="44.10952" lon="11.6037467"><ele>667.4000000000001</ele><time>2026-04-12T09:48:06.266Z</time></trkpt><trkpt lat="44.10942" lon="11.6038217"><ele>667.5999999999999</ele><time>2026-04-12T09:48:08.266Z</time></trkpt><trkpt lat="44.1093133" lon="11.603905"><ele>667.8</ele><time>2026-04-12T09:48:10.266Z</time></trkpt><trkpt lat="44.1092467" lon="11.6040133"><ele>668.0</ele><time>2026-04-12T09:48:12.267Z</time></trkpt><trkpt lat="44.1092367" lon="11.6041467"><ele>668.0</ele><time>2026-04-12T09:48:14.267Z</time></trkpt><trkpt lat="44.109265" lon="11.6042383"><ele>668.0</ele><time>2026-04-12T09:48:15.266Z</time></trkpt><trkpt lat="44.1092967" lon="11.6043383"><ele>668.0</ele><time>2026-04-12T09:48:16.266Z</time></trkpt><trkpt lat="44.109335" lon="11.6044483"><ele>668.0</ele><time>2026-04-12T09:48:17.266Z</time></trkpt><trkpt lat="44.109375" lon="11.604555"><ele>668.0</ele><time>2026-04-12T09:48:18.266Z</time></trkpt><trkpt lat="44.10942" lon="11.6046533"><ele>668.0</ele><time>2026-04-12T09:48:19.267Z</time></trkpt><trkpt lat="44.10946" lon="11.6047483"><ele>667.1666666666666</ele><time>2026-04-12T09:48:20.267Z</time></trkpt><trkpt lat="44.1095033" lon="11.60484"><ele>666.3333333333333</ele><time>2026-04-12T09:48:21.267Z</time></trkpt><trkpt lat="44.1095467" lon="11.6049317"><ele>665.5</ele><time>2026-04-12T09:48:22.266Z</time></trkpt><trkpt lat="44.1095883" lon="11.6050217"><ele>664.6666666666666</ele><time>2026-04-12T09:48:23.266Z</time></trkpt><trkpt lat="44.1096317" lon="11.605115"><ele>663.8333333333334</ele><time>2026-04-12T09:48:24.267Z</time></trkpt><trkpt lat="44.1096767" lon="11.6052133"><ele>663.0</ele><time>2026-04-12T09:48:25.266Z</time></trkpt><trkpt lat="44.1097267" lon="11.6053217"><ele>663.6666666666666</ele><time>2026-04-12T09:48:26.267Z</time></trkpt><trkpt lat="44.1097733" lon="11.60544"><ele>664.3333333333334</ele><time>2026-04-12T09:48:27.265Z</time></trkpt><trkpt lat="44.1098167" lon="11.6055583"><ele>665.0</ele><time>2026-04-12T09:48:28.266Z</time></trkpt><trkpt lat="44.109855" lon="11.6056683"><ele>665.6666666666667</ele><time>2026-04-12T09:48:29.266Z</time></trkpt><trkpt lat="44.1098967" lon="11.6057633"><ele>666.3333333333334</ele><time>2026-04-12T09:48:30.266Z</time></trkpt><trkpt lat="44.10994" lon="11.6058417"><ele>667.0</ele><time>2026-04-12T09:48:31.266Z</time></trkpt><trkpt lat="44.1099883" lon="11.605915"><ele>667.0</ele><time>2026-04-12T09:48:32.267Z</time></trkpt><trkpt lat="44.1100383" lon="11.6059783"><ele>667.0</ele><time>2026-04-12T09:48:33.266Z</time></trkpt><trkpt lat="44.1101167" lon="11.6060867"><ele>667.0</ele><time>2026-04-12T09:48:35.266Z</time></trkpt><trkpt lat="44.1101517" lon="11.6061783"><ele>667.0</ele><time>2026-04-12T09:48:37.266Z</time></trkpt><trkpt lat="44.110205" lon="11.6062867"><ele>667.0</ele><time>2026-04-12T09:52:34.267Z</time></trkpt><trkpt lat="44.1102567" lon="11.6064033"><ele>667.0</ele><time>2026-04-12T09:52:36.268Z</time></trkpt><trkpt lat="44.1103317" lon="11.606525"><ele>667.6666666666667</ele><time>2026-04-12T09:52:38.267Z</time></trkpt><trkpt lat="44.110425" lon="11.6065933"><ele>668.3333333333334</ele><time>2026-04-12T09:52:40.268Z</time></trkpt><trkpt lat="44.1105" lon="11.606615"><ele>669.0</ele><time>2026-04-12T09:52:41.267Z</time></trkpt><trkpt lat="44.1105817" lon="11.6066433"><ele>669.6666666666666</ele><time>2026-04-12T09:52:42.267Z</time></trkpt><trkpt lat="44.110665" lon="11.60667"><ele>670.3333333333333</ele><time>2026-04-12T09:52:43.268Z</time></trkpt><trkpt lat="44.1107483" lon="11.6066967"><ele>671.0</ele><time>2026-04-12T09:52:44.267Z</time></trkpt><trkpt lat="44.110835" lon="11.606715"><ele>672.1666666666666</ele><time>2026-04-12T09:52:45.267Z</time></trkpt><trkpt lat="44.1109117" lon="11.6067233"><ele>673.3333333333333</ele><time>2026-04-12T09:52:46.267Z</time></trkpt><trkpt lat="44.110985" lon="11.6067217"><ele>674.5</ele><time>2026-04-12T09:52:47.268Z</time></trkpt><trkpt lat="44.1110633" lon="11.6067067"><ele>675.6666666666666</ele><time>2026-04-12T09:52:48.267Z</time></trkpt><trkpt lat="44.1111433" lon="11.6066883"><ele>676.8333333333334</ele><time>2026-04-12T09:52:49.267Z</time></trkpt><trkpt lat="44.1112267" lon="11.606675"><ele>678.0</ele><time>2026-04-12T09:52:50.267Z</time></trkpt><trkpt lat="44.1113083" lon="11.606675"><ele>678.0</ele><time>2026-04-12T09:52:51.267Z</time></trkpt><trkpt lat="44.1113867" lon="11.6066867"><ele>678.0</ele><time>2026-04-12T09:52:52.268Z</time></trkpt><trkpt lat="44.1114583" lon="11.6067283"><ele>678.0</ele><time>2026-04-12T09:52:53.266Z</time></trkpt><trkpt lat="44.1115067" lon="11.6068033"><ele>678.0</ele><time>2026-04-12T09:52:54.268Z</time></trkpt><trkpt lat="44.1115517" lon="11.606885"><ele>678.0</ele><time>2026-04-12T09:52:55.267Z</time></trkpt><trkpt lat="44.1115983" lon="11.6069533"><ele>678.0</ele><time>2026-04-12T09:52:56.267Z</time></trkpt><trkpt lat="44.111695" lon="11.6070267"><ele>676.8</ele><time>2026-04-12T09:52:58.268Z</time></trkpt><trkpt lat="44.1118033" lon="11.606995"><ele>675.5999999999999</ele><time>2026-04-12T09:53:00.268Z</time></trkpt><trkpt lat="44.1118617" lon="11.6069483"><ele>674.4000000000001</ele><time>2026-04-12T09:53:01.267Z</time></trkpt><trkpt lat="44.111925" lon="11.6069017"><ele>673.2</ele><time>2026-04-12T09:53:02.267Z</time></trkpt><trkpt lat="44.1120033" lon="11.606845"><ele>672.0</ele><time>2026-04-12T09:53:03.267Z</time></trkpt><trkpt lat="44.11211" lon="11.606785"><ele>675.6</ele><time>2026-04-12T09:53:04.268Z</time></trkpt><trkpt lat="44.1121967" lon="11.606735"><ele>679.2</ele><time>2026-04-12T09:53:05.268Z</time></trkpt><trkpt lat="44.1122783" lon="11.6066767"><ele>682.8</ele><time>2026-04-12T09:53:06.268Z</time></trkpt><trkpt lat="44.1123583" lon="11.6066083"><ele>686.4</ele><time>2026-04-12T09:53:07.267Z</time></trkpt><trkpt lat="44.112425" lon="11.6065533"><ele>690.0</ele><time>2026-04-12T09:53:08.267Z</time></trkpt><trkpt lat="44.11253" lon="11.6064767"><ele>691.6666666666666</ele><time>2026-04-12T09:53:10.267Z</time></trkpt><trkpt lat="44.112595" lon="11.606535"><ele>693.3333333333334</ele><time>2026-04-12T09:53:12.268Z</time></trkpt><trkpt lat="44.1126283" lon="11.606615"><ele>695.0</ele><time>2026-04-12T09:53:13.268Z</time></trkpt><trkpt lat="44.112655" lon="11.6066967"><ele>696.6666666666667</ele><time>2026-04-12T09:53:14.267Z</time></trkpt><trkpt lat="44.1127167" lon="11.6068183"><ele>698.3333333333334</ele><time>2026-04-12T09:53:16.267Z</time></trkpt><trkpt lat="44.1127783" lon="11.6069483"><ele>700.0</ele><time>2026-04-12T09:53:18.267Z</time></trkpt><trkpt lat="44.1128483" lon="11.60699"><ele>701.7142857142857</ele><time>2026-04-12T09:53:20.268Z</time></trkpt><trkpt lat="44.1129167" lon="11.6070067"><ele>703.4285714285714</ele><time>2026-04-12T09:53:22.267Z</time></trkpt><trkpt lat="44.1129867" lon="11.6070383"><ele>705.1428571428571</ele><time>2026-04-12T09:53:24.267Z</time></trkpt><trkpt lat="44.1130517" lon="11.6070567"><ele>706.8571428571429</ele><time>2026-04-12T09:53:26.267Z</time></trkpt><trkpt lat="44.113135" lon="11.6070917"><ele>708.5714285714286</ele><time>2026-04-12T09:53:29.268Z</time></trkpt><trkpt lat="44.1132017" lon="11.607095"><ele>710.2857142857142</ele><time>2026-04-12T09:54:05.265Z</time></trkpt><trkpt lat="44.11328" lon="11.6070833"><ele>712.0</ele><time>2026-04-12T09:54:08.266Z</time></trkpt><trkpt lat="44.1133567" lon="11.607055"><ele>712.0</ele><time>2026-04-12T09:54:10.265Z</time></trkpt><trkpt lat="44.1134433" lon="11.607"><ele>712.0</ele><time>2026-04-12T09:54:12.266Z</time></trkpt><trkpt lat="44.1135367" lon="11.6069883"><ele>712.0</ele><time>2026-04-12T09:54:14.266Z</time></trkpt><trkpt lat="44.1136183" lon="11.6070083"><ele>712.0</ele><time>2026-04-12T09:54:16.266Z</time></trkpt><trkpt lat="44.113715" lon="11.60705"><ele>712.0</ele><time>2026-04-12T09:54:18.267Z</time></trkpt><trkpt lat="44.113775" lon="11.607085"><ele>712.0</ele><time>2026-04-12T09:54:19.266Z</time></trkpt><trkpt lat="44.1138667" lon="11.6072"><ele>712.0</ele><time>2026-04-12T09:54:21.266Z</time></trkpt><trkpt lat="44.1139217" lon="11.607245"><ele>712.0</ele><time>2026-04-12T09:54:22.265Z</time></trkpt><trkpt lat="44.1139667" lon="11.6073167"><ele>712.0</ele><time>2026-04-12T09:54:23.266Z</time></trkpt><trkpt lat="44.1140117" lon="11.607405"><ele>712.0</ele><time>2026-04-12T09:54:24.267Z</time></trkpt><trkpt lat="44.114055" lon="11.6075417"><ele>712.0</ele><time>2026-04-12T09:54:25.266Z</time></trkpt><trkpt lat="44.114075" lon="11.6076517"><ele>712.0</ele><time>2026-04-12T09:54:26.266Z</time></trkpt><trkpt lat="44.114105" lon="11.6077683"><ele>717.4000000000001</ele><time>2026-04-12T09:54:27.266Z</time></trkpt><trkpt lat="44.1141333" lon="11.6078667"><ele>722.8000000000001</ele><time>2026-04-12T09:54:28.266Z</time></trkpt><trkpt lat="44.1141983" lon="11.6080067"><ele>728.2</ele><time>2026-04-12T09:54:30.267Z</time></trkpt><trkpt lat="44.1142583" lon="11.60812"><ele>733.6</ele><time>2026-04-12T09:54:32.267Z</time></trkpt><trkpt lat="44.1143067" lon="11.6082167"><ele>739.0</ele><time>2026-04-12T09:54:34.266Z</time></trkpt><trkpt lat="44.1143583" lon="11.6083333"><ele>739.0</ele><time>2026-04-12T09:54:36.267Z</time></trkpt><trkpt lat="44.11442" lon="11.6084667"><ele>739.0</ele><time>2026-04-12T09:54:38.266Z</time></trkpt><trkpt lat="44.1144717" lon="11.6085267"><ele>739.0</ele><time>2026-04-12T09:54:40.267Z</time></trkpt><trkpt lat="44.1144933" lon="11.608635"><ele>739.0</ele><time>2026-04-12T09:54:41.267Z</time></trkpt><trkpt lat="44.1144467" lon="11.60882"><ele>739.0</ele><time>2026-04-12T09:54:42.267Z</time></trkpt><trkpt lat="44.11446" lon="11.6086483"><ele>739.0</ele><time>2026-04-12T09:54:46.267Z</time></trkpt><trkpt lat="44.1144617" lon="11.6085333"><ele>739.0</ele><time>2026-04-12T09:54:47.265Z</time></trkpt><trkpt lat="44.1144717" lon="11.6083917"><ele>739.0</ele><time>2026-04-12T09:54:48.267Z</time></trkpt><trkpt lat="44.1145033" lon="11.608315"><ele>739.0</ele><time>2026-04-12T09:54:49.266Z</time></trkpt><trkpt lat="44.1145617" lon="11.6081833"><ele>739.0</ele><time>2026-04-12T09:54:51.265Z</time></trkpt><trkpt lat="44.114635" lon="11.6080717"><ele>739.0</ele><time>2026-04-12T09:54:53.266Z</time></trkpt><trkpt lat="44.1147217" lon="11.60801"><ele>739.0</ele><time>2026-04-12T09:54:55.267Z</time></trkpt><trkpt lat="44.114815" lon="11.6080183"><ele>739.0</ele><time>2026-04-12T09:54:57.266Z</time></trkpt><trkpt lat="44.114885" lon="11.6080367"><ele>739.0</ele><time>2026-04-12T09:54:58.265Z</time></trkpt><trkpt lat="44.1149533" lon="11.60807"><ele>739.0</ele><time>2026-04-12T09:54:59.265Z</time></trkpt><trkpt lat="44.1150417" lon="11.6081183"><ele>739.0</ele><time>2026-04-12T09:55:00.266Z</time></trkpt><trkpt lat="44.1151533" lon="11.6081617"><ele>741.8333333333334</ele><time>2026-04-12T09:55:01.266Z</time></trkpt><trkpt lat="44.1152483" lon="11.6082017"><ele>744.6666666666667</ele><time>2026-04-12T09:55:02.266Z</time></trkpt><trkpt lat="44.1153283" lon="11.6082517"><ele>747.5</ele><time>2026-04-12T09:55:03.265Z</time></trkpt><trkpt lat="44.11541" lon="11.608285"><ele>750.3333333333334</ele><time>2026-04-12T09:55:04.266Z</time></trkpt><trkpt lat="44.1154833" lon="11.6083183"><ele>753.1666666666666</ele><time>2026-04-12T09:55:05.266Z</time></trkpt><trkpt lat="44.115565" lon="11.608355"><ele>756.0</ele><time>2026-04-12T09:55:06.267Z</time></trkpt><trkpt lat="44.1156333" lon="11.6084033"><ele>756.0</ele><time>2026-04-12T09:55:07.266Z</time></trkpt><trkpt lat="44.115695" lon="11.6084333"><ele>756.0</ele><time>2026-04-12T09:55:08.267Z</time></trkpt><trkpt lat="44.1157567" lon="11.6084667"><ele>756.0</ele><time>2026-04-12T09:55:10.265Z</time></trkpt><trkpt lat="44.1158417" lon="11.6084567"><ele>756.0</ele><time>2026-04-12T09:55:13.266Z</time></trkpt><trkpt lat="44.1159033" lon="11.6084317"><ele>756.0</ele><time>2026-04-12T09:55:14.265Z</time></trkpt><trkpt lat="44.11599" lon="11.60841"><ele>756.0</ele><time>2026-04-12T09:55:16.266Z</time></trkpt><trkpt lat="44.1160817" lon="11.60843"><ele>759.0</ele><time>2026-04-12T09:55:18.267Z</time></trkpt><trkpt lat="44.1161533" lon="11.6084283"><ele>762.0</ele><time>2026-04-12T09:55:20.267Z</time></trkpt><trkpt lat="44.1162217" lon="11.608385"><ele>765.0</ele><time>2026-04-12T09:55:22.266Z</time></trkpt><trkpt lat="44.1163233" lon="11.6083083"><ele>768.0</ele><time>2026-04-12T09:55:24.267Z</time></trkpt><trkpt lat="44.1164317" lon="11.6082133"><ele>771.0</ele><time>2026-04-12T09:55:26.267Z</time></trkpt><trkpt lat="44.1165" lon="11.6081617"><ele>771.0</ele><time>2026-04-12T09:55:27.266Z</time></trkpt><trkpt lat="44.1165683" lon="11.6081167"><ele>771.0</ele><time>2026-04-12T09:55:28.266Z</time></trkpt><trkpt lat="44.1166483" lon="11.608085"><ele>771.0</ele><time>2026-04-12T09:55:29.266Z</time></trkpt><trkpt lat="44.1167317" lon="11.608075"><ele>771.0</ele><time>2026-04-12T09:55:30.266Z</time></trkpt><trkpt lat="44.11682" lon="11.6080833"><ele>771.0</ele><time>2026-04-12T09:55:31.266Z</time></trkpt><trkpt lat="44.1169217" lon="11.6080983"><ele>771.0</ele><time>2026-04-12T09:55:32.266Z</time></trkpt><trkpt lat="44.1170717" lon="11.6081333"><ele>770.0</ele><time>2026-04-12T09:55:33.266Z</time></trkpt><trkpt lat="44.117145" lon="11.60816"><ele>769.0</ele><time>2026-04-12T09:55:34.265Z</time></trkpt><trkpt lat="44.1172033" lon="11.6081983"><ele>768.0</ele><time>2026-04-12T09:55:35.266Z</time></trkpt><trkpt lat="44.1173167" lon="11.608275"><ele>767.0</ele><time>2026-04-12T09:55:37.265Z</time></trkpt><trkpt lat="44.1173767" lon="11.6083283"><ele>766.0</ele><time>2026-04-12T09:55:38.267Z</time></trkpt><trkpt lat="44.117435" lon="11.6083933"><ele>765.0</ele><time>2026-04-12T09:55:39.267Z</time></trkpt><trkpt lat="44.11748" lon="11.6084883"><ele>763.6</ele><time>2026-04-12T09:55:40.266Z</time></trkpt><trkpt lat="44.1175133" lon="11.6086017"><ele>762.2</ele><time>2026-04-12T09:55:41.266Z</time></trkpt><trkpt lat="44.1175533" lon="11.6086733"><ele>760.8</ele><time>2026-04-12T09:55:42.267Z</time></trkpt><trkpt lat="44.117615" lon="11.6087983"><ele>759.4</ele><time>2026-04-12T09:55:44.267Z</time></trkpt><trkpt lat="44.1177067" lon="11.6089333"><ele>758.0</ele><time>2026-04-12T09:55:46.266Z</time></trkpt><trkpt lat="44.11776" lon="11.6090483"><ele>757.4285714285714</ele><time>2026-04-12T09:55:48.267Z</time></trkpt><trkpt lat="44.1178383" lon="11.6091617"><ele>756.8571428571429</ele><time>2026-04-12T09:55:50.267Z</time></trkpt><trkpt lat="44.1178833" lon="11.6092367"><ele>756.2857142857142</ele><time>2026-04-12T09:55:51.265Z</time></trkpt><trkpt lat="44.1179217" lon="11.60931"><ele>755.7142857142858</ele><time>2026-04-12T09:55:52.266Z</time></trkpt><trkpt lat="44.1179567" lon="11.6093833"><ele>755.1428571428571</ele><time>2026-04-12T09:55:53.266Z</time></trkpt><trkpt lat="44.1179917" lon="11.6094583"><ele>754.5714285714286</ele><time>2026-04-12T09:55:54.265Z</time></trkpt><trkpt lat="44.118025" lon="11.609535"><ele>754.0</ele><time>2026-04-12T09:55:55.266Z</time></trkpt><trkpt lat="44.1180783" lon="11.60967"><ele>751.4000000000001</ele><time>2026-04-12T09:55:57.266Z</time></trkpt><trkpt lat="44.1181283" lon="11.6097867"><ele>748.8</ele><time>2026-04-12T09:55:59.266Z</time></trkpt><trkpt lat="44.118165" lon="11.6098767"><ele>746.2</ele><time>2026-04-12T09:56:01.266Z</time></trkpt><trkpt lat="44.11824" lon="11.6099617"><ele>743.5999999999999</ele><time>2026-04-12T09:56:03.267Z</time></trkpt><trkpt lat="44.1182917" lon="11.6100717"><ele>741.0</ele><time>2026-04-12T09:56:05.266Z</time></trkpt><trkpt lat="44.1183517" lon="11.61017"><ele>744.8</ele><time>2026-04-12T09:56:07.266Z</time></trkpt><trkpt lat="44.11843" lon="11.610285"><ele>748.5999999999999</ele><time>2026-04-12T09:56:09.266Z</time></trkpt><trkpt lat="44.1185233" lon="11.6104033"><ele>752.4</ele><time>2026-04-12T09:56:11.266Z</time></trkpt><trkpt lat="44.11858" lon="11.6104633"><ele>756.2</ele><time>2026-04-12T09:56:12.268Z</time></trkpt><trkpt lat="44.1186733" lon="11.6105717"><ele>760.0</ele><time>2026-04-12T09:56:14.267Z</time></trkpt><trkpt lat="44.118725" lon="11.6106267"><ele>760.0</ele><time>2026-04-12T09:56:15.267Z</time></trkpt><trkpt lat="44.1187933" lon="11.61068"><ele>760.0</ele><time>2026-04-12T09:56:16.266Z</time></trkpt><trkpt lat="44.1188467" lon="11.610745"><ele>760.0</ele><time>2026-04-12T09:56:17.266Z</time></trkpt><trkpt lat="44.1189267" lon="11.61086"><ele>760.0</ele><time>2026-04-12T09:56:19.269Z</time></trkpt><trkpt lat="44.1190233" lon="11.6109633"><ele>760.0</ele><time>2026-04-12T09:56:21.27Z</time></trkpt><trkpt lat="44.11912" lon="11.6110717"><ele>761.6666666666667</ele><time>2026-04-12T09:56:23.266Z</time></trkpt><trkpt lat="44.1191817" lon="11.611135"><ele>763.3333333333334</ele><time>2026-04-12T09:56:24.268Z</time></trkpt><trkpt lat="44.119225" lon="11.6112167"><ele>765.0</ele><time>2026-04-12T09:56:25.266Z</time></trkpt><trkpt lat="44.1192583" lon="11.6113117"><ele>766.6666666666667</ele><time>2026-04-12T09:56:26.267Z</time></trkpt><trkpt lat="44.1192883" lon="11.6114167"><ele>768.3333333333334</ele><time>2026-04-12T09:56:27.266Z</time></trkpt><trkpt lat="44.1193083" lon="11.6115333"><ele>770.0</ele><time>2026-04-12T09:56:28.266Z</time></trkpt><trkpt lat="44.1193317" lon="11.611645"><ele>770.0000000000001</ele><time>2026-04-12T09:56:29.265Z</time></trkpt><trkpt lat="44.11936" lon="11.6117483"><ele>770.0</ele><time>2026-04-12T09:56:30.266Z</time></trkpt><trkpt lat="44.1193933" lon="11.6118467"><ele>770.0</ele><time>2026-04-12T09:56:31.266Z</time></trkpt><trkpt lat="44.11942" lon="11.6119417"><ele>770.0</ele><time>2026-04-12T09:56:32.268Z</time></trkpt><trkpt lat="44.119455" lon="11.6120233"><ele>770.0000000000001</ele><time>2026-04-12T09:56:33.266Z</time></trkpt><trkpt lat="44.1195367" lon="11.6121483"><ele>770.0</ele><time>2026-04-12T09:56:35.266Z</time></trkpt><trkpt lat="44.1195917" lon="11.6122017"><ele>770.4</ele><time>2026-04-12T09:56:36.267Z</time></trkpt><trkpt lat="44.1196433" lon="11.6122633"><ele>770.8</ele><time>2026-04-12T09:56:37.266Z</time></trkpt><trkpt lat="44.1197283" lon="11.6123983"><ele>771.2</ele><time>2026-04-12T09:56:39.266Z</time></trkpt><trkpt lat="44.11977" lon="11.612465"><ele>771.6</ele><time>2026-04-12T09:56:40.266Z</time></trkpt><trkpt lat="44.11986" lon="11.6125833"><ele>772.0</ele><time>2026-04-12T09:56:42.267Z</time></trkpt><trkpt lat="44.1199167" lon="11.6126417"><ele>771.9999999999999</ele><time>2026-04-12T09:56:43.266Z</time></trkpt><trkpt lat="44.1199767" lon="11.6126967"><ele>772.0</ele><time>2026-04-12T09:56:44.267Z</time></trkpt><trkpt lat="44.12005" lon="11.6127467"><ele>772.0</ele><time>2026-04-12T09:56:45.266Z</time></trkpt><trkpt lat="44.1201267" lon="11.6128"><ele>772.0</ele><time>2026-04-12T09:56:46.266Z</time></trkpt><trkpt lat="44.1201817" lon="11.6128633"><ele>771.9999999999999</ele><time>2026-04-12T09:56:47.267Z</time></trkpt><trkpt lat="44.1202433" lon="11.6129283"><ele>772.0</ele><time>2026-04-12T09:56:48.267Z</time></trkpt><trkpt lat="44.1203" lon="11.612995"><ele>771.5714285714287</ele><time>2026-04-12T09:56:49.265Z</time></trkpt><trkpt lat="44.1203567" lon="11.613055"><ele>771.1428571428571</ele><time>2026-04-12T09:56:50.264Z</time></trkpt><trkpt lat="44.1204117" lon="11.6131133"><ele>770.7142857142858</ele><time>2026-04-12T09:56:51.267Z</time></trkpt><trkpt lat="44.1204683" lon="11.6131633"><ele>770.2857142857143</ele><time>2026-04-12T09:56:52.267Z</time></trkpt><trkpt lat="44.12054" lon="11.6132117"><ele>769.8571428571429</ele><time>2026-04-12T09:56:53.266Z</time></trkpt><trkpt lat="44.1206" lon="11.6132517"><ele>769.4285714285714</ele><time>2026-04-12T09:56:54.272Z</time></trkpt><trkpt lat="44.12067" lon="11.613285"><ele>769.0</ele><time>2026-04-12T09:56:55.267Z</time></trkpt><trkpt lat="44.12074" lon="11.613315"><ele>767.1666666666666</ele><time>2026-04-12T09:56:56.267Z</time></trkpt><trkpt lat="44.1208067" lon="11.6133383"><ele>765.3333333333333</ele><time>2026-04-12T09:56:57.266Z</time></trkpt><trkpt lat="44.1208683" lon="11.6133667"><ele>763.5</ele><time>2026-04-12T09:56:58.265Z</time></trkpt><trkpt lat="44.1209283" lon="11.6133933"><ele>761.6666666666666</ele><time>2026-04-12T09:56:59.266Z</time></trkpt><trkpt lat="44.1210117" lon="11.6134517"><ele>759.8333333333333</ele><time>2026-04-12T09:57:01.266Z</time></trkpt><trkpt lat="44.12107" lon="11.613535"><ele>758.0</ele><time>2026-04-12T09:57:03.27Z</time></trkpt><trkpt lat="44.12112" lon="11.61364"><ele>756.5999999999999</ele><time>2026-04-12T09:57:05.266Z</time></trkpt><trkpt lat="44.1211817" lon="11.6137517"><ele>755.1999999999999</ele><time>2026-04-12T09:57:07.267Z</time></trkpt><trkpt lat="44.12123" lon="11.6138933"><ele>753.8</ele><time>2026-04-12T09:57:09.269Z</time></trkpt><trkpt lat="44.1212883" lon="11.6140467"><ele>752.4</ele><time>2026-04-12T09:57:11.266Z</time></trkpt><trkpt lat="44.1213517" lon="11.6141717"><ele>751.0</ele><time>2026-04-12T09:57:13.266Z</time></trkpt><trkpt lat="44.12142" lon="11.6142717"><ele>751.0</ele><time>2026-04-12T09:57:15.267Z</time></trkpt><trkpt lat="44.1215183" lon="11.6143717"><ele>751.0</ele><time>2026-04-12T09:57:17.266Z</time></trkpt><trkpt lat="44.12158" lon="11.614415"><ele>751.0</ele><time>2026-04-12T09:57:18.266Z</time></trkpt><trkpt lat="44.12169" lon="11.61449"><ele>751.0</ele><time>2026-04-12T09:57:20.266Z</time></trkpt><trkpt lat="44.1217483" lon="11.614535"><ele>751.0</ele><time>2026-04-12T09:57:21.267Z</time></trkpt><trkpt lat="44.1218117" lon="11.6145867"><ele>750.6666666666667</ele><time>2026-04-12T09:57:22.266Z</time></trkpt><trkpt lat="44.1218817" lon="11.6146417"><ele>750.3333333333334</ele><time>2026-04-12T09:57:23.266Z</time></trkpt><trkpt lat="44.12196" lon="11.6147"><ele>750.0</ele><time>2026-04-12T09:57:24.267Z</time></trkpt><trkpt lat="44.1220317" lon="11.614755"><ele>749.6666666666666</ele><time>2026-04-12T09:57:25.266Z</time></trkpt><trkpt lat="44.1221" lon="11.6148117"><ele>749.3333333333333</ele><time>2026-04-12T09:57:26.266Z</time></trkpt><trkpt lat="44.1221683" lon="11.6148583"><ele>749.0</ele><time>2026-04-12T09:57:27.267Z</time></trkpt><trkpt lat="44.12223" lon="11.6149083"><ele>749.0</ele><time>2026-04-12T09:57:28.266Z</time></trkpt><trkpt lat="44.12229" lon="11.6149483"><ele>749.0</ele><time>2026-04-12T09:57:29.266Z</time></trkpt><trkpt lat="44.1223483" lon="11.6149883"><ele>749.0</ele><time>2026-04-12T09:57:30.267Z</time></trkpt><trkpt lat="44.1224133" lon="11.6150217"><ele>749.0</ele><time>2026-04-12T09:57:31.266Z</time></trkpt><trkpt lat="44.1225433" lon="11.6150917"><ele>749.0</ele><time>2026-04-12T09:57:33.266Z</time></trkpt><trkpt lat="44.12265" lon="11.6151717"><ele>744.4000000000001</ele><time>2026-04-12T09:57:35.267Z</time></trkpt><trkpt lat="44.1227633" lon="11.6152733"><ele>739.8</ele><time>2026-04-12T09:57:37.266Z</time></trkpt><trkpt lat="44.1228233" lon="11.6153233"><ele>735.2</ele><time>2026-04-12T09:57:38.267Z</time></trkpt><trkpt lat="44.12293" lon="11.6153883"><ele>730.5999999999999</ele><time>2026-04-12T09:57:40.266Z</time></trkpt><trkpt lat="44.1230333" lon="11.61546"><ele>726.0</ele><time>2026-04-12T09:57:42.267Z</time></trkpt><trkpt lat="44.1231367" lon="11.6155567"><ele>721.8</ele><time>2026-04-12T09:57:44.267Z</time></trkpt><trkpt lat="44.1231933" lon="11.6156033"><ele>717.5999999999999</ele><time>2026-04-12T09:57:45.266Z</time></trkpt><trkpt lat="44.1232583" lon="11.6156417"><ele>713.4</ele><time>2026-04-12T09:57:46.266Z</time></trkpt><trkpt lat="44.1233133" lon="11.6156933"><ele>709.2</ele><time>2026-04-12T09:57:47.266Z</time></trkpt><trkpt lat="44.1233883" lon="11.6157333"><ele>705.0</ele><time>2026-04-12T09:57:48.266Z</time></trkpt><trkpt lat="44.1235567" lon="11.615805"><ele>705.0</ele><time>2026-04-12T09:57:50.268Z</time></trkpt><trkpt lat="44.1236033" lon="11.6158783"><ele>705.0</ele><time>2026-04-12T09:57:51.266Z</time></trkpt><trkpt lat="44.1236417" lon="11.6159667"><ele>705.0</ele><time>2026-04-12T09:57:52.266Z</time></trkpt><trkpt lat="44.1236783" lon="11.6160433"><ele>705.0</ele><time>2026-04-12T09:57:53.266Z</time></trkpt><trkpt lat="44.1237533" lon="11.61618"><ele>705.0</ele><time>2026-04-12T09:57:55.266Z</time></trkpt><trkpt lat="44.1238133" lon="11.61624"><ele>705.0</ele><time>2026-04-12T09:57:56.267Z</time></trkpt><trkpt lat="44.1238733" lon="11.6163067"><ele>703.6666666666666</ele><time>2026-04-12T09:57:57.267Z</time></trkpt><trkpt lat="44.1239383" lon="11.6163767"><ele>702.3333333333334</ele><time>2026-04-12T09:57:58.266Z</time></trkpt><trkpt lat="44.1240033" lon="11.616455"><ele>701.0</ele><time>2026-04-12T09:57:59.269Z</time></trkpt><trkpt lat="44.1240617" lon="11.616545"><ele>699.6666666666667</ele><time>2026-04-12T09:58:00.267Z</time></trkpt><trkpt lat="44.124115" lon="11.6166383"><ele>698.3333333333334</ele><time>2026-04-12T09:58:01.266Z</time></trkpt><trkpt lat="44.124165" lon="11.6167167"><ele>697.0</ele><time>2026-04-12T09:58:02.266Z</time></trkpt><trkpt lat="44.12422" lon="11.61678"><ele>697.0</ele><time>2026-04-12T09:58:03.266Z</time></trkpt><trkpt lat="44.1242833" lon="11.616825"><ele>697.0</ele><time>2026-04-12T09:58:04.266Z</time></trkpt><trkpt lat="44.124355" lon="11.6168617"><ele>697.0</ele><time>2026-04-12T09:58:05.266Z</time></trkpt><trkpt lat="44.1244267" lon="11.6169017"><ele>697.0</ele><time>2026-04-12T09:58:06.267Z</time></trkpt><trkpt lat="44.1245017" lon="11.6169417"><ele>697.0</ele><time>2026-04-12T09:58:07.266Z</time></trkpt><trkpt lat="44.1245733" lon="11.6169783"><ele>697.0</ele><time>2026-04-12T09:58:08.267Z</time></trkpt><trkpt lat="44.1246417" lon="11.61702"><ele>695.0</ele><time>2026-04-12T09:58:09.266Z</time></trkpt><trkpt lat="44.1247017" lon="11.617075"><ele>693.0</ele><time>2026-04-12T09:58:10.266Z</time></trkpt><trkpt lat="44.12474" lon="11.61716"><ele>691.0</ele><time>2026-04-12T09:58:11.267Z</time></trkpt><trkpt lat="44.1247667" lon="11.617265"><ele>689.0</ele><time>2026-04-12T09:58:12.268Z</time></trkpt><trkpt lat="44.1247867" lon="11.6173783"><ele>687.0</ele><time>2026-04-12T09:58:13.267Z</time></trkpt><trkpt lat="44.1248067" lon="11.6175067"><ele>685.0</ele><time>2026-04-12T09:58:14.267Z</time></trkpt><trkpt lat="44.12483" lon="11.6176217"><ele>685.0</ele><time>2026-04-12T09:58:15.266Z</time></trkpt><trkpt lat="44.12485" lon="11.6177267"><ele>685.0</ele><time>2026-04-12T09:58:16.266Z</time></trkpt><trkpt lat="44.1248783" lon="11.61782"><ele>685.0</ele><time>2026-04-12T09:58:17.266Z</time></trkpt><trkpt lat="44.1249133" lon="11.6179133"><ele>685.0</ele><time>2026-04-12T09:58:18.267Z</time></trkpt><trkpt lat="44.1249483" lon="11.6180033"><ele>685.0</ele><time>2026-04-12T09:58:19.266Z</time></trkpt><trkpt lat="44.12499" lon="11.6180883"><ele>685.0</ele><time>2026-04-12T09:58:20.268Z</time></trkpt><trkpt lat="44.1250433" lon="11.6181683"><ele>687.5</ele><time>2026-04-12T09:58:21.267Z</time></trkpt><trkpt lat="44.1251" lon="11.618255"><ele>690.0</ele><time>2026-04-12T09:58:22.266Z</time></trkpt><trkpt lat="44.1251617" lon="11.6183433"><ele>692.5</ele><time>2026-04-12T09:58:23.266Z</time></trkpt><trkpt lat="44.12522" lon="11.618425"><ele>695.0</ele><time>2026-04-12T09:58:24.267Z</time></trkpt><trkpt lat="44.1252767" lon="11.6185067"><ele>697.5</ele><time>2026-04-12T09:58:25.267Z</time></trkpt><trkpt lat="44.12532" lon="11.6185883"><ele>700.0</ele><time>2026-04-12T09:58:26.267Z</time></trkpt><trkpt lat="44.1253517" lon="11.6186667"><ele>700.0</ele><time>2026-04-12T09:58:27.267Z</time></trkpt><trkpt lat="44.125385" lon="11.6188217"><ele>700.0</ele><time>2026-04-12T09:58:29.266Z</time></trkpt><trkpt lat="44.1253367" lon="11.6189917"><ele>700.0</ele><time>2026-04-12T09:58:31.266Z</time></trkpt><trkpt lat="44.1253" lon="11.6191483"><ele>700.0</ele><time>2026-04-12T09:58:33.267Z</time></trkpt><trkpt lat="44.1253033" lon="11.619305"><ele>700.0</ele><time>2026-04-12T09:58:35.266Z</time></trkpt><trkpt lat="44.1253417" lon="11.6194483"><ele>700.0</ele><time>2026-04-12T09:58:37.267Z</time></trkpt><trkpt lat="44.1253783" lon="11.6196083"><ele>700.0</ele><time>2026-04-12T09:58:39.267Z</time></trkpt><trkpt lat="44.1254117" lon="11.6197783"><ele>700.0</ele><time>2026-04-12T09:58:41.267Z</time></trkpt><trkpt lat="44.12543" lon="11.6198717"><ele>700.0</ele><time>2026-04-12T09:58:42.267Z</time></trkpt><trkpt lat="44.1254433" lon="11.6199583"><ele>699.8333333333334</ele><time>2026-04-12T09:58:43.267Z</time></trkpt><trkpt lat="44.1254733" lon="11.620095"><ele>699.6666666666667</ele><time>2026-04-12T09:58:45.267Z</time></trkpt><trkpt lat="44.1255" lon="11.6202017"><ele>699.5</ele><time>2026-04-12T09:58:48.268Z</time></trkpt><trkpt lat="44.125575" lon="11.6203167"><ele>699.3333333333334</ele><time>2026-04-12T10:00:42.267Z</time></trkpt><trkpt lat="44.125615" lon="11.6203933"><ele>699.1666666666666</ele><time>2026-04-12T10:00:43.267Z</time></trkpt><trkpt lat="44.1256683" lon="11.6204733"><ele>699.0</ele><time>2026-04-12T10:00:44.267Z</time></trkpt><trkpt lat="44.12572" lon="11.62055"><ele>700.8333333333334</ele><time>2026-04-12T10:00:45.268Z</time></trkpt><trkpt lat="44.125775" lon="11.6206317"><ele>702.6666666666666</ele><time>2026-04-12T10:00:46.266Z</time></trkpt><trkpt lat="44.1258267" lon="11.6207183"><ele>704.5</ele><time>2026-04-12T10:00:47.267Z</time></trkpt><trkpt lat="44.125875" lon="11.6208117"><ele>706.3333333333333</ele><time>2026-04-12T10:00:48.267Z</time></trkpt><trkpt lat="44.1259117" lon="11.6209133"><ele>708.1666666666666</ele><time>2026-04-12T10:00:49.268Z</time></trkpt><trkpt lat="44.125945" lon="11.6210217"><ele>710.0</ele><time>2026-04-12T10:00:50.268Z</time></trkpt><trkpt lat="44.1259667" lon="11.62114"><ele>709.4</ele><time>2026-04-12T10:00:51.275Z</time></trkpt><trkpt lat="44.1259783" lon="11.6212783"><ele>708.8</ele><time>2026-04-12T10:00:52.267Z</time></trkpt><trkpt lat="44.125955" lon="11.6214517"><ele>708.2</ele><time>2026-04-12T10:00:53.267Z</time></trkpt><trkpt lat="44.1259183" lon="11.62159"><ele>707.6</ele><time>2026-04-12T10:00:54.267Z</time></trkpt><trkpt lat="44.1258733" lon="11.6217017"><ele>707.0</ele><time>2026-04-12T10:00:55.267Z</time></trkpt><trkpt lat="44.1258367" lon="11.6217933"><ele>707.0</ele><time>2026-04-12T10:00:56.267Z</time></trkpt><trkpt lat="44.1258017" lon="11.621885"><ele>707.0</ele><time>2026-04-12T10:00:57.268Z</time></trkpt><trkpt lat="44.125775" lon="11.6219767"><ele>707.0</ele><time>2026-04-12T10:00:58.266Z</time></trkpt><trkpt lat="44.12577" lon="11.6220717"><ele>707.0</ele><time>2026-04-12T10:00:59.266Z</time></trkpt><trkpt lat="44.1257633" lon="11.6221683"><ele>707.0</ele><time>2026-04-12T10:01:00.266Z</time></trkpt><trkpt lat="44.1257583" lon="11.622265"><ele>707.0</ele><time>2026-04-12T10:01:01.268Z</time></trkpt><trkpt lat="44.1257533" lon="11.6223767"><ele>707.0</ele><time>2026-04-12T10:01:02.266Z</time></trkpt><trkpt lat="44.1257617" lon="11.622515"><ele>706.0</ele><time>2026-04-12T10:01:03.268Z</time></trkpt><trkpt lat="44.1257783" lon="11.6226733"><ele>705.0</ele><time>2026-04-12T10:01:04.267Z</time></trkpt><trkpt lat="44.125815" lon="11.622855"><ele>704.0</ele><time>2026-04-12T10:01:05.266Z</time></trkpt><trkpt lat="44.1258583" lon="11.6230417"><ele>703.0</ele><time>2026-04-12T10:01:06.267Z</time></trkpt><trkpt lat="44.125895" lon="11.6232083"><ele>703.0</ele><time>2026-04-12T10:01:07.267Z</time></trkpt><trkpt lat="44.1259217" lon="11.6233667"><ele>703.0</ele><time>2026-04-12T10:01:08.266Z</time></trkpt><trkpt lat="44.1259467" lon="11.6234917"><ele>703.0</ele><time>2026-04-12T10:01:09.267Z</time></trkpt><trkpt lat="44.1259667" lon="11.6235967"><ele>703.0</ele><time>2026-04-12T10:01:10.266Z</time></trkpt><trkpt lat="44.1259967" lon="11.6236867"><ele>703.0</ele><time>2026-04-12T10:01:11.267Z</time></trkpt><trkpt lat="44.126035" lon="11.6237717"><ele>703.0</ele><time>2026-04-12T10:01:12.266Z</time></trkpt><trkpt lat="44.1260817" lon="11.6238633"><ele>703.0</ele><time>2026-04-12T10:01:13.266Z</time></trkpt><trkpt lat="44.12615" lon="11.6239683"><ele>703.0</ele><time>2026-04-12T10:01:14.266Z</time></trkpt><trkpt lat="44.1262333" lon="11.62408"><ele>703.0</ele><time>2026-04-12T10:01:15.267Z</time></trkpt><trkpt lat="44.1263317" lon="11.6242133"><ele>703.0</ele><time>2026-04-12T10:01:16.266Z</time></trkpt><trkpt lat="44.126455" lon="11.6243567"><ele>700.3333333333334</ele><time>2026-04-12T10:01:17.267Z</time></trkpt><trkpt lat="44.1266183" lon="11.62454"><ele>697.6666666666666</ele><time>2026-04-12T10:01:18.266Z</time></trkpt><trkpt lat="44.126745" lon="11.6246783"><ele>695.0</ele><time>2026-04-12T10:01:19.267Z</time></trkpt><trkpt lat="44.1268733" lon="11.6248167"><ele>695.0</ele><time>2026-04-12T10:01:20.267Z</time></trkpt><trkpt lat="44.1270133" lon="11.6249533"><ele>695.0</ele><time>2026-04-12T10:01:21.267Z</time></trkpt><trkpt lat="44.1271417" lon="11.6250833"><ele>695.0</ele><time>2026-04-12T10:01:22.266Z</time></trkpt><trkpt lat="44.127245" lon="11.6251967"><ele>696.25</ele><time>2026-04-12T10:01:23.266Z</time></trkpt><trkpt lat="44.127325" lon="11.6253183"><ele>697.5</ele><time>2026-04-12T10:01:24.268Z</time></trkpt><trkpt lat="44.1273983" lon="11.6254417"><ele>698.75</ele><time>2026-04-12T10:01:25.266Z</time></trkpt><trkpt lat="44.1274733" lon="11.6255517"><ele>700.0</ele><time>2026-04-12T10:01:26.267Z</time></trkpt><trkpt lat="44.1275567" lon="11.62565"><ele>700.0</ele><time>2026-04-12T10:01:27.267Z</time></trkpt><trkpt lat="44.12765" lon="11.6257467"><ele>700.0</ele><time>2026-04-12T10:01:28.266Z</time></trkpt><trkpt lat="44.1277517" lon="11.6258467"><ele>700.0</ele><time>2026-04-12T10:01:29.268Z</time></trkpt><trkpt lat="44.1278583" lon="11.6259583"><ele>700.0</ele><time>2026-04-12T10:01:30.268Z</time></trkpt><trkpt lat="44.1279633" lon="11.6260717"><ele>701.6</ele><time>2026-04-12T10:01:31.267Z</time></trkpt><trkpt lat="44.1280583" lon="11.626175"><ele>703.2</ele><time>2026-04-12T10:01:32.267Z</time></trkpt><trkpt lat="44.1281417" lon="11.626265"><ele>704.8</ele><time>2026-04-12T10:01:33.267Z</time></trkpt><trkpt lat="44.1282283" lon="11.626335"><ele>706.4</ele><time>2026-04-12T10:01:34.266Z</time></trkpt><trkpt lat="44.1283117" lon="11.626395"><ele>708.0</ele><time>2026-04-12T10:01:35.266Z</time></trkpt><trkpt lat="44.1284067" lon="11.6264633"><ele>708.0</ele><time>2026-04-12T10:01:36.267Z</time></trkpt><trkpt lat="44.128525" lon="11.62654"><ele>708.0</ele><time>2026-04-12T10:01:37.267Z</time></trkpt><trkpt lat="44.1286383" lon="11.62665"><ele>708.0</ele><time>2026-04-12T10:01:38.266Z</time></trkpt><trkpt lat="44.12874" lon="11.626755"><ele>708.0</ele><time>2026-04-12T10:01:39.267Z</time></trkpt><trkpt lat="44.1288267" lon="11.62687"><ele>706.75</ele><time>2026-04-12T10:01:40.267Z</time></trkpt><trkpt lat="44.1289183" lon="11.6269867"><ele>705.5</ele><time>2026-04-12T10:01:41.267Z</time></trkpt><trkpt lat="44.1290067" lon="11.627105"><ele>704.25</ele><time>2026-04-12T10:01:42.267Z</time></trkpt><trkpt lat="44.129095" lon="11.627225"><ele>703.0</ele><time>2026-04-12T10:01:43.267Z</time></trkpt><trkpt lat="44.1291817" lon="11.6273517"><ele>703.0</ele><time>2026-04-12T10:01:44.267Z</time></trkpt><trkpt lat="44.1292717" lon="11.6274283"><ele>703.0</ele><time>2026-04-12T10:01:45.267Z</time></trkpt><trkpt lat="44.12934" lon="11.6275183"><ele>703.0</ele><time>2026-04-12T10:01:46.266Z</time></trkpt><trkpt lat="44.12939" lon="11.6276417"><ele>703.0</ele><time>2026-04-12T10:01:47.266Z</time></trkpt><trkpt lat="44.1294267" lon="11.6277817"><ele>703.0</ele><time>2026-04-12T10:01:48.267Z</time></trkpt><trkpt lat="44.12947" lon="11.6279267"><ele>700.75</ele><time>2026-04-12T10:01:49.265Z</time></trkpt><trkpt lat="44.129525" lon="11.6280617"><ele>698.5</ele><time>2026-04-12T10:01:50.268Z</time></trkpt><trkpt lat="44.1295883" lon="11.628195"><ele>696.25</ele><time>2026-04-12T10:01:51.267Z</time></trkpt><trkpt lat="44.12966" lon="11.6283267"><ele>694.0</ele><time>2026-04-12T10:01:52.267Z</time></trkpt><trkpt lat="44.12972" lon="11.6284617"><ele>694.0</ele><time>2026-04-12T10:01:53.267Z</time></trkpt><trkpt lat="44.1297817" lon="11.6286017"><ele>694.0</ele><time>2026-04-12T10:01:54.267Z</time></trkpt><trkpt lat="44.12984" lon="11.6287433"><ele>694.0</ele><time>2026-04-12T10:01:55.266Z</time></trkpt><trkpt lat="44.1299" lon="11.6288733"><ele>694.0</ele><time>2026-04-12T10:01:56.268Z</time></trkpt><trkpt lat="44.1299617" lon="11.6289883"><ele>694.0</ele><time>2026-04-12T10:01:57.267Z</time></trkpt><trkpt lat="44.13002" lon="11.629105"><ele>697.6</ele><time>2026-04-12T10:01:58.267Z</time></trkpt><trkpt lat="44.1300733" lon="11.6292283"><ele>701.2</ele><time>2026-04-12T10:01:59.266Z</time></trkpt><trkpt lat="44.1301217" lon="11.6293567"><ele>704.8000000000001</ele><time>2026-04-12T10:02:00.268Z</time></trkpt><trkpt lat="44.1301717" lon="11.6294933"><ele>708.4000000000001</ele><time>2026-04-12T10:02:01.267Z</time></trkpt><trkpt lat="44.1302133" lon="11.6296233"><ele>712.0</ele><time>2026-04-12T10:02:02.268Z</time></trkpt><trkpt lat="44.1302633" lon="11.62974"><ele>712.0</ele><time>2026-04-12T10:02:03.267Z</time></trkpt><trkpt lat="44.13032" lon="11.62984"><ele>712.0</ele><time>2026-04-12T10:02:04.267Z</time></trkpt><trkpt lat="44.1304033" lon="11.6299383"><ele>712.0</ele><time>2026-04-12T10:02:05.269Z</time></trkpt><trkpt lat="44.130495" lon="11.6300267"><ele>712.0</ele><time>2026-04-12T10:02:06.266Z</time></trkpt><trkpt lat="44.1305833" lon="11.6301083"><ele>712.0</ele><time>2026-04-12T10:02:07.267Z</time></trkpt><trkpt lat="44.130665" lon="11.6301883"><ele>709.6666666666667</ele><time>2026-04-12T10:02:08.266Z</time></trkpt><trkpt lat="44.1307333" lon="11.6302767"><ele>707.3333333333334</ele><time>2026-04-12T10:02:09.268Z</time></trkpt><trkpt lat="44.1307867" lon="11.6303717"><ele>705.0</ele><time>2026-04-12T10:02:10.266Z</time></trkpt><trkpt lat="44.1308333" lon="11.6304583"><ele>702.6666666666666</ele><time>2026-04-12T10:02:11.266Z</time></trkpt><trkpt lat="44.1308717" lon="11.6305333"><ele>700.3333333333333</ele><time>2026-04-12T10:02:12.267Z</time></trkpt><trkpt lat="44.130935" lon="11.6306333"><ele>698.0</ele><time>2026-04-12T10:02:14.267Z</time></trkpt><trkpt lat="44.1309967" lon="11.6306967"><ele>698.0</ele><time>2026-04-12T10:02:30.266Z</time></trkpt><trkpt lat="44.1310583" lon="11.6307933"><ele>698.0</ele><time>2026-04-12T10:02:32.266Z</time></trkpt><trkpt lat="44.1311233" lon="11.63088"><ele>698.0</ele><time>2026-04-12T10:02:33.267Z</time></trkpt><trkpt lat="44.1311867" lon="11.630965"><ele>698.0</ele><time>2026-04-12T10:02:34.266Z</time></trkpt><trkpt lat="44.1312333" lon="11.6310367"><ele>698.0</ele><time>2026-04-12T10:02:35.268Z</time></trkpt><trkpt lat="44.13129" lon="11.6311217"><ele>698.0</ele><time>2026-04-12T10:02:36.266Z</time></trkpt><trkpt lat="44.13135" lon="11.6311983"><ele>696.5</ele><time>2026-04-12T10:02:37.266Z</time></trkpt><trkpt lat="44.1314217" lon="11.631275"><ele>695.0</ele><time>2026-04-12T10:02:38.266Z</time></trkpt><trkpt lat="44.1314783" lon="11.631345"><ele>693.5</ele><time>2026-04-12T10:02:39.265Z</time></trkpt><trkpt lat="44.1315483" lon="11.6314233"><ele>692.0</ele><time>2026-04-12T10:02:40.266Z</time></trkpt><trkpt lat="44.1316267" lon="11.6315083"><ele>690.5</ele><time>2026-04-12T10:02:41.267Z</time></trkpt><trkpt lat="44.1317017" lon="11.631585"><ele>689.0</ele><time>2026-04-12T10:02:42.266Z</time></trkpt><trkpt lat="44.131775" lon="11.6316533"><ele>689.0</ele><time>2026-04-12T10:02:43.266Z</time></trkpt><trkpt lat="44.1318383" lon="11.6317217"><ele>689.0</ele><time>2026-04-12T10:02:44.267Z</time></trkpt><trkpt lat="44.1319" lon="11.6317883"><ele>689.0</ele><time>2026-04-12T10:02:45.266Z</time></trkpt><trkpt lat="44.1319483" lon="11.6318483"><ele>689.0</ele><time>2026-04-12T10:02:46.267Z</time></trkpt><trkpt lat="44.13202" lon="11.6319117"><ele>689.0</ele><time>2026-04-12T10:02:47.266Z</time></trkpt><trkpt lat="44.1320883" lon="11.6319883"><ele>689.0</ele><time>2026-04-12T10:02:48.267Z</time></trkpt><trkpt lat="44.132155" lon="11.6320717"><ele>688.1666666666666</ele><time>2026-04-12T10:02:49.266Z</time></trkpt><trkpt lat="44.1322167" lon="11.6321533"><ele>687.3333333333333</ele><time>2026-04-12T10:02:50.266Z</time></trkpt><trkpt lat="44.1322767" lon="11.632225"><ele>686.5</ele><time>2026-04-12T10:02:51.266Z</time></trkpt><trkpt lat="44.13233" lon="11.6322833"><ele>685.6666666666666</ele><time>2026-04-12T10:02:52.265Z</time></trkpt><trkpt lat="44.132385" lon="11.6323267"><ele>684.8333333333334</ele><time>2026-04-12T10:02:53.266Z</time></trkpt><trkpt lat="44.1324783" lon="11.6324"><ele>684.0</ele><time>2026-04-12T10:02:55.266Z</time></trkpt><trkpt lat="44.132535" lon="11.63246"><ele>684.0</ele><time>2026-04-12T10:02:57.265Z</time></trkpt><trkpt lat="44.132575" lon="11.6325567"><ele>684.0</ele><time>2026-04-12T10:03:00.266Z</time></trkpt><trkpt lat="44.132555" lon="11.63266"><ele>684.0</ele><time>2026-04-12T10:03:02.265Z</time></trkpt><trkpt lat="44.1325017" lon="11.6327367"><ele>684.0</ele><time>2026-04-12T10:03:04.266Z</time></trkpt><trkpt lat="44.13255" lon="11.6326517"><ele>684.0</ele><time>2026-04-12T10:03:12.266Z</time></trkpt><trkpt lat="44.1325983" lon="11.632585"><ele>684.0</ele><time>2026-04-12T10:03:14.266Z</time></trkpt><trkpt lat="44.1326733" lon="11.632545"><ele>684.0</ele><time>2026-04-12T10:03:16.265Z</time></trkpt><trkpt lat="44.1327667" lon="11.632465"><ele>684.0</ele><time>2026-04-12T10:03:18.265Z</time></trkpt><trkpt lat="44.132855" lon="11.6324433"><ele>684.0</ele><time>2026-04-12T10:03:20.266Z</time></trkpt><trkpt lat="44.13292" lon="11.6325017"><ele>684.0</ele><time>2026-04-12T10:03:22.265Z</time></trkpt><trkpt lat="44.13291" lon="11.6325967"><ele>684.0</ele><time>2026-04-12T10:03:24.265Z</time></trkpt><trkpt lat="44.132855" lon="11.6327333"><ele>682.0</ele><time>2026-04-12T10:03:26.266Z</time></trkpt><trkpt lat="44.1328367" lon="11.6328483"><ele>680.0</ele><time>2026-04-12T10:03:28.265Z</time></trkpt><trkpt lat="44.1329017" lon="11.6329533"><ele>678.0</ele><time>2026-04-12T10:03:31.267Z</time></trkpt><trkpt lat="44.1329817" lon="11.6330417"><ele>676.0</ele><time>2026-04-12T10:03:33.267Z</time></trkpt><trkpt lat="44.133065" lon="11.6331567"><ele>674.0</ele><time>2026-04-12T10:03:35.266Z</time></trkpt><trkpt lat="44.133115" lon="11.6332167"><ele>674.0000000000001</ele><time>2026-04-12T10:03:36.264Z</time></trkpt><trkpt lat="44.13317" lon="11.63328"><ele>674.0</ele><time>2026-04-12T10:03:37.266Z</time></trkpt><trkpt lat="44.1332283" lon="11.6333367"><ele>674.0</ele><time>2026-04-12T10:03:38.266Z</time></trkpt><trkpt lat="44.1332783" lon="11.6333917"><ele>674.0</ele><time>2026-04-12T10:03:39.266Z</time></trkpt><trkpt lat="44.1333367" lon="11.6334333"><ele>674.0</ele><time>2026-04-12T10:03:40.266Z</time></trkpt><trkpt lat="44.1334117" lon="11.633465"><ele>674.0000000000001</ele><time>2026-04-12T10:03:41.266Z</time></trkpt><trkpt lat="44.1334767" lon="11.6334917"><ele>674.0</ele><time>2026-04-12T10:03:42.266Z</time></trkpt><trkpt lat="44.1335433" lon="11.63353"><ele>675.1666666666666</ele><time>2026-04-12T10:03:43.267Z</time></trkpt><trkpt lat="44.133615" lon="11.6335767"><ele>676.3333333333333</ele><time>2026-04-12T10:03:44.266Z</time></trkpt><trkpt lat="44.1336833" lon="11.6336317"><ele>677.5</ele><time>2026-04-12T10:03:45.266Z</time></trkpt><trkpt lat="44.1337533" lon="11.6336883"><ele>678.6666666666666</ele><time>2026-04-12T10:03:46.266Z</time></trkpt><trkpt lat="44.13383" lon="11.63375"><ele>679.8333333333334</ele><time>2026-04-12T10:03:47.267Z</time></trkpt><trkpt lat="44.1339083" lon="11.63381"><ele>681.0</ele><time>2026-04-12T10:03:48.267Z</time></trkpt><trkpt lat="44.1339833" lon="11.6338567"><ele>686.0</ele><time>2026-04-12T10:03:49.266Z</time></trkpt><trkpt lat="44.1340633" lon="11.6339"><ele>691.0</ele><time>2026-04-12T10:03:50.266Z</time></trkpt><trkpt lat="44.1341417" lon="11.6339417"><ele>696.0</ele><time>2026-04-12T10:03:51.266Z</time></trkpt><trkpt lat="44.1342183" lon="11.6339867"><ele>701.0</ele><time>2026-04-12T10:03:52.265Z</time></trkpt><trkpt lat="44.1342883" lon="11.63404"><ele>706.0</ele><time>2026-04-12T10:03:53.267Z</time></trkpt><trkpt lat="44.1343483" lon="11.634105"><ele>711.0</ele><time>2026-04-12T10:03:54.265Z</time></trkpt><trkpt lat="44.1344083" lon="11.6341817"><ele>711.0</ele><time>2026-04-12T10:03:55.266Z</time></trkpt><trkpt lat="44.134465" lon="11.634265"><ele>711.0</ele><time>2026-04-12T10:03:56.266Z</time></trkpt><trkpt lat="44.134535" lon="11.6343367"><ele>711.0</ele><time>2026-04-12T10:03:57.267Z</time></trkpt><trkpt lat="44.1346167" lon="11.6344"><ele>711.0</ele><time>2026-04-12T10:03:58.266Z</time></trkpt><trkpt lat="44.1347017" lon="11.6344683"><ele>711.0</ele><time>2026-04-12T10:03:59.266Z</time></trkpt><trkpt lat="44.1347767" lon="11.63454"><ele>707.6666666666666</ele><time>2026-04-12T10:04:00.265Z</time></trkpt><trkpt lat="44.1348433" lon="11.6346083"><ele>704.3333333333334</ele><time>2026-04-12T10:04:01.267Z</time></trkpt><trkpt lat="44.13491" lon="11.6346667"><ele>701.0</ele><time>2026-04-12T10:04:02.266Z</time></trkpt><trkpt lat="44.13497" lon="11.6347167"><ele>697.6666666666667</ele><time>2026-04-12T10:04:03.267Z</time></trkpt><trkpt lat="44.135025" lon="11.634765"><ele>694.3333333333334</ele><time>2026-04-12T10:04:04.266Z</time></trkpt><trkpt lat="44.13509" lon="11.6348633"><ele>691.0</ele><time>2026-04-12T10:04:06.266Z</time></trkpt><trkpt lat="44.1351433" lon="11.6349683"><ele>695.8</ele><time>2026-04-12T10:04:08.267Z</time></trkpt><trkpt lat="44.1352217" lon="11.6350717"><ele>700.5999999999999</ele><time>2026-04-12T10:04:10.266Z</time></trkpt><trkpt lat="44.1353033" lon="11.6351333"><ele>705.4</ele><time>2026-04-12T10:04:12.266Z</time></trkpt><trkpt lat="44.1354" lon="11.63518"><ele>710.2</ele><time>2026-04-12T10:04:14.266Z</time></trkpt><trkpt lat="44.135515" lon="11.6352267"><ele>715.0</ele><time>2026-04-12T10:04:16.266Z</time></trkpt><trkpt lat="44.135615" lon="11.6353083"><ele>715.0</ele><time>2026-04-12T10:04:18.266Z</time></trkpt><trkpt lat="44.1356967" lon="11.635395"><ele>715.0</ele><time>2026-04-12T10:04:20.266Z</time></trkpt><trkpt lat="44.1357817" lon="11.63548"><ele>715.0</ele><time>2026-04-12T10:04:22.265Z</time></trkpt><trkpt lat="44.1358617" lon="11.6355583"><ele>715.0</ele><time>2026-04-12T10:04:24.265Z</time></trkpt><trkpt lat="44.13596" lon="11.6356233"><ele>715.0</ele><time>2026-04-12T10:04:26.265Z</time></trkpt><trkpt lat="44.13607" lon="11.635685"><ele>716.8333333333334</ele><time>2026-04-12T10:04:28.265Z</time></trkpt><trkpt lat="44.136165" lon="11.6357683"><ele>718.6666666666667</ele><time>2026-04-12T10:04:30.266Z</time></trkpt><trkpt lat="44.1362317" lon="11.6358933"><ele>720.5</ele><time>2026-04-12T10:04:32.267Z</time></trkpt><trkpt lat="44.1362767" lon="11.6359633"><ele>722.3333333333334</ele><time>2026-04-12T10:04:33.267Z</time></trkpt><trkpt lat="44.1363217" lon="11.6360283"><ele>724.1666666666666</ele><time>2026-04-12T10:04:34.266Z</time></trkpt><trkpt lat="44.1363717" lon="11.6360883"><ele>726.0</ele><time>2026-04-12T10:04:35.266Z</time></trkpt><trkpt lat="44.1364267" lon="11.6361483"><ele>726.0</ele><time>2026-04-12T10:04:36.265Z</time></trkpt><trkpt lat="44.1364883" lon="11.6362133"><ele>726.0</ele><time>2026-04-12T10:04:37.266Z</time></trkpt><trkpt lat="44.1365583" lon="11.6362783"><ele>726.0</ele><time>2026-04-12T10:04:38.266Z</time></trkpt><trkpt lat="44.1366417" lon="11.6363417"><ele>726.0</ele><time>2026-04-12T10:04:39.268Z</time></trkpt><trkpt lat="44.1367267" lon="11.636405"><ele>726.0</ele><time>2026-04-12T10:04:40.266Z</time></trkpt><trkpt lat="44.1368283" lon="11.636455"><ele>729.8</ele><time>2026-04-12T10:04:41.267Z</time></trkpt><trkpt lat="44.1369217" lon="11.63651"><ele>733.5999999999999</ele><time>2026-04-12T10:04:42.266Z</time></trkpt><trkpt lat="44.137025" lon="11.6365667"><ele>737.4</ele><time>2026-04-12T10:04:43.266Z</time></trkpt><trkpt lat="44.1371283" lon="11.636625"><ele>741.2</ele><time>2026-04-12T10:04:44.265Z</time></trkpt><trkpt lat="44.1372317" lon="11.6366817"><ele>745.0</ele><time>2026-04-12T10:04:45.267Z</time></trkpt><trkpt lat="44.1373317" lon="11.636745"><ele>744.8</ele><time>2026-04-12T10:04:46.267Z</time></trkpt><trkpt lat="44.137415" lon="11.6368233"><ele>744.6</ele><time>2026-04-12T10:04:47.267Z</time></trkpt><trkpt lat="44.137485" lon="11.6369183"><ele>744.4000000000001</ele><time>2026-04-12T10:04:48.266Z</time></trkpt><trkpt lat="44.13755" lon="11.6370317"><ele>744.2</ele><time>2026-04-12T10:04:49.265Z</time></trkpt><trkpt lat="44.1376017" lon="11.637155"><ele>744.0</ele><time>2026-04-12T10:04:50.266Z</time></trkpt><trkpt lat="44.1376417" lon="11.6372767"><ele>744.0</ele><time>2026-04-12T10:04:51.267Z</time></trkpt><trkpt lat="44.1376767" lon="11.63739"><ele>744.0</ele><time>2026-04-12T10:04:52.266Z</time></trkpt><trkpt lat="44.1377083" lon="11.6374967"><ele>744.0</ele><time>2026-04-12T10:04:53.266Z</time></trkpt><trkpt lat="44.1377433" lon="11.6375967"><ele>744.0</ele><time>2026-04-12T10:04:54.266Z</time></trkpt><trkpt lat="44.13778" lon="11.6376833"><ele>744.0</ele><time>2026-04-12T10:04:55.266Z</time></trkpt><trkpt lat="44.1378617" lon="11.6378033"><ele>744.0</ele><time>2026-04-12T10:04:57.266Z</time></trkpt><trkpt lat="44.13794" lon="11.6378567"><ele>744.0</ele><time>2026-04-12T10:04:59.265Z</time></trkpt><trkpt lat="44.1380183" lon="11.6378167"><ele>744.0</ele><time>2026-04-12T10:05:02.267Z</time></trkpt><trkpt lat="44.13805" lon="11.63773"><ele>744.0</ele><time>2026-04-12T10:05:04.266Z</time></trkpt><trkpt lat="44.1380283" lon="11.6376233"><ele>744.0</ele><time>2026-04-12T10:05:20.268Z</time></trkpt><trkpt lat="44.1380383" lon="11.6375"><ele>744.0</ele><time>2026-04-12T10:05:22.268Z</time></trkpt><trkpt lat="44.1380583" lon="11.63733"><ele>744.0</ele><time>2026-04-12T10:05:24.267Z</time></trkpt><trkpt lat="44.1380733" lon="11.6372217"><ele>744.0</ele><time>2026-04-12T10:05:25.267Z</time></trkpt><trkpt lat="44.1380917" lon="11.6371217"><ele>744.0</ele><time>2026-04-12T10:05:26.266Z</time></trkpt><trkpt lat="44.1381317" lon="11.6370217"><ele>744.0</ele><time>2026-04-12T10:05:27.267Z</time></trkpt><trkpt lat="44.13819" lon="11.636925"><ele>744.0</ele><time>2026-04-12T10:05:28.265Z</time></trkpt><trkpt lat="44.1382567" lon="11.6368283"><ele>744.0</ele><time>2026-04-12T10:05:29.266Z</time></trkpt><trkpt lat="44.1383433" lon="11.636765"><ele>744.0</ele><time>2026-04-12T10:05:30.266Z</time></trkpt><trkpt lat="44.1384367" lon="11.6366933"><ele>745.8000000000001</ele><time>2026-04-12T10:05:31.266Z</time></trkpt><trkpt lat="44.13853" lon="11.6366217"><ele>747.6</ele><time>2026-04-12T10:05:32.266Z</time></trkpt><trkpt lat="44.138625" lon="11.63655"><ele>749.4</ele><time>2026-04-12T10:05:33.267Z</time></trkpt><trkpt lat="44.1387183" lon="11.636475"><ele>751.2</ele><time>2026-04-12T10:05:34.267Z</time></trkpt><trkpt lat="44.13881" lon="11.6364083"><ele>753.0</ele><time>2026-04-12T10:05:35.269Z</time></trkpt><trkpt lat="44.13891" lon="11.6363383"><ele>753.0</ele><time>2026-04-12T10:05:36.266Z</time></trkpt><trkpt lat="44.139005" lon="11.63627"><ele>753.0</ele><time>2026-04-12T10:05:37.267Z</time></trkpt><trkpt lat="44.1390867" lon="11.6361883"><ele>753.0</ele><time>2026-04-12T10:05:38.267Z</time></trkpt><trkpt lat="44.13916" lon="11.6360883"><ele>753.0</ele><time>2026-04-12T10:05:39.267Z</time></trkpt><trkpt lat="44.139225" lon="11.6359767"><ele>753.0</ele><time>2026-04-12T10:05:40.267Z</time></trkpt><trkpt lat="44.139275" lon="11.6358483"><ele>753.0</ele><time>2026-04-12T10:05:41.267Z</time></trkpt><trkpt lat="44.13932" lon="11.6357133"><ele>753.0</ele><time>2026-04-12T10:05:42.267Z</time></trkpt><trkpt lat="44.1393667" lon="11.6355717"><ele>753.0</ele><time>2026-04-12T10:05:43.267Z</time></trkpt><trkpt lat="44.1394233" lon="11.635435"><ele>753.0</ele><time>2026-04-12T10:05:44.267Z</time></trkpt><trkpt lat="44.1395" lon="11.6353033"><ele>754.0</ele><time>2026-04-12T10:05:45.267Z</time></trkpt><trkpt lat="44.1395783" lon="11.635185"><ele>755.0</ele><time>2026-04-12T10:05:46.266Z</time></trkpt><trkpt lat="44.1396667" lon="11.63507"><ele>756.0</ele><time>2026-04-12T10:05:47.266Z</time></trkpt><trkpt lat="44.1397633" lon="11.634965"><ele>757.0</ele><time>2026-04-12T10:05:48.266Z</time></trkpt><trkpt lat="44.139865" lon="11.63488"><ele>754.5</ele><time>2026-04-12T10:05:49.266Z</time></trkpt><trkpt lat="44.1399683" lon="11.6348067"><ele>752.0</ele><time>2026-04-12T10:05:50.267Z</time></trkpt><trkpt lat="44.1400767" lon="11.63473"><ele>749.5</ele><time>2026-04-12T10:05:51.267Z</time></trkpt><trkpt lat="44.140185" lon="11.634665"><ele>747.0</ele><time>2026-04-12T10:05:52.265Z</time></trkpt><trkpt lat="44.1402967" lon="11.6346183"><ele>747.0</ele><time>2026-04-12T10:05:53.267Z</time></trkpt><trkpt lat="44.1404067" lon="11.6345933"><ele>747.0</ele><time>2026-04-12T10:05:54.266Z</time></trkpt><trkpt lat="44.1405183" lon="11.6345617"><ele>747.0</ele><time>2026-04-12T10:05:55.266Z</time></trkpt><trkpt lat="44.1406233" lon="11.6345317"><ele>747.0</ele><time>2026-04-12T10:05:56.267Z</time></trkpt><trkpt lat="44.1407383" lon="11.6344967"><ele>743.75</ele><time>2026-04-12T10:05:57.266Z</time></trkpt><trkpt lat="44.1408533" lon="11.6344783"><ele>740.5</ele><time>2026-04-12T10:05:58.266Z</time></trkpt><trkpt lat="44.1409667" lon="11.634495"><ele>737.25</ele><time>2026-04-12T10:05:59.267Z</time></trkpt><trkpt lat="44.1410917" lon="11.6345383"><ele>734.0</ele><time>2026-04-12T10:06:00.267Z</time></trkpt><trkpt lat="44.1412217" lon="11.6345967"><ele>734.0</ele><time>2026-04-12T10:06:01.266Z</time></trkpt><trkpt lat="44.14135" lon="11.6346617"><ele>734.0</ele><time>2026-04-12T10:06:02.266Z</time></trkpt><trkpt lat="44.14148" lon="11.63473"><ele>734.0</ele><time>2026-04-12T10:06:03.265Z</time></trkpt><trkpt lat="44.1416083" lon="11.6347967"><ele>734.0</ele><time>2026-04-12T10:06:04.266Z</time></trkpt><trkpt lat="44.1417317" lon="11.6348667"><ele>732.75</ele><time>2026-04-12T10:06:05.268Z</time></trkpt><trkpt lat="44.14185" lon="11.63494"><ele>731.5</ele><time>2026-04-12T10:06:06.267Z</time></trkpt><trkpt lat="44.1419683" lon="11.6350083"><ele>730.25</ele><time>2026-04-12T10:06:07.268Z</time></trkpt><trkpt lat="44.142085" lon="11.635075"><ele>729.0</ele><time>2026-04-12T10:06:08.267Z</time></trkpt><trkpt lat="44.1422" lon="11.63516"><ele>729.0</ele><time>2026-04-12T10:06:09.267Z</time></trkpt><trkpt lat="44.1423233" lon="11.63523"><ele>729.0</ele><time>2026-04-12T10:06:10.267Z</time></trkpt><trkpt lat="44.1424517" lon="11.6352883"><ele>729.0</ele><time>2026-04-12T10:06:11.267Z</time></trkpt><trkpt lat="44.1425883" lon="11.635345"><ele>729.0</ele><time>2026-04-12T10:06:12.269Z</time></trkpt><trkpt lat="44.1427267" lon="11.6353967"><ele>723.75</ele><time>2026-04-12T10:06:13.267Z</time></trkpt><trkpt lat="44.142865" lon="11.6354417"><ele>718.5</ele><time>2026-04-12T10:06:14.266Z</time></trkpt><trkpt lat="44.1429983" lon="11.6354917"><ele>713.25</ele><time>2026-04-12T10:06:15.267Z</time></trkpt><trkpt lat="44.1431317" lon="11.63553"><ele>708.0</ele><time>2026-04-12T10:06:16.268Z</time></trkpt><trkpt lat="44.1432617" lon="11.6355433"><ele>707.5</ele><time>2026-04-12T10:06:17.267Z</time></trkpt><trkpt lat="44.1433883" lon="11.6355383"><ele>707.0</ele><time>2026-04-12T10:06:18.268Z</time></trkpt><trkpt lat="44.1435017" lon="11.6355133"><ele>706.5</ele><time>2026-04-12T10:06:19.267Z</time></trkpt><trkpt lat="44.1436267" lon="11.6354767"><ele>706.0</ele><time>2026-04-12T10:06:20.267Z</time></trkpt><trkpt lat="44.1437433" lon="11.6354667"><ele>706.0</ele><time>2026-04-12T10:06:21.267Z</time></trkpt><trkpt lat="44.1438567" lon="11.6354983"><ele>706.0</ele><time>2026-04-12T10:06:22.266Z</time></trkpt><trkpt lat="44.143955" lon="11.6355667"><ele>706.0</ele><time>2026-04-12T10:06:23.267Z</time></trkpt><trkpt lat="44.1440517" lon="11.63565"><ele>706.0</ele><time>2026-04-12T10:06:24.267Z</time></trkpt><trkpt lat="44.14415" lon="11.63574"><ele>704.0</ele><time>2026-04-12T10:06:25.267Z</time></trkpt><trkpt lat="44.1442533" lon="11.63583"><ele>702.0</ele><time>2026-04-12T10:06:26.267Z</time></trkpt><trkpt lat="44.1443417" lon="11.6359417"><ele>700.0</ele><time>2026-04-12T10:06:27.267Z</time></trkpt><trkpt lat="44.1444217" lon="11.63606"><ele>698.0</ele><time>2026-04-12T10:06:28.267Z</time></trkpt><trkpt lat="44.1444933" lon="11.636175"><ele>693.8</ele><time>2026-04-12T10:06:29.267Z</time></trkpt><trkpt lat="44.14457" lon="11.6362717"><ele>689.5999999999999</ele><time>2026-04-12T10:06:30.267Z</time></trkpt><trkpt lat="44.144655" lon="11.6363367"><ele>685.4000000000001</ele><time>2026-04-12T10:06:31.267Z</time></trkpt><trkpt lat="44.1447383" lon="11.6363767"><ele>681.2</ele><time>2026-04-12T10:06:32.267Z</time></trkpt><trkpt lat="44.1448183" lon="11.6364033"><ele>677.0</ele><time>2026-04-12T10:06:33.267Z</time></trkpt><trkpt lat="44.144905" lon="11.6364"><ele>676.4000000000001</ele><time>2026-04-12T10:06:34.266Z</time></trkpt><trkpt lat="44.1449883" lon="11.636385"><ele>675.8000000000001</ele><time>2026-04-12T10:06:35.267Z</time></trkpt><trkpt lat="44.1450817" lon="11.6363333"><ele>675.2</ele><time>2026-04-12T10:06:36.267Z</time></trkpt><trkpt lat="44.1451633" lon="11.6362533"><ele>674.6</ele><time>2026-04-12T10:06:37.266Z</time></trkpt><trkpt lat="44.145225" lon="11.6361583"><ele>674.0</ele><time>2026-04-12T10:06:38.267Z</time></trkpt><trkpt lat="44.1452733" lon="11.6360633"><ele>676.5</ele><time>2026-04-12T10:06:39.267Z</time></trkpt><trkpt lat="44.1453167" lon="11.63597"><ele>679.0</ele><time>2026-04-12T10:06:40.267Z</time></trkpt><trkpt lat="44.1453683" lon="11.6359083"><ele>681.5</ele><time>2026-04-12T10:06:41.267Z</time></trkpt><trkpt lat="44.1454167" lon="11.6358283"><ele>684.0</ele><time>2026-04-12T10:06:44.267Z</time></trkpt><trkpt lat="44.1454833" lon="11.635795"><ele>686.5</ele><time>2026-04-12T10:12:42.266Z</time></trkpt><trkpt lat="44.1456283" lon="11.6357833"><ele>689.0</ele><time>2026-04-12T10:12:44.266Z</time></trkpt><trkpt lat="44.1457117" lon="11.6357833"><ele>687.6666666666666</ele><time>2026-04-12T10:12:45.266Z</time></trkpt><trkpt lat="44.1457967" lon="11.6357917"><ele>686.3333333333333</ele><time>2026-04-12T10:12:46.266Z</time></trkpt><trkpt lat="44.1458717" lon="11.6358083"><ele>685.0</ele><time>2026-04-12T10:12:47.266Z</time></trkpt><trkpt lat="44.1459533" lon="11.6358233"><ele>683.6666666666666</ele><time>2026-04-12T10:12:48.267Z</time></trkpt><trkpt lat="44.1460317" lon="11.635835"><ele>682.3333333333334</ele><time>2026-04-12T10:12:49.265Z</time></trkpt><trkpt lat="44.1461033" lon="11.63585"><ele>681.0</ele><time>2026-04-12T10:12:50.265Z</time></trkpt><trkpt lat="44.146165" lon="11.63587"><ele>681.0</ele><time>2026-04-12T10:12:51.266Z</time></trkpt><trkpt lat="44.146275" lon="11.6359033"><ele>681.0</ele><time>2026-04-12T10:12:53.266Z</time></trkpt><trkpt lat="44.1463883" lon="11.635955"><ele>681.0</ele><time>2026-04-12T10:12:55.266Z</time></trkpt><trkpt lat="44.1464567" lon="11.63598"><ele>681.0</ele><time>2026-04-12T10:12:56.266Z</time></trkpt><trkpt lat="44.1465317" lon="11.6360067"><ele>681.0</ele><time>2026-04-12T10:12:57.265Z</time></trkpt><trkpt lat="44.1466133" lon="11.6360233"><ele>682.1999999999999</ele><time>2026-04-12T10:12:58.267Z</time></trkpt><trkpt lat="44.1467017" lon="11.636035"><ele>683.4</ele><time>2026-04-12T10:12:59.266Z</time></trkpt><trkpt lat="44.1468083" lon="11.6360467"><ele>684.6</ele><time>2026-04-12T10:13:00.266Z</time></trkpt><trkpt lat="44.1469167" lon="11.6360483"><ele>685.8</ele><time>2026-04-12T10:13:01.265Z</time></trkpt><trkpt lat="44.147025" lon="11.636055"><ele>687.0</ele><time>2026-04-12T10:13:02.266Z</time></trkpt><trkpt lat="44.1471267" lon="11.63607"><ele>687.0</ele><time>2026-04-12T10:13:03.266Z</time></trkpt><trkpt lat="44.1472183" lon="11.6361067"><ele>687.0</ele><time>2026-04-12T10:13:04.266Z</time></trkpt><trkpt lat="44.1473033" lon="11.6361617"><ele>687.0</ele><time>2026-04-12T10:13:05.265Z</time></trkpt><trkpt lat="44.147385" lon="11.6362383"><ele>687.0</ele><time>2026-04-12T10:13:06.265Z</time></trkpt><trkpt lat="44.1474583" lon="11.636335"><ele>687.0</ele><time>2026-04-12T10:13:07.266Z</time></trkpt><trkpt lat="44.1475183" lon="11.6364483"><ele>683.6</ele><time>2026-04-12T10:13:08.267Z</time></trkpt><trkpt lat="44.1475617" lon="11.636575"><ele>680.2</ele><time>2026-04-12T10:13:09.266Z</time></trkpt><trkpt lat="44.1475983" lon="11.6367183"><ele>676.8</ele><time>2026-04-12T10:13:10.267Z</time></trkpt><trkpt lat="44.1476417" lon="11.63685"><ele>673.4</ele><time>2026-04-12T10:13:11.265Z</time></trkpt><trkpt lat="44.1476867" lon="11.63697"><ele>670.0</ele><time>2026-04-12T10:13:12.266Z</time></trkpt><trkpt lat="44.1477267" lon="11.6370917"><ele>665.2</ele><time>2026-04-12T10:13:13.266Z</time></trkpt><trkpt lat="44.147765" lon="11.6372117"><ele>660.4</ele><time>2026-04-12T10:13:14.266Z</time></trkpt><trkpt lat="44.1477933" lon="11.63734"><ele>655.5999999999999</ele><time>2026-04-12T10:13:15.266Z</time></trkpt><trkpt lat="44.1478167" lon="11.637465"><ele>650.8</ele><time>2026-04-12T10:13:16.266Z</time></trkpt><trkpt lat="44.1478333" lon="11.6375883"><ele>646.0</ele><time>2026-04-12T10:13:17.27Z</time></trkpt><trkpt lat="44.1478467" lon="11.637705"><ele>645.1666666666667</ele><time>2026-04-12T10:13:18.265Z</time></trkpt><trkpt lat="44.1478633" lon="11.6378133"><ele>644.3333333333334</ele><time>2026-04-12T10:13:19.266Z</time></trkpt><trkpt lat="44.1478883" lon="11.6379133"><ele>643.5</ele><time>2026-04-12T10:13:20.266Z</time></trkpt><trkpt lat="44.1479133" lon="11.6380067"><ele>642.6666666666666</ele><time>2026-04-12T10:13:21.267Z</time></trkpt><trkpt lat="44.147935" lon="11.6381"><ele>641.8333333333333</ele><time>2026-04-12T10:13:22.264Z</time></trkpt><trkpt lat="44.1479517" lon="11.6382033"><ele>641.0</ele><time>2026-04-12T10:13:23.267Z</time></trkpt><trkpt lat="44.1479583" lon="11.6383217"><ele>641.0</ele><time>2026-04-12T10:13:24.266Z</time></trkpt><trkpt lat="44.1479617" lon="11.6384467"><ele>641.0</ele><time>2026-04-12T10:13:25.267Z</time></trkpt><trkpt lat="44.147955" lon="11.638575"><ele>641.0</ele><time>2026-04-12T10:13:26.267Z</time></trkpt><trkpt lat="44.1479433" lon="11.6386933"><ele>641.0</ele><time>2026-04-12T10:13:27.266Z</time></trkpt><trkpt lat="44.1479283" lon="11.6388017"><ele>641.0</ele><time>2026-04-12T10:13:28.265Z</time></trkpt><trkpt lat="44.1479017" lon="11.63891"><ele>641.0</ele><time>2026-04-12T10:13:29.266Z</time></trkpt><trkpt lat="44.1478617" lon="11.639015"><ele>640.5</ele><time>2026-04-12T10:13:30.266Z</time></trkpt><trkpt lat="44.147815" lon="11.639115"><ele>640.0</ele><time>2026-04-12T10:13:31.266Z</time></trkpt><trkpt lat="44.1477717" lon="11.639215"><ele>639.5</ele><time>2026-04-12T10:13:32.266Z</time></trkpt><trkpt lat="44.1477417" lon="11.639325"><ele>639.0</ele><time>2026-04-12T10:13:33.266Z</time></trkpt><trkpt lat="44.14772" lon="11.6394383"><ele>638.5</ele><time>2026-04-12T10:13:34.268Z</time></trkpt><trkpt lat="44.1476917" lon="11.6395467"><ele>638.0</ele><time>2026-04-12T10:13:35.267Z</time></trkpt><trkpt lat="44.1476717" lon="11.639665"><ele>636.8333333333333</ele><time>2026-04-12T10:13:36.265Z</time></trkpt><trkpt lat="44.1476533" lon="11.6397817"><ele>635.6666666666666</ele><time>2026-04-12T10:13:37.265Z</time></trkpt><trkpt lat="44.1476433" lon="11.6398933"><ele>634.5</ele><time>2026-04-12T10:13:38.266Z</time></trkpt><trkpt lat="44.1476367" lon="11.6399967"><ele>633.3333333333334</ele><time>2026-04-12T10:13:39.266Z</time></trkpt><trkpt lat="44.1476417" lon="11.640085"><ele>632.1666666666667</ele><time>2026-04-12T10:13:40.267Z</time></trkpt><trkpt lat="44.1477083" lon="11.6402017"><ele>631.0</ele><time>2026-04-12T10:13:42.266Z</time></trkpt><trkpt lat="44.1478317" lon="11.6402183"><ele>631.0</ele><time>2026-04-12T10:13:44.267Z</time></trkpt><trkpt lat="44.147895" lon="11.640195"><ele>631.0</ele><time>2026-04-12T10:13:45.267Z</time></trkpt><trkpt lat="44.1479717" lon="11.640155"><ele>631.0</ele><time>2026-04-12T10:13:46.266Z</time></trkpt><trkpt lat="44.148045" lon="11.640095"><ele>631.0</ele><time>2026-04-12T10:13:47.267Z</time></trkpt><trkpt lat="44.148125" lon="11.640025"><ele>631.0</ele><time>2026-04-12T10:13:48.267Z</time></trkpt><trkpt lat="44.1481983" lon="11.639955"><ele>631.0</ele><time>2026-04-12T10:13:49.266Z</time></trkpt><trkpt lat="44.1482633" lon="11.6398767"><ele>631.5</ele><time>2026-04-12T10:13:50.265Z</time></trkpt><trkpt lat="44.1483267" lon="11.6397783"><ele>632.0</ele><time>2026-04-12T10:13:51.267Z</time></trkpt><trkpt lat="44.1483817" lon="11.6396717"><ele>632.5</ele><time>2026-04-12T10:13:52.266Z</time></trkpt><trkpt lat="44.148425" lon="11.6395783"><ele>633.0</ele><time>2026-04-12T10:13:53.266Z</time></trkpt><trkpt lat="44.1484633" lon="11.6395017"><ele>633.5</ele><time>2026-04-12T10:13:54.266Z</time></trkpt><trkpt lat="44.1485267" lon="11.63939"><ele>634.0</ele><time>2026-04-12T10:13:56.267Z</time></trkpt><trkpt lat="44.1485767" lon="11.63931"><ele>634.0</ele><time>2026-04-12T10:13:58.266Z</time></trkpt><trkpt lat="44.1486283" lon="11.6392333"><ele>634.0</ele><time>2026-04-12T10:14:01.266Z</time></trkpt><trkpt lat="44.148645" lon="11.6393233"><ele>634.0</ele><time>2026-04-12T10:14:06.266Z</time></trkpt><trkpt lat="44.1486267" lon="11.6394083"><ele>634.0</ele><time>2026-04-12T10:14:08.266Z</time></trkpt><trkpt lat="44.14861" lon="11.6395367"><ele>634.0</ele><time>2026-04-12T10:14:10.266Z</time></trkpt><trkpt lat="44.148595" lon="11.6396233"><ele>634.0</ele><time>2026-04-12T10:14:11.266Z</time></trkpt><trkpt lat="44.14856" lon="11.639785"><ele>634.0</ele><time>2026-04-12T10:14:13.266Z</time></trkpt><trkpt lat="44.148495" lon="11.6399283"><ele>634.0</ele><time>2026-04-12T10:14:15.266Z</time></trkpt><trkpt lat="44.1484633" lon="11.6400083"><ele>634.0</ele><time>2026-04-12T10:14:16.266Z</time></trkpt><trkpt lat="44.1484333" lon="11.6400883"><ele>634.0</ele><time>2026-04-12T10:14:17.266Z</time></trkpt><trkpt lat="44.1484017" lon="11.64017"><ele>634.0</ele><time>2026-04-12T10:14:18.267Z</time></trkpt><trkpt lat="44.1483633" lon="11.6402583"><ele>634.0</ele><time>2026-04-12T10:14:19.265Z</time></trkpt><trkpt lat="44.1483267" lon="11.6403467"><ele>630.6666666666667</ele><time>2026-04-12T10:14:20.267Z</time></trkpt><trkpt lat="44.1482917" lon="11.6404517"><ele>627.3333333333334</ele><time>2026-04-12T10:14:21.266Z</time></trkpt><trkpt lat="44.1482683" lon="11.6405633"><ele>624.0</ele><time>2026-04-12T10:14:22.265Z</time></trkpt><trkpt lat="44.1482467" lon="11.640675"><ele>620.6666666666666</ele><time>2026-04-12T10:14:23.266Z</time></trkpt><trkpt lat="44.1482233" lon="11.6407717"><ele>617.3333333333333</ele><time>2026-04-12T10:14:24.267Z</time></trkpt><trkpt lat="44.1481983" lon="11.6408533"><ele>614.0</ele><time>2026-04-12T10:14:25.266Z</time></trkpt><trkpt lat="44.14816" lon="11.64096"><ele>613.5</ele><time>2026-04-12T10:14:27.267Z</time></trkpt><trkpt lat="44.1480733" lon="11.6409867"><ele>613.0</ele><time>2026-04-12T10:14:44.266Z</time></trkpt><trkpt lat="44.148015" lon="11.640945"><ele>612.5</ele><time>2026-04-12T10:14:47.267Z</time></trkpt><trkpt lat="44.1479333" lon="11.6408933"><ele>612.0</ele><time>2026-04-12T10:14:49.266Z</time></trkpt><trkpt lat="44.14783" lon="11.64084"><ele>611.5</ele><time>2026-04-12T10:14:51.267Z</time></trkpt><trkpt lat="44.1477667" lon="11.64082"><ele>611.0</ele><time>2026-04-12T10:14:52.266Z</time></trkpt><trkpt lat="44.1476983" lon="11.6408083"><ele>611.0000000000001</ele><time>2026-04-12T10:14:53.266Z</time></trkpt><trkpt lat="44.14763" lon="11.6407883"><ele>611.0</ele><time>2026-04-12T10:14:54.267Z</time></trkpt><trkpt lat="44.1475567" lon="11.6407683"><ele>611.0</ele><time>2026-04-12T10:14:55.267Z</time></trkpt><trkpt lat="44.1474817" lon="11.6407567"><ele>611.0</ele><time>2026-04-12T10:14:56.266Z</time></trkpt><trkpt lat="44.147405" lon="11.6407567"><ele>611.0</ele><time>2026-04-12T10:14:57.266Z</time></trkpt><trkpt lat="44.14734" lon="11.64076"><ele>611.0000000000001</ele><time>2026-04-12T10:14:58.266Z</time></trkpt><trkpt lat="44.147275" lon="11.640775"><ele>611.0</ele><time>2026-04-12T10:14:59.265Z</time></trkpt><trkpt lat="44.1472067" lon="11.6408217"><ele>607.0</ele><time>2026-04-12T10:15:00.267Z</time></trkpt><trkpt lat="44.1471383" lon="11.64087"><ele>603.0</ele><time>2026-04-12T10:15:01.267Z</time></trkpt><trkpt lat="44.147065" lon="11.64092"><ele>599.0</ele><time>2026-04-12T10:15:02.267Z</time></trkpt><trkpt lat="44.1469817" lon="11.6409683"><ele>595.0</ele><time>2026-04-12T10:15:03.266Z</time></trkpt><trkpt lat="44.146905" lon="11.6409967"><ele>591.0</ele><time>2026-04-12T10:15:04.266Z</time></trkpt><trkpt lat="44.1468367" lon="11.6410133"><ele>587.0</ele><time>2026-04-12T10:15:05.265Z</time></trkpt><trkpt lat="44.1467617" lon="11.6410267"><ele>587.0</ele><time>2026-04-12T10:15:06.266Z</time></trkpt><trkpt lat="44.146685" lon="11.6410333"><ele>587.0</ele><time>2026-04-12T10:15:07.27Z</time></trkpt><trkpt lat="44.146615" lon="11.6410417"><ele>587.0</ele><time>2026-04-12T10:15:08.266Z</time></trkpt><trkpt lat="44.1464933" lon="11.6410533"><ele>587.0</ele><time>2026-04-12T10:15:10.266Z</time></trkpt><trkpt lat="44.1463833" lon="11.641015"><ele>587.0</ele><time>2026-04-12T10:15:12.266Z</time></trkpt><trkpt lat="44.1463233" lon="11.640905"><ele>582.0</ele><time>2026-04-12T10:15:14.266Z</time></trkpt><trkpt lat="44.146335" lon="11.6407367"><ele>577.0</ele><time>2026-04-12T10:15:16.266Z</time></trkpt><trkpt lat="44.1463617" lon="11.6406367"><ele>572.0</ele><time>2026-04-12T10:15:17.266Z</time></trkpt><trkpt lat="44.14639" lon="11.6405333"><ele>567.0</ele><time>2026-04-12T10:15:18.267Z</time></trkpt><trkpt lat="44.146395" lon="11.6404317"><ele>562.0</ele><time>2026-04-12T10:15:19.267Z</time></trkpt><trkpt lat="44.1464033" lon="11.6403317"><ele>557.0</ele><time>2026-04-12T10:15:20.267Z</time></trkpt><trkpt lat="44.146405" lon="11.64022"><ele>557.0</ele><time>2026-04-12T10:15:21.267Z</time></trkpt><trkpt lat="44.146405" lon="11.6401183"><ele>557.0</ele><time>2026-04-12T10:15:22.265Z</time></trkpt><trkpt lat="44.1463883" lon="11.6400333"><ele>557.0</ele><time>2026-04-12T10:15:23.266Z</time></trkpt><trkpt lat="44.14635" lon="11.6399583"><ele>557.0</ele><time>2026-04-12T10:15:24.267Z</time></trkpt><trkpt lat="44.1462933" lon="11.6398517"><ele>557.0</ele><time>2026-04-12T10:15:26.267Z</time></trkpt><trkpt lat="44.1462033" lon="11.639865"><ele>557.0</ele><time>2026-04-12T10:15:28.265Z</time></trkpt><trkpt lat="44.1461" lon="11.63991"><ele>557.0</ele><time>2026-04-12T10:15:29.268Z</time></trkpt><trkpt lat="44.1460117" lon="11.6400233"><ele>557.0</ele><time>2026-04-12T10:15:30.267Z</time></trkpt><trkpt lat="44.145935" lon="11.6401267"><ele>557.0</ele><time>2026-04-12T10:15:31.266Z</time></trkpt><trkpt lat="44.1458517" lon="11.6402333"><ele>557.0</ele><time>2026-04-12T10:15:33.265Z</time></trkpt><trkpt lat="44.1457533" lon="11.640345"><ele>553.1666666666666</ele><time>2026-04-12T10:15:35.266Z</time></trkpt><trkpt lat="44.1456983" lon="11.6404717"><ele>549.3333333333333</ele><time>2026-04-12T10:15:37.266Z</time></trkpt><trkpt lat="44.1456517" lon="11.6405417"><ele>545.5</ele><time>2026-04-12T10:15:39.268Z</time></trkpt><trkpt lat="44.145595" lon="11.640625"><ele>541.6666666666666</ele><time>2026-04-12T10:15:41.266Z</time></trkpt><trkpt lat="44.1455533" lon="11.640705"><ele>537.8333333333334</ele><time>2026-04-12T10:15:44.266Z</time></trkpt><trkpt lat="44.1455367" lon="11.6408367"><ele>534.0</ele><time>2026-04-12T10:15:47.266Z</time></trkpt><trkpt lat="44.1455167" lon="11.64093"><ele>534.0</ele><time>2026-04-12T10:15:49.266Z</time></trkpt><trkpt lat="44.1455733" lon="11.6410533"><ele>534.0</ele><time>2026-04-12T10:15:50.266Z</time></trkpt><trkpt lat="44.1456683" lon="11.6411867"><ele>534.0</ele><time>2026-04-12T10:15:52.266Z</time></trkpt><trkpt lat="44.1457483" lon="11.641265"><ele>534.0</ele><time>2026-04-12T10:15:53.266Z</time></trkpt><trkpt lat="44.1458183" lon="11.6413183"><ele>534.0</ele><time>2026-04-12T10:15:54.267Z</time></trkpt><trkpt lat="44.1458867" lon="11.6413783"><ele>535.1666666666666</ele><time>2026-04-12T10:15:55.266Z</time></trkpt><trkpt lat="44.1459583" lon="11.6414483"><ele>536.3333333333334</ele><time>2026-04-12T10:15:56.266Z</time></trkpt><trkpt lat="44.1460333" lon="11.6415217"><ele>537.5</ele><time>2026-04-12T10:15:57.267Z</time></trkpt><trkpt lat="44.1461" lon="11.6416"><ele>538.6666666666667</ele><time>2026-04-12T10:15:58.266Z</time></trkpt><trkpt lat="44.1461617" lon="11.6416783"><ele>539.8333333333334</ele><time>2026-04-12T10:15:59.266Z</time></trkpt><trkpt lat="44.1462167" lon="11.641755"><ele>541.0</ele><time>2026-04-12T10:16:00.266Z</time></trkpt><trkpt lat="44.146285" lon="11.6418133"><ele>541.0</ele><time>2026-04-12T10:16:01.266Z</time></trkpt><trkpt lat="44.1463583" lon="11.641865"><ele>541.0</ele><time>2026-04-12T10:16:02.266Z</time></trkpt><trkpt lat="44.1464283" lon="11.6419033"><ele>541.0</ele><time>2026-04-12T10:16:03.267Z</time></trkpt><trkpt lat="44.1464933" lon="11.6419417"><ele>541.0</ele><time>2026-04-12T10:16:04.266Z</time></trkpt><trkpt lat="44.1465567" lon="11.6419783"><ele>541.0</ele><time>2026-04-12T10:16:05.267Z</time></trkpt><trkpt lat="44.1466233" lon="11.642035"><ele>541.0</ele><time>2026-04-12T10:16:06.267Z</time></trkpt><trkpt lat="44.1466717" lon="11.6421183"><ele>540.6666666666667</ele><time>2026-04-12T10:16:07.265Z</time></trkpt><trkpt lat="44.1467233" lon="11.642235"><ele>540.3333333333334</ele><time>2026-04-12T10:16:08.267Z</time></trkpt><trkpt lat="44.1467417" lon="11.6423567"><ele>540.0</ele><time>2026-04-12T10:16:09.266Z</time></trkpt><trkpt lat="44.146735" lon="11.64248"><ele>539.6666666666666</ele><time>2026-04-12T10:16:10.266Z</time></trkpt><trkpt lat="44.14673" lon="11.6425967"><ele>539.3333333333333</ele><time>2026-04-12T10:16:11.266Z</time></trkpt><trkpt lat="44.1467417" lon="11.64271"><ele>539.0</ele><time>2026-04-12T10:16:12.267Z</time></trkpt><trkpt lat="44.146745" lon="11.642825"><ele>537.1666666666666</ele><time>2026-04-12T10:16:13.266Z</time></trkpt><trkpt lat="44.146735" lon="11.6429383"><ele>535.3333333333333</ele><time>2026-04-12T10:16:14.266Z</time></trkpt><trkpt lat="44.14673" lon="11.643035"><ele>533.5</ele><time>2026-04-12T10:16:15.268Z</time></trkpt><trkpt lat="44.1467017" lon="11.6431467"><ele>531.6666666666666</ele><time>2026-04-12T10:16:16.266Z</time></trkpt><trkpt lat="44.14664" lon="11.64326"><ele>529.8333333333334</ele><time>2026-04-12T10:16:17.266Z</time></trkpt><trkpt lat="44.146575" lon="11.6433667"><ele>528.0</ele><time>2026-04-12T10:16:18.267Z</time></trkpt><trkpt lat="44.1465083" lon="11.643495"><ele>527.1666666666666</ele><time>2026-04-12T10:16:20.266Z</time></trkpt><trkpt lat="44.14649" lon="11.64359"><ele>526.3333333333334</ele><time>2026-04-12T10:16:21.267Z</time></trkpt><trkpt lat="44.1464917" lon="11.6436967"><ele>525.5</ele><time>2026-04-12T10:16:22.267Z</time></trkpt><trkpt lat="44.1465017" lon="11.6437933"><ele>524.6666666666667</ele><time>2026-04-12T10:16:23.267Z</time></trkpt><trkpt lat="44.1465267" lon="11.643895"><ele>523.8333333333334</ele><time>2026-04-12T10:16:24.266Z</time></trkpt><trkpt lat="44.1465433" lon="11.6439933"><ele>523.0</ele><time>2026-04-12T10:16:25.266Z</time></trkpt><trkpt lat="44.146585" lon="11.64415"><ele>517.0</ele><time>2026-04-12T10:16:27.267Z</time></trkpt><trkpt lat="44.1465417" lon="11.6443017"><ele>510.99999999999994</ele><time>2026-04-12T10:16:29.267Z</time></trkpt><trkpt lat="44.1464917" lon="11.6443867"><ele>504.99999999999994</ele><time>2026-04-12T10:16:30.266Z</time></trkpt><trkpt lat="44.146435" lon="11.6444533"><ele>499.0</ele><time>2026-04-12T10:16:31.266Z</time></trkpt><trkpt lat="44.1463483" lon="11.6445417"><ele>493.0</ele><time>2026-04-12T10:16:33.267Z</time></trkpt><trkpt lat="44.146295" lon="11.644645"><ele>492.4</ele><time>2026-04-12T10:16:35.267Z</time></trkpt><trkpt lat="44.1463033" lon="11.6448367"><ele>491.79999999999995</ele><time>2026-04-12T10:16:37.266Z</time></trkpt><trkpt lat="44.1463067" lon="11.6449483"><ele>491.2</ele><time>2026-04-12T10:16:38.267Z</time></trkpt><trkpt lat="44.1463067" lon="11.645065"><ele>490.6</ele><time>2026-04-12T10:16:39.266Z</time></trkpt><trkpt lat="44.1462917" lon="11.64518"><ele>490.0</ele><time>2026-04-12T10:16:40.266Z</time></trkpt><trkpt lat="44.1462833" lon="11.645295"><ele>489.0</ele><time>2026-04-12T10:16:41.266Z</time></trkpt><trkpt lat="44.146285" lon="11.6454033"><ele>488.0</ele><time>2026-04-12T10:16:42.266Z</time></trkpt><trkpt lat="44.1462883" lon="11.6455017"><ele>487.0</ele><time>2026-04-12T10:16:43.266Z</time></trkpt><trkpt lat="44.1463067" lon="11.64559"><ele>486.0</ele><time>2026-04-12T10:16:44.266Z</time></trkpt><trkpt lat="44.1463567" lon="11.6456517"><ele>485.0</ele><time>2026-04-12T10:16:45.268Z</time></trkpt><trkpt lat="44.1464333" lon="11.6457117"><ele>484.0</ele><time>2026-04-12T10:16:46.267Z</time></trkpt><trkpt lat="44.146505" lon="11.64574"><ele>483.0</ele><time>2026-04-12T10:16:47.267Z</time></trkpt><trkpt lat="44.1465883" lon="11.6457733"><ele>482.1666666666667</ele><time>2026-04-12T10:16:48.266Z</time></trkpt><trkpt lat="44.14666" lon="11.645815"><ele>481.33333333333337</ele><time>2026-04-12T10:16:49.267Z</time></trkpt><trkpt lat="44.1467467" lon="11.6458633"><ele>480.5</ele><time>2026-04-12T10:16:50.266Z</time></trkpt><trkpt lat="44.1468117" lon="11.6459183"><ele>479.6666666666667</ele><time>2026-04-12T10:16:51.266Z</time></trkpt><trkpt lat="44.1468967" lon="11.6459767"><ele>478.83333333333337</ele><time>2026-04-12T10:16:52.269Z</time></trkpt><trkpt lat="44.146965" lon="11.64606"><ele>478.0</ele><time>2026-04-12T10:16:53.267Z</time></trkpt><trkpt lat="44.1470567" lon="11.64613"><ele>478.00000000000006</ele><time>2026-04-12T10:16:54.266Z</time></trkpt><trkpt lat="44.1471117" lon="11.6462167"><ele>478.0</ele><time>2026-04-12T10:16:55.27Z</time></trkpt><trkpt lat="44.1471633" lon="11.6463"><ele>478.0</ele><time>2026-04-12T10:16:56.265Z</time></trkpt><trkpt lat="44.1472233" lon="11.646375"><ele>478.0</ele><time>2026-04-12T10:16:57.268Z</time></trkpt><trkpt lat="44.1472817" lon="11.6464367"><ele>478.00000000000006</ele><time>2026-04-12T10:16:58.267Z</time></trkpt><trkpt lat="44.14735" lon="11.64648"><ele>478.0</ele><time>2026-04-12T10:16:59.267Z</time></trkpt><trkpt lat="44.147415" lon="11.64652"><ele>478.6666666666667</ele><time>2026-04-12T10:17:00.265Z</time></trkpt><trkpt lat="44.1474867" lon="11.64656"><ele>479.33333333333337</ele><time>2026-04-12T10:17:01.267Z</time></trkpt><trkpt lat="44.1475483" lon="11.6465933"><ele>480.0</ele><time>2026-04-12T10:17:02.266Z</time></trkpt><trkpt lat="44.1476283" lon="11.6465817"><ele>480.66666666666663</ele><time>2026-04-12T10:17:03.268Z</time></trkpt><trkpt lat="44.1476983" lon="11.6465567"><ele>481.3333333333333</ele><time>2026-04-12T10:17:04.266Z</time></trkpt><trkpt lat="44.1477883" lon="11.646515"><ele>482.0</ele><time>2026-04-12T10:17:05.267Z</time></trkpt><trkpt lat="44.147865" lon="11.6464867"><ele>482.0</ele><time>2026-04-12T10:17:06.266Z</time></trkpt><trkpt lat="44.1479433" lon="11.6464633"><ele>482.00000000000006</ele><time>2026-04-12T10:17:07.267Z</time></trkpt><trkpt lat="44.14803" lon="11.6464317"><ele>482.00000000000006</ele><time>2026-04-12T10:17:08.266Z</time></trkpt><trkpt lat="44.1481217" lon="11.6464033"><ele>482.0</ele><time>2026-04-12T10:17:09.267Z</time></trkpt><trkpt lat="44.1482183" lon="11.6463683"><ele>482.0</ele><time>2026-04-12T10:17:10.265Z</time></trkpt><trkpt lat="44.148315" lon="11.6463317"><ele>481.66666666666663</ele><time>2026-04-12T10:17:11.267Z</time></trkpt><trkpt lat="44.1484017" lon="11.6463067"><ele>481.3333333333333</ele><time>2026-04-12T10:17:12.266Z</time></trkpt><trkpt lat="44.148485" lon="11.646285"><ele>481.0</ele><time>2026-04-12T10:17:13.266Z</time></trkpt><trkpt lat="44.1485633" lon="11.6462833"><ele>480.66666666666663</ele><time>2026-04-12T10:17:14.266Z</time></trkpt><trkpt lat="44.1486467" lon="11.6462733"><ele>480.3333333333333</ele><time>2026-04-12T10:17:15.268Z</time></trkpt><trkpt lat="44.148715" lon="11.6462767"><ele>480.0</ele><time>2026-04-12T10:17:16.266Z</time></trkpt><trkpt lat="44.1486733" lon="11.6463467"><ele>480.0</ele><time>2026-04-12T10:17:18.266Z</time></trkpt><trkpt lat="44.14864" lon="11.6464683"><ele>480.0</ele><time>2026-04-12T10:17:20.266Z</time></trkpt><trkpt lat="44.14858" lon="11.64657"><ele>480.0</ele><time>2026-04-12T10:17:21.268Z</time></trkpt><trkpt lat="44.148535" lon="11.6466517"><ele>480.0</ele><time>2026-04-12T10:17:22.267Z</time></trkpt><trkpt lat="44.1484617" lon="11.646765"><ele>480.0</ele><time>2026-04-12T10:17:23.267Z</time></trkpt><trkpt lat="44.1483517" lon="11.646895"><ele>479.0</ele><time>2026-04-12T10:17:24.267Z</time></trkpt><trkpt lat="44.148275" lon="11.647005"><ele>478.0</ele><time>2026-04-12T10:17:25.266Z</time></trkpt><trkpt lat="44.1482033" lon="11.6471083"><ele>477.0</ele><time>2026-04-12T10:17:26.266Z</time></trkpt><trkpt lat="44.1481367" lon="11.6472033"><ele>476.0</ele><time>2026-04-12T10:17:27.268Z</time></trkpt><trkpt lat="44.1480967" lon="11.6473017"><ele>475.0</ele><time>2026-04-12T10:17:28.266Z</time></trkpt><trkpt lat="44.1480783" lon="11.647405"><ele>472.50000000000006</ele><time>2026-04-12T10:17:29.267Z</time></trkpt><trkpt lat="44.148075" lon="11.6475217"><ele>470.0</ele><time>2026-04-12T10:17:30.266Z</time></trkpt><trkpt lat="44.1480717" lon="11.6476367"><ele>467.5</ele><time>2026-04-12T10:17:31.266Z</time></trkpt><trkpt lat="44.1480767" lon="11.6477567"><ele>465.0</ele><time>2026-04-12T10:17:32.267Z</time></trkpt><trkpt lat="44.1480833" lon="11.647885"><ele>462.50000000000006</ele><time>2026-04-12T10:17:33.267Z</time></trkpt><trkpt lat="44.1480833" lon="11.6480167"><ele>460.0</ele><time>2026-04-12T10:17:34.267Z</time></trkpt><trkpt lat="44.1480917" lon="11.6481383"><ele>459.99999999999994</ele><time>2026-04-12T10:17:35.266Z</time></trkpt><trkpt lat="44.1481017" lon="11.6482683"><ele>460.0</ele><time>2026-04-12T10:17:36.266Z</time></trkpt><trkpt lat="44.1481333" lon="11.64837"><ele>459.99999999999994</ele><time>2026-04-12T10:17:37.267Z</time></trkpt><trkpt lat="44.1481667" lon="11.6484633"><ele>459.99999999999994</ele><time>2026-04-12T10:17:38.267Z</time></trkpt><trkpt lat="44.1481967" lon="11.6485417"><ele>460.0</ele><time>2026-04-12T10:17:39.269Z</time></trkpt><trkpt lat="44.14826" lon="11.6485933"><ele>459.99999999999994</ele><time>2026-04-12T10:17:40.267Z</time></trkpt><trkpt lat="44.148315" lon="11.6486383"><ele>459.99999999999994</ele><time>2026-04-12T10:17:41.267Z</time></trkpt><trkpt lat="44.148385" lon="11.64869"><ele>457.33333333333337</ele><time>2026-04-12T10:17:42.267Z</time></trkpt><trkpt lat="44.1484517" lon="11.6487433"><ele>454.6666666666667</ele><time>2026-04-12T10:17:43.267Z</time></trkpt><trkpt lat="44.1485217" lon="11.648795"><ele>452.0</ele><time>2026-04-12T10:17:44.266Z</time></trkpt><trkpt lat="44.148595" lon="11.6488483"><ele>449.33333333333337</ele><time>2026-04-12T10:17:45.267Z</time></trkpt><trkpt lat="44.14867" lon="11.6489117"><ele>446.6666666666667</ele><time>2026-04-12T10:17:46.268Z</time></trkpt><trkpt lat="44.14874" lon="11.649005"><ele>444.0</ele><time>2026-04-12T10:17:47.267Z</time></trkpt><trkpt lat="44.1487917" lon="11.6490967"><ele>444.0</ele><time>2026-04-12T10:17:48.266Z</time></trkpt><trkpt lat="44.148845" lon="11.649195"><ele>444.0</ele><time>2026-04-12T10:17:49.268Z</time></trkpt><trkpt lat="44.1488867" lon="11.6492967"><ele>444.0</ele><time>2026-04-12T10:17:50.266Z</time></trkpt><trkpt lat="44.1489317" lon="11.6493917"><ele>444.0</ele><time>2026-04-12T10:17:51.268Z</time></trkpt><trkpt lat="44.1489833" lon="11.6494683"><ele>444.0</ele><time>2026-04-12T10:17:52.266Z</time></trkpt><trkpt lat="44.1490417" lon="11.64953"><ele>444.0</ele><time>2026-04-12T10:17:53.267Z</time></trkpt><trkpt lat="44.149115" lon="11.64958"><ele>442.1666666666667</ele><time>2026-04-12T10:17:54.266Z</time></trkpt><trkpt lat="44.149205" lon="11.6496083"><ele>440.33333333333337</ele><time>2026-04-12T10:17:55.266Z</time></trkpt><trkpt lat="44.1492917" lon="11.64962"><ele>438.5</ele><time>2026-04-12T10:17:56.266Z</time></trkpt><trkpt lat="44.1493667" lon="11.64962"><ele>436.6666666666667</ele><time>2026-04-12T10:17:57.267Z</time></trkpt><trkpt lat="44.1494467" lon="11.6496017"><ele>434.83333333333337</ele><time>2026-04-12T10:17:58.266Z</time></trkpt><trkpt lat="44.14951" lon="11.649585"><ele>433.0</ele><time>2026-04-12T10:17:59.267Z</time></trkpt><trkpt lat="44.1495667" lon="11.649545"><ele>433.00000000000006</ele><time>2026-04-12T10:18:00.268Z</time></trkpt><trkpt lat="44.1496433" lon="11.6495033"><ele>433.0</ele><time>2026-04-12T10:18:01.268Z</time></trkpt><trkpt lat="44.149705" lon="11.6494283"><ele>433.0</ele><time>2026-04-12T10:18:02.266Z</time></trkpt><trkpt lat="44.14975" lon="11.6493383"><ele>433.0</ele><time>2026-04-12T10:18:03.267Z</time></trkpt><trkpt lat="44.149805" lon="11.6492367"><ele>433.00000000000006</ele><time>2026-04-12T10:18:04.266Z</time></trkpt><trkpt lat="44.1498717" lon="11.6491283"><ele>433.0</ele><time>2026-04-12T10:18:05.267Z</time></trkpt><trkpt lat="44.1499467" lon="11.649015"><ele>436.83333333333337</ele><time>2026-04-12T10:18:06.266Z</time></trkpt><trkpt lat="44.15002" lon="11.6489217"><ele>440.6666666666667</ele><time>2026-04-12T10:18:07.267Z</time></trkpt><trkpt lat="44.1500817" lon="11.6488383"><ele>444.5</ele><time>2026-04-12T10:18:08.266Z</time></trkpt><trkpt lat="44.1501417" lon="11.6487583"><ele>448.33333333333337</ele><time>2026-04-12T10:18:09.268Z</time></trkpt><trkpt lat="44.15019" lon="11.648675"><ele>452.1666666666667</ele><time>2026-04-12T10:18:10.267Z</time></trkpt><trkpt lat="44.1502317" lon="11.6486033"><ele>456.0</ele><time>2026-04-12T10:18:11.266Z</time></trkpt><trkpt lat="44.1502767" lon="11.6485267"><ele>460.8333333333333</ele><time>2026-04-12T10:18:12.267Z</time></trkpt><trkpt lat="44.1503433" lon="11.64845"><ele>465.66666666666663</ele><time>2026-04-12T10:18:13.266Z</time></trkpt><trkpt lat="44.1504033" lon="11.64837"><ele>470.5</ele><time>2026-04-12T10:18:14.268Z</time></trkpt><trkpt lat="44.1504617" lon="11.648295"><ele>475.3333333333333</ele><time>2026-04-12T10:18:15.266Z</time></trkpt><trkpt lat="44.150505" lon="11.6482133"><ele>480.16666666666663</ele><time>2026-04-12T10:18:16.265Z</time></trkpt><trkpt lat="44.150555" lon="11.64815"><ele>485.0</ele><time>2026-04-12T10:18:17.266Z</time></trkpt><trkpt lat="44.150645" lon="11.648025"><ele>480.6</ele><time>2026-04-12T10:18:19.266Z</time></trkpt><trkpt lat="44.1507183" lon="11.6479517"><ele>476.2</ele><time>2026-04-12T10:18:20.268Z</time></trkpt><trkpt lat="44.150795" lon="11.6478883"><ele>471.79999999999995</ele><time>2026-04-12T10:18:21.267Z</time></trkpt><trkpt lat="44.1508633" lon="11.64786"><ele>467.4</ele><time>2026-04-12T10:18:22.266Z</time></trkpt><trkpt lat="44.15098" lon="11.647955"><ele>463.0</ele><time>2026-04-12T10:18:23.266Z</time></trkpt><trkpt lat="44.1510483" lon="11.6479933"><ele>463.00000000000006</ele><time>2026-04-12T10:18:24.267Z</time></trkpt><trkpt lat="44.1511283" lon="11.6480317"><ele>463.0</ele><time>2026-04-12T10:18:25.268Z</time></trkpt><trkpt lat="44.1511767" lon="11.6480983"><ele>463.0</ele><time>2026-04-12T10:18:26.268Z</time></trkpt><trkpt lat="44.1512433" lon="11.6481483"><ele>463.0</ele><time>2026-04-12T10:18:27.267Z</time></trkpt><trkpt lat="44.1512633" lon="11.64833"><ele>463.00000000000006</ele><time>2026-04-12T10:18:29.266Z</time></trkpt><trkpt lat="44.1512583" lon="11.6484517"><ele>463.0</ele><time>2026-04-12T10:18:30.268Z</time></trkpt><trkpt lat="44.15123" lon="11.6485533"><ele>460.5</ele><time>2026-04-12T10:18:31.266Z</time></trkpt><trkpt lat="44.151095" lon="11.6488167"><ele>458.0</ele><time>2026-04-12T10:18:32.266Z</time></trkpt><trkpt lat="44.150935" lon="11.6490683"><ele>458.0</ele><time>2026-04-12T10:18:33.267Z</time></trkpt><trkpt lat="44.15087" lon="11.649215"><ele>458.0</ele><time>2026-04-12T10:18:34.267Z</time></trkpt><trkpt lat="44.1508067" lon="11.649325"><ele>458.0</ele><time>2026-04-12T10:18:35.267Z</time></trkpt><trkpt lat="44.1507367" lon="11.649465"><ele>458.0</ele><time>2026-04-12T10:18:36.268Z</time></trkpt><trkpt lat="44.1506917" lon="11.649605"><ele>454.8333333333333</ele><time>2026-04-12T10:18:37.269Z</time></trkpt><trkpt lat="44.15064" lon="11.6496933"><ele>451.66666666666663</ele><time>2026-04-12T10:18:38.268Z</time></trkpt><trkpt lat="44.1505867" lon="11.6497817"><ele>448.5</ele><time>2026-04-12T10:18:39.266Z</time></trkpt><trkpt lat="44.1505217" lon="11.649865"><ele>445.33333333333337</ele><time>2026-04-12T10:18:40.265Z</time></trkpt><trkpt lat="44.1504567" lon="11.6499683"><ele>442.1666666666667</ele><time>2026-04-12T10:18:41.266Z</time></trkpt><trkpt lat="44.1503967" lon="11.6500633"><ele>439.0</ele><time>2026-04-12T10:18:42.268Z</time></trkpt><trkpt lat="44.1503367" lon="11.6501517"><ele>439.00000000000006</ele><time>2026-04-12T10:18:43.266Z</time></trkpt><trkpt lat="44.1502817" lon="11.6502367"><ele>439.0</ele><time>2026-04-12T10:18:44.267Z</time></trkpt><trkpt lat="44.1502333" lon="11.650315"><ele>439.0</ele><time>2026-04-12T10:18:45.267Z</time></trkpt><trkpt lat="44.1501883" lon="11.650465"><ele>439.0</ele><time>2026-04-12T10:18:47.267Z</time></trkpt><trkpt lat="44.1501867" lon="11.6505533"><ele>439.00000000000006</ele><time>2026-04-12T10:18:48.266Z</time></trkpt><trkpt lat="44.1501683" lon="11.6506517"><ele>439.0</ele><time>2026-04-12T10:18:49.267Z</time></trkpt><trkpt lat="44.15022" lon="11.6507533"><ele>438.00000000000006</ele><time>2026-04-12T10:18:51.267Z</time></trkpt><trkpt lat="44.1503333" lon="11.6508083"><ele>437.0</ele><time>2026-04-12T10:18:53.266Z</time></trkpt><trkpt lat="44.1504167" lon="11.6508417"><ele>436.0</ele><time>2026-04-12T10:18:54.265Z</time></trkpt><trkpt lat="44.15051" lon="11.6508717"><ele>435.0</ele><time>2026-04-12T10:18:55.265Z</time></trkpt><trkpt lat="44.150575" lon="11.6509117"><ele>434.00000000000006</ele><time>2026-04-12T10:18:56.265Z</time></trkpt><trkpt lat="44.1506367" lon="11.6509733"><ele>433.0</ele><time>2026-04-12T10:18:57.266Z</time></trkpt><trkpt lat="44.1507167" lon="11.6510333"><ele>431.0</ele><time>2026-04-12T10:18:58.264Z</time></trkpt><trkpt lat="44.1507983" lon="11.6511033"><ele>428.99999999999994</ele><time>2026-04-12T10:18:59.266Z</time></trkpt><trkpt lat="44.150875" lon="11.6511883"><ele>427.0</ele><time>2026-04-12T10:19:00.265Z</time></trkpt><trkpt lat="44.15095" lon="11.65128"><ele>425.0</ele><time>2026-04-12T10:19:01.266Z</time></trkpt><trkpt lat="44.151" lon="11.651385"><ele>423.0</ele><time>2026-04-12T10:19:02.265Z</time></trkpt><trkpt lat="44.151055" lon="11.65148"><ele>423.0</ele><time>2026-04-12T10:19:03.267Z</time></trkpt><trkpt lat="44.1511" lon="11.6515717"><ele>423.0</ele><time>2026-04-12T10:19:04.266Z</time></trkpt><trkpt lat="44.151165" lon="11.6516433"><ele>423.0</ele><time>2026-04-12T10:19:05.266Z</time></trkpt><trkpt lat="44.1512517" lon="11.6517017"><ele>423.0</ele><time>2026-04-12T10:19:06.265Z</time></trkpt><trkpt lat="44.151345" lon="11.65172"><ele>423.0</ele><time>2026-04-12T10:19:07.265Z</time></trkpt><trkpt lat="44.1514333" lon="11.6517367"><ele>423.0</ele><time>2026-04-12T10:19:08.267Z</time></trkpt><trkpt lat="44.15152" lon="11.65174"><ele>425.8333333333333</ele><time>2026-04-12T10:19:09.267Z</time></trkpt><trkpt lat="44.1516133" lon="11.6517017"><ele>428.66666666666663</ele><time>2026-04-12T10:19:10.265Z</time></trkpt><trkpt lat="44.1516917" lon="11.6517067"><ele>431.5</ele><time>2026-04-12T10:19:11.266Z</time></trkpt><trkpt lat="44.1517733" lon="11.6517067"><ele>434.3333333333333</ele><time>2026-04-12T10:19:12.266Z</time></trkpt><trkpt lat="44.1518583" lon="11.6517233"><ele>437.16666666666663</ele><time>2026-04-12T10:19:13.267Z</time></trkpt><trkpt lat="44.151935" lon="11.6517633"><ele>440.0</ele><time>2026-04-12T10:19:14.265Z</time></trkpt><trkpt lat="44.1520067" lon="11.6518083"><ele>439.99999999999994</ele><time>2026-04-12T10:19:15.266Z</time></trkpt><trkpt lat="44.1520917" lon="11.65185"><ele>440.0</ele><time>2026-04-12T10:19:16.265Z</time></trkpt><trkpt lat="44.1521667" lon="11.6519067"><ele>440.0</ele><time>2026-04-12T10:19:17.267Z</time></trkpt><trkpt lat="44.1522433" lon="11.651945"><ele>440.0</ele><time>2026-04-12T10:19:18.266Z</time></trkpt><trkpt lat="44.15232" lon="11.65196"><ele>439.99999999999994</ele><time>2026-04-12T10:19:19.266Z</time></trkpt><trkpt lat="44.1524067" lon="11.65201"><ele>440.0</ele><time>2026-04-12T10:19:20.266Z</time></trkpt><trkpt lat="44.1525" lon="11.65204"><ele>435.99999999999994</ele><time>2026-04-12T10:19:21.266Z</time></trkpt><trkpt lat="44.1525683" lon="11.6520583"><ele>432.0</ele><time>2026-04-12T10:19:22.264Z</time></trkpt><trkpt lat="44.15264" lon="11.6520817"><ele>428.0</ele><time>2026-04-12T10:19:23.266Z</time></trkpt><trkpt lat="44.152705" lon="11.6521067"><ele>424.0</ele><time>2026-04-12T10:19:24.267Z</time></trkpt><trkpt lat="44.1527933" lon="11.6521133"><ele>419.99999999999994</ele><time>2026-04-12T10:19:25.265Z</time></trkpt><trkpt lat="44.1528733" lon="11.6521733"><ele>416.0</ele><time>2026-04-12T10:19:26.267Z</time></trkpt><trkpt lat="44.15296" lon="11.6521917"><ele>415.99999999999994</ele><time>2026-04-12T10:19:27.265Z</time></trkpt><trkpt lat="44.153035" lon="11.6522167"><ele>416.0</ele><time>2026-04-12T10:19:28.264Z</time></trkpt><trkpt lat="44.1531033" lon="11.652255"><ele>416.0</ele><time>2026-04-12T10:19:29.265Z</time></trkpt><trkpt lat="44.1532217" lon="11.6522683"><ele>416.0</ele><time>2026-04-12T10:19:30.267Z</time></trkpt><trkpt lat="44.1532917" lon="11.652285"><ele>415.99999999999994</ele><time>2026-04-12T10:19:31.266Z</time></trkpt><trkpt lat="44.1533933" lon="11.652335"><ele>416.0</ele><time>2026-04-12T10:19:33.266Z</time></trkpt><trkpt lat="44.1532917" lon="11.6524383"><ele>414.25</ele><time>2026-04-12T10:19:39.266Z</time></trkpt><trkpt lat="44.153245" lon="11.6525467"><ele>412.5</ele><time>2026-04-12T10:19:41.265Z</time></trkpt><trkpt lat="44.1532083" lon="11.65267"><ele>410.75</ele><time>2026-04-12T10:19:42.267Z</time></trkpt><trkpt lat="44.1531" lon="11.652875"><ele>409.0</ele><time>2026-04-12T10:19:43.266Z</time></trkpt><trkpt lat="44.1530083" lon="11.6530567"><ele>409.0</ele><time>2026-04-12T10:19:44.267Z</time></trkpt><trkpt lat="44.1529567" lon="11.6532"><ele>409.0</ele><time>2026-04-12T10:19:45.266Z</time></trkpt><trkpt lat="44.1529467" lon="11.6533333"><ele>409.0</ele><time>2026-04-12T10:19:46.265Z</time></trkpt><trkpt lat="44.152955" lon="11.6534683"><ele>409.0</ele><time>2026-04-12T10:19:47.266Z</time></trkpt><trkpt lat="44.1529367" lon="11.6535967"><ele>409.0</ele><time>2026-04-12T10:19:48.267Z</time></trkpt><trkpt lat="44.1528783" lon="11.653745"><ele>407.79999999999995</ele><time>2026-04-12T10:19:49.266Z</time></trkpt><trkpt lat="44.1528517" lon="11.6538633"><ele>406.59999999999997</ele><time>2026-04-12T10:19:50.267Z</time></trkpt><trkpt lat="44.1528417" lon="11.6539883"><ele>405.4</ele><time>2026-04-12T10:19:51.266Z</time></trkpt><trkpt lat="44.152835" lon="11.6541133"><ele>404.2</ele><time>2026-04-12T10:19:52.266Z</time></trkpt><trkpt lat="44.15285" lon="11.6542667"><ele>403.0</ele><time>2026-04-12T10:19:53.265Z</time></trkpt><trkpt lat="44.15272" lon="11.6544517"><ele>401.0</ele><time>2026-04-12T10:19:54.266Z</time></trkpt><trkpt lat="44.1527467" lon="11.6545883"><ele>399.0</ele><time>2026-04-12T10:19:55.265Z</time></trkpt><trkpt lat="44.15274" lon="11.6547533"><ele>397.0</ele><time>2026-04-12T10:19:56.267Z</time></trkpt><trkpt lat="44.15278" lon="11.6548833"><ele>395.0</ele><time>2026-04-12T10:19:57.265Z</time></trkpt><trkpt lat="44.1527883" lon="11.655"><ele>393.0</ele><time>2026-04-12T10:19:58.266Z</time></trkpt><trkpt lat="44.15282" lon="11.65511"><ele>393.0</ele><time>2026-04-12T10:19:59.265Z</time></trkpt><trkpt lat="44.1528883" lon="11.6551983"><ele>393.0</ele><time>2026-04-12T10:20:00.267Z</time></trkpt><trkpt lat="44.15295" lon="11.6552717"><ele>393.0</ele><time>2026-04-12T10:20:01.266Z</time></trkpt><trkpt lat="44.1529883" lon="11.6553617"><ele>393.0</ele><time>2026-04-12T10:20:02.266Z</time></trkpt><trkpt lat="44.1530317" lon="11.6554467"><ele>393.0</ele><time>2026-04-12T10:20:03.265Z</time></trkpt><trkpt lat="44.1530583" lon="11.655535"><ele>393.0</ele><time>2026-04-12T10:20:04.265Z</time></trkpt><trkpt lat="44.1530667" lon="11.6556317"><ele>391.8333333333333</ele><time>2026-04-12T10:20:05.265Z</time></trkpt><trkpt lat="44.1530017" lon="11.6557633"><ele>390.66666666666663</ele><time>2026-04-12T10:20:06.268Z</time></trkpt><trkpt lat="44.152985" lon="11.6558683"><ele>389.5</ele><time>2026-04-12T10:20:07.266Z</time></trkpt><trkpt lat="44.15298" lon="11.65597"><ele>388.3333333333333</ele><time>2026-04-12T10:20:08.266Z</time></trkpt><trkpt lat="44.1529817" lon="11.656075"><ele>387.16666666666663</ele><time>2026-04-12T10:20:09.266Z</time></trkpt><trkpt lat="44.1530017" lon="11.6561833"><ele>386.0</ele><time>2026-04-12T10:20:10.266Z</time></trkpt><trkpt lat="44.1530367" lon="11.65631"><ele>386.0</ele><time>2026-04-12T10:20:11.265Z</time></trkpt><trkpt lat="44.1530867" lon="11.6564633"><ele>386.0</ele><time>2026-04-12T10:20:12.266Z</time></trkpt><trkpt lat="44.1531217" lon="11.6566133"><ele>386.0</ele><time>2026-04-12T10:20:13.266Z</time></trkpt><trkpt lat="44.15314" lon="11.656755"><ele>386.0</ele><time>2026-04-12T10:20:14.266Z</time></trkpt><trkpt lat="44.153155" lon="11.6568933"><ele>386.0</ele><time>2026-04-12T10:20:15.267Z</time></trkpt><trkpt lat="44.1531667" lon="11.6570283"><ele>385.8333333333333</ele><time>2026-04-12T10:20:16.266Z</time></trkpt><trkpt lat="44.15317" lon="11.657155"><ele>385.66666666666663</ele><time>2026-04-12T10:20:17.266Z</time></trkpt><trkpt lat="44.1531717" lon="11.6572767"><ele>385.5</ele><time>2026-04-12T10:20:18.267Z</time></trkpt><trkpt lat="44.1531633" lon="11.6573933"><ele>385.33333333333337</ele><time>2026-04-12T10:20:19.266Z</time></trkpt><trkpt lat="44.153165" lon="11.65751"><ele>385.1666666666667</ele><time>2026-04-12T10:20:20.267Z</time></trkpt><trkpt lat="44.1531683" lon="11.6576133"><ele>385.0</ele><time>2026-04-12T10:20:21.266Z</time></trkpt><trkpt lat="44.1531583" lon="11.6577033"><ele>385.00000000000006</ele><time>2026-04-12T10:20:22.265Z</time></trkpt><trkpt lat="44.1531417" lon="11.6577883"><ele>385.0</ele><time>2026-04-12T10:20:23.265Z</time></trkpt><trkpt lat="44.153105" lon="11.657875"><ele>385.0</ele><time>2026-04-12T10:20:25.266Z</time></trkpt><trkpt lat="44.15315" lon="11.658005"><ele>385.0</ele><time>2026-04-12T10:26:00.267Z</time></trkpt><trkpt lat="44.15317" lon="11.6580917"><ele>385.00000000000006</ele><time>2026-04-12T10:26:01.267Z</time></trkpt><trkpt lat="44.15319" lon="11.65819"><ele>385.0</ele><time>2026-04-12T10:26:02.268Z</time></trkpt><trkpt lat="44.1532067" lon="11.6582933"><ele>385.0</ele><time>2026-04-12T10:26:03.268Z</time></trkpt><trkpt lat="44.153225" lon="11.6583867"><ele>385.0</ele><time>2026-04-12T10:26:04.267Z</time></trkpt><trkpt lat="44.1532467" lon="11.6584767"><ele>385.0</ele><time>2026-04-12T10:26:05.268Z</time></trkpt><trkpt lat="44.153265" lon="11.6585717"><ele>385.0</ele><time>2026-04-12T10:26:06.267Z</time></trkpt><trkpt lat="44.1532817" lon="11.6586733"><ele>385.0</ele><time>2026-04-12T10:26:07.271Z</time></trkpt><trkpt lat="44.1533033" lon="11.6587833"><ele>385.0</ele><time>2026-04-12T10:26:08.268Z</time></trkpt><trkpt lat="44.1533317" lon="11.65889"><ele>385.0</ele><time>2026-04-12T10:26:09.268Z</time></trkpt><trkpt lat="44.1533617" lon="11.658985"><ele>383.33333333333337</ele><time>2026-04-12T10:26:10.267Z</time></trkpt><trkpt lat="44.1534017" lon="11.6590733"><ele>381.6666666666667</ele><time>2026-04-12T10:26:11.268Z</time></trkpt><trkpt lat="44.1534533" lon="11.6591517"><ele>380.0</ele><time>2026-04-12T10:26:12.268Z</time></trkpt><trkpt lat="44.1535183" lon="11.659225"><ele>378.33333333333337</ele><time>2026-04-12T10:26:13.267Z</time></trkpt><trkpt lat="44.1535917" lon="11.659295"><ele>376.6666666666667</ele><time>2026-04-12T10:26:14.268Z</time></trkpt><trkpt lat="44.1536717" lon="11.6593617"><ele>375.0</ele><time>2026-04-12T10:26:15.267Z</time></trkpt><trkpt lat="44.153755" lon="11.65942"><ele>377.0</ele><time>2026-04-12T10:26:16.267Z</time></trkpt><trkpt lat="44.153835" lon="11.6594667"><ele>379.0</ele><time>2026-04-12T10:26:17.27Z</time></trkpt><trkpt lat="44.153905" lon="11.659515"><ele>381.0</ele><time>2026-04-12T10:26:18.268Z</time></trkpt><trkpt lat="44.153965" lon="11.6595683"><ele>383.0</ele><time>2026-04-12T10:26:19.267Z</time></trkpt><trkpt lat="44.154045" lon="11.6596783"><ele>385.0</ele><time>2026-04-12T10:26:21.267Z</time></trkpt><trkpt lat="44.1540417" lon="11.6598017"><ele>387.0</ele><time>2026-04-12T10:26:23.267Z</time></trkpt><trkpt lat="44.153925" lon="11.659865"><ele>387.0</ele><time>2026-04-12T10:26:26.268Z</time></trkpt><trkpt lat="44.1538417" lon="11.6598567"><ele>387.0</ele><time>2026-04-12T10:26:27.267Z</time></trkpt><trkpt lat="44.1537267" lon="11.659845"><ele>387.0</ele><time>2026-04-12T10:26:28.267Z</time></trkpt><trkpt lat="44.153595" lon="11.6598217"><ele>387.0</ele><time>2026-04-12T10:26:29.267Z</time></trkpt><trkpt lat="44.1534567" lon="11.6597717"><ele>387.0</ele><time>2026-04-12T10:26:30.268Z</time></trkpt><trkpt lat="44.1533083" lon="11.65969"><ele>387.0</ele><time>2026-04-12T10:26:31.267Z</time></trkpt><trkpt lat="44.1531983" lon="11.6596483"><ele>387.0</ele><time>2026-04-12T10:26:32.267Z</time></trkpt><trkpt lat="44.1530967" lon="11.6596283"><ele>387.0</ele><time>2026-04-12T10:26:33.267Z</time></trkpt><trkpt lat="44.1529933" lon="11.659615"><ele>385.5</ele><time>2026-04-12T10:26:34.267Z</time></trkpt><trkpt lat="44.15289" lon="11.65964"><ele>384.0</ele><time>2026-04-12T10:26:35.266Z</time></trkpt><trkpt lat="44.1527817" lon="11.659685"><ele>382.5</ele><time>2026-04-12T10:26:36.268Z</time></trkpt><trkpt lat="44.1526617" lon="11.6597183"><ele>381.0</ele><time>2026-04-12T10:26:37.267Z</time></trkpt><trkpt lat="44.1525483" lon="11.659755"><ele>381.0</ele><time>2026-04-12T10:26:38.268Z</time></trkpt><trkpt lat="44.1524483" lon="11.659785"><ele>381.0</ele><time>2026-04-12T10:26:39.267Z</time></trkpt><trkpt lat="44.152345" lon="11.659805"><ele>381.0</ele><time>2026-04-12T10:26:40.267Z</time></trkpt><trkpt lat="44.1522433" lon="11.6598033"><ele>381.0</ele><time>2026-04-12T10:26:41.268Z</time></trkpt><trkpt lat="44.1521767" lon="11.6597983"><ele>381.0</ele><time>2026-04-12T10:26:42.268Z</time></trkpt><trkpt lat="44.1521033" lon="11.659825"><ele>379.0</ele><time>2026-04-12T10:26:43.267Z</time></trkpt><trkpt lat="44.1520333" lon="11.6598633"><ele>377.0</ele><time>2026-04-12T10:26:44.267Z</time></trkpt><trkpt lat="44.1519733" lon="11.6599217"><ele>375.0</ele><time>2026-04-12T10:26:45.268Z</time></trkpt><trkpt lat="44.1519217" lon="11.65999"><ele>373.0</ele><time>2026-04-12T10:26:46.267Z</time></trkpt><trkpt lat="44.151865" lon="11.6600767"><ele>371.0</ele><time>2026-04-12T10:26:47.267Z</time></trkpt><trkpt lat="44.1518117" lon="11.6601783"><ele>369.0</ele><time>2026-04-12T10:26:48.269Z</time></trkpt><trkpt lat="44.1517567" lon="11.6603083"><ele>369.0</ele><time>2026-04-12T10:26:49.268Z</time></trkpt><trkpt lat="44.151695" lon="11.660435"><ele>369.0</ele><time>2026-04-12T10:26:50.27Z</time></trkpt><trkpt lat="44.1516183" lon="11.6605583"><ele>369.0</ele><time>2026-04-12T10:26:51.267Z</time></trkpt><trkpt lat="44.15153" lon="11.6606717"><ele>369.0</ele><time>2026-04-12T10:26:52.266Z</time></trkpt><trkpt lat="44.1514367" lon="11.6607883"><ele>365.6</ele><time>2026-04-12T10:26:53.267Z</time></trkpt><trkpt lat="44.151345" lon="11.6609017"><ele>362.2</ele><time>2026-04-12T10:26:54.266Z</time></trkpt><trkpt lat="44.151255" lon="11.6610183"><ele>358.8</ele><time>2026-04-12T10:26:55.266Z</time></trkpt><trkpt lat="44.1511933" lon="11.6611083"><ele>355.40000000000003</ele><time>2026-04-12T10:26:56.266Z</time></trkpt><trkpt lat="44.15114" lon="11.6611817"><ele>352.0</ele><time>2026-04-12T10:26:57.268Z</time></trkpt><trkpt lat="44.1510833" lon="11.661265"><ele>352.0</ele><time>2026-04-12T10:26:58.266Z</time></trkpt><trkpt lat="44.1510533" lon="11.661355"><ele>352.0</ele><time>2026-04-12T10:26:59.266Z</time></trkpt><trkpt lat="44.1510333" lon="11.6614483"><ele>352.0</ele><time>2026-04-12T10:27:00.265Z</time></trkpt><trkpt lat="44.1510233" lon="11.66154"><ele>352.0</ele><time>2026-04-12T10:27:01.266Z</time></trkpt><trkpt lat="44.15101" lon="11.6616483"><ele>352.0</ele><time>2026-04-12T10:27:02.267Z</time></trkpt><trkpt lat="44.1510067" lon="11.661775"><ele>352.0</ele><time>2026-04-12T10:27:03.266Z</time></trkpt><trkpt lat="44.1510067" lon="11.6619117"><ele>350.8</ele><time>2026-04-12T10:27:04.266Z</time></trkpt><trkpt lat="44.151005" lon="11.662045"><ele>349.6</ele><time>2026-04-12T10:27:05.266Z</time></trkpt><trkpt lat="44.1509933" lon="11.6621767"><ele>348.40000000000003</ele><time>2026-04-12T10:27:06.266Z</time></trkpt><trkpt lat="44.15096" lon="11.6623133"><ele>347.20000000000005</ele><time>2026-04-12T10:27:07.266Z</time></trkpt><trkpt lat="44.1509383" lon="11.66246"><ele>346.0</ele><time>2026-04-12T10:27:08.267Z</time></trkpt><trkpt lat="44.1508967" lon="11.6626033"><ele>346.0</ele><time>2026-04-12T10:27:09.267Z</time></trkpt><trkpt lat="44.15087" lon="11.6627283"><ele>346.0</ele><time>2026-04-12T10:27:10.266Z</time></trkpt><trkpt lat="44.150845" lon="11.66286"><ele>346.0</ele><time>2026-04-12T10:27:11.266Z</time></trkpt><trkpt lat="44.150825" lon="11.6630117"><ele>346.0</ele><time>2026-04-12T10:27:12.268Z</time></trkpt><trkpt lat="44.15081" lon="11.6631767"><ele>346.0</ele><time>2026-04-12T10:27:13.266Z</time></trkpt><trkpt lat="44.1508" lon="11.6633417"><ele>345.0</ele><time>2026-04-12T10:27:14.266Z</time></trkpt><trkpt lat="44.15079" lon="11.6635033"><ele>344.0</ele><time>2026-04-12T10:27:15.265Z</time></trkpt><trkpt lat="44.1507767" lon="11.6636517"><ele>343.0</ele><time>2026-04-12T10:27:16.265Z</time></trkpt><trkpt lat="44.1507483" lon="11.6637783"><ele>342.0</ele><time>2026-04-12T10:27:17.266Z</time></trkpt><trkpt lat="44.1507417" lon="11.6639283"><ele>341.0</ele><time>2026-04-12T10:27:18.266Z</time></trkpt><trkpt lat="44.1507433" lon="11.6640633"><ele>340.0</ele><time>2026-04-12T10:27:19.266Z</time></trkpt><trkpt lat="44.150765" lon="11.664195"><ele>339.0</ele><time>2026-04-12T10:27:20.266Z</time></trkpt><trkpt lat="44.1508" lon="11.6643117"><ele>338.0</ele><time>2026-04-12T10:27:21.266Z</time></trkpt><trkpt lat="44.1508067" lon="11.6644317"><ele>337.0</ele><time>2026-04-12T10:27:22.265Z</time></trkpt><trkpt lat="44.1508217" lon="11.6645517"><ele>336.0</ele><time>2026-04-12T10:27:23.265Z</time></trkpt><trkpt lat="44.150845" lon="11.664675"><ele>336.0</ele><time>2026-04-12T10:27:24.268Z</time></trkpt><trkpt lat="44.1508733" lon="11.6648067"><ele>336.0</ele><time>2026-04-12T10:27:25.266Z</time></trkpt><trkpt lat="44.1508967" lon="11.6649483"><ele>336.0</ele><time>2026-04-12T10:27:26.266Z</time></trkpt><trkpt lat="44.1509367" lon="11.66508"><ele>336.0</ele><time>2026-04-12T10:27:27.266Z</time></trkpt><trkpt lat="44.1509567" lon="11.66521"><ele>336.0</ele><time>2026-04-12T10:27:28.266Z</time></trkpt><trkpt lat="44.1509783" lon="11.6653233"><ele>336.2857142857143</ele><time>2026-04-12T10:27:29.266Z</time></trkpt><trkpt lat="44.1510017" lon="11.6654283"><ele>336.57142857142856</ele><time>2026-04-12T10:27:30.266Z</time></trkpt><trkpt lat="44.1510367" lon="11.665515"><ele>336.8571428571429</ele><time>2026-04-12T10:27:31.266Z</time></trkpt><trkpt lat="44.15109" lon="11.66558"><ele>337.1428571428571</ele><time>2026-04-12T10:27:32.267Z</time></trkpt><trkpt lat="44.151155" lon="11.6656367"><ele>337.42857142857144</ele><time>2026-04-12T10:27:33.266Z</time></trkpt><trkpt lat="44.1512133" lon="11.665695"><ele>337.7142857142857</ele><time>2026-04-12T10:27:34.266Z</time></trkpt><trkpt lat="44.1512633" lon="11.665755"><ele>338.0</ele><time>2026-04-12T10:27:35.266Z</time></trkpt><trkpt lat="44.15133" lon="11.6658733"><ele>338.0</ele><time>2026-04-12T10:27:37.268Z</time></trkpt><trkpt lat="44.1513733" lon="11.6659867"><ele>338.0</ele><time>2026-04-12T10:27:39.268Z</time></trkpt><trkpt lat="44.15143" lon="11.6660917"><ele>338.0</ele><time>2026-04-12T10:27:41.267Z</time></trkpt><trkpt lat="44.1515117" lon="11.6661517"><ele>338.0</ele><time>2026-04-12T10:27:42.268Z</time></trkpt><trkpt lat="44.151565" lon="11.666235"><ele>338.0</ele><time>2026-04-12T10:27:43.266Z</time></trkpt><trkpt lat="44.15161" lon="11.6663267"><ele>338.0</ele><time>2026-04-12T10:27:44.266Z</time></trkpt><trkpt lat="44.1516417" lon="11.66641"><ele>336.0</ele><time>2026-04-12T10:27:45.266Z</time></trkpt><trkpt lat="44.1516717" lon="11.666495"><ele>334.0</ele><time>2026-04-12T10:27:46.266Z</time></trkpt><trkpt lat="44.1516633" lon="11.666615"><ele>332.0</ele><time>2026-04-12T10:27:47.268Z</time></trkpt><trkpt lat="44.1516567" lon="11.6667433"><ele>330.0</ele><time>2026-04-12T10:27:48.266Z</time></trkpt><trkpt lat="44.1516383" lon="11.6668767"><ele>328.0</ele><time>2026-04-12T10:27:49.266Z</time></trkpt><trkpt lat="44.1516283" lon="11.6670183"><ele>326.0</ele><time>2026-04-12T10:27:50.266Z</time></trkpt><trkpt lat="44.151625" lon="11.6671617"><ele>326.0</ele><time>2026-04-12T10:27:51.268Z</time></trkpt><trkpt lat="44.1516317" lon="11.667315"><ele>326.0</ele><time>2026-04-12T10:27:52.266Z</time></trkpt><trkpt lat="44.1516483" lon="11.6674567"><ele>326.0</ele><time>2026-04-12T10:27:53.267Z</time></trkpt><trkpt lat="44.1516717" lon="11.6676"><ele>326.0</ele><time>2026-04-12T10:27:54.266Z</time></trkpt><trkpt lat="44.1517167" lon="11.6677317"><ele>326.0</ele><time>2026-04-12T10:27:55.266Z</time></trkpt><trkpt lat="44.1517683" lon="11.66786"><ele>326.0</ele><time>2026-04-12T10:27:56.269Z</time></trkpt><trkpt lat="44.151815" lon="11.6679733"><ele>326.0</ele><time>2026-04-12T10:27:57.268Z</time></trkpt><trkpt lat="44.1518433" lon="11.6680933"><ele>326.0</ele><time>2026-04-12T10:27:58.266Z</time></trkpt><trkpt lat="44.1518617" lon="11.668215"><ele>326.0</ele><time>2026-04-12T10:27:59.265Z</time></trkpt><trkpt lat="44.1518667" lon="11.6683417"><ele>326.0</ele><time>2026-04-12T10:28:00.268Z</time></trkpt><trkpt lat="44.151855" lon="11.6684833"><ele>324.25</ele><time>2026-04-12T10:28:01.266Z</time></trkpt><trkpt lat="44.1518183" lon="11.6686417"><ele>322.5</ele><time>2026-04-12T10:28:02.266Z</time></trkpt><trkpt lat="44.1517767" lon="11.6688033"><ele>320.75</ele><time>2026-04-12T10:28:03.266Z</time></trkpt><trkpt lat="44.1517183" lon="11.668955"><ele>319.0</ele><time>2026-04-12T10:28:04.266Z</time></trkpt><trkpt lat="44.1516733" lon="11.66908"><ele>319.0</ele><time>2026-04-12T10:28:05.267Z</time></trkpt><trkpt lat="44.1516267" lon="11.6691717"><ele>319.0</ele><time>2026-04-12T10:28:06.266Z</time></trkpt><trkpt lat="44.1515733" lon="11.669255"><ele>319.0</ele><time>2026-04-12T10:28:07.266Z</time></trkpt><trkpt lat="44.1515" lon="11.66931"><ele>319.0</ele><time>2026-04-12T10:28:08.265Z</time></trkpt><trkpt lat="44.1514083" lon="11.6693467"><ele>319.0</ele><time>2026-04-12T10:28:09.268Z</time></trkpt><trkpt lat="44.1513083" lon="11.66939"><ele>319.0</ele><time>2026-04-12T10:28:10.266Z</time></trkpt><trkpt lat="44.15116" lon="11.66944"><ele>321.0</ele><time>2026-04-12T10:28:11.266Z</time></trkpt><trkpt lat="44.151035" lon="11.6695117"><ele>323.0</ele><time>2026-04-12T10:28:12.267Z</time></trkpt><trkpt lat="44.1509133" lon="11.66959"><ele>325.0</ele><time>2026-04-12T10:28:13.266Z</time></trkpt><trkpt lat="44.1508017" lon="11.6696633"><ele>327.0</ele><time>2026-04-12T10:28:14.267Z</time></trkpt><trkpt lat="44.1507017" lon="11.6697317"><ele>327.0</ele><time>2026-04-12T10:28:15.266Z</time></trkpt><trkpt lat="44.15062" lon="11.6698"><ele>327.0</ele><time>2026-04-12T10:28:16.266Z</time></trkpt><trkpt lat="44.1505517" lon="11.6698967"><ele>327.0</ele><time>2026-04-12T10:28:17.269Z</time></trkpt><trkpt lat="44.15048" lon="11.6700117"><ele>327.0</ele><time>2026-04-12T10:28:18.267Z</time></trkpt><trkpt lat="44.150405" lon="11.6701"><ele>327.0</ele><time>2026-04-12T10:28:19.266Z</time></trkpt><trkpt lat="44.15032" lon="11.67017"><ele>327.0</ele><time>2026-04-12T10:28:20.266Z</time></trkpt><trkpt lat="44.150225" lon="11.6702333"><ele>327.0</ele><time>2026-04-12T10:28:21.267Z</time></trkpt><trkpt lat="44.1501233" lon="11.6702983"><ele>327.0</ele><time>2026-04-12T10:28:22.266Z</time></trkpt><trkpt lat="44.15002" lon="11.67036"><ele>327.0</ele><time>2026-04-12T10:28:23.266Z</time></trkpt><trkpt lat="44.14992" lon="11.6704117"><ele>327.0</ele><time>2026-04-12T10:28:24.266Z</time></trkpt><trkpt lat="44.14983" lon="11.6704733"><ele>325.8</ele><time>2026-04-12T10:28:25.267Z</time></trkpt><trkpt lat="44.1497567" lon="11.6705333"><ele>324.6</ele><time>2026-04-12T10:28:26.266Z</time></trkpt><trkpt lat="44.149685" lon="11.6705983"><ele>323.40000000000003</ele><time>2026-04-12T10:28:27.267Z</time></trkpt><trkpt lat="44.14963" lon="11.6706933"><ele>322.20000000000005</ele><time>2026-04-12T10:28:28.266Z</time></trkpt><trkpt lat="44.1496067" lon="11.6708333"><ele>321.0</ele><time>2026-04-12T10:28:29.268Z</time></trkpt><trkpt lat="44.1495967" lon="11.6709933"><ele>326.0</ele><time>2026-04-12T10:28:30.266Z</time></trkpt><trkpt lat="44.1496183" lon="11.6712283"><ele>331.0</ele><time>2026-04-12T10:28:31.265Z</time></trkpt><trkpt lat="44.1496583" lon="11.6715267"><ele>336.0</ele><time>2026-04-12T10:28:32.267Z</time></trkpt><trkpt lat="44.14974" lon="11.6718567"><ele>338.0</ele><time>2026-04-12T10:28:33.266Z</time></trkpt><trkpt lat="44.1497783" lon="11.672125"><ele>340.0</ele><time>2026-04-12T10:28:34.267Z</time></trkpt><trkpt lat="44.1498067" lon="11.6723683"><ele>342.0</ele><time>2026-04-12T10:28:35.267Z</time></trkpt><trkpt lat="44.1498433" lon="11.67261"><ele>329.3333333333333</ele><time>2026-04-12T10:28:36.266Z</time></trkpt><trkpt lat="44.1498867" lon="11.672855"><ele>316.66666666666663</ele><time>2026-04-12T10:28:37.266Z</time></trkpt><trkpt lat="44.1499317" lon="11.673105"><ele>304.0</ele><time>2026-04-12T10:28:38.266Z</time></trkpt><trkpt lat="44.1499817" lon="11.6733717"><ele>307.0</ele><time>2026-04-12T10:28:39.266Z</time></trkpt><trkpt lat="44.1500367" lon="11.6736333"><ele>310.0</ele><time>2026-04-12T10:28:40.266Z</time></trkpt><trkpt lat="44.1501033" lon="11.6738833"><ele>313.0</ele><time>2026-04-12T10:28:41.266Z</time></trkpt><trkpt lat="44.1501633" lon="11.67414"><ele>313.0</ele><time>2026-04-12T10:28:42.265Z</time></trkpt><trkpt lat="44.15022" lon="11.67438"><ele>313.0</ele><time>2026-04-12T10:28:43.266Z</time></trkpt><trkpt lat="44.1502817" lon="11.6745983"><ele>313.0</ele><time>2026-04-12T10:28:44.267Z</time></trkpt><trkpt lat="44.1503283" lon="11.6747917"><ele>314.5</ele><time>2026-04-12T10:28:45.267Z</time></trkpt><trkpt lat="44.15036" lon="11.674965"><ele>316.0</ele><time>2026-04-12T10:28:46.266Z</time></trkpt><trkpt lat="44.1503817" lon="11.6751283"><ele>317.5</ele><time>2026-04-12T10:28:47.267Z</time></trkpt><trkpt lat="44.1503983" lon="11.6753083"><ele>319.0</ele><time>2026-04-12T10:28:48.266Z</time></trkpt><trkpt lat="44.1504017" lon="11.6755083"><ele>319.0</ele><time>2026-04-12T10:28:49.266Z</time></trkpt><trkpt lat="44.1503933" lon="11.6757"><ele>319.0</ele><time>2026-04-12T10:28:50.267Z</time></trkpt><trkpt lat="44.15039" lon="11.6758783"><ele>319.0</ele><time>2026-04-12T10:28:51.268Z</time></trkpt><trkpt lat="44.1503883" lon="11.676045"><ele>319.0</ele><time>2026-04-12T10:28:52.266Z</time></trkpt><trkpt lat="44.15039" lon="11.6762067"><ele>317.4</ele><time>2026-04-12T10:28:53.267Z</time></trkpt><trkpt lat="44.1503967" lon="11.676355"><ele>315.79999999999995</ele><time>2026-04-12T10:28:54.266Z</time></trkpt><trkpt lat="44.1503967" lon="11.6764917"><ele>314.20000000000005</ele><time>2026-04-12T10:28:55.266Z</time></trkpt><trkpt lat="44.1503983" lon="11.6766367"><ele>312.6</ele><time>2026-04-12T10:28:56.266Z</time></trkpt><trkpt lat="44.1503833" lon="11.676795"><ele>311.0</ele><time>2026-04-12T10:28:57.268Z</time></trkpt><trkpt lat="44.1503617" lon="11.6769567"><ele>308.8</ele><time>2026-04-12T10:28:58.266Z</time></trkpt><trkpt lat="44.1503233" lon="11.6771017"><ele>306.6</ele><time>2026-04-12T10:28:59.267Z</time></trkpt><trkpt lat="44.150285" lon="11.67724"><ele>304.4</ele><time>2026-04-12T10:29:00.266Z</time></trkpt><trkpt lat="44.1502433" lon="11.6773717"><ele>302.2</ele><time>2026-04-12T10:29:01.267Z</time></trkpt><trkpt lat="44.1502117" lon="11.677515"><ele>300.0</ele><time>2026-04-12T10:29:02.266Z</time></trkpt><trkpt lat="44.15018" lon="11.677665"><ele>297.6</ele><time>2026-04-12T10:29:03.266Z</time></trkpt><trkpt lat="44.1501483" lon="11.6778167"><ele>295.2</ele><time>2026-04-12T10:29:04.266Z</time></trkpt><trkpt lat="44.15012" lon="11.6779667"><ele>292.8</ele><time>2026-04-12T10:29:05.266Z</time></trkpt><trkpt lat="44.15008" lon="11.6781033"><ele>290.4</ele><time>2026-04-12T10:29:06.267Z</time></trkpt><trkpt lat="44.1500367" lon="11.67823"><ele>288.0</ele><time>2026-04-12T10:29:07.266Z</time></trkpt><trkpt lat="44.1499883" lon="11.6783583"><ele>288.0</ele><time>2026-04-12T10:29:08.268Z</time></trkpt><trkpt lat="44.14993" lon="11.678475"><ele>288.0</ele><time>2026-04-12T10:29:09.27Z</time></trkpt><trkpt lat="44.14986" lon="11.678585"><ele>288.0</ele><time>2026-04-12T10:29:10.266Z</time></trkpt><trkpt lat="44.149795" lon="11.6786783"><ele>288.0</ele><time>2026-04-12T10:29:11.267Z</time></trkpt><trkpt lat="44.1497317" lon="11.6787917"><ele>288.0</ele><time>2026-04-12T10:29:12.267Z</time></trkpt><trkpt lat="44.1496567" lon="11.6789183"><ele>289.0</ele><time>2026-04-12T10:29:13.267Z</time></trkpt><trkpt lat="44.149585" lon="11.6790583"><ele>290.0</ele><time>2026-04-12T10:29:14.266Z</time></trkpt><trkpt lat="44.1495367" lon="11.6791933"><ele>291.0</ele><time>2026-04-12T10:29:15.267Z</time></trkpt><trkpt lat="44.1494817" lon="11.6793167"><ele>292.0</ele><time>2026-04-12T10:29:16.266Z</time></trkpt><trkpt lat="44.149415" lon="11.6794383"><ele>293.0</ele><time>2026-04-12T10:29:17.268Z</time></trkpt><trkpt lat="44.1493467" lon="11.6795533"><ele>296.0</ele><time>2026-04-12T10:29:18.266Z</time></trkpt><trkpt lat="44.14926" lon="11.6796567"><ele>299.0</ele><time>2026-04-12T10:29:19.267Z</time></trkpt><trkpt lat="44.149175" lon="11.679765"><ele>302.0</ele><time>2026-04-12T10:29:20.266Z</time></trkpt><trkpt lat="44.1490917" lon="11.67989"><ele>305.0</ele><time>2026-04-12T10:29:21.267Z</time></trkpt><trkpt lat="44.1490133" lon="11.68002"><ele>305.0</ele><time>2026-04-12T10:29:22.266Z</time></trkpt><trkpt lat="44.1489383" lon="11.68015"><ele>305.0</ele><time>2026-04-12T10:29:23.267Z</time></trkpt><trkpt lat="44.148865" lon="11.68028"><ele>305.0</ele><time>2026-04-12T10:29:24.266Z</time></trkpt><trkpt lat="44.1488" lon="11.6803883"><ele>305.0</ele><time>2026-04-12T10:29:25.266Z</time></trkpt><trkpt lat="44.1487217" lon="11.680505"><ele>302.4</ele><time>2026-04-12T10:29:26.27Z</time></trkpt><trkpt lat="44.1486433" lon="11.6806083"><ele>299.8</ele><time>2026-04-12T10:29:27.267Z</time></trkpt><trkpt lat="44.1485817" lon="11.680705"><ele>297.2</ele><time>2026-04-12T10:29:28.266Z</time></trkpt><trkpt lat="44.1485167" lon="11.6808267"><ele>294.6</ele><time>2026-04-12T10:29:29.267Z</time></trkpt><trkpt lat="44.1484617" lon="11.680975"><ele>292.0</ele><time>2026-04-12T10:29:30.267Z</time></trkpt><trkpt lat="44.1484167" lon="11.6811483"><ele>289.75</ele><time>2026-04-12T10:29:31.266Z</time></trkpt><trkpt lat="44.148395" lon="11.6813317"><ele>287.5</ele><time>2026-04-12T10:29:32.266Z</time></trkpt><trkpt lat="44.148375" lon="11.681525"><ele>285.25</ele><time>2026-04-12T10:29:33.267Z</time></trkpt><trkpt lat="44.14836" lon="11.681715"><ele>283.0</ele><time>2026-04-12T10:29:34.266Z</time></trkpt><trkpt lat="44.1483517" lon="11.6818967"><ele>282.25</ele><time>2026-04-12T10:29:35.267Z</time></trkpt><trkpt lat="44.1483383" lon="11.682085"><ele>281.5</ele><time>2026-04-12T10:29:36.266Z</time></trkpt><trkpt lat="44.1483267" lon="11.68227"><ele>280.75</ele><time>2026-04-12T10:29:37.267Z</time></trkpt><trkpt lat="44.1483167" lon="11.6824333"><ele>280.0</ele><time>2026-04-12T10:29:38.266Z</time></trkpt><trkpt lat="44.1483067" lon="11.68259"><ele>279.0</ele><time>2026-04-12T10:29:39.267Z</time></trkpt><trkpt lat="44.1482633" lon="11.6827767"><ele>278.0</ele><time>2026-04-12T10:29:40.267Z</time></trkpt><trkpt lat="44.1482633" lon="11.68296"><ele>277.0</ele><time>2026-04-12T10:29:41.266Z</time></trkpt><trkpt lat="44.1482467" lon="11.683155"><ele>276.0</ele><time>2026-04-12T10:29:42.267Z</time></trkpt><trkpt lat="44.1482367" lon="11.68337"><ele>272.6666666666667</ele><time>2026-04-12T10:29:43.266Z</time></trkpt><trkpt lat="44.1482283" lon="11.6836017"><ele>269.33333333333337</ele><time>2026-04-12T10:29:44.268Z</time></trkpt><trkpt lat="44.1482183" lon="11.6838367"><ele>266.0</ele><time>2026-04-12T10:29:45.267Z</time></trkpt><trkpt lat="44.1482117" lon="11.6840917"><ele>282.0</ele><time>2026-04-12T10:29:46.266Z</time></trkpt><trkpt lat="44.1481967" lon="11.684315"><ele>298.0</ele><time>2026-04-12T10:29:47.266Z</time></trkpt><trkpt lat="44.148185" lon="11.6845267"><ele>314.0</ele><time>2026-04-12T10:29:48.266Z</time></trkpt><trkpt lat="44.1481867" lon="11.6847383"><ele>314.0</ele><time>2026-04-12T10:29:49.266Z</time></trkpt><trkpt lat="44.1481867" lon="11.6849333"><ele>314.0</ele><time>2026-04-12T10:29:50.267Z</time></trkpt><trkpt lat="44.1481783" lon="11.6851217"><ele>314.0</ele><time>2026-04-12T10:29:51.267Z</time></trkpt><trkpt lat="44.1481867" lon="11.6853033"><ele>314.0</ele><time>2026-04-12T10:29:52.266Z</time></trkpt><trkpt lat="44.1481933" lon="11.6854733"><ele>302.8</ele><time>2026-04-12T10:29:53.268Z</time></trkpt><trkpt lat="44.1482183" lon="11.6856317"><ele>291.59999999999997</ele><time>2026-04-12T10:29:54.266Z</time></trkpt><trkpt lat="44.148235" lon="11.6857717"><ele>280.4</ele><time>2026-04-12T10:29:55.266Z</time></trkpt><trkpt lat="44.1482533" lon="11.685895"><ele>269.2</ele><time>2026-04-12T10:29:56.267Z</time></trkpt><trkpt lat="44.1482583" lon="11.6860167"><ele>258.0</ele><time>2026-04-12T10:29:57.267Z</time></trkpt><trkpt lat="44.1482633" lon="11.686145"><ele>256.0</ele><time>2026-04-12T10:29:58.266Z</time></trkpt><trkpt lat="44.14827" lon="11.6862967"><ele>254.0</ele><time>2026-04-12T10:29:59.265Z</time></trkpt><trkpt lat="44.1482717" lon="11.6864567"><ele>252.0</ele><time>2026-04-12T10:30:00.266Z</time></trkpt><trkpt lat="44.1482817" lon="11.68662"><ele>250.0</ele><time>2026-04-12T10:30:01.266Z</time></trkpt><trkpt lat="44.1482933" lon="11.68678"><ele>248.0</ele><time>2026-04-12T10:30:02.267Z</time></trkpt><trkpt lat="44.14832" lon="11.6869383"><ele>246.0</ele><time>2026-04-12T10:30:03.267Z</time></trkpt><trkpt lat="44.148345" lon="11.6870967"><ele>244.0</ele><time>2026-04-12T10:30:04.266Z</time></trkpt><trkpt lat="44.1483717" lon="11.6872517"><ele>242.0</ele><time>2026-04-12T10:30:05.266Z</time></trkpt><trkpt lat="44.1483867" lon="11.687395"><ele>242.0</ele><time>2026-04-12T10:30:06.267Z</time></trkpt><trkpt lat="44.1483933" lon="11.6875333"><ele>242.0</ele><time>2026-04-12T10:30:07.266Z</time></trkpt><trkpt lat="44.14838" lon="11.68767"><ele>242.0</ele><time>2026-04-12T10:30:08.267Z</time></trkpt><trkpt lat="44.14835" lon="11.6878133"><ele>242.0</ele><time>2026-04-12T10:30:09.267Z</time></trkpt><trkpt lat="44.1483133" lon="11.68795"><ele>242.0</ele><time>2026-04-12T10:30:10.266Z</time></trkpt><trkpt lat="44.1482733" lon="11.688075"><ele>240.50000000000003</ele><time>2026-04-12T10:30:11.266Z</time></trkpt><trkpt lat="44.1482283" lon="11.6881867"><ele>239.0</ele><time>2026-04-12T10:30:12.267Z</time></trkpt><trkpt lat="44.1481833" lon="11.6882817"><ele>237.5</ele><time>2026-04-12T10:30:13.266Z</time></trkpt><trkpt lat="44.1481383" lon="11.6883617"><ele>236.0</ele><time>2026-04-12T10:30:14.267Z</time></trkpt><trkpt lat="44.1480833" lon="11.6884367"><ele>234.50000000000003</ele><time>2026-04-12T10:30:15.27Z</time></trkpt><trkpt lat="44.1480267" lon="11.6885017"><ele>233.0</ele><time>2026-04-12T10:30:16.266Z</time></trkpt><trkpt lat="44.1479717" lon="11.6885633"><ele>231.8</ele><time>2026-04-12T10:30:17.266Z</time></trkpt><trkpt lat="44.1478933" lon="11.68865"><ele>230.60000000000002</ele><time>2026-04-12T10:30:19.266Z</time></trkpt><trkpt lat="44.1478317" lon="11.688705"><ele>229.39999999999998</ele><time>2026-04-12T10:30:21.267Z</time></trkpt><trkpt lat="44.1478617" lon="11.6888217"><ele>228.2</ele><time>2026-04-12T10:30:29.268Z</time></trkpt><trkpt lat="44.1479733" lon="11.6888567"><ele>227.0</ele><time>2026-04-12T10:30:31.267Z</time></trkpt><trkpt lat="44.1480517" lon="11.6888833"><ele>227.0</ele><time>2026-04-12T10:30:32.267Z</time></trkpt><trkpt lat="44.14815" lon="11.68892"><ele>227.0</ele><time>2026-04-12T10:30:33.267Z</time></trkpt><trkpt lat="44.14824" lon="11.688985"><ele>227.0</ele><time>2026-04-12T10:30:34.266Z</time></trkpt><trkpt lat="44.148315" lon="11.6890767"><ele>227.0</ele><time>2026-04-12T10:30:35.266Z</time></trkpt><trkpt lat="44.1483767" lon="11.68919"><ele>227.0</ele><time>2026-04-12T10:30:36.268Z</time></trkpt><trkpt lat="44.148435" lon="11.6893183"><ele>227.5</ele><time>2026-04-12T10:30:37.267Z</time></trkpt><trkpt lat="44.1484983" lon="11.6894483"><ele>228.0</ele><time>2026-04-12T10:30:38.267Z</time></trkpt><trkpt lat="44.1485683" lon="11.6895817"><ele>228.5</ele><time>2026-04-12T10:30:39.267Z</time></trkpt><trkpt lat="44.1486433" lon="11.6897133"><ele>229.0</ele><time>2026-04-12T10:30:40.266Z</time></trkpt><trkpt lat="44.148735" lon="11.6898267"><ele>229.0</ele><time>2026-04-12T10:30:41.267Z</time></trkpt><trkpt lat="44.1488317" lon="11.6899267"><ele>228.99999999999997</ele><time>2026-04-12T10:30:42.267Z</time></trkpt><trkpt lat="44.148925" lon="11.6900117"><ele>228.99999999999997</ele><time>2026-04-12T10:30:43.267Z</time></trkpt><trkpt lat="44.1490117" lon="11.6900767"><ele>229.0</ele><time>2026-04-12T10:30:44.267Z</time></trkpt><trkpt lat="44.149085" lon="11.69013"><ele>229.0</ele><time>2026-04-12T10:30:45.267Z</time></trkpt><trkpt lat="44.149155" lon="11.6901683"><ele>229.79999999999998</ele><time>2026-04-12T10:30:46.265Z</time></trkpt><trkpt lat="44.1492233" lon="11.6901783"><ele>230.59999999999997</ele><time>2026-04-12T10:30:47.266Z</time></trkpt><trkpt lat="44.1493517" lon="11.6901617"><ele>231.4</ele><time>2026-04-12T10:30:49.266Z</time></trkpt><trkpt lat="44.1494567" lon="11.6900783"><ele>232.2</ele><time>2026-04-12T10:30:51.267Z</time></trkpt><trkpt lat="44.149515" lon="11.6900117"><ele>233.0</ele><time>2026-04-12T10:30:52.267Z</time></trkpt><trkpt lat="44.1495733" lon="11.689945"><ele>233.00000000000003</ele><time>2026-04-12T10:30:53.266Z</time></trkpt><trkpt lat="44.149635" lon="11.6898767"><ele>233.0</ele><time>2026-04-12T10:30:54.266Z</time></trkpt><trkpt lat="44.14969" lon="11.6898117"><ele>233.0</ele><time>2026-04-12T10:30:55.265Z</time></trkpt><trkpt lat="44.149775" lon="11.6897067"><ele>233.0</ele><time>2026-04-12T10:30:57.268Z</time></trkpt><trkpt lat="44.1498317" lon="11.689645"><ele>233.00000000000003</ele><time>2026-04-12T10:30:59.266Z</time></trkpt><trkpt lat="44.1498983" lon="11.68955"><ele>233.0</ele><time>2026-04-12T10:31:05.267Z</time></trkpt><trkpt lat="44.14999" lon="11.689445"><ele>233.60000000000002</ele><time>2026-04-12T10:31:07.267Z</time></trkpt><trkpt lat="44.1500517" lon="11.6893717"><ele>234.20000000000002</ele><time>2026-04-12T10:31:09.267Z</time></trkpt><trkpt lat="44.15015" lon="11.689255"><ele>234.8</ele><time>2026-04-12T10:31:19.266Z</time></trkpt><trkpt lat="44.1502467" lon="11.6891567"><ele>235.4</ele><time>2026-04-12T10:31:21.266Z</time></trkpt><trkpt lat="44.1503017" lon="11.6891017"><ele>236.0</ele><time>2026-04-12T10:31:22.266Z</time></trkpt><trkpt lat="44.1503567" lon="11.6890533"><ele>236.00000000000003</ele><time>2026-04-12T10:31:23.267Z</time></trkpt><trkpt lat="44.1504483" lon="11.6889683"><ele>236.0</ele><time>2026-04-12T10:31:25.267Z</time></trkpt><trkpt lat="44.1505183" lon="11.68891"><ele>236.0</ele><time>2026-04-12T10:31:27.268Z</time></trkpt><trkpt lat="44.1505867" lon="11.6888533"><ele>236.0</ele><time>2026-04-12T10:31:29.265Z</time></trkpt><trkpt lat="44.1506483" lon="11.6888183"><ele>236.00000000000003</ele><time>2026-04-12T10:31:31.269Z</time></trkpt><trkpt lat="44.1507167" lon="11.688785"><ele>236.0</ele><time>2026-04-12T10:31:33.267Z</time></trkpt><trkpt lat="44.1507733" lon="11.68872"><ele>237.4</ele><time>2026-04-12T10:32:13.265Z</time></trkpt><trkpt lat="44.1508517" lon="11.688665"><ele>238.8</ele><time>2026-04-12T10:32:15.267Z</time></trkpt><trkpt lat="44.1509267" lon="11.6885983"><ele>240.20000000000002</ele><time>2026-04-12T10:32:16.267Z</time></trkpt><trkpt lat="44.1510117" lon="11.6885333"><ele>241.60000000000002</ele><time>2026-04-12T10:32:17.266Z</time></trkpt><trkpt lat="44.1511033" lon="11.6884567"><ele>243.0</ele><time>2026-04-12T10:32:18.266Z</time></trkpt><trkpt lat="44.15122" lon="11.688355"><ele>243.0</ele><time>2026-04-12T10:32:19.266Z</time></trkpt><trkpt lat="44.15133" lon="11.6882533"><ele>243.0</ele><time>2026-04-12T10:32:20.267Z</time></trkpt><trkpt lat="44.151435" lon="11.688155"><ele>243.0</ele><time>2026-04-12T10:32:21.267Z</time></trkpt><trkpt lat="44.1515383" lon="11.68807"><ele>243.0</ele><time>2026-04-12T10:32:22.267Z</time></trkpt><trkpt lat="44.15164" lon="11.68799"><ele>243.5</ele><time>2026-04-12T10:32:23.266Z</time></trkpt><trkpt lat="44.1517517" lon="11.687905"><ele>244.0</ele><time>2026-04-12T10:32:24.268Z</time></trkpt><trkpt lat="44.15186" lon="11.6878167"><ele>244.5</ele><time>2026-04-12T10:32:25.266Z</time></trkpt><trkpt lat="44.1519783" lon="11.6877083"><ele>245.0</ele><time>2026-04-12T10:32:26.267Z</time></trkpt><trkpt lat="44.152115" lon="11.68759"><ele>245.0</ele><time>2026-04-12T10:32:27.267Z</time></trkpt><trkpt lat="44.1522433" lon="11.6874717"><ele>245.0</ele><time>2026-04-12T10:32:28.268Z</time></trkpt><trkpt lat="44.1523683" lon="11.6873533"><ele>245.0</ele><time>2026-04-12T10:32:29.266Z</time></trkpt><trkpt lat="44.15249" lon="11.6872267"><ele>246.66666666666669</ele><time>2026-04-12T10:32:30.267Z</time></trkpt><trkpt lat="44.1526117" lon="11.6871067"><ele>248.33333333333331</ele><time>2026-04-12T10:32:31.266Z</time></trkpt><trkpt lat="44.1527367" lon="11.6869867"><ele>250.0</ele><time>2026-04-12T10:32:32.267Z</time></trkpt><trkpt lat="44.1528517" lon="11.6868517"><ele>250.0</ele><time>2026-04-12T10:32:33.267Z</time></trkpt><trkpt lat="44.1529683" lon="11.68671"><ele>250.0</ele><time>2026-04-12T10:32:34.267Z</time></trkpt><trkpt lat="44.1530833" lon="11.6865733"><ele>250.0</ele><time>2026-04-12T10:32:35.266Z</time></trkpt><trkpt lat="44.15321" lon="11.6864333"><ele>251.66666666666666</ele><time>2026-04-12T10:32:36.266Z</time></trkpt><trkpt lat="44.1533483" lon="11.6863017"><ele>253.33333333333331</ele><time>2026-04-12T10:32:37.266Z</time></trkpt><trkpt lat="44.15349" lon="11.6861717"><ele>255.0</ele><time>2026-04-12T10:32:38.267Z</time></trkpt><trkpt lat="44.153635" lon="11.686055"><ele>255.0</ele><time>2026-04-12T10:32:39.267Z</time></trkpt><trkpt lat="44.1537783" lon="11.6859517"><ele>255.0</ele><time>2026-04-12T10:32:40.267Z</time></trkpt><trkpt lat="44.153925" lon="11.6858667"><ele>255.0</ele><time>2026-04-12T10:32:41.267Z</time></trkpt><trkpt lat="44.1540683" lon="11.685785"><ele>242.66666666666669</ele><time>2026-04-12T10:32:42.267Z</time></trkpt><trkpt lat="44.1542167" lon="11.6857317"><ele>230.33333333333334</ele><time>2026-04-12T10:32:43.265Z</time></trkpt><trkpt lat="44.15437" lon="11.6856867"><ele>218.0</ele><time>2026-04-12T10:32:44.267Z</time></trkpt><trkpt lat="44.15453" lon="11.6856483"><ele>218.0</ele><time>2026-04-12T10:32:45.268Z</time></trkpt><trkpt lat="44.1546883" lon="11.6856217"><ele>218.0</ele><time>2026-04-12T10:32:46.265Z</time></trkpt><trkpt lat="44.1548583" lon="11.685605"><ele>218.0</ele><time>2026-04-12T10:32:47.266Z</time></trkpt><trkpt lat="44.15503" lon="11.6855717"><ele>213.66666666666669</ele><time>2026-04-12T10:32:48.267Z</time></trkpt><trkpt lat="44.1552" lon="11.685525"><ele>209.33333333333331</ele><time>2026-04-12T10:32:49.266Z</time></trkpt><trkpt lat="44.155365" lon="11.68548"><ele>205.0</ele><time>2026-04-12T10:32:50.267Z</time></trkpt><trkpt lat="44.1555467" lon="11.68541"><ele>201.66666666666666</ele><time>2026-04-12T10:32:51.266Z</time></trkpt><trkpt lat="44.15572" lon="11.6853383"><ele>198.33333333333331</ele><time>2026-04-12T10:32:52.266Z</time></trkpt><trkpt lat="44.1558883" lon="11.685265"><ele>195.0</ele><time>2026-04-12T10:32:53.267Z</time></trkpt><trkpt lat="44.1560533" lon="11.6851933"><ele>203.33333333333331</ele><time>2026-04-12T10:32:54.267Z</time></trkpt><trkpt lat="44.1562133" lon="11.6851317"><ele>211.66666666666666</ele><time>2026-04-12T10:32:55.267Z</time></trkpt><trkpt lat="44.15637" lon="11.6850683"><ele>220.0</ele><time>2026-04-12T10:32:56.267Z</time></trkpt><trkpt lat="44.156525" lon="11.6850067"><ele>216.0</ele><time>2026-04-12T10:32:57.267Z</time></trkpt><trkpt lat="44.156675" lon="11.684945"><ele>212.0</ele><time>2026-04-12T10:32:58.267Z</time></trkpt><trkpt lat="44.156825" lon="11.6848833"><ele>208.0</ele><time>2026-04-12T10:32:59.268Z</time></trkpt><trkpt lat="44.15698" lon="11.6848183"><ele>208.0</ele><time>2026-04-12T10:33:00.266Z</time></trkpt><trkpt lat="44.1571383" lon="11.684755"><ele>208.0</ele><time>2026-04-12T10:33:01.267Z</time></trkpt><trkpt lat="44.1572983" lon="11.6846917"><ele>208.0</ele><time>2026-04-12T10:33:02.266Z</time></trkpt><trkpt lat="44.157455" lon="11.68463"><ele>206.33333333333331</ele><time>2026-04-12T10:33:03.267Z</time></trkpt><trkpt lat="44.1576117" lon="11.6845667"><ele>204.66666666666669</ele><time>2026-04-12T10:33:04.266Z</time></trkpt><trkpt lat="44.1577617" lon="11.684505"><ele>203.0</ele><time>2026-04-12T10:33:05.266Z</time></trkpt><trkpt lat="44.1579083" lon="11.684445"><ele>207.75</ele><time>2026-04-12T10:33:06.265Z</time></trkpt><trkpt lat="44.1580533" lon="11.6843933"><ele>212.5</ele><time>2026-04-12T10:33:07.268Z</time></trkpt><trkpt lat="44.1582017" lon="11.6843567"><ele>217.25</ele><time>2026-04-12T10:33:08.266Z</time></trkpt><trkpt lat="44.15835" lon="11.6843367"><ele>222.0</ele><time>2026-04-12T10:33:09.268Z</time></trkpt><trkpt lat="44.1585067" lon="11.684335"><ele>222.0</ele><time>2026-04-12T10:33:10.266Z</time></trkpt><trkpt lat="44.15866" lon="11.6843467"><ele>222.0</ele><time>2026-04-12T10:33:11.267Z</time></trkpt><trkpt lat="44.1588133" lon="11.6843767"><ele>222.0</ele><time>2026-04-12T10:33:12.267Z</time></trkpt><trkpt lat="44.158965" lon="11.684415"><ele>215.33333333333331</ele><time>2026-04-12T10:33:13.267Z</time></trkpt><trkpt lat="44.1591183" lon="11.6844683"><ele>208.66666666666666</ele><time>2026-04-12T10:33:14.267Z</time></trkpt><trkpt lat="44.1592717" lon="11.6845167"><ele>202.0</ele><time>2026-04-12T10:33:15.268Z</time></trkpt><trkpt lat="44.1594233" lon="11.6845667"><ele>202.0</ele><time>2026-04-12T10:33:16.267Z</time></trkpt><trkpt lat="44.15958" lon="11.684625"><ele>202.0</ele><time>2026-04-12T10:33:17.268Z</time></trkpt><trkpt lat="44.1597283" lon="11.6847017"><ele>202.0</ele><time>2026-04-12T10:33:18.27Z</time></trkpt><trkpt lat="44.1598683" lon="11.684815"><ele>203.5</ele><time>2026-04-12T10:33:19.267Z</time></trkpt><trkpt lat="44.1599933" lon="11.6849583"><ele>205.0</ele><time>2026-04-12T10:33:20.271Z</time></trkpt><trkpt lat="44.1601" lon="11.6851083"><ele>206.5</ele><time>2026-04-12T10:33:21.268Z</time></trkpt><trkpt lat="44.1601933" lon="11.6852417"><ele>208.0</ele><time>2026-04-12T10:33:22.267Z</time></trkpt><trkpt lat="44.1602933" lon="11.6853317"><ele>203.0</ele><time>2026-04-12T10:33:23.266Z</time></trkpt><trkpt lat="44.160405" lon="11.6853733"><ele>198.0</ele><time>2026-04-12T10:33:24.266Z</time></trkpt><trkpt lat="44.16054" lon="11.6853767"><ele>193.0</ele><time>2026-04-12T10:33:25.268Z</time></trkpt><trkpt lat="44.1606917" lon="11.6853567"><ele>188.0</ele><time>2026-04-12T10:33:26.267Z</time></trkpt><trkpt lat="44.1608533" lon="11.6853333"><ele>188.0</ele><time>2026-04-12T10:33:27.266Z</time></trkpt><trkpt lat="44.1610267" lon="11.685305"><ele>188.0</ele><time>2026-04-12T10:33:28.266Z</time></trkpt><trkpt lat="44.1612067" lon="11.6852833"><ele>188.0</ele><time>2026-04-12T10:33:29.267Z</time></trkpt><trkpt lat="44.1613917" lon="11.6852633"><ele>193.0</ele><time>2026-04-12T10:33:30.267Z</time></trkpt><trkpt lat="44.1615783" lon="11.6852483"><ele>198.0</ele><time>2026-04-12T10:33:31.268Z</time></trkpt><trkpt lat="44.1617667" lon="11.6852283"><ele>203.0</ele><time>2026-04-12T10:33:32.266Z</time></trkpt><trkpt lat="44.1619467" lon="11.6852017"><ele>203.0</ele><time>2026-04-12T10:33:33.268Z</time></trkpt><trkpt lat="44.1621217" lon="11.685175"><ele>203.0</ele><time>2026-04-12T10:33:34.266Z</time></trkpt><trkpt lat="44.162285" lon="11.6851483"><ele>203.0</ele><time>2026-04-12T10:33:35.267Z</time></trkpt><trkpt lat="44.16244" lon="11.68512"><ele>201.0</ele><time>2026-04-12T10:33:36.267Z</time></trkpt><trkpt lat="44.16259" lon="11.6850967"><ele>199.0</ele><time>2026-04-12T10:33:37.267Z</time></trkpt><trkpt lat="44.1627383" lon="11.685075"><ele>197.0</ele><time>2026-04-12T10:33:38.268Z</time></trkpt><trkpt lat="44.1628917" lon="11.6850517"><ele>197.0</ele><time>2026-04-12T10:33:39.268Z</time></trkpt><trkpt lat="44.16305" lon="11.6850267"><ele>197.0</ele><time>2026-04-12T10:33:40.266Z</time></trkpt><trkpt lat="44.1632083" lon="11.6850033"><ele>197.0</ele><time>2026-04-12T10:33:41.267Z</time></trkpt><trkpt lat="44.16337" lon="11.6849683"><ele>195.66666666666669</ele><time>2026-04-12T10:33:42.267Z</time></trkpt><trkpt lat="44.1635383" lon="11.68492"><ele>194.33333333333331</ele><time>2026-04-12T10:33:43.267Z</time></trkpt><trkpt lat="44.1637083" lon="11.6848667"><ele>193.0</ele><time>2026-04-12T10:33:44.266Z</time></trkpt><trkpt lat="44.1638833" lon="11.684815"><ele>191.66666666666666</ele><time>2026-04-12T10:33:45.268Z</time></trkpt><trkpt lat="44.16405" lon="11.68477"><ele>190.33333333333331</ele><time>2026-04-12T10:33:46.267Z</time></trkpt><trkpt lat="44.1642117" lon="11.684725"><ele>189.0</ele><time>2026-04-12T10:33:47.268Z</time></trkpt><trkpt lat="44.164375" lon="11.6846767"><ele>189.0</ele><time>2026-04-12T10:33:48.267Z</time></trkpt><trkpt lat="44.16453" lon="11.68463"><ele>189.0</ele><time>2026-04-12T10:33:49.266Z</time></trkpt><trkpt lat="44.16468" lon="11.684585"><ele>189.0</ele><time>2026-04-12T10:33:50.267Z</time></trkpt><trkpt lat="44.1648267" lon="11.6845367"><ele>189.0</ele><time>2026-04-12T10:33:51.267Z</time></trkpt><trkpt lat="44.164975" lon="11.6844833"><ele>189.0</ele><time>2026-04-12T10:33:52.266Z</time></trkpt><trkpt lat="44.1651267" lon="11.684425"><ele>189.0</ele><time>2026-04-12T10:33:53.268Z</time></trkpt><trkpt lat="44.1652783" lon="11.6843667"><ele>189.0</ele><time>2026-04-12T10:33:54.267Z</time></trkpt><trkpt lat="44.16543" lon="11.684305"><ele>189.0</ele><time>2026-04-12T10:33:55.267Z</time></trkpt><trkpt lat="44.1655767" lon="11.684245"><ele>189.0</ele><time>2026-04-12T10:33:56.267Z</time></trkpt><trkpt lat="44.165725" lon="11.6841867"><ele>187.66666666666666</ele><time>2026-04-12T10:33:57.268Z</time></trkpt><trkpt lat="44.1658783" lon="11.684135"><ele>186.33333333333331</ele><time>2026-04-12T10:33:58.267Z</time></trkpt><trkpt lat="44.16603" lon="11.6841017"><ele>185.0</ele><time>2026-04-12T10:33:59.267Z</time></trkpt><trkpt lat="44.16618" lon="11.684105"><ele>185.0</ele><time>2026-04-12T10:34:00.267Z</time></trkpt><trkpt lat="44.1663333" lon="11.68415"><ele>185.0</ele><time>2026-04-12T10:34:01.267Z</time></trkpt><trkpt lat="44.16647" lon="11.6842633"><ele>185.0</ele><time>2026-04-12T10:34:02.267Z</time></trkpt><trkpt lat="44.1666133" lon="11.6843883"><ele>182.66666666666666</ele><time>2026-04-12T10:34:03.267Z</time></trkpt><trkpt lat="44.1667567" lon="11.6845517"><ele>180.33333333333334</ele><time>2026-04-12T10:34:04.267Z</time></trkpt><trkpt lat="44.1669083" lon="11.68472"><ele>178.0</ele><time>2026-04-12T10:34:05.268Z</time></trkpt><trkpt lat="44.1670633" lon="11.684885"><ele>178.0</ele><time>2026-04-12T10:34:06.267Z</time></trkpt><trkpt lat="44.167215" lon="11.68505"><ele>178.0</ele><time>2026-04-12T10:34:07.267Z</time></trkpt><trkpt lat="44.1673683" lon="11.6852117"><ele>178.0</ele><time>2026-04-12T10:34:08.267Z</time></trkpt><trkpt lat="44.1675217" lon="11.6853767"><ele>180.33333333333334</ele><time>2026-04-12T10:34:09.267Z</time></trkpt><trkpt lat="44.1676733" lon="11.6855333"><ele>182.66666666666666</ele><time>2026-04-12T10:34:10.266Z</time></trkpt><trkpt lat="44.1678233" lon="11.6856883"><ele>185.0</ele><time>2026-04-12T10:34:11.266Z</time></trkpt><trkpt lat="44.1679717" lon="11.68584"><ele>185.0</ele><time>2026-04-12T10:34:12.267Z</time></trkpt><trkpt lat="44.1681133" lon="11.6859933"><ele>185.0</ele><time>2026-04-12T10:34:13.267Z</time></trkpt><trkpt lat="44.168255" lon="11.68614"><ele>185.0</ele><time>2026-04-12T10:34:14.266Z</time></trkpt><trkpt lat="44.1683883" lon="11.686275"><ele>183.0</ele><time>2026-04-12T10:34:15.268Z</time></trkpt><trkpt lat="44.16853" lon="11.686395"><ele>181.0</ele><time>2026-04-12T10:34:16.265Z</time></trkpt><trkpt lat="44.1686767" lon="11.6864967"><ele>179.0</ele><time>2026-04-12T10:34:17.267Z</time></trkpt><trkpt lat="44.1688183" lon="11.6865767"><ele>179.0</ele><time>2026-04-12T10:34:18.268Z</time></trkpt><trkpt lat="44.1689633" lon="11.6866367"><ele>179.0</ele><time>2026-04-12T10:34:19.267Z</time></trkpt><trkpt lat="44.169115" lon="11.6866833"><ele>179.0</ele><time>2026-04-12T10:34:20.267Z</time></trkpt><trkpt lat="44.16927" lon="11.68672"><ele>178.66666666666666</ele><time>2026-04-12T10:34:21.267Z</time></trkpt><trkpt lat="44.16943" lon="11.6867567"><ele>178.33333333333334</ele><time>2026-04-12T10:34:22.267Z</time></trkpt><trkpt lat="44.1695867" lon="11.686795"><ele>178.0</ele><time>2026-04-12T10:34:23.266Z</time></trkpt><trkpt lat="44.1697433" lon="11.6868267"><ele>178.0</ele><time>2026-04-12T10:34:24.267Z</time></trkpt><trkpt lat="44.1698933" lon="11.6868517"><ele>178.0</ele><time>2026-04-12T10:34:25.267Z</time></trkpt><trkpt lat="44.17003" lon="11.686885"><ele>178.0</ele><time>2026-04-12T10:34:26.268Z</time></trkpt><trkpt lat="44.170155" lon="11.6869517"><ele>178.0</ele><time>2026-04-12T10:34:27.267Z</time></trkpt><trkpt lat="44.17026" lon="11.6870717"><ele>177.33333333333334</ele><time>2026-04-12T10:34:28.267Z</time></trkpt><trkpt lat="44.1703033" lon="11.6872533"><ele>176.66666666666666</ele><time>2026-04-12T10:34:29.266Z</time></trkpt><trkpt lat="44.1703133" lon="11.6874717"><ele>176.0</ele><time>2026-04-12T10:34:30.268Z</time></trkpt><trkpt lat="44.1703083" lon="11.687705"><ele>176.33333333333331</ele><time>2026-04-12T10:34:31.267Z</time></trkpt><trkpt lat="44.1703" lon="11.6879517"><ele>176.66666666666666</ele><time>2026-04-12T10:34:32.267Z</time></trkpt><trkpt lat="44.1703117" lon="11.6882017"><ele>177.0</ele><time>2026-04-12T10:34:33.267Z</time></trkpt><trkpt lat="44.1703567" lon="11.6884583"><ele>176.66666666666666</ele><time>2026-04-12T10:34:34.266Z</time></trkpt><trkpt lat="44.170425" lon="11.688705"><ele>176.33333333333331</ele><time>2026-04-12T10:34:35.266Z</time></trkpt><trkpt lat="44.1705" lon="11.6889467"><ele>176.0</ele><time>2026-04-12T10:34:36.268Z</time></trkpt><trkpt lat="44.1705633" lon="11.68918"><ele>176.0</ele><time>2026-04-12T10:34:37.267Z</time></trkpt><trkpt lat="44.1706133" lon="11.6894033"><ele>176.0</ele><time>2026-04-12T10:34:38.267Z</time></trkpt><trkpt lat="44.1706533" lon="11.689615"><ele>176.0</ele><time>2026-04-12T10:34:39.267Z</time></trkpt><trkpt lat="44.1706883" lon="11.6898217"><ele>177.33333333333331</ele><time>2026-04-12T10:34:40.267Z</time></trkpt><trkpt lat="44.1707267" lon="11.6900283"><ele>178.66666666666666</ele><time>2026-04-12T10:34:41.267Z</time></trkpt><trkpt lat="44.17076" lon="11.6902383"><ele>180.0</ele><time>2026-04-12T10:34:42.268Z</time></trkpt><trkpt lat="44.1707967" lon="11.6904517"><ele>180.0</ele><time>2026-04-12T10:34:43.267Z</time></trkpt><trkpt lat="44.170865" lon="11.69065"><ele>180.0</ele><time>2026-04-12T10:34:44.267Z</time></trkpt><trkpt lat="44.170965" lon="11.6908383"><ele>180.0</ele><time>2026-04-12T10:34:45.266Z</time></trkpt><trkpt lat="44.1710933" lon="11.691025"><ele>175.33333333333334</ele><time>2026-04-12T10:34:46.266Z</time></trkpt><trkpt lat="44.17123" lon="11.69122"><ele>170.66666666666669</ele><time>2026-04-12T10:34:47.266Z</time></trkpt><trkpt lat="44.1713683" lon="11.6914183"><ele>166.0</ele><time>2026-04-12T10:34:48.266Z</time></trkpt><trkpt lat="44.171505" lon="11.691605"><ele>166.0</ele><time>2026-04-12T10:34:49.265Z</time></trkpt><trkpt lat="44.1716367" lon="11.6917783"><ele>166.0</ele><time>2026-04-12T10:34:50.267Z</time></trkpt><trkpt lat="44.1717617" lon="11.6919433"><ele>166.0</ele><time>2026-04-12T10:34:51.266Z</time></trkpt><trkpt lat="44.1718867" lon="11.6921017"><ele>166.0</ele><time>2026-04-12T10:34:52.266Z</time></trkpt><trkpt lat="44.1720167" lon="11.6922483"><ele>166.0</ele><time>2026-04-12T10:34:53.266Z</time></trkpt><trkpt lat="44.1721583" lon="11.692375"><ele>166.0</ele><time>2026-04-12T10:34:54.267Z</time></trkpt><trkpt lat="44.1723033" lon="11.6924817"><ele>169.66666666666669</ele><time>2026-04-12T10:34:55.266Z</time></trkpt><trkpt lat="44.1724617" lon="11.6925683"><ele>173.33333333333334</ele><time>2026-04-12T10:34:56.269Z</time></trkpt><trkpt lat="44.172625" lon="11.6926433"><ele>177.0</ele><time>2026-04-12T10:34:57.266Z</time></trkpt><trkpt lat="44.1727967" lon="11.6926967"><ele>177.0</ele><time>2026-04-12T10:34:58.269Z</time></trkpt><trkpt lat="44.1729783" lon="11.692725"><ele>177.0</ele><time>2026-04-12T10:34:59.269Z</time></trkpt><trkpt lat="44.17317" lon="11.6927417"><ele>177.0</ele><time>2026-04-12T10:35:00.267Z</time></trkpt><trkpt lat="44.1733617" lon="11.6927533"><ele>175.0</ele><time>2026-04-12T10:35:01.268Z</time></trkpt><trkpt lat="44.17355" lon="11.6927583"><ele>173.0</ele><time>2026-04-12T10:35:02.268Z</time></trkpt><trkpt lat="44.1737333" lon="11.6927667"><ele>171.0</ele><time>2026-04-12T10:35:03.268Z</time></trkpt><trkpt lat="44.1739133" lon="11.692775"><ele>170.33333333333334</ele><time>2026-04-12T10:35:04.267Z</time></trkpt><trkpt lat="44.1740933" lon="11.6927867"><ele>169.66666666666669</ele><time>2026-04-12T10:35:05.268Z</time></trkpt><trkpt lat="44.17428" lon="11.6927983"><ele>169.0</ele><time>2026-04-12T10:35:06.268Z</time></trkpt><trkpt lat="44.1744633" lon="11.6928067"><ele>169.0</ele><time>2026-04-12T10:35:07.267Z</time></trkpt><trkpt lat="44.1746483" lon="11.692815"><ele>169.0</ele><time>2026-04-12T10:35:08.269Z</time></trkpt><trkpt lat="44.1748367" lon="11.6928283"><ele>169.0</ele><time>2026-04-12T10:35:09.269Z</time></trkpt><trkpt lat="44.1750217" lon="11.6928517"><ele>170.0</ele><time>2026-04-12T10:35:10.267Z</time></trkpt><trkpt lat="44.1752083" lon="11.6928883"><ele>171.0</ele><time>2026-04-12T10:35:11.267Z</time></trkpt><trkpt lat="44.1753933" lon="11.692935"><ele>172.0</ele><time>2026-04-12T10:35:12.268Z</time></trkpt><trkpt lat="44.1755783" lon="11.6929867"><ele>172.33333333333334</ele><time>2026-04-12T10:35:13.267Z</time></trkpt><trkpt lat="44.1757667" lon="11.693035"><ele>172.66666666666666</ele><time>2026-04-12T10:35:14.267Z</time></trkpt><trkpt lat="44.1759517" lon="11.69308"><ele>173.0</ele><time>2026-04-12T10:35:15.267Z</time></trkpt><trkpt lat="44.1761317" lon="11.6931233"><ele>173.0</ele><time>2026-04-12T10:35:16.268Z</time></trkpt><trkpt lat="44.17631" lon="11.6931667"><ele>173.0</ele><time>2026-04-12T10:35:17.268Z</time></trkpt><trkpt lat="44.1764867" lon="11.6932117"><ele>173.0</ele><time>2026-04-12T10:35:18.268Z</time></trkpt><trkpt lat="44.17667" lon="11.693255"><ele>172.33333333333331</ele><time>2026-04-12T10:35:19.268Z</time></trkpt><trkpt lat="44.176855" lon="11.693295"><ele>171.66666666666666</ele><time>2026-04-12T10:35:20.267Z</time></trkpt><trkpt lat="44.1770433" lon="11.6933383"><ele>171.0</ele><time>2026-04-12T10:35:21.268Z</time></trkpt><trkpt lat="44.1772317" lon="11.6933817"><ele>171.0</ele><time>2026-04-12T10:35:22.266Z</time></trkpt><trkpt lat="44.177415" lon="11.6934267"><ele>171.0</ele><time>2026-04-12T10:35:23.266Z</time></trkpt><trkpt lat="44.177595" lon="11.6934717"><ele>171.0</ele><time>2026-04-12T10:35:24.267Z</time></trkpt><trkpt lat="44.1777717" lon="11.6935183"><ele>171.0</ele><time>2026-04-12T10:35:25.266Z</time></trkpt><trkpt lat="44.1779483" lon="11.6935633"><ele>171.0</ele><time>2026-04-12T10:35:26.267Z</time></trkpt><trkpt lat="44.1781233" lon="11.6936067"><ele>171.0</ele><time>2026-04-12T10:35:27.267Z</time></trkpt><trkpt lat="44.1782983" lon="11.69365"><ele>170.33333333333334</ele><time>2026-04-12T10:35:28.266Z</time></trkpt><trkpt lat="44.1784733" lon="11.6937017"><ele>169.66666666666669</ele><time>2026-04-12T10:35:29.268Z</time></trkpt><trkpt lat="44.17864" lon="11.69377"><ele>169.0</ele><time>2026-04-12T10:35:30.268Z</time></trkpt><trkpt lat="44.1787967" lon="11.693865"><ele>169.0</ele><time>2026-04-12T10:35:31.266Z</time></trkpt><trkpt lat="44.178945" lon="11.693985"><ele>169.0</ele><time>2026-04-12T10:35:32.271Z</time></trkpt><trkpt lat="44.1790883" lon="11.6941267"><ele>169.0</ele><time>2026-04-12T10:35:33.267Z</time></trkpt><trkpt lat="44.1792267" lon="11.6942867"><ele>167.33333333333334</ele><time>2026-04-12T10:35:34.268Z</time></trkpt><trkpt lat="44.179345" lon="11.6944633"><ele>165.66666666666666</ele><time>2026-04-12T10:35:35.266Z</time></trkpt><trkpt lat="44.179455" lon="11.6946583"><ele>164.0</ele><time>2026-04-12T10:35:36.267Z</time></trkpt><trkpt lat="44.1795567" lon="11.6948667"><ele>164.0</ele><time>2026-04-12T10:35:37.267Z</time></trkpt><trkpt lat="44.1796533" lon="11.6950783"><ele>164.0</ele><time>2026-04-12T10:35:38.268Z</time></trkpt><trkpt lat="44.17975" lon="11.69529"><ele>164.0</ele><time>2026-04-12T10:35:39.267Z</time></trkpt><trkpt lat="44.1798517" lon="11.6954967"><ele>164.66666666666666</ele><time>2026-04-12T10:35:40.267Z</time></trkpt><trkpt lat="44.179955" lon="11.6957017"><ele>165.33333333333334</ele><time>2026-04-12T10:35:41.267Z</time></trkpt><trkpt lat="44.1800617" lon="11.695905"><ele>166.0</ele><time>2026-04-12T10:35:42.267Z</time></trkpt><trkpt lat="44.1801667" lon="11.6961067"><ele>163.33333333333334</ele><time>2026-04-12T10:35:43.268Z</time></trkpt><trkpt lat="44.18027" lon="11.6963033"><ele>160.66666666666666</ele><time>2026-04-12T10:35:44.268Z</time></trkpt><trkpt lat="44.1803733" lon="11.6965"><ele>158.0</ele><time>2026-04-12T10:35:45.267Z</time></trkpt><trkpt lat="44.1804717" lon="11.6967"><ele>158.0</ele><time>2026-04-12T10:35:46.268Z</time></trkpt><trkpt lat="44.1805683" lon="11.6969"><ele>158.0</ele><time>2026-04-12T10:35:47.266Z</time></trkpt><trkpt lat="44.1806667" lon="11.697095"><ele>158.0</ele><time>2026-04-12T10:35:48.267Z</time></trkpt><trkpt lat="44.180765" lon="11.6972917"><ele>159.33333333333331</ele><time>2026-04-12T10:35:49.267Z</time></trkpt><trkpt lat="44.1808633" lon="11.6974817"><ele>160.66666666666666</ele><time>2026-04-12T10:35:50.267Z</time></trkpt><trkpt lat="44.1809617" lon="11.6976617"><ele>162.0</ele><time>2026-04-12T10:35:51.268Z</time></trkpt><trkpt lat="44.1810617" lon="11.6978367"><ele>162.0</ele><time>2026-04-12T10:35:52.267Z</time></trkpt><trkpt lat="44.1811633" lon="11.6980083"><ele>162.0</ele><time>2026-04-12T10:35:53.268Z</time></trkpt><trkpt lat="44.1812683" lon="11.6981733"><ele>162.0</ele><time>2026-04-12T10:35:54.268Z</time></trkpt><trkpt lat="44.1813817" lon="11.69833"><ele>162.0</ele><time>2026-04-12T10:35:55.268Z</time></trkpt><trkpt lat="44.1814967" lon="11.6984833"><ele>162.0</ele><time>2026-04-12T10:35:56.267Z</time></trkpt><trkpt lat="44.1816167" lon="11.69862"><ele>162.0</ele><time>2026-04-12T10:35:57.267Z</time></trkpt><trkpt lat="44.1817383" lon="11.698745"><ele>162.0</ele><time>2026-04-12T10:35:58.267Z</time></trkpt><trkpt lat="44.1818617" lon="11.6988633"><ele>162.0</ele><time>2026-04-12T10:35:59.266Z</time></trkpt><trkpt lat="44.181985" lon="11.6989733"><ele>162.0</ele><time>2026-04-12T10:36:00.268Z</time></trkpt><trkpt lat="44.18211" lon="11.6990767"><ele>162.0</ele><time>2026-04-12T10:36:01.267Z</time></trkpt><trkpt lat="44.1822283" lon="11.69918"><ele>162.0</ele><time>2026-04-12T10:36:02.268Z</time></trkpt><trkpt lat="44.1823433" lon="11.6992783"><ele>162.0</ele><time>2026-04-12T10:36:03.267Z</time></trkpt><trkpt lat="44.1824567" lon="11.69938"><ele>162.0</ele><time>2026-04-12T10:36:04.266Z</time></trkpt><trkpt lat="44.182565" lon="11.6994767"><ele>162.0</ele><time>2026-04-12T10:36:05.267Z</time></trkpt><trkpt lat="44.1826667" lon="11.6995717"><ele>160.2</ele><time>2026-04-12T10:36:06.268Z</time></trkpt><trkpt lat="44.1827583" lon="11.69966"><ele>158.39999999999998</ele><time>2026-04-12T10:36:07.268Z</time></trkpt><trkpt lat="44.18284" lon="11.6997367"><ele>156.60000000000002</ele><time>2026-04-12T10:36:08.268Z</time></trkpt><trkpt lat="44.1829067" lon="11.699795"><ele>154.8</ele><time>2026-04-12T10:36:09.267Z</time></trkpt><trkpt lat="44.1829933" lon="11.6998883"><ele>153.0</ele><time>2026-04-12T10:36:11.268Z</time></trkpt><trkpt lat="44.1830283" lon="11.7000017"><ele>153.0</ele><time>2026-04-12T10:36:13.267Z</time></trkpt><trkpt lat="44.1830133" lon="11.7001433"><ele>153.0</ele><time>2026-04-12T10:36:15.267Z</time></trkpt><trkpt lat="44.18302" lon="11.700055"><ele>153.0</ele><time>2026-04-12T10:37:28.267Z</time></trkpt><trkpt lat="44.183055" lon="11.699975"><ele>153.0</ele><time>2026-04-12T10:37:31.267Z</time></trkpt><trkpt lat="44.18312" lon="11.6999783"><ele>153.0</ele><time>2026-04-12T10:37:35.267Z</time></trkpt><trkpt lat="44.1832117" lon="11.7000483"><ele>153.0</ele><time>2026-04-12T10:37:38.265Z</time></trkpt><trkpt lat="44.1832683" lon="11.70009"><ele>153.8</ele><time>2026-04-12T10:37:39.267Z</time></trkpt><trkpt lat="44.1833333" lon="11.7001433"><ele>154.60000000000002</ele><time>2026-04-12T10:37:40.266Z</time></trkpt><trkpt lat="44.1834133" lon="11.7002033"><ele>155.39999999999998</ele><time>2026-04-12T10:37:41.266Z</time></trkpt><trkpt lat="44.1835017" lon="11.7002783"><ele>156.2</ele><time>2026-04-12T10:37:42.267Z</time></trkpt><trkpt lat="44.1836033" lon="11.7003667"><ele>157.0</ele><time>2026-04-12T10:37:43.267Z</time></trkpt><trkpt lat="44.183725" lon="11.7004633"><ele>155.66666666666669</ele><time>2026-04-12T10:37:44.267Z</time></trkpt><trkpt lat="44.18386" lon="11.70057"><ele>154.33333333333334</ele><time>2026-04-12T10:37:45.267Z</time></trkpt><trkpt lat="44.1839983" lon="11.7006867"><ele>153.0</ele><time>2026-04-12T10:37:46.267Z</time></trkpt><trkpt lat="44.1841367" lon="11.7007983"><ele>153.0</ele><time>2026-04-12T10:37:47.266Z</time></trkpt><trkpt lat="44.18429" lon="11.7008933"><ele>153.0</ele><time>2026-04-12T10:37:48.267Z</time></trkpt><trkpt lat="44.1844633" lon="11.700955"><ele>153.0</ele><time>2026-04-12T10:37:49.267Z</time></trkpt><trkpt lat="44.1846483" lon="11.70098"><ele>152.0</ele><time>2026-04-12T10:37:50.267Z</time></trkpt><trkpt lat="44.1848467" lon="11.7009733"><ele>151.0</ele><time>2026-04-12T10:37:51.27Z</time></trkpt><trkpt lat="44.1850467" lon="11.7009533"><ele>150.0</ele><time>2026-04-12T10:37:52.266Z</time></trkpt><trkpt lat="44.1852417" lon="11.7009333"><ele>150.0</ele><time>2026-04-12T10:37:53.269Z</time></trkpt><trkpt lat="44.1854333" lon="11.7009367"><ele>150.0</ele><time>2026-04-12T10:37:54.265Z</time></trkpt><trkpt lat="44.1856233" lon="11.7009767"><ele>150.0</ele><time>2026-04-12T10:37:55.268Z</time></trkpt><trkpt lat="44.1858033" lon="11.7010567"><ele>147.0</ele><time>2026-04-12T10:37:56.266Z</time></trkpt><trkpt lat="44.1859767" lon="11.7011633"><ele>144.0</ele><time>2026-04-12T10:37:57.266Z</time></trkpt><trkpt lat="44.186145" lon="11.70128"><ele>141.0</ele><time>2026-04-12T10:37:58.266Z</time></trkpt><trkpt lat="44.1863067" lon="11.7014033"><ele>141.0</ele><time>2026-04-12T10:37:59.268Z</time></trkpt><trkpt lat="44.1864567" lon="11.7015333"><ele>141.0</ele><time>2026-04-12T10:38:00.266Z</time></trkpt><trkpt lat="44.1866017" lon="11.7016717"><ele>141.0</ele><time>2026-04-12T10:38:01.268Z</time></trkpt><trkpt lat="44.1867383" lon="11.7018267"><ele>142.0</ele><time>2026-04-12T10:38:02.265Z</time></trkpt><trkpt lat="44.186865" lon="11.701995"><ele>143.0</ele><time>2026-04-12T10:38:03.266Z</time></trkpt><trkpt lat="44.1869767" lon="11.7021783"><ele>144.0</ele><time>2026-04-12T10:38:04.266Z</time></trkpt><trkpt lat="44.18708" lon="11.7023783"><ele>144.0</ele><time>2026-04-12T10:38:05.267Z</time></trkpt><trkpt lat="44.1871783" lon="11.702585"><ele>144.0</ele><time>2026-04-12T10:38:06.269Z</time></trkpt><trkpt lat="44.1872717" lon="11.7027983"><ele>144.0</ele><time>2026-04-12T10:38:07.269Z</time></trkpt><trkpt lat="44.18736" lon="11.7030167"><ele>146.66666666666666</ele><time>2026-04-12T10:38:08.267Z</time></trkpt><trkpt lat="44.1874467" lon="11.7032383"><ele>149.33333333333331</ele><time>2026-04-12T10:38:09.269Z</time></trkpt><trkpt lat="44.1875317" lon="11.7034633"><ele>152.0</ele><time>2026-04-12T10:38:10.268Z</time></trkpt><trkpt lat="44.1876183" lon="11.7036867"><ele>152.66666666666666</ele><time>2026-04-12T10:38:11.269Z</time></trkpt><trkpt lat="44.187705" lon="11.7039083"><ele>153.33333333333334</ele><time>2026-04-12T10:38:12.268Z</time></trkpt><trkpt lat="44.1877967" lon="11.7041283"><ele>154.0</ele><time>2026-04-12T10:38:13.268Z</time></trkpt><trkpt lat="44.18789" lon="11.7043517"><ele>154.33333333333334</ele><time>2026-04-12T10:38:14.267Z</time></trkpt><trkpt lat="44.1879833" lon="11.7045783"><ele>154.66666666666666</ele><time>2026-04-12T10:38:15.268Z</time></trkpt><trkpt lat="44.188075" lon="11.70481"><ele>155.0</ele><time>2026-04-12T10:38:16.267Z</time></trkpt><trkpt lat="44.1881667" lon="11.7050417"><ele>156.33333333333331</ele><time>2026-04-12T10:38:17.268Z</time></trkpt><trkpt lat="44.1882483" lon="11.7052767"><ele>157.66666666666666</ele><time>2026-04-12T10:38:18.267Z</time></trkpt><trkpt lat="44.18833" lon="11.7055067"><ele>159.0</ele><time>2026-04-12T10:38:19.268Z</time></trkpt><trkpt lat="44.1884167" lon="11.705735"><ele>159.0</ele><time>2026-04-12T10:38:20.268Z</time></trkpt><trkpt lat="44.1885233" lon="11.70595"><ele>159.0</ele><time>2026-04-12T10:38:21.269Z</time></trkpt><trkpt lat="44.188635" lon="11.7061717"><ele>159.0</ele><time>2026-04-12T10:38:22.268Z</time></trkpt><trkpt lat="44.1887533" lon="11.7063917"><ele>158.33333333333334</ele><time>2026-04-12T10:38:23.268Z</time></trkpt><trkpt lat="44.1888667" lon="11.7066133"><ele>157.66666666666669</ele><time>2026-04-12T10:38:24.268Z</time></trkpt><trkpt lat="44.1889833" lon="11.7068383"><ele>157.0</ele><time>2026-04-12T10:38:25.268Z</time></trkpt><trkpt lat="44.1890967" lon="11.7070683"><ele>157.0</ele><time>2026-04-12T10:38:26.268Z</time></trkpt><trkpt lat="44.189195" lon="11.7073017"><ele>157.0</ele><time>2026-04-12T10:38:27.268Z</time></trkpt><trkpt lat="44.18929" lon="11.70753"><ele>157.0</ele><time>2026-04-12T10:38:28.268Z</time></trkpt><trkpt lat="44.1893917" lon="11.7077533"><ele>156.0</ele><time>2026-04-12T10:38:29.268Z</time></trkpt><trkpt lat="44.1895033" lon="11.707975"><ele>155.0</ele><time>2026-04-12T10:38:30.268Z</time></trkpt><trkpt lat="44.18962" lon="11.7081917"><ele>154.0</ele><time>2026-04-12T10:38:31.268Z</time></trkpt><trkpt lat="44.1897467" lon="11.7084117"><ele>153.33333333333334</ele><time>2026-04-12T10:38:32.268Z</time></trkpt><trkpt lat="44.1898717" lon="11.70862"><ele>152.66666666666666</ele><time>2026-04-12T10:38:33.268Z</time></trkpt><trkpt lat="44.1899933" lon="11.70882"><ele>152.0</ele><time>2026-04-12T10:38:34.267Z</time></trkpt><trkpt lat="44.1901283" lon="11.709005"><ele>152.0</ele><time>2026-04-12T10:38:35.268Z</time></trkpt><trkpt lat="44.1902783" lon="11.7091617"><ele>152.0</ele><time>2026-04-12T10:38:36.268Z</time></trkpt><trkpt lat="44.190435" lon="11.7093083"><ele>152.0</ele><time>2026-04-12T10:38:37.269Z</time></trkpt><trkpt lat="44.1905883" lon="11.7094567"><ele>150.0</ele><time>2026-04-12T10:38:38.269Z</time></trkpt><trkpt lat="44.1907317" lon="11.709615"><ele>148.0</ele><time>2026-04-12T10:38:39.266Z</time></trkpt><trkpt lat="44.1908717" lon="11.70978"><ele>146.0</ele><time>2026-04-12T10:38:40.268Z</time></trkpt><trkpt lat="44.1910083" lon="11.7099533"><ele>146.0</ele><time>2026-04-12T10:38:41.268Z</time></trkpt><trkpt lat="44.1911467" lon="11.7101233"><ele>146.0</ele><time>2026-04-12T10:38:42.268Z</time></trkpt><trkpt lat="44.1912933" lon="11.71028"><ele>146.0</ele><time>2026-04-12T10:38:43.267Z</time></trkpt><trkpt lat="44.1914483" lon="11.710415"><ele>143.66666666666666</ele><time>2026-04-12T10:38:44.268Z</time></trkpt><trkpt lat="44.1916067" lon="11.7105333"><ele>141.33333333333334</ele><time>2026-04-12T10:38:45.268Z</time></trkpt><trkpt lat="44.191765" lon="11.7106433"><ele>139.0</ele><time>2026-04-12T10:38:46.267Z</time></trkpt><trkpt lat="44.1919367" lon="11.71075"><ele>139.0</ele><time>2026-04-12T10:38:47.267Z</time></trkpt><trkpt lat="44.1921033" lon="11.7108583"><ele>139.0</ele><time>2026-04-12T10:38:48.268Z</time></trkpt><trkpt lat="44.1922717" lon="11.710975"><ele>139.0</ele><time>2026-04-12T10:38:49.267Z</time></trkpt><trkpt lat="44.1924383" lon="11.7110917"><ele>139.66666666666669</ele><time>2026-04-12T10:38:50.269Z</time></trkpt><trkpt lat="44.1926067" lon="11.7112117"><ele>140.33333333333334</ele><time>2026-04-12T10:38:51.268Z</time></trkpt><trkpt lat="44.1927733" lon="11.7113433"><ele>141.0</ele><time>2026-04-12T10:38:52.268Z</time></trkpt><trkpt lat="44.1929283" lon="11.71149"><ele>141.0</ele><time>2026-04-12T10:38:53.267Z</time></trkpt><trkpt lat="44.1930733" lon="11.7116567"><ele>141.0</ele><time>2026-04-12T10:38:54.269Z</time></trkpt><trkpt lat="44.193205" lon="11.71185"><ele>141.0</ele><time>2026-04-12T10:38:55.273Z</time></trkpt><trkpt lat="44.19333" lon="11.7120533"><ele>140.33333333333334</ele><time>2026-04-12T10:38:56.269Z</time></trkpt><trkpt lat="44.1934533" lon="11.7122617"><ele>139.66666666666669</ele><time>2026-04-12T10:38:57.267Z</time></trkpt><trkpt lat="44.19358" lon="11.71247"><ele>139.0</ele><time>2026-04-12T10:38:58.268Z</time></trkpt><trkpt lat="44.193705" lon="11.7126783"><ele>141.0</ele><time>2026-04-12T10:38:59.268Z</time></trkpt><trkpt lat="44.1938317" lon="11.7128833"><ele>143.0</ele><time>2026-04-12T10:39:00.268Z</time></trkpt><trkpt lat="44.19396" lon="11.7130883"><ele>145.0</ele><time>2026-04-12T10:39:01.267Z</time></trkpt><trkpt lat="44.19409" lon="11.7132933"><ele>145.0</ele><time>2026-04-12T10:39:02.269Z</time></trkpt><trkpt lat="44.1942183" lon="11.713495"><ele>145.0</ele><time>2026-04-12T10:39:03.268Z</time></trkpt><trkpt lat="44.1943483" lon="11.713695"><ele>145.0</ele><time>2026-04-12T10:39:04.267Z</time></trkpt><trkpt lat="44.1944717" lon="11.713895"><ele>140.66666666666669</ele><time>2026-04-12T10:39:05.267Z</time></trkpt><trkpt lat="44.194595" lon="11.7140917"><ele>136.33333333333334</ele><time>2026-04-12T10:39:06.269Z</time></trkpt><trkpt lat="44.1947117" lon="11.714285"><ele>132.0</ele><time>2026-04-12T10:39:07.267Z</time></trkpt><trkpt lat="44.1948233" lon="11.7144783"><ele>137.33333333333334</ele><time>2026-04-12T10:39:08.268Z</time></trkpt><trkpt lat="44.19493" lon="11.7146667"><ele>142.66666666666669</ele><time>2026-04-12T10:39:09.267Z</time></trkpt><trkpt lat="44.1950283" lon="11.714845"><ele>148.0</ele><time>2026-04-12T10:39:10.267Z</time></trkpt><trkpt lat="44.1951233" lon="11.7150117"><ele>148.0</ele><time>2026-04-12T10:39:11.268Z</time></trkpt><trkpt lat="44.19521" lon="11.7151767"><ele>148.0</ele><time>2026-04-12T10:39:12.268Z</time></trkpt><trkpt lat="44.1952983" lon="11.715335"><ele>148.0</ele><time>2026-04-12T10:39:13.267Z</time></trkpt><trkpt lat="44.1953733" lon="11.7154917"><ele>148.0</ele><time>2026-04-12T10:39:14.268Z</time></trkpt><trkpt lat="44.1954467" lon="11.7156517"><ele>147.5</ele><time>2026-04-12T10:39:15.27Z</time></trkpt><trkpt lat="44.19553" lon="11.7158083"><ele>147.0</ele><time>2026-04-12T10:39:16.268Z</time></trkpt><trkpt lat="44.1956283" lon="11.715965"><ele>146.5</ele><time>2026-04-12T10:39:17.268Z</time></trkpt><trkpt lat="44.1957333" lon="11.7161133"><ele>146.0</ele><time>2026-04-12T10:39:18.269Z</time></trkpt><trkpt lat="44.1958483" lon="11.7162617"><ele>146.0</ele><time>2026-04-12T10:39:19.268Z</time></trkpt><trkpt lat="44.1959717" lon="11.716405"><ele>146.0</ele><time>2026-04-12T10:39:20.268Z</time></trkpt><trkpt lat="44.1960983" lon="11.716555"><ele>146.0</ele><time>2026-04-12T10:39:21.268Z</time></trkpt><trkpt lat="44.1962217" lon="11.7167167"><ele>146.0</ele><time>2026-04-12T10:39:22.268Z</time></trkpt><trkpt lat="44.196335" lon="11.7168883"><ele>146.0</ele><time>2026-04-12T10:39:23.268Z</time></trkpt><trkpt lat="44.1964433" lon="11.71707"><ele>146.0</ele><time>2026-04-12T10:39:24.268Z</time></trkpt><trkpt lat="44.19654" lon="11.7172667"><ele>146.33333333333331</ele><time>2026-04-12T10:39:25.267Z</time></trkpt><trkpt lat="44.196625" lon="11.71747"><ele>146.66666666666666</ele><time>2026-04-12T10:39:26.269Z</time></trkpt><trkpt lat="44.1967" lon="11.7176833"><ele>147.0</ele><time>2026-04-12T10:39:27.268Z</time></trkpt><trkpt lat="44.196765" lon="11.717905"><ele>147.0</ele><time>2026-04-12T10:39:28.269Z</time></trkpt><trkpt lat="44.196835" lon="11.7181367"><ele>147.0</ele><time>2026-04-12T10:39:29.267Z</time></trkpt><trkpt lat="44.1968867" lon="11.7183717"><ele>147.0</ele><time>2026-04-12T10:39:30.268Z</time></trkpt><trkpt lat="44.1969317" lon="11.7186117"><ele>144.33333333333334</ele><time>2026-04-12T10:39:31.266Z</time></trkpt><trkpt lat="44.1969717" lon="11.7188583"><ele>141.66666666666669</ele><time>2026-04-12T10:39:32.268Z</time></trkpt><trkpt lat="44.1970183" lon="11.7191067"><ele>139.0</ele><time>2026-04-12T10:39:33.267Z</time></trkpt><trkpt lat="44.19708" lon="11.7193517"><ele>137.66666666666669</ele><time>2026-04-12T10:39:34.267Z</time></trkpt><trkpt lat="44.197155" lon="11.7195967"><ele>136.33333333333334</ele><time>2026-04-12T10:39:35.268Z</time></trkpt><trkpt lat="44.197235" lon="11.7198517"><ele>135.0</ele><time>2026-04-12T10:39:36.269Z</time></trkpt><trkpt lat="44.1973183" lon="11.7201083"><ele>137.0</ele><time>2026-04-12T10:39:37.269Z</time></trkpt><trkpt lat="44.1974033" lon="11.7203667"><ele>139.0</ele><time>2026-04-12T10:39:38.268Z</time></trkpt><trkpt lat="44.1974933" lon="11.7206283"><ele>141.0</ele><time>2026-04-12T10:39:39.267Z</time></trkpt><trkpt lat="44.1975767" lon="11.72089"><ele>140.66666666666666</ele><time>2026-04-12T10:39:40.267Z</time></trkpt><trkpt lat="44.1976633" lon="11.7211517"><ele>140.33333333333331</ele><time>2026-04-12T10:39:41.268Z</time></trkpt><trkpt lat="44.1977483" lon="11.7214117"><ele>140.0</ele><time>2026-04-12T10:39:42.269Z</time></trkpt><trkpt lat="44.1978367" lon="11.7216683"><ele>138.33333333333331</ele><time>2026-04-12T10:39:43.268Z</time></trkpt><trkpt lat="44.19793" lon="11.7219217"><ele>136.66666666666666</ele><time>2026-04-12T10:39:44.268Z</time></trkpt><trkpt lat="44.1980333" lon="11.72217"><ele>135.0</ele><time>2026-04-12T10:39:45.269Z</time></trkpt><trkpt lat="44.1981517" lon="11.7224117"><ele>134.66666666666666</ele><time>2026-04-12T10:39:46.269Z</time></trkpt><trkpt lat="44.1982667" lon="11.7226533"><ele>134.33333333333331</ele><time>2026-04-12T10:39:47.268Z</time></trkpt><trkpt lat="44.1983817" lon="11.7228933"><ele>134.0</ele><time>2026-04-12T10:39:48.268Z</time></trkpt><trkpt lat="44.198505" lon="11.7231367"><ele>134.0</ele><time>2026-04-12T10:39:49.268Z</time></trkpt><trkpt lat="44.1986233" lon="11.7233817"><ele>134.0</ele><time>2026-04-12T10:39:50.269Z</time></trkpt><trkpt lat="44.198745" lon="11.72362"><ele>134.0</ele><time>2026-04-12T10:39:51.269Z</time></trkpt><trkpt lat="44.1988667" lon="11.723855"><ele>133.33333333333331</ele><time>2026-04-12T10:39:52.268Z</time></trkpt><trkpt lat="44.1989917" lon="11.72409"><ele>132.66666666666666</ele><time>2026-04-12T10:39:53.267Z</time></trkpt><trkpt lat="44.199115" lon="11.72432"><ele>132.0</ele><time>2026-04-12T10:39:54.267Z</time></trkpt><trkpt lat="44.19924" lon="11.724545"><ele>133.33333333333334</ele><time>2026-04-12T10:39:55.268Z</time></trkpt><trkpt lat="44.1993683" lon="11.7247633"><ele>134.66666666666669</ele><time>2026-04-12T10:39:56.267Z</time></trkpt><trkpt lat="44.1995" lon="11.7249767"><ele>136.0</ele><time>2026-04-12T10:39:57.268Z</time></trkpt><trkpt lat="44.1996233" lon="11.725195"><ele>135.0</ele><time>2026-04-12T10:39:58.267Z</time></trkpt><trkpt lat="44.1997317" lon="11.7254217"><ele>134.0</ele><time>2026-04-12T10:39:59.269Z</time></trkpt><trkpt lat="44.199825" lon="11.7256633"><ele>133.0</ele><time>2026-04-12T10:40:00.267Z</time></trkpt><trkpt lat="44.19991" lon="11.7259133"><ele>133.0</ele><time>2026-04-12T10:40:01.269Z</time></trkpt><trkpt lat="44.2000033" lon="11.7261533"><ele>133.0</ele><time>2026-04-12T10:40:02.267Z</time></trkpt><trkpt lat="44.2000867" lon="11.7263917"><ele>133.0</ele><time>2026-04-12T10:40:03.268Z</time></trkpt><trkpt lat="44.2001817" lon="11.7266167"><ele>133.0</ele><time>2026-04-12T10:40:04.269Z</time></trkpt><trkpt lat="44.2002833" lon="11.7268317"><ele>133.0</ele><time>2026-04-12T10:40:05.268Z</time></trkpt><trkpt lat="44.200385" lon="11.7270333"><ele>133.0</ele><time>2026-04-12T10:40:06.268Z</time></trkpt><trkpt lat="44.2004883" lon="11.7272383"><ele>133.33333333333334</ele><time>2026-04-12T10:40:07.267Z</time></trkpt><trkpt lat="44.2005917" lon="11.7274417"><ele>133.66666666666666</ele><time>2026-04-12T10:40:08.267Z</time></trkpt><trkpt lat="44.2006967" lon="11.7276433"><ele>134.0</ele><time>2026-04-12T10:40:09.269Z</time></trkpt><trkpt lat="44.20079" lon="11.727845"><ele>133.33333333333331</ele><time>2026-04-12T10:40:10.267Z</time></trkpt><trkpt lat="44.2008767" lon="11.728045"><ele>132.66666666666666</ele><time>2026-04-12T10:40:11.268Z</time></trkpt><trkpt lat="44.20096" lon="11.7282367"><ele>132.0</ele><time>2026-04-12T10:40:12.267Z</time></trkpt><trkpt lat="44.20104" lon="11.7284183"><ele>130.0</ele><time>2026-04-12T10:40:13.268Z</time></trkpt><trkpt lat="44.2011183" lon="11.7285867"><ele>128.0</ele><time>2026-04-12T10:40:14.269Z</time></trkpt><trkpt lat="44.20121" lon="11.728725"><ele>126.0</ele><time>2026-04-12T10:40:15.268Z</time></trkpt><trkpt lat="44.2013067" lon="11.7288333"><ele>124.0</ele><time>2026-04-12T10:40:16.267Z</time></trkpt><trkpt lat="44.2014317" lon="11.7289067"><ele>125.0</ele><time>2026-04-12T10:40:17.269Z</time></trkpt><trkpt lat="44.2015683" lon="11.7289517"><ele>126.0</ele><time>2026-04-12T10:40:18.266Z</time></trkpt><trkpt lat="44.2017" lon="11.7289783"><ele>127.0</ele><time>2026-04-12T10:40:19.268Z</time></trkpt><trkpt lat="44.2018217" lon="11.7290033"><ele>128.0</ele><time>2026-04-12T10:40:20.267Z</time></trkpt><trkpt lat="44.20194" lon="11.729015"><ele>128.0</ele><time>2026-04-12T10:40:21.269Z</time></trkpt><trkpt lat="44.2020467" lon="11.7290283"><ele>128.0</ele><time>2026-04-12T10:40:22.268Z</time></trkpt><trkpt lat="44.2021417" lon="11.7290433"><ele>128.0</ele><time>2026-04-12T10:40:23.269Z</time></trkpt><trkpt lat="44.2022333" lon="11.7290633"><ele>128.0</ele><time>2026-04-12T10:40:24.267Z</time></trkpt><trkpt lat="44.2023183" lon="11.7290833"><ele>128.0</ele><time>2026-04-12T10:40:25.269Z</time></trkpt><trkpt lat="44.2023983" lon="11.7291033"><ele>128.14285714285714</ele><time>2026-04-12T10:40:26.268Z</time></trkpt><trkpt lat="44.2024833" lon="11.7291183"><ele>128.28571428571428</ele><time>2026-04-12T10:40:27.267Z</time></trkpt><trkpt lat="44.2025583" lon="11.72914"><ele>128.42857142857142</ele><time>2026-04-12T10:40:28.267Z</time></trkpt><trkpt lat="44.2026333" lon="11.729155"><ele>128.57142857142856</ele><time>2026-04-12T10:40:29.268Z</time></trkpt><trkpt lat="44.2027033" lon="11.7291733"><ele>128.71428571428572</ele><time>2026-04-12T10:40:30.267Z</time></trkpt><trkpt lat="44.202775" lon="11.7291867"><ele>128.85714285714283</ele><time>2026-04-12T10:40:31.267Z</time></trkpt><trkpt lat="44.2028383" lon="11.729195"><ele>129.0</ele><time>2026-04-12T10:40:32.267Z</time></trkpt><trkpt lat="44.2029267" lon="11.7291783"><ele>129.0</ele><time>2026-04-12T10:40:34.267Z</time></trkpt><trkpt lat="44.202995" lon="11.729125"><ele>129.0</ele><time>2026-04-12T10:40:36.266Z</time></trkpt><trkpt lat="44.2030383" lon="11.7290517"><ele>129.0</ele><time>2026-04-12T10:40:39.268Z</time></trkpt><trkpt lat="44.2833816" lon="11.8625258"><ele>43.0</ele><time>2026-04-12T15:38:50.863Z</time></trkpt></trkseg></trk></gpx>